# Wetter Temperatur Luftdruck Luftfeuchtigkeit Sichtweite Windgeschwindigkeit Windrichtung Zeit
1 Clear 22 1025 33 10000 3.1 80 19:55 12.07.2020
2 Clear 22 1025 33 10000 3.1 80 19:37 12.07.2020
3 Clear 22 1025 33 10000 3.1 80 19:18 12.07.2020
4 Clouds 23 1025 31 10000 4.6 20 18:42 12.07.2020
5 Clouds 23 1025 30 10000 1.5 360 18:20 12.07.2020
6 Clouds 22 1026 33 10000 3.1 60 17:58 12.07.2020
7 Clouds 22 1025 33 10000 4.1 50 17:37 12.07.2020
8 Clouds 23 1026 35 10000 4.6 30 17:19 12.07.2020
9 Clouds 23 1026 33 10000 3.6 70 16:45 12.07.2020
10 Clouds 22 1026 35 10000 4.6 30 16:21 12.07.2020
11 Clouds 22 1026 37 10000 4.6 80 15:45 12.07.2020
12 Clouds 22 1026 37 10000 4.6 80 15:26 12.07.2020
13 Clouds 21 1027 42 10000 2.6 30 14:56 12.07.2020
14 Clouds 21 1027 42 10000 2.6 30 14:38 12.07.2020
15 Clouds 21 1027 37 10000 2.6 20 14:18 12.07.2020
16 Clouds 21 1027 45 10000 5.1 360 13:39 12.07.2020
17 Clouds 21 1027 40 10000 3.1 20 13:20 12.07.2020
18 Clouds 20 1027 42 10000 2.1 70 12:54 12.07.2020
19 Clouds 21 1027 42 10000 2.6 60 12:36 12.07.2020
20 Clouds 20 1027 42 10000 2.6 60 12:18 12.07.2020
21 Clouds 20 1027 42 10000 2.6 60 12:18 12.07.2020
22 Clear 19 1027 45 10000 3.6 40 11:44 12.07.2020
23 Clear 19 1027 45 10000 3.6 40 11:20 12.07.2020
24 Clear 18 1027 59 10000 5.7 50 10:43 12.07.2020
25 Clear 18 1027 59 10000 5.7 50 10:23 12.07.2020
26 Clear 17 1027 67 10000 4.1 60 09:58 12.07.2020
27 Clear 16 1027 67 10000 4.1 60 09:40 12.07.2020
28 Clear 15 1027 67 10000 4.1 60 09:20 12.07.2020
29 Clear 13 1027 76 10000 1.5 80 08:54 12.07.2020
30 Clear 13 1027 67 10000 5.7 50 08:36 12.07.2020
31 Clear 13 1027 76 10000 1.5 80 08:18 12.07.2020
32 Clear 10 1026 87 10000 2.1 100 07:42 12.07.2020
33 Clear 10 1026 87 10000 2.1 100 07:21 12.07.2020
34 Clear 8 1026 87 10000 1.5 130 06:51 12.07.2020
35 Clear 8 1026 87 10000 1.5 130 06:21 12.07.2020
36 Clear 9 1026 87 10000 1.83 38 05:33 12.07.2020
37 Clear 9 1026 87 10000 1.5 80 04:56 12.07.2020
38 Clear 9 1026 87 10000 1.5 80 04:26 12.07.2020
39 Clear 10 1026 81 10000 2.1 70 03:34 12.07.2020
40 Clear 10 1026 81 10000 2.1 80 02:55 12.07.2020
41 Clear 11 1026 66 10000 2.1 60 01:46 12.07.2020
42 Clear 12 1026 71 10000 1.5 40 00:54 12.07.2020
43 Clear 12 1026 71 10000 1.5 40 00:24 12.07.2020
44 Clear 14 1026 62 10000 2.6 10 23:59 11.07.2020
45 Clear 14 1026 62 10000 5.7 30 23:40 11.07.2020
46 Clear 14 1026 62 10000 2.6 10 23:20 11.07.2020
47 Clouds 14 1026 67 10000 3.1 30 22:56 11.07.2020
48 Clouds 14 1026 67 10000 3.1 30 22:37 11.07.2020
49 Clouds 15 1025 62 10000 3.6 20 22:19 11.07.2020
50 Clouds 16 1025 51 10000 5.7 10 21:43 11.07.2020
51 Clouds 18 1025 45 10000 3.1 350 21:24 11.07.2020
52 Clear 18 1025 45 10000 2.1 10 20:59 11.07.2020
53 Clear 19 1025 45 10000 2.1 10 20:40 11.07.2020
54 Clear 19 1025 45 10000 2.1 10 20:21 11.07.2020
55 Clouds 20 1024 40 10000 2.6 30 19:59 11.07.2020
56 Clouds 20 1024 40 10000 2.6 30 19:40 11.07.2020
57 Clouds 20 1024 40 10000 2.6 30 19:22 11.07.2020
58 Clouds 19 1024 39 10000 2.1 340 18:56 11.07.2020
59 Clouds 19 1024 37 10000 4.1 350 18:38 11.07.2020
60 Clouds 20 1024 39 10000 2.1 340 18:19 11.07.2020
61 Clouds 20 1024 34 10000 2.6 340 17:55 11.07.2020
62 Clouds 20 1025 35 10000 4.1 310 17:37 11.07.2020
63 Clouds 20 1024 34 10000 2.6 340 17:19 11.07.2020
64 Clouds 19 1024 37 10000 2.1 320 16:43 11.07.2020
65 Clouds 20 1024 37 10000 2.1 320 16:24 11.07.2020
66 Clouds 19 1024 39 10000 3.4 325 15:58 11.07.2020
67 Clouds 19 1024 39 10000 3.4 325 15:40 11.07.2020
68 Clouds 19 1024 39 10000 2.85 322 15:20 11.07.2020
69 Clouds 19 1024 42 10000 2.6 290 14:57 11.07.2020
70 Clouds 19 1024 42 10000 2.6 290 14:37 11.07.2020
71 Clouds 19 1024 42 10000 2.6 290 14:19 11.07.2020
72 Clouds 18 1024 45 10000 2.38 334 13:43 11.07.2020
73 Clouds 18 1024 45 10000 3.6 340 13:22 11.07.2020
74 Clouds 18 1024 45 10000 1.5 290 12:58 11.07.2020
75 Clouds 18 1024 51 10000 2.1 320 12:40 11.07.2020
76 Clouds 18 1024 51 10000 2.1 320 12:20 11.07.2020
77 Clouds 17 1024 51 10000 2.1 350 11:56 11.07.2020
78 Clouds 17 1024 51 10000 2.1 350 11:38 11.07.2020
79 Clouds 16 1024 51 10000 2.1 350 11:18 11.07.2020
80 Clear 16 1024 71 10000 2.1 240 10:41 11.07.2020
81 Clear 15 1024 71 10000 2.1 240 10:23 11.07.2020
82 Clouds 15 1023 71 10000 1.81 31 09:45 11.07.2020
83 Clouds 14 1023 72 10000 1.69 28 09:21 11.07.2020
84 Clear 13 1023 87 10000 1.5 250 08:59 11.07.2020
85 Clear 13 1023 71 10000 2.6 360 08:37 11.07.2020
86 Clear 12 1023 87 10000 1.5 250 08:18 11.07.2020
87 Clear 11 1022 93 10000 1.37 17 07:41 11.07.2020
88 Clear 11 1022 93 10000 1.25 13 07:20 11.07.2020
89 Clear 9 1022 93 10000 1.25 13 06:56 11.07.2020
90 Clear 9 1022 93 10000 1.35 356 06:22 11.07.2020
91 Clear 10 1021 87 10000 1.57 6 05:22 11.07.2020
92 Clear 10 1021 93 10000 2.1 350 04:55 11.07.2020
93 Clear 10 1021 93 10000 2.1 350 04:33 11.07.2020
94 Clear 11 1021 87 10000 2.1 360 03:32 11.07.2020
95 Clouds 12 1021 81 10000 1.51 353 02:40 11.07.2020
96 Clouds 13 1020 76 10000 1.5 360 01:51 11.07.2020
97 Clouds 13 1020 76 10000 1.5 360 01:19 11.07.2020
98 Clouds 14 1020 76 10000 4.1 350 00:41 11.07.2020
99 Clouds 14 1020 76 10000 1.5 350 00:22 11.07.2020
100 Clouds 14 1019 72 10000 1.5 350 23:58 10.07.2020
101 Clouds 14 1019 76 10000 4.6 340 23:40 10.07.2020
102 Clouds 14 1019 72 10000 1.5 350 23:20 10.07.2020
103 Clouds 15 1018 72 10000 2.1 360 22:47 10.07.2020
104 Clouds 15 1018 72 10000 1.5 10 22:23 10.07.2020
105 Clouds 16 1018 72 10000 3.6 360 21:59 10.07.2020
106 Clouds 16 1018 72 10000 3.6 360 21:38 10.07.2020
107 Clouds 16 1018 72 10000 3.6 360 21:19 10.07.2020
108 Rain 17 1017 67 10000 2.6 320 20:43 10.07.2020
109 Rain 17 1017 67 10000 2.6 320 20:24 10.07.2020
110 Rain 18 1017 63 10000 3.6 310 19:59 10.07.2020
111 Rain 17 1017 77 10000 3.1 310 19:41 10.07.2020
112 Clouds 19 1016 55 10000 2.6 230 19:21 10.07.2020
113 Clouds 19 1016 63 10000 1.5 260 18:55 10.07.2020
114 Clouds 18 1016 68 10000 2.6 260 18:37 10.07.2020
115 Clouds 18 1016 68 10000 2.6 260 18:18 10.07.2020
116 Drizzle 18 1016 63 10000 2.1 260 17:42 10.07.2020
117 Clouds 18 1016 63 10000 2.1 280 17:23 10.07.2020
118 Clouds 19 1016 63 10000 3.6 270 16:57 10.07.2020
119 Clouds 19 1016 63 10000 3.6 270 16:39 10.07.2020
120 Clouds 19 1016 63 10000 3.6 270 16:18 10.07.2020
121 Clouds 18 1016 82 10000 2.6 250 15:44 10.07.2020
122 Clouds 17 1016 77 10000 3.6 240 15:21 10.07.2020
123 Rain 18 1016 87 8000 5.1 280 14:54 10.07.2020
124 Rain 19 1016 87 8000 5.1 280 14:36 10.07.2020
125 Rain 19 1015 72 10000 6.2 280 14:18 10.07.2020
126 Clouds 19 1014 68 10000 5.7 270 13:55 10.07.2020
127 Clouds 19 1014 68 10000 5.7 270 13:36 10.07.2020
128 Clouds 19 1014 68 10000 5.7 270 13:18 10.07.2020
129 Clouds 18 1014 82 10000 6.7 250 12:43 10.07.2020
130 Rain 18 1014 88 10000 6.2 230 12:24 10.07.2020
131 Clouds 18 1013 72 10000 6.2 230 11:59 10.07.2020
132 Rain 18 1013 82 10000 5.7 260 11:38 10.07.2020
133 Drizzle 18 1013 77 10000 6.2 260 11:19 10.07.2020
134 Rain 17 1012 87 10000 6.2 250 10:55 10.07.2020
135 Rain 17 1012 87 10000 6.2 250 10:36 10.07.2020
136 Clouds 18 1012 72 10000 5.7 250 10:18 10.07.2020
137 Clouds 18 1012 72 10000 5.7 250 09:38 10.07.2020
138 Clouds 17 1012 72 10000 5.1 230 09:19 10.07.2020
139 Clouds 17 1012 72 10000 6.2 260 08:57 10.07.2020
140 Clouds 17 1012 72 10000 6.2 260 08:39 10.07.2020
141 Clouds 17 1011 82 10000 4.1 250 08:21 10.07.2020
142 Clouds 16 1012 77 10000 4.6 250 07:42 10.07.2020
143 Clouds 16 1011 87 10000 3.1 270 07:22 10.07.2020
144 Clouds 16 1011 82 10000 2.6 270 06:51 10.07.2020
145 Clouds 16 1011 82 10000 2.6 270 06:27 10.07.2020
146 Clear 16 1010 77 10000 2.1 280 05:19 10.07.2020
147 Clear 18 1011 68 10000 2.6 300 03:42 10.07.2020
148 Clouds 18 1011 68 10000 1 270 02:53 10.07.2020
149 Clouds 19 1012 63 10000 2.71 195 01:53 10.07.2020
150 Clouds 19 1012 60 10000 2.44 181 00:53 10.07.2020
151 Clouds 19 1012 60 10000 2.18 179 00:22 10.07.2020
152 Clouds 20 1013 56 10000 2.18 179 23:55 09.07.2020
153 Clear 20 1013 56 10000 2.1 180 23:37 09.07.2020
154 Clear 20 1013 53 10000 1 190 23:18 09.07.2020
155 Clouds 21 1013 49 10000 2.05 191 22:56 09.07.2020
156 Clear 21 1013 49 10000 2.1 160 22:38 09.07.2020
157 Clear 23 1013 47 10000 1.5 230 22:19 09.07.2020
158 Clear 23 1013 44 10000 2.6 250 21:39 09.07.2020
159 Clouds 24 1013 47 10000 3.6 240 21:20 09.07.2020
160 Clouds 25 1013 41 10000 3.6 250 20:59 09.07.2020
161 Clear 25 1013 41 10000 5.7 250 20:40 09.07.2020
162 Clouds 25 1013 41 10000 3.6 250 20:22 09.07.2020
163 Clear 25 1013 41 10000 3.48 250 19:43 09.07.2020
164 Clear 26 1013 41 10000 4.7 254 19:22 09.07.2020
165 Clouds 26 1014 41 10000 3.6 240 18:58 09.07.2020
166 Clear 27 1014 36 10000 6.7 240 18:40 09.07.2020
167 Clouds 27 1014 41 10000 3.6 240 18:19 09.07.2020
168 Clouds 27 1014 39 10000 4.1 230 17:43 09.07.2020
169 Clear 26 1015 39 10000 7.2 260 17:23 09.07.2020
170 Clouds 26 1015 44 10000 4.1 220 16:58 09.07.2020
171 Clear 26 1015 44 10000 6.7 230 16:38 09.07.2020
172 Clouds 26 1015 44 10000 4.1 220 16:19 09.07.2020
173 Clouds 26 1015 47 10000 4.6 230 15:59 09.07.2020
174 Clouds 26 1015 47 10000 4.6 230 15:38 09.07.2020
175 Clouds 25 1015 44 10000 4.1 230 15:20 09.07.2020
176 Clouds 25 1015 47 10000 6.7 230 14:58 09.07.2020
177 Clouds 25 1016 50 10000 5.7 250 14:40 09.07.2020
178 Clouds 25 1015 47 10000 6.7 230 14:21 09.07.2020
179 Clouds 25 1016 50 10000 8.2 240 13:56 09.07.2020
180 Clouds 24 1016 50 10000 6.7 240 13:38 09.07.2020
181 Clouds 24 1016 50 10000 8.2 240 13:19 09.07.2020
182 Clouds 23 1016 68 10000 7.2 230 12:42 09.07.2020
183 Clouds 22 1016 68 10000 7.2 230 12:24 09.07.2020
184 Clouds 22 1016 68 10000 7.2 230 12:24 09.07.2020
185 Clouds 21 1016 77 10000 6.7 210 11:59 09.07.2020
186 Clouds 20 1016 64 10000 6.7 240 11:41 09.07.2020
187 Clouds 20 1016 77 10000 6.7 210 11:22 09.07.2020
188 Clouds 19 1016 82 10000 5.7 230 10:58 09.07.2020
189 Clouds 19 1016 82 10000 5.7 230 10:40 09.07.2020
190 Clouds 18 1016 88 10000 5.1 220 10:21 09.07.2020
191 Clouds 18 1016 93 10000 5.1 230 09:44 09.07.2020
192 Clouds 17 1016 93 10000 5.1 230 09:24 09.07.2020
193 Clouds 16 1017 100 10000 5.1 240 08:56 09.07.2020
194 Clouds 16 1017 88 10000 3.6 240 08:37 09.07.2020
195 Clouds 16 1017 100 10000 5.1 240 08:18 09.07.2020
196 Clouds 15 1017 100 10000 3.6 230 07:45 09.07.2020
197 Clouds 15 1016 100 10000 4.1 230 07:22 09.07.2020
198 Clouds 15 1017 100 10000 3.1 230 06:41 09.07.2020
199 Clouds 14 1017 100 10000 3.1 230 06:19 09.07.2020
200 Clouds 14 1016 100 10000 3.6 230 04:29 09.07.2020
201 Clouds 15 1017 100 10000 3.1 220 03:25 09.07.2020
202 Clouds 15 1017 100 10000 2.6 220 02:19 09.07.2020
203 Clouds 15 1017 100 10000 2.6 220 01:32 09.07.2020
204 Clouds 15 1017 100 10000 2.6 220 01:32 09.07.2020
205 Clouds 16 1017 100 10000 2.6 220 00:47 09.07.2020
206 Clouds 16 1017 100 10000 2.6 210 00:23 09.07.2020
207 Clouds 16 1017 100 10000 2.6 230 23:46 08.07.2020
208 Clouds 16 1017 100 10000 2.6 220 23:27 08.07.2020
209 Clouds 16 1017 100 10000 3.1 220 22:58 08.07.2020
210 Clouds 16 1017 100 10000 3.1 220 22:39 08.07.2020
211 Clouds 16 1017 100 10000 3.1 220 22:21 08.07.2020
212 Clouds 16 1017 100 10000 2.6 220 21:58 08.07.2020
213 Clouds 16 1017 100 10000 2.6 220 21:58 08.07.2020
214 Rain 16 1018 88 10000 4.1 260 21:38 08.07.2020
215 Clouds 16 1017 100 10000 2.6 220 21:20 08.07.2020
216 Clouds 16 1017 100 10000 3.6 220 20:54 08.07.2020
217 Drizzle 16 1018 88 10000 3.6 300 20:36 08.07.2020
218 Clouds 16 1017 100 10000 2.6 220 20:18 08.07.2020
219 Clouds 16 1017 100 10000 2.6 220 19:42 08.07.2020
220 Rain 16 1017 100 10000 2.6 230 19:22 08.07.2020
221 Drizzle 16 1017 100 10000 3.6 230 18:57 08.07.2020
222 Drizzle 16 1017 100 10000 3.6 230 18:39 08.07.2020
223 Clouds 16 1018 100 10000 4.6 230 18:19 08.07.2020
224 Clouds 16 1018 100 10000 4.6 230 18:19 08.07.2020
225 Clouds 16 1018 100 10000 3.6 230 17:55 08.07.2020
226 Clouds 16 1018 100 10000 3.6 230 17:37 08.07.2020
227 Rain 16 1018 100 10000 3.1 230 17:19 08.07.2020
228 Drizzle 15 1018 100 10000 4.6 250 16:40 08.07.2020
229 Rain 16 1018 100 6000 3.6 240 16:22 08.07.2020
230 Mist 17 1018 93 5000 3.6 250 15:59 08.07.2020
231 Rain 17 1018 93 5000 3.6 250 15:41 08.07.2020
232 Rain 17 1017 93 8000 4.1 260 15:20 08.07.2020
233 Drizzle 17 1017 77 10000 2.6 270 14:58 08.07.2020
234 Drizzle 17 1017 77 10000 2.6 270 14:40 08.07.2020
235 Clouds 17 1017 72 10000 2.6 250 14:19 08.07.2020
236 Clouds 18 1017 63 10000 4.6 250 13:44 08.07.2020
237 Clouds 17 1017 63 10000 4.6 250 13:23 08.07.2020
238 Clouds 16 1017 67 10000 4.6 220 12:46 08.07.2020
239 Clouds 15 1017 67 10000 4.6 220 12:22 08.07.2020
240 Clouds 15 1017 67 10000 4.6 260 11:59 08.07.2020
241 Clouds 15 1017 67 10000 4.6 260 11:38 08.07.2020
242 Clouds 15 1017 67 10000 4.6 260 11:38 08.07.2020
243 Clouds 15 1017 62 10000 4.6 220 11:20 08.07.2020
244 Clouds 15 1017 62 10000 4.6 230 10:55 08.07.2020
245 Clouds 15 1017 62 10000 4.6 230 10:36 08.07.2020
246 Clouds 15 1017 62 10000 4.6 230 10:18 08.07.2020
247 Clouds 15 1017 62 10000 4.6 250 09:41 08.07.2020
248 Clouds 14 1017 67 10000 3.1 230 09:23 08.07.2020
249 Clouds 14 1017 67 10000 3.6 230 08:43 08.07.2020
250 Clouds 14 1016 67 10000 3.6 230 08:24 08.07.2020
251 Clouds 13 1016 67 10000 4.1 230 07:48 08.07.2020
252 Clouds 13 1016 67 10000 4.1 230 07:24 08.07.2020
253 Clouds 14 1016 71 10000 3.1 220 06:56 08.07.2020
254 Clouds 14 1017 71 10000 2.6 230 06:37 08.07.2020
255 Clouds 13 1017 71 10000 2.6 230 06:19 08.07.2020
256 Clouds 13 1017 71 10000 2.6 240 05:33 08.07.2020
257 Clouds 13 1017 71 10000 3.1 250 04:38 08.07.2020
258 Clouds 13 1018 67 10000 1.4 238 02:55 08.07.2020
259 Clouds 12 1018 62 10000 2.06 211 01:57 08.07.2020
260 Clouds 12 1018 71 10000 2.6 240 01:37 08.07.2020
261 Clouds 13 1019 67 10000 1.5 230 00:39 08.07.2020
262 Clear 13 1018 62 10000 1.5 230 00:19 08.07.2020
263 Clouds 14 1018 62 10000 1.5 220 23:41 07.07.2020
264 Clouds 15 1018 59 10000 2.05 229 23:21 07.07.2020
265 Clouds 15 1018 59 10000 2.05 229 23:21 07.07.2020
266 Clouds 15 1019 55 10000 2.05 229 22:54 07.07.2020
267 Clouds 15 1019 55 10000 2.05 229 22:36 07.07.2020
268 Clear 16 1018 55 10000 1.85 233 22:18 07.07.2020
269 Clouds 17 1019 45 10000 3.6 270 21:41 07.07.2020
270 Clouds 17 1019 45 10000 3.6 270 21:41 07.07.2020
271 Clouds 18 1019 48 10000 2.1 230 21:22 07.07.2020
272 Clouds 19 1018 45 10000 3.6 240 20:59 07.07.2020
273 Clouds 19 1018 45 10000 3.6 240 20:41 07.07.2020
274 Clouds 20 1019 45 10000 3.1 230 20:23 07.07.2020
275 Clouds 20 1019 42 10000 4.6 260 19:55 07.07.2020
276 Clouds 19 1019 42 10000 4.6 260 19:37 07.07.2020
277 Clouds 20 1019 42 10000 4.6 260 19:19 07.07.2020
278 Clouds 20 1019 40 10000 4.1 270 18:55 07.07.2020
279 Clouds 20 1019 37 10000 4.1 260 18:37 07.07.2020
280 Clouds 20 1019 40 10000 4.1 270 18:18 07.07.2020
281 Clouds 20 1019 37 10000 3.6 220 17:44 07.07.2020
282 Clouds 21 1020 37 10000 3.6 250 17:23 07.07.2020
283 Clouds 21 1020 35 10000 4.6 270 16:59 07.07.2020
284 Clouds 20 1020 35 10000 4.6 270 16:40 07.07.2020
285 Clouds 19 1020 42 10000 3.1 220 16:22 07.07.2020
286 Clouds 19 1020 42 10000 3.1 260 15:55 07.07.2020
287 Clouds 19 1020 42 10000 3.1 260 15:37 07.07.2020
288 Clouds 19 1021 42 10000 3.6 250 15:18 07.07.2020
289 Clouds 19 1021 42 10000 3.1 270 14:42 07.07.2020
290 Clouds 19 1021 42 10000 3.1 270 14:24 07.07.2020
291 Clouds 19 1021 45 10000 3.1 220 13:43 07.07.2020
292 Clouds 17 1021 45 10000 3.1 220 13:20 07.07.2020
293 Clouds 18 1022 51 10000 4.1 240 12:57 07.07.2020
294 Clouds 18 1022 51 10000 4.1 240 12:37 07.07.2020
295 Clouds 17 1022 51 10000 4.1 240 12:18 07.07.2020
296 Clouds 16 1022 59 10000 1.5 250 11:43 07.07.2020
297 Clouds 18 1022 59 10000 1.5 250 11:22 07.07.2020
298 Clear 17 1022 62 10000 1.52 273 10:58 07.07.2020
299 Clear 16 1022 62 10000 1.52 273 10:40 07.07.2020
300 Clear 16 1022 62 10000 0.6 250 10:21 07.07.2020
301 Clear 15 1022 71 10000 0.6 250 09:54 07.07.2020
302 Clear 14 1022 71 10000 0.6 250 09:36 07.07.2020
303 Clear 13 1022 71 10000 0.38 254 09:18 07.07.2020
304 Clear 12 1022 71 10000 0.5 0 08:39 07.07.2020
305 Clear 11 1022 71 10000 0.18 223 08:19 07.07.2020
306 Clear 10 1022 81 10000 0.18 223 07:38 07.07.2020
307 Clear 9 1022 81 10000 0.3 152 07:20 07.07.2020
308 Clear 7 1022 81 10000 0.3 152 06:48 07.07.2020
309 Clear 7 1022 81 10000 0.21 122 06:27 07.07.2020
310 Clear 7 1022 81 10000 0.21 122 05:47 07.07.2020
311 Clear 8 1022 76 10000 0.37 12 04:59 07.07.2020
312 Clear 8 1022 76 10000 0.59 335 04:25 07.07.2020
313 Clear 8 1022 81 10000 0.59 335 03:34 07.07.2020
314 Clear 9 1022 76 10000 0.59 288 02:18 07.07.2020
315 Clear 10 1022 66 10000 0.55 289 01:21 07.07.2020
316 Clear 10 1023 71 10000 2.6 330 00:42 07.07.2020
317 Clear 11 1022 66 10000 0.69 298 00:23 07.07.2020
318 Clear 11 1022 66 10000 0.69 298 00:23 07.07.2020
319 Clear 12 1022 62 10000 0.69 298 23:45 06.07.2020
320 Clear 12 1022 62 10000 1.44 292 23:26 06.07.2020
321 Clear 13 1021 58 10000 1.5 260 22:59 06.07.2020
322 Clear 13 1022 58 10000 2.6 320 22:40 06.07.2020
323 Clear 14 1021 58 10000 1.5 260 22:19 06.07.2020
324 Clear 15 1021 48 10000 3.1 290 21:57 06.07.2020
325 Clear 15 1021 58 10000 3.1 310 21:37 06.07.2020
326 Clear 16 1021 48 10000 3.1 290 21:19 06.07.2020
327 Clouds 17 1020 48 10000 2.6 300 20:57 06.07.2020
328 Clear 16 1021 55 10000 3.1 340 20:37 06.07.2020
329 Clouds 17 1020 48 10000 2.6 300 20:19 06.07.2020
330 Clouds 17 1020 45 10000 4.1 270 19:56 06.07.2020
331 Clouds 17 1020 45 10000 4.1 270 19:37 06.07.2020
332 Clouds 18 1020 45 10000 4.1 270 19:18 06.07.2020
333 Clouds 17 1020 48 10000 4.6 290 18:41 06.07.2020
334 Clouds 18 1019 48 10000 2.1 320 18:23 06.07.2020
335 Clouds 18 1019 39 10000 4.6 260 17:59 06.07.2020
336 Clouds 17 1019 39 10000 4.6 260 17:41 06.07.2020
337 Clouds 17 1019 39 10000 4.6 260 17:41 06.07.2020
338 Clouds 18 1019 42 10000 5.1 250 17:20 06.07.2020
339 Clouds 18 1019 48 10000 7.7 250 16:55 06.07.2020
340 Clouds 17 1019 48 10000 7.7 250 16:37 06.07.2020
341 Clouds 17 1019 48 10000 7.7 250 16:18 06.07.2020
342 Rain 17 1019 45 10000 5.1 270 15:42 06.07.2020
343 Clouds 18 1018 39 10000 7.2 240 15:24 06.07.2020
344 Clouds 17 1018 45 10000 5.7 260 14:56 06.07.2020
345 Clouds 17 1018 45 10000 5.7 260 14:37 06.07.2020
346 Clouds 17 1018 48 10000 5.1 240 14:19 06.07.2020
347 Clouds 17 1018 45 10000 8.2 240 13:48 06.07.2020
348 Clouds 17 1018 45 10000 8.2 240 13:28 06.07.2020
349 Clouds 15 1018 51 10000 5.1 250 12:58 06.07.2020
350 Clouds 16 1018 51 10000 5.1 250 12:39 06.07.2020
351 Clouds 15 1018 51 10000 5.1 250 12:18 06.07.2020
352 Clouds 14 1017 54 10000 6.2 240 11:57 06.07.2020
353 Clouds 14 1018 58 10000 6.2 270 11:37 06.07.2020
354 Clouds 14 1018 62 10000 6.7 250 11:19 06.07.2020
355 Clouds 14 1017 58 10000 5.1 260 10:43 06.07.2020
356 Clouds 14 1017 62 10000 4.6 270 10:22 06.07.2020
357 Clouds 13 1017 66 10000 4.6 260 09:59 06.07.2020
358 Clouds 13 1017 66 10000 4.6 260 09:41 06.07.2020
359 Clouds 12 1017 66 10000 4.6 250 09:21 06.07.2020
360 Clouds 12 1016 76 10000 5.1 240 08:55 06.07.2020
361 Clouds 12 1017 76 10000 5.7 260 08:37 06.07.2020
362 Clouds 11 1016 76 10000 3.6 240 08:19 06.07.2020
363 Clouds 11 1016 76 10000 3.6 240 08:19 06.07.2020
364 Clouds 11 1016 76 10000 3.6 230 07:43 06.07.2020
365 Clouds 11 1016 76 10000 3.1 230 07:23 06.07.2020
366 Clouds 11 1016 76 10000 3.6 230 06:42 06.07.2020
367 Clouds 11 1016 76 10000 3.6 230 06:42 06.07.2020
368 Clouds 10 1016 76 10000 4.1 230 06:23 06.07.2020
369 Clouds 11 1015 76 10000 4.1 230 05:41 06.07.2020
370 Clear 11 1015 76 10000 5.1 250 05:19 06.07.2020
371 Clear 14 1015 67 10000 5.7 270 03:44 06.07.2020
372 Clouds 16 1014 82 10000 4.1 260 02:24 06.07.2020
373 Clouds 17 1014 82 10000 3.6 270 01:42 06.07.2020
374 Clouds 18 1014 88 10000 3.1 250 00:39 06.07.2020
375 Clouds 18 1014 88 10000 3.1 250 00:20 06.07.2020
376 Clouds 18 1014 82 10000 4.1 220 23:44 05.07.2020
377 Clouds 18 1014 82 10000 4.1 220 23:26 05.07.2020
378 Clear 19 1014 77 10000 3.1 220 22:59 05.07.2020
379 Clouds 19 1015 77 10000 3.6 230 22:41 05.07.2020
380 Clear 19 1014 77 10000 3.1 220 22:20 05.07.2020
381 Clear 19 1014 77 10000 3.1 220 22:20 05.07.2020
382 Clouds 19 1014 77 10000 6.2 210 21:58 05.07.2020
383 Clouds 19 1015 73 10000 5.1 230 21:40 05.07.2020
384 Clouds 19 1014 77 10000 6.2 210 21:18 05.07.2020
385 Clouds 20 1015 73 10000 7.2 230 20:58 05.07.2020
386 Clouds 20 1015 73 10000 3.6 230 20:39 05.07.2020
387 Clouds 20 1015 73 10000 7.2 230 20:20 05.07.2020
388 Clouds 20 1015 73 10000 7.2 230 20:20 05.07.2020
389 Clouds 20 1015 82 10000 6.7 220 19:55 05.07.2020
390 Clouds 21 1015 73 10000 6.7 230 19:36 05.07.2020
391 Clouds 21 1015 73 10000 6.7 230 19:18 05.07.2020
392 Drizzle 21 1016 68 10000 8.2 260 18:41 05.07.2020
393 Clouds 21 1015 64 10000 8.2 230 18:21 05.07.2020
394 Clouds 22 1015 68 10000 7.2 220 17:56 05.07.2020
395 Clouds 22 1016 60 10000 6.7 230 17:38 05.07.2020
396 Clouds 22 1015 68 10000 7.2 220 17:19 05.07.2020
397 Clouds 22 1015 64 10000 6.7 220 16:44 05.07.2020
398 Clouds 22 1015 64 10000 7.7 220 16:25 05.07.2020
399 Clouds 21 1015 64 10000 7.7 220 15:58 05.07.2020
400 Clouds 22 1015 64 10000 7.7 220 15:37 05.07.2020
401 Clouds 22 1015 64 10000 9.3 200 15:19 05.07.2020
402 Clouds 21 1015 69 10000 8.7 190 14:42 05.07.2020
403 Clouds 22 1016 64 10000 8.7 220 14:23 05.07.2020
404 Clouds 21 1016 68 10000 8.2 220 13:55 05.07.2020
405 Clouds 21 1016 68 10000 8.2 220 13:37 05.07.2020
406 Clouds 20 1016 77 10000 8.7 210 13:19 05.07.2020
407 Drizzle 19 1016 82 10000 8.7 220 12:39 05.07.2020
408 Rain 18 1016 77 10000 9.3 210 12:20 05.07.2020
409 Clouds 19 1016 88 10000 8.2 240 11:55 05.07.2020
410 Clouds 19 1016 88 10000 8.2 240 11:36 05.07.2020
411 Clouds 19 1016 88 10000 8.2 240 11:18 05.07.2020
412 Drizzle 18 1017 88 10000 5.1 240 10:42 05.07.2020
413 Clouds 19 1016 88 10000 6.7 230 10:20 05.07.2020
414 Clouds 18 1016 88 10000 8.2 220 09:59 05.07.2020
415 Clouds 18 1016 88 10000 8.2 220 09:41 05.07.2020
416 Clouds 17 1016 88 10000 8.2 220 09:20 05.07.2020
417 Clouds 17 1016 100 10000 5.1 210 08:53 05.07.2020
418 Clouds 18 1016 93 10000 5.1 220 08:34 05.07.2020
419 Rain 18 1016 93 10000 7.7 220 07:51 05.07.2020
420 Clouds 18 1016 88 10000 6.2 210 07:30 05.07.2020
421 Clouds 17 1016 82 10000 6.2 230 06:54 05.07.2020
422 Clouds 18 1016 82 10000 7.2 220 06:20 05.07.2020
423 Clouds 18 1016 77 10000 7.7 220 03:54 05.07.2020
424 Clouds 18 1017 77 10000 4.6 220 02:57 05.07.2020
425 Clouds 18 1017 72 10000 6.7 240 02:33 05.07.2020
426 Clouds 18 1017 77 10000 6.2 210 01:43 05.07.2020
427 Clouds 18 1017 77 10000 6.2 210 01:20 05.07.2020
428 Clouds 19 1017 77 10000 6.7 220 00:45 05.07.2020
429 Clouds 19 1017 72 10000 6.2 220 00:26 05.07.2020
430 Clouds 18 1018 72 10000 4.1 220 23:55 04.07.2020
431 Clouds 18 1018 72 10000 4.1 220 23:32 04.07.2020
432 Clouds 18 1017 72 10000 6.2 230 22:59 04.07.2020
433 Clouds 19 1017 72 10000 6.2 230 22:40 04.07.2020
434 Clouds 19 1017 64 10000 7.2 220 22:22 04.07.2020
435 Clouds 19 1017 64 10000 5.7 220 21:58 04.07.2020
436 Clouds 19 1018 68 10000 7.7 240 21:40 04.07.2020
437 Clouds 20 1017 64 10000 5.7 220 21:22 04.07.2020
438 Clouds 20 1018 60 10000 5.1 220 20:42 04.07.2020
439 Clouds 20 1017 60 10000 6.7 220 20:21 04.07.2020
440 Clouds 20 1017 52 10000 8.7 220 19:57 04.07.2020
441 Clouds 20 1018 56 10000 5.7 230 19:39 04.07.2020
442 Clouds 21 1018 52 10000 8.7 220 19:20 04.07.2020
443 Clouds 21 1018 56 10000 5.7 220 18:44 04.07.2020
444 Clouds 22 1018 56 10000 5.7 220 18:23 04.07.2020
445 Clouds 22 1018 52 10000 5.7 220 17:56 04.07.2020
446 Clouds 22 1018 52 10000 5.7 220 17:38 04.07.2020
447 Clouds 22 1018 52 10000 5.7 220 17:19 04.07.2020
448 Clouds 21 1018 49 10000 9.8 200 16:56 04.07.2020
449 Clouds 21 1019 52 10000 6.2 230 16:36 04.07.2020
450 Clouds 22 1018 49 10000 9.8 200 16:18 04.07.2020
451 Clouds 22 1019 52 10000 6.2 210 15:41 04.07.2020
452 Clouds 22 1018 46 10000 7.2 220 15:23 04.07.2020
453 Clouds 21 1018 52 10000 7.2 220 14:58 04.07.2020
454 Clouds 20 1019 52 10000 5.7 220 14:37 04.07.2020
455 Clouds 21 1018 52 10000 7.2 220 14:18 04.07.2020
456 Clouds 21 1018 52 10000 7.2 220 14:18 04.07.2020
457 Clouds 22 1018 49 10000 8.2 210 13:56 04.07.2020
458 Clouds 21 1019 52 10000 7.7 210 13:36 04.07.2020
459 Clouds 20 1019 52 10000 7.7 210 13:18 04.07.2020
460 Clouds 21 1018 52 10000 8.7 200 12:40 04.07.2020
461 Clouds 20 1018 52 10000 8.7 200 12:20 04.07.2020
462 Clouds 20 1019 59 10000 7.2 220 11:45 04.07.2020
463 Clouds 19 1019 59 10000 7.2 220 11:25 04.07.2020
464 Clouds 18 1019 67 10000 6.2 210 10:59 04.07.2020
465 Clouds 18 1019 67 10000 6.2 210 10:39 04.07.2020
466 Clouds 18 1019 67 10000 6.2 210 10:20 04.07.2020
467 Clouds 17 1019 72 10000 3.1 220 09:55 04.07.2020
468 Clouds 17 1019 72 10000 3.1 220 09:36 04.07.2020
469 Clouds 15 1019 72 10000 3.1 220 09:18 04.07.2020
470 Clouds 15 1019 82 10000 2.1 240 08:45 04.07.2020
471 Clouds 14 1019 82 10000 2.1 240 08:26 04.07.2020
472 Clouds 12 1019 87 10000 3.94 213 07:44 04.07.2020
473 Clouds 12 1019 87 10000 2.68 202 07:26 04.07.2020
474 Clear 11 1019 87 10000 2.68 202 06:51 04.07.2020
475 Clear 11 1019 87 10000 2.37 202 06:20 04.07.2020
476 Clear 11 1019 81 10000 2.37 202 05:34 04.07.2020
477 Clear 11 1019 81 10000 1.5 260 04:42 04.07.2020
478 Clear 12 1020 76 10000 1.5 230 02:49 04.07.2020
479 Clear 12 1020 76 10000 1.5 230 02:19 04.07.2020
480 Clear 12 1020 76 10000 1.85 215 01:26 04.07.2020
481 Clear 12 1020 76 10000 1.85 215 01:26 04.07.2020
482 Clear 13 1020 71 10000 1.5 230 00:41 04.07.2020
483 Clear 13 1020 71 10000 1.5 230 00:22 04.07.2020
484 Clear 14 1020 67 10000 1.5 230 23:40 03.07.2020
485 Clear 15 1020 67 10000 1.5 230 23:19 03.07.2020
486 Clear 15 1019 67 10000 1.5 220 22:58 03.07.2020
487 Clouds 15 1020 59 10000 3.1 260 22:39 03.07.2020
488 Clear 16 1019 67 10000 1.5 220 22:20 03.07.2020
489 Clouds 17 1019 55 10000 4.1 270 21:41 03.07.2020
490 Clear 18 1019 55 10000 3.1 230 21:20 03.07.2020
491 Clear 20 1019 49 10000 5.1 230 20:56 03.07.2020
492 Clear 20 1019 49 10000 5.1 230 20:38 03.07.2020
493 Clear 21 1019 49 10000 5.1 230 20:20 03.07.2020
494 Clouds 21 1019 46 10000 6.2 250 19:41 03.07.2020
495 Clouds 20 1019 46 10000 6.2 250 19:21 03.07.2020
496 Clouds 21 1019 46 10000 6.2 250 18:57 03.07.2020
497 Clouds 21 1019 46 10000 6.2 250 18:39 03.07.2020
498 Clouds 21 1019 46 10000 6.2 250 18:20 03.07.2020
499 Clouds 21 1019 46 10000 6.2 220 17:44 03.07.2020
500 Clouds 21 1019 46 10000 6.2 220 17:22 03.07.2020
501 Clouds 21 1019 52 10000 5.7 210 16:47 03.07.2020
502 Clouds 21 1019 46 10000 5.1 240 16:29 03.07.2020
503 Clouds 20 1019 52 10000 4.6 240 15:57 03.07.2020
504 Clouds 21 1019 52 10000 4.6 240 15:38 03.07.2020
505 Clouds 21 1019 52 10000 4.6 240 15:20 03.07.2020
506 Clouds 21 1019 49 10000 5.7 220 14:41 03.07.2020
507 Clouds 20 1020 55 10000 5.7 230 14:23 03.07.2020
508 Clouds 21 1020 52 10000 6.2 220 13:59 03.07.2020
509 Clouds 20 1020 52 10000 6.2 220 13:40 03.07.2020
510 Clouds 20 1020 52 10000 4.1 230 13:22 03.07.2020
511 Clouds 19 1019 59 10000 6.2 230 12:40 03.07.2020
512 Clouds 17 1019 59 10000 6.2 230 12:22 03.07.2020
513 Clouds 17 1019 63 10000 5.1 240 11:44 03.07.2020
514 Clouds 17 1019 63 10000 5.1 240 11:25 03.07.2020
515 Clear 17 1019 67 10000 3.6 230 10:59 03.07.2020
516 Clear 16 1019 67 10000 3.6 230 10:41 03.07.2020
517 Clear 16 1019 67 10000 3.6 230 10:21 03.07.2020
518 Clear 15 1019 76 10000 3.1 240 09:59 03.07.2020
519 Clear 15 1019 76 10000 3.1 240 09:39 03.07.2020
520 Clear 14 1019 76 10000 3.1 240 09:20 03.07.2020
521 Clear 13 1019 87 10000 1.5 230 08:56 03.07.2020
522 Clouds 13 1019 76 10000 4.1 270 08:37 03.07.2020
523 Clear 12 1019 87 10000 1.5 230 08:18 03.07.2020
524 Clear 11 1018 100 10000 2.1 230 07:43 03.07.2020
525 Clear 11 1018 100 10000 2.1 230 07:21 03.07.2020
526 Clear 10 1018 100 10000 2.6 230 06:30 03.07.2020
527 Clear 10 1018 93 10000 2.1 250 05:53 03.07.2020
528 Clear 11 1017 100 10000 1.33 236 03:59 03.07.2020
529 Clear 12 1017 100 10000 1.5 240 02:56 03.07.2020
530 Clear 12 1017 100 10000 1.5 240 02:31 03.07.2020
531 Clear 13 1017 100 10000 1.5 230 01:42 03.07.2020
532 Clear 13 1017 100 10000 1.5 230 01:20 03.07.2020
533 Clear 13 1017 100 10000 1.5 230 01:20 03.07.2020
534 Clear 13 1017 93 10000 1.6 254 00:42 03.07.2020
535 Clouds 14 1017 77 10000 3.1 280 23:59 02.07.2020
536 Clouds 14 1017 77 10000 3.1 280 23:39 02.07.2020
537 Clouds 14 1016 82 10000 3.1 230 23:19 02.07.2020
538 Clouds 14 1016 82 10000 3.1 230 22:56 02.07.2020
539 Clouds 14 1016 82 10000 3.1 230 22:38 02.07.2020
540 Clouds 15 1016 82 10000 3.1 230 22:19 02.07.2020
541 Clouds 16 1015 72 10000 4.1 230 21:42 02.07.2020
542 Clouds 16 1015 72 10000 4.1 230 21:21 02.07.2020
543 Clouds 16 1015 77 10000 3.1 250 20:59 02.07.2020
544 Clouds 17 1015 77 10000 3.1 250 20:41 02.07.2020
545 Rain 17 1015 72 10000 2.6 280 20:20 02.07.2020
546 Clouds 17 1014 82 10000 2.1 270 19:56 02.07.2020
547 Clouds 18 1014 63 10000 6.2 260 19:38 02.07.2020
548 Rain 17 1014 100 10000 3.6 260 19:19 02.07.2020
549 Rain 16 1014 100 10000 3.6 260 18:56 02.07.2020
550 Rain 16 1014 100 10000 3.6 260 18:37 02.07.2020
551 Rain 16 1014 100 10000 3.6 260 18:19 02.07.2020
552 Clouds 18 1014 77 10000 6.2 270 17:39 02.07.2020
553 Clouds 18 1014 87 10000 6.7 280 17:20 02.07.2020
554 Clouds 20 1013 60 10000 5.7 250 16:56 02.07.2020
555 Rain 20 1014 63 10000 7.2 260 16:38 02.07.2020
556 Clouds 20 1013 60 10000 5.7 250 16:19 02.07.2020
557 Clouds 20 1013 72 10000 4.1 260 15:54 02.07.2020
558 Clouds 20 1013 72 10000 4.1 260 15:36 02.07.2020
559 Clouds 21 1013 64 10000 4.6 290 15:18 02.07.2020
560 Clouds 21 1013 60 10000 6.2 230 14:42 02.07.2020
561 Clouds 20 1013 64 10000 5.7 230 14:19 02.07.2020
562 Clouds 20 1013 64 10000 5.7 230 14:19 02.07.2020
563 Clouds 20 1013 64 10000 6.2 260 13:55 02.07.2020
564 Clouds 20 1013 68 10000 5.7 230 13:36 02.07.2020
565 Clouds 20 1013 68 10000 5.7 230 13:18 02.07.2020
566 Clouds 19 1013 68 10000 8.2 250 12:40 02.07.2020
567 Clouds 18 1013 63 10000 7.2 210 12:21 02.07.2020
568 Clouds 19 1012 60 10000 6.7 220 11:44 02.07.2020
569 Clouds 19 1012 60 10000 6.7 220 11:26 02.07.2020
570 Clouds 18 1012 77 10000 6.2 210 10:58 02.07.2020
571 Clouds 18 1012 77 10000 6.2 210 10:39 02.07.2020
572 Clouds 18 1012 82 10000 6.2 220 10:21 02.07.2020
573 Clouds 17 1012 88 10000 4.1 210 09:43 02.07.2020
574 Clouds 17 1012 100 10000 3.6 210 09:22 02.07.2020
575 Clouds 16 1012 100 10000 2.6 210 08:58 02.07.2020
576 Clouds 16 1012 100 10000 2.6 210 08:39 02.07.2020
577 Clouds 16 1012 100 10000 4.1 210 08:19 02.07.2020
578 Clouds 15 1012 100 10000 2.57 189 07:42 02.07.2020
579 Mist 15 1012 100 5000 1 140 07:21 02.07.2020
580 Clouds 15 1012 100 10000 1.51 177 06:45 02.07.2020
581 Clouds 15 1012 100 10000 1.63 177 06:26 02.07.2020
582 Drizzle 15 1012 100 10000 1.63 177 05:48 02.07.2020
583 Clouds 15 1012 100 10000 1.5 240 04:55 02.07.2020
584 Clouds 16 1012 100 10000 2.1 230 03:34 02.07.2020
585 Clouds 16 1012 100 10000 3.1 220 01:51 02.07.2020
586 Clouds 17 1011 100 10000 3.1 230 00:44 02.07.2020
587 Rain 17 1011 100 10000 3.6 240 00:19 02.07.2020
588 Rain 17 1011 93 10000 5.7 270 23:43 01.07.2020
589 Rain 19 1011 82 4500 6.2 270 23:23 01.07.2020
590 Clouds 19 1009 72 10000 4.6 220 22:55 01.07.2020
591 Rain 19 1011 68 10000 6.7 260 22:37 01.07.2020
592 Clouds 20 1009 72 10000 4.6 220 22:18 01.07.2020
593 Clouds 20 1009 68 10000 4.1 240 21:57 01.07.2020
594 Clouds 20 1010 68 10000 4.1 240 21:39 01.07.2020
595 Clouds 21 1009 68 10000 4.1 240 21:20 01.07.2020
596 Clouds 21 1009 68 10000 4.1 230 20:46 01.07.2020
597 Clouds 21 1009 68 10000 5.7 240 20:28 01.07.2020
598 Clouds 22 1009 68 10000 5.7 250 19:58 01.07.2020
599 Clouds 22 1009 68 10000 4.1 240 19:39 01.07.2020
600 Clouds 22 1009 68 10000 4.1 240 19:20 01.07.2020
601 Clouds 22 1010 60 10000 6.7 240 18:56 01.07.2020
602 Clouds 22 1010 60 10000 6.7 240 18:38 01.07.2020
603 Clouds 22 1010 64 10000 6.7 230 18:20 01.07.2020
604 Clouds 22 1010 64 10000 6.2 230 17:55 01.07.2020
605 Clouds 22 1010 64 10000 6.2 230 17:37 01.07.2020
606 Clouds 22 1010 64 10000 6.2 230 17:18 01.07.2020
607 Clouds 22 1010 64 10000 5.7 230 16:42 01.07.2020
608 Clouds 22 1010 68 10000 5.7 220 16:23 01.07.2020
609 Clouds 22 1010 68 10000 5.7 220 15:43 01.07.2020
610 Clouds 21 1010 68 10000 5.7 220 15:23 01.07.2020
611 Clouds 20 1010 68 10000 7.7 210 14:58 01.07.2020
612 Clouds 21 1010 68 10000 7.7 210 14:38 01.07.2020
613 Clouds 20 1010 77 10000 6.2 210 14:20 01.07.2020
614 Clouds 20 1010 77 10000 6.2 210 13:55 01.07.2020
615 Clouds 20 1010 77 10000 6.2 210 13:36 01.07.2020
616 Clouds 20 1010 77 10000 6.2 210 13:18 01.07.2020
617 Clouds 19 1010 77 10000 7.7 200 12:41 01.07.2020
618 Clouds 19 1010 77 10000 7.7 200 12:23 01.07.2020
619 Clouds 19 1010 77 10000 4.6 210 11:59 01.07.2020
620 Clouds 19 1010 77 10000 4.6 210 11:40 01.07.2020
621 Clouds 19 1010 77 10000 4.6 210 11:21 01.07.2020
622 Clouds 18 1010 77 10000 4.1 220 10:57 01.07.2020
623 Clouds 18 1010 77 10000 4.1 220 10:39 01.07.2020
624 Clouds 17 1010 82 10000 3.1 210 10:20 01.07.2020
625 Clouds 18 1010 82 10000 3.6 210 09:39 01.07.2020
626 Clouds 17 1010 82 10000 3.6 210 09:20 01.07.2020
627 Clouds 17 1010 82 10000 4.6 200 08:59 01.07.2020
628 Clouds 17 1010 82 10000 4.6 200 08:40 01.07.2020
629 Clouds 16 1010 82 10000 5.1 200 08:20 01.07.2020
630 Clouds 16 1010 87 10000 3.1 210 07:43 01.07.2020
631 Clouds 15 1010 87 10000 3.1 210 07:25 01.07.2020
632 Clouds 15 1010 87 10000 3.1 230 06:59 01.07.2020
633 Clouds 15 1010 87 10000 3.1 230 06:40 01.07.2020
634 Clouds 14 1010 87 10000 3.1 230 06:20 01.07.2020
635 Clouds 14 1010 87 10000 2.1 250 04:30 01.07.2020
636 Clouds 14 1011 82 10000 3.6 230 03:44 01.07.2020
637 Clouds 14 1011 82 10000 3.6 230 03:22 01.07.2020
638 Clear 15 1011 77 10000 4.6 230 02:19 01.07.2020
639 Clouds 16 1011 72 10000 3.6 230 01:25 01.07.2020
640 Clouds 16 1012 72 10000 3.1 210 00:38 01.07.2020
641 Clouds 16 1012 72 10000 3.1 210 00:20 01.07.2020
642 Clouds 16 1012 72 10000 3.6 220 23:40 30.06.2020
643 Clouds 16 1012 72 10000 3.6 220 23:40 30.06.2020
644 Clouds 16 1012 72 10000 3.6 230 23:20 30.06.2020
645 Clouds 17 1012 68 10000 4.6 220 22:42 30.06.2020
646 Clouds 17 1012 68 10000 4.6 220 22:19 30.06.2020
647 Clouds 18 1012 68 10000 5.7 220 21:55 30.06.2020
648 Clouds 17 1012 68 10000 3.1 220 21:37 30.06.2020
649 Clouds 17 1012 68 10000 5.7 220 21:19 30.06.2020
650 Clouds 18 1012 68 10000 5.1 220 20:43 30.06.2020
651 Clouds 18 1012 68 10000 5.1 220 20:21 30.06.2020
652 Clouds 18 1012 59 10000 5.7 220 19:55 30.06.2020
653 Clouds 18 1012 59 10000 5.7 210 19:36 30.06.2020
654 Clouds 19 1012 59 10000 5.7 210 19:18 30.06.2020
655 Clouds 18 1012 59 10000 5.7 220 18:42 30.06.2020
656 Clouds 19 1012 59 10000 5.7 220 18:20 30.06.2020
657 Clouds 20 1012 59 10000 7.2 230 17:54 30.06.2020
658 Clouds 19 1013 59 10000 4.6 220 17:36 30.06.2020
659 Clouds 19 1013 59 10000 6.2 220 17:18 30.06.2020
660 Drizzle 19 1013 59 10000 7.7 230 16:41 30.06.2020
661 Clouds 19 1013 59 10000 6.7 220 16:21 30.06.2020
662 Clouds 19 1013 59 10000 6.7 230 15:57 30.06.2020
663 Clouds 18 1013 59 10000 6.7 230 15:38 30.06.2020
664 Clouds 18 1013 55 10000 6.7 220 15:20 30.06.2020
665 Clouds 18 1013 59 10000 6.2 230 14:44 30.06.2020
666 Clouds 17 1013 59 10000 4.6 220 14:22 30.06.2020
667 Clouds 16 1013 59 10000 7.2 210 13:59 30.06.2020
668 Clouds 17 1013 59 10000 7.2 210 13:39 30.06.2020
669 Clouds 17 1013 59 10000 7.2 210 13:20 30.06.2020
670 Drizzle 17 1013 59 10000 5.1 220 12:57 30.06.2020
671 Drizzle 17 1013 59 10000 5.1 220 12:39 30.06.2020
672 Drizzle 16 1013 59 10000 5.1 220 12:20 30.06.2020
673 Clouds 16 1013 63 10000 4.6 230 11:57 30.06.2020
674 Clouds 16 1013 63 10000 4.6 230 11:38 30.06.2020
675 Clouds 16 1013 63 10000 4.6 230 11:38 30.06.2020
676 Clouds 16 1013 63 10000 4.6 230 11:19 30.06.2020
677 Clouds 16 1014 67 10000 4.6 220 10:56 30.06.2020
678 Clouds 18 1016 63 10000 4.1 230 16:38 28.06.2020
679 Clouds 18 1016 63 10000 4.1 230 16:19 28.06.2020
680 Clouds 18 1016 68 10000 3.6 280 15:56 28.06.2020
681 Clouds 17 1016 68 10000 3.6 280 15:37 28.06.2020
682 Clouds 18 1016 68 10000 3.6 280 15:18 28.06.2020
683 Clouds 17 1016 72 10000 4.6 270 14:44 28.06.2020
684 Clouds 18 1016 63 10000 6.7 220 14:25 28.06.2020
685 Clouds 19 1016 59 10000 7.2 220 13:55 28.06.2020
686 Clouds 18 1016 59 10000 7.2 220 13:37 28.06.2020
687 Clouds 18 1016 59 10000 7.2 220 13:18 28.06.2020
688 Clouds 19 1016 55 10000 7.2 220 12:55 28.06.2020
689 Clouds 19 1016 55 10000 7.2 220 12:36 28.06.2020
690 Clouds 18 1016 55 10000 7.2 220 12:18 28.06.2020
691 Clouds 18 1015 59 10000 6.7 230 11:55 28.06.2020
692 Clouds 18 1015 59 10000 6.7 230 11:37 28.06.2020
693 Clouds 18 1015 59 10000 6.7 230 11:37 28.06.2020
694 Clouds 18 1015 59 10000 6.7 220 11:19 28.06.2020
695 Clouds 18 1015 63 10000 7.2 220 10:41 28.06.2020
696 Clouds 17 1015 63 10000 7.2 220 10:23 28.06.2020
697 Clouds 17 1015 67 10000 6.2 220 09:59 28.06.2020
698 Clouds 17 1015 67 10000 6.2 220 09:39 28.06.2020
699 Clouds 16 1015 72 10000 5.1 230 09:20 28.06.2020
700 Clouds 17 1014 72 10000 6.7 230 08:44 28.06.2020
701 Clouds 17 1014 68 10000 5.7 230 08:24 28.06.2020
702 Clear 17 1013 82 10000 5.1 210 07:45 28.06.2020
703 Clear 17 1013 82 10000 5.1 210 07:27 28.06.2020
704 Clouds 17 1013 88 10000 4.6 210 06:34 28.06.2020
705 Clouds 18 1013 88 10000 4.6 200 05:57 28.06.2020
706 Clouds 18 1013 88 10000 4.6 200 05:26 28.06.2020
707 Drizzle 18 1013 93 10000 2.6 210 03:32 28.06.2020
708 Clouds 18 1013 82 10000 4.6 210 02:39 28.06.2020
709 Clouds 19 1013 72 10000 4.6 190 01:52 28.06.2020
710 Clouds 19 1013 72 10000 4.1 180 01:25 28.06.2020
711 Clouds 19 1013 72 10000 3.1 190 00:46 28.06.2020
712 Clouds 19 1013 72 10000 3.1 190 00:46 28.06.2020
713 Clouds 19 1013 72 10000 3.1 190 00:24 28.06.2020
714 Clouds 20 1013 72 10000 3.1 190 23:41 27.06.2020
715 Clouds 20 1013 68 10000 4.6 190 23:23 27.06.2020
716 Clouds 20 1013 68 10000 2.6 210 22:58 27.06.2020
717 Clouds 20 1014 68 10000 2.6 200 22:40 27.06.2020
718 Clouds 21 1013 68 10000 2.6 210 22:20 27.06.2020
719 Clouds 21 1013 68 10000 3.6 220 21:55 27.06.2020
720 Clouds 21 1013 64 10000 3.1 210 21:37 27.06.2020
721 Clouds 22 1013 68 10000 3.6 220 21:18 27.06.2020
722 Clouds 22 1013 64 10000 4.6 220 20:42 27.06.2020
723 Clouds 23 1013 64 10000 4.6 220 20:19 27.06.2020
724 Clouds 24 1013 57 10000 6.2 220 19:55 27.06.2020
725 Clouds 23 1013 56 10000 7.7 220 19:36 27.06.2020
726 Clouds 23 1013 56 10000 7.7 220 19:18 27.06.2020
727 Clouds 23 1012 57 10000 8.2 230 18:43 27.06.2020
728 Clouds 25 1012 53 10000 7.2 220 18:22 27.06.2020
729 Clouds 24 1012 53 10000 8.2 200 17:57 27.06.2020
730 Clouds 24 1012 53 10000 8.2 200 17:38 27.06.2020
731 Clouds 25 1012 53 10000 6.7 220 17:19 27.06.2020
732 Clouds 25 1013 61 10000 7.2 200 16:45 27.06.2020
733 Clouds 25 1013 61 10000 7.2 200 16:25 27.06.2020
734 Clouds 25 1013 64 10000 5.7 190 15:55 27.06.2020
735 Clouds 25 1013 64 10000 5.7 190 15:55 27.06.2020
736 Clouds 25 1013 64 10000 5.7 190 15:37 27.06.2020
737 Clouds 24 1013 64 10000 7.7 190 15:18 27.06.2020
738 Clouds 23 1013 69 10000 7.2 200 14:42 27.06.2020
739 Clouds 23 1013 69 10000 7.2 200 14:24 27.06.2020
740 Clouds 22 1013 73 10000 7.2 200 13:58 27.06.2020
741 Clouds 22 1013 73 10000 7.2 200 13:38 27.06.2020
742 Clouds 21 1013 73 10000 7.2 200 13:19 27.06.2020
743 Clouds 21 1014 88 10000 5.7 220 12:57 27.06.2020
744 Clouds 20 1014 93 10000 5.1 200 12:39 27.06.2020
745 Clouds 20 1014 93 10000 5.1 200 12:21 27.06.2020
746 Clouds 20 1014 93 10000 3.6 210 11:55 27.06.2020
747 Clouds 20 1014 93 10000 3.6 210 11:36 27.06.2020
748 Clouds 19 1014 93 10000 3.6 210 11:18 27.06.2020
749 Clouds 19 1013 100 10000 2.6 210 10:38 27.06.2020
750 Clouds 19 1013 100 10000 4.1 210 10:19 27.06.2020
751 Rain 18 1013 100 10000 2.6 180 09:41 27.06.2020
752 Clouds 18 1012 100 10000 3.79 211 09:22 27.06.2020
753 Clouds 18 1013 100 10000 2.6 300 08:59 27.06.2020
754 Clouds 17 1013 100 10000 2.6 300 08:39 27.06.2020
755 Rain 16 1014 100 10000 3.6 270 08:21 27.06.2020
756 Clouds 16 1014 100 10000 4.1 220 07:45 27.06.2020
757 Rain 17 1014 100 10000 4.6 200 07:24 27.06.2020
758 Mist 17 1014 100 1800 3.6 220 06:50 27.06.2020
759 Rain 16 1012 100 200 1.5 80 06:29 27.06.2020
760 Fog 16 1012 100 600 2.6 90 04:24 27.06.2020
761 Mist 16 1013 100 1800 1.47 198 03:53 27.06.2020
762 Fog 17 1013 100 400 1.47 198 03:30 27.06.2020
763 Fog 16 1013 100 600 1.4 170 02:36 27.06.2020
764 Mist 16 1012 100 1800 2.1 60 01:49 27.06.2020
765 Mist 16 1013 100 9000 2.27 196 01:24 27.06.2020
766 Clouds 17 1013 100 10000 2.6 240 00:41 27.06.2020
767 Clouds 17 1013 93 10000 1.5 210 23:47 26.06.2020
768 Clouds 17 1013 93 10000 1.5 210 23:27 26.06.2020
769 Clouds 17 1013 93 10000 1.5 210 23:27 26.06.2020
770 Clouds 17 1013 100 10000 1.56 206 22:58 26.06.2020
771 Clouds 17 1013 100 10000 1.56 206 22:39 26.06.2020
772 Clouds 17 1013 100 10000 1.31 191 22:20 26.06.2020
773 Clear 19 1012 88 10000 1.31 191 21:58 26.06.2020
774 Clear 18 1012 88 10000 1.31 191 21:39 26.06.2020
775 Clear 18 1012 88 10000 0.69 166 21:20 26.06.2020
776 Clear 18 1013 100 10000 1.5 60 20:47 26.06.2020
777 Clear 18 1013 100 10000 1.5 60 20:47 26.06.2020
778 Clear 18 1013 100 10000 1.5 60 20:26 26.06.2020
779 Clouds 18 1013 93 10000 2.6 120 19:55 26.06.2020
780 Rain 18 1013 93 10000 2.6 230 19:37 26.06.2020
781 Rain 18 1013 93 10000 2.6 230 19:18 26.06.2020
782 Thunderstorm 19 1013 82 10000 7.2 240 18:41 26.06.2020
783 Clouds 20 1013 68 10000 7.2 240 18:23 26.06.2020
784 Thunderstorm 26 1013 47 10000 11.3 230 17:45 26.06.2020
785 Thunderstorm 26 1013 47 10000 11.3 230 17:45 26.06.2020
786 Clouds 27 1012 47 10000 2.6 170 17:27 26.06.2020
787 Clear 29 1012 37 10000 4.1 257 16:59 26.06.2020
788 Thunderstorm 27 1013 61 6000 7.2 170 16:41 26.06.2020
789 Clear 29 1012 37 10000 3.4 236 16:22 26.06.2020
790 Clouds 28 1012 51 10000 2.6 0 15:41 26.06.2020
791 Clear 28 1013 45 10000 3.36 219 15:21 26.06.2020
792 Clear 28 1013 45 10000 2.6 220 14:58 26.06.2020
793 Clouds 28 1013 51 10000 3.1 170 14:39 26.06.2020
794 Clear 28 1013 45 10000 2.6 220 14:21 26.06.2020
795 Clear 28 1013 50 10000 3.27 193 13:47 26.06.2020
796 Clear 28 1013 50 10000 3.05 174 13:25 26.06.2020
797 Clear 26 1013 50 10000 3.1 90 12:59 26.06.2020
798 Clear 27 1013 50 10000 3.1 90 12:40 26.06.2020
799 Clear 25 1013 50 10000 3.1 90 12:22 26.06.2020
800 Clear 24 1013 53 10000 3.1 100 11:57 26.06.2020
801 Clear 24 1013 57 10000 4.1 180 11:39 26.06.2020
802 Clear 23 1013 53 10000 3.1 100 11:20 26.06.2020
803 Clear 23 1014 56 10000 3.1 80 10:57 26.06.2020
804 Clear 23 1014 56 10000 3.1 80 10:38 26.06.2020
805 Clear 23 1014 56 10000 3.1 80 10:18 26.06.2020
806 Clear 23 1014 60 10000 4.6 50 09:43 26.06.2020
807 Clear 21 1014 60 10000 4.6 50 09:23 26.06.2020
808 Clear 19 1014 68 10000 2.1 60 08:55 26.06.2020
809 Clear 19 1014 68 10000 2.1 60 08:28 26.06.2020
810 Clear 19 1014 68 10000 3.6 60 07:53 26.06.2020
811 Clear 18 1014 68 10000 3.6 60 07:24 26.06.2020
812 Clear 17 1014 72 10000 4.1 50 06:58 26.06.2020
813 Clear 16 1014 72 10000 4.1 50 06:36 26.06.2020
814 Clear 16 1014 72 10000 4.1 50 06:18 26.06.2020
815 Clear 16 1014 72 10000 3.6 50 05:41 26.06.2020
816 Clear 16 1015 72 10000 2.1 50 03:52 26.06.2020
817 Clear 17 1016 72 10000 2.6 70 02:22 26.06.2020
818 Clear 18 1016 68 10000 2.6 60 01:20 26.06.2020
819 Clear 18 1017 72 10000 2.1 60 00:41 26.06.2020
820 Clear 19 1017 72 10000 2.1 60 00:20 26.06.2020
821 Clear 19 1017 68 10000 2.6 60 23:42 25.06.2020
822 Clear 19 1017 68 10000 2.6 60 23:19 25.06.2020
823 Clear 20 1017 68 10000 1.98 105 22:56 25.06.2020
824 Clear 21 1017 64 10000 3.6 90 22:37 25.06.2020
825 Clear 21 1017 68 10000 2.56 100 22:19 25.06.2020
826 Clear 22 1017 60 10000 3.1 60 21:56 25.06.2020
827 Clear 22 1016 60 10000 3.1 100 21:38 25.06.2020
828 Clear 23 1017 57 10000 4.1 70 21:19 25.06.2020
829 Clear 24 1017 57 10000 4.1 70 20:45 25.06.2020
830 Clear 24 1017 57 10000 4.1 70 20:24 25.06.2020
831 Clouds 25 1017 50 10000 4.1 60 19:58 25.06.2020
832 Clouds 26 1017 50 10000 4.1 60 19:40 25.06.2020
833 Clear 26 1017 47 10000 4.6 80 19:19 25.06.2020
834 Clear 26 1017 47 10000 4.6 80 19:19 25.06.2020
835 Clear 26 1017 47 10000 4.6 80 19:19 25.06.2020
836 Clear 26 1017 47 10000 4.6 80 18:58 25.06.2020
837 Clear 26 1017 47 10000 4.6 80 18:38 25.06.2020
838 Clear 26 1017 47 10000 4.6 80 18:19 25.06.2020
839 Clouds 28 1017 44 10000 5.7 70 17:42 25.06.2020
840 Clear 27 1018 44 10000 5.1 80 17:20 25.06.2020
841 Clear 27 1018 44 10000 5.1 80 17:20 25.06.2020
842 Clear 27 1018 44 10000 5.1 80 16:58 25.06.2020
843 Clear 27 1018 44 10000 5.1 80 16:37 25.06.2020
844 Clouds 27 1018 47 10000 4.1 90 16:19 25.06.2020
845 Clouds 27 1018 47 10000 4.1 90 15:41 25.06.2020
846 Clear 26 1019 50 10000 4.6 90 15:22 25.06.2020
847 Clear 26 1019 50 10000 4.6 90 14:45 25.06.2020
848 Clouds 25 1018 41 10000 4.1 120 14:25 25.06.2020
849 Clouds 26 1019 47 10000 3.1 60 13:59 25.06.2020
850 Clouds 25 1018 39 10000 5.1 120 13:41 25.06.2020
851 Clouds 25 1019 47 10000 3.1 60 13:19 25.06.2020
852 Clear 25 1019 47 10000 5.1 80 12:55 25.06.2020
853 Clear 25 1019 47 10000 5.1 80 12:37 25.06.2020
854 Clear 24 1019 47 10000 5.1 80 12:18 25.06.2020
855 Clear 23 1020 53 10000 4.1 100 11:42 25.06.2020
856 Clear 22 1020 56 10000 5.1 50 11:21 25.06.2020
857 Clear 22 1020 56 10000 5.1 50 10:44 25.06.2020
858 Clear 22 1020 56 10000 5.1 50 10:25 25.06.2020
859 Clear 21 1020 60 10000 4.1 60 09:55 25.06.2020
860 Clear 21 1020 60 10000 4.1 60 09:36 25.06.2020
861 Clear 19 1020 60 10000 4.1 60 09:18 25.06.2020
862 Clear 18 1020 68 10000 4.6 50 08:42 25.06.2020
863 Clear 18 1020 68 10000 4.6 50 08:18 25.06.2020
864 Haze 16 1020 72 9000 4.1 40 07:43 25.06.2020
865 Haze 17 1020 72 9000 4.1 40 07:24 25.06.2020
866 Haze 16 1020 67 8000 4.1 50 06:45 25.06.2020
867 Haze 15 1020 67 8000 4.1 50 06:25 25.06.2020
868 Clear 15 1020 72 10000 3.6 50 05:39 25.06.2020
869 Clear 15 1021 63 10000 3.1 40 03:51 25.06.2020
870 Clear 16 1021 63 10000 3.1 50 02:59 25.06.2020
871 Clear 16 1021 63 10000 3.1 50 02:41 25.06.2020
872 Clear 17 1021 55 10000 3.6 40 01:43 25.06.2020
873 Clear 17 1021 48 10000 2.6 40 00:59 25.06.2020
874 Clear 18 1021 48 10000 2.6 40 00:40 25.06.2020
875 Clear 17 1021 48 10000 2.6 40 00:18 25.06.2020
876 Clear 19 1021 43 10000 3.1 60 23:41 24.06.2020
877 Clear 19 1021 40 10000 2.6 50 23:23 24.06.2020
878 Clear 20 1021 40 10000 3.1 30 22:56 24.06.2020
879 Clear 20 1021 40 10000 3.6 70 22:37 24.06.2020
880 Clear 20 1021 40 10000 3.1 30 22:19 24.06.2020
881 Clear 23 1021 33 10000 3.6 40 21:55 24.06.2020
882 Clear 23 1020 38 10000 3.1 90 21:36 24.06.2020
883 Clear 23 1021 33 10000 3.6 40 21:18 24.06.2020
884 Clear 25 1021 31 10000 5.7 20 20:56 24.06.2020
885 Clear 25 1020 34 10000 3.1 80 20:38 24.06.2020
886 Clear 26 1021 31 10000 5.7 20 20:19 24.06.2020
887 Clear 26 1021 34 10000 4.6 70 19:55 24.06.2020
888 Clear 26 1020 32 10000 3.6 80 19:36 24.06.2020
889 Clear 27 1021 34 10000 4.6 70 19:18 24.06.2020
890 Clear 28 1021 34 10000 4.6 60 18:56 24.06.2020
891 Clear 28 1020 32 10000 5.1 60 18:37 24.06.2020
892 Clear 28 1021 34 10000 4.6 60 18:19 24.06.2020
893 Clear 28 1021 34 10000 4.6 40 17:43 24.06.2020
894 Clear 28 1021 34 10000 4.6 40 17:19 24.06.2020
895 Clear 29 1021 36 10000 4.6 100 16:58 24.06.2020
896 Clear 29 1021 32 10000 4.6 60 16:40 24.06.2020
897 Clear 28 1021 36 10000 4.6 100 16:21 24.06.2020
898 Clear 27 1021 36 10000 4.6 110 15:57 24.06.2020
899 Clear 27 1021 34 10000 4.1 60 15:39 24.06.2020
900 Clear 27 1021 36 10000 4.6 110 15:20 24.06.2020
901 Clear 27 1021 36 10000 4.6 110 15:20 24.06.2020
902 Clear 26 1022 39 10000 5.7 80 14:54 24.06.2020
903 Clear 27 1022 39 10000 5.7 80 14:36 24.06.2020
904 Clear 27 1022 39 10000 5.7 80 14:18 24.06.2020
905 Clear 26 1022 38 10000 4.6 80 13:41 24.06.2020
906 Clear 26 1022 38 10000 4.6 80 13:20 24.06.2020
907 Clear 25 1023 44 10000 4.1 90 12:41 24.06.2020
908 Clear 24 1023 44 10000 4.1 90 12:21 24.06.2020
909 Clear 23 1023 46 10000 3.6 80 11:57 24.06.2020
910 Clear 23 1022 47 10000 4.6 90 11:39 24.06.2020
911 Clear 23 1023 46 10000 3.6 80 11:21 24.06.2020
912 Clear 23 1023 49 10000 5.1 60 10:45 24.06.2020
913 Clear 23 1023 49 10000 5.1 60 10:19 24.06.2020
914 Clear 21 1023 56 10000 4.1 80 09:46 24.06.2020
915 Clear 20 1023 56 10000 4.1 80 09:24 24.06.2020
916 Clear 19 1023 55 10000 4.1 50 08:59 24.06.2020
917 Clear 19 1023 55 10000 4.6 60 08:40 24.06.2020
918 Clear 19 1023 55 10000 4.1 50 08:18 24.06.2020
919 Clear 17 1023 59 10000 4.6 50 07:46 24.06.2020
920 Clear 17 1023 59 10000 4.6 50 07:25 24.06.2020
921 Clear 16 1023 63 10000 3.1 50 06:45 24.06.2020
922 Clear 15 1023 63 10000 3.1 50 06:24 24.06.2020
923 Clear 15 1023 67 10000 2.6 30 05:45 24.06.2020
924 Clear 16 1023 63 10000 3.1 50 04:39 24.06.2020
925 Clear 16 1024 63 10000 2.1 40 03:39 24.06.2020
926 Clear 17 1024 67 10000 2.6 40 02:55 24.06.2020
927 Clear 18 1024 67 10000 2.6 40 02:23 24.06.2020
928 Clear 19 1024 59 10000 1.5 60 00:53 24.06.2020
929 Clear 19 1024 59 10000 1.5 60 00:53 24.06.2020
930 Clear 19 1024 59 10000 1.5 60 00:34 24.06.2020
931 Clear 19 1024 59 10000 2.1 40 23:49 23.06.2020
932 Clear 19 1024 59 10000 2.1 40 23:23 23.06.2020
933 Clear 20 1024 56 10000 1.5 80 22:59 23.06.2020
934 Clear 20 1024 43 10000 3.6 50 22:41 23.06.2020
935 Clear 21 1024 56 10000 1.5 80 22:19 23.06.2020
936 Clear 22 1023 43 10000 3.1 40 21:59 23.06.2020
937 Clear 23 1023 38 10000 4.6 50 21:38 23.06.2020
938 Clear 23 1023 43 10000 3.1 40 21:18 23.06.2020
939 Clear 24 1023 41 10000 4.6 60 20:55 23.06.2020
940 Clear 24 1023 41 10000 4.6 60 20:37 23.06.2020
941 Clear 25 1023 41 10000 4.6 60 20:18 23.06.2020
942 Clear 26 1024 36 10000 4.6 40 19:44 23.06.2020
943 Clear 26 1024 36 10000 4.6 40 19:24 23.06.2020
944 Clear 25 1024 38 10000 4.6 30 18:40 23.06.2020
945 Clear 27 1024 38 10000 4.6 30 18:19 23.06.2020
946 Clear 27 1024 36 10000 1.5 30 17:56 23.06.2020
947 Clear 27 1024 39 10000 3.6 40 17:38 23.06.2020
948 Clear 27 1024 36 10000 1.5 30 17:19 23.06.2020
949 Clear 26 1025 41 10000 4.6 30 16:54 23.06.2020
950 Clear 27 1025 41 10000 4.6 30 16:36 23.06.2020
951 Clear 26 1025 41 10000 4.6 30 16:18 23.06.2020
952 Clear 25 1025 47 10000 2.6 130 15:43 23.06.2020
953 Clear 24 1025 47 10000 2.6 130 15:24 23.06.2020
954 Clear 25 1025 46 10000 2.6 140 14:56 23.06.2020
955 Clear 25 1025 46 10000 2.6 140 14:37 23.06.2020
956 Clear 25 1025 46 10000 2.6 140 14:18 23.06.2020
957 Clear 24 1025 46 10000 2.1 90 13:45 23.06.2020
958 Clear 24 1025 46 10000 2.1 90 13:26 23.06.2020
959 Clear 24 1026 53 10000 3.6 70 12:59 23.06.2020
960 Clear 24 1026 53 10000 3.6 70 12:59 23.06.2020
961 Clear 23 1026 53 10000 3.6 70 12:40 23.06.2020
962 Clear 22 1026 53 10000 3.6 70 12:20 23.06.2020
963 Clear 22 1026 56 10000 3.6 80 11:43 23.06.2020
964 Clear 22 1026 56 10000 3.6 80 11:23 23.06.2020
965 Clear 21 1026 60 10000 2.1 60 10:59 23.06.2020
966 Clear 21 1026 60 10000 2.1 60 10:41 23.06.2020
967 Clear 21 1026 60 10000 2.1 60 10:22 23.06.2020
968 Clear 19 1026 68 10000 3.1 60 09:57 23.06.2020
969 Clear 19 1026 68 10000 3.1 60 09:38 23.06.2020
970 Clear 18 1026 68 10000 3.1 60 09:20 23.06.2020
971 Clear 17 1026 72 10000 2.1 70 08:46 23.06.2020
972 Clear 16 1026 72 10000 2.1 70 08:26 23.06.2020
973 Clear 15 1026 82 10000 1.85 45 07:49 23.06.2020
974 Clear 14 1026 82 10000 1.8 44 07:25 23.06.2020
975 Clear 12 1026 87 10000 1.8 44 06:57 23.06.2020
976 Clear 11 1026 87 10000 1.8 44 06:38 23.06.2020
977 Clear 11 1026 87 10000 1.85 46 06:19 23.06.2020
978 Clear 11 1025 81 10000 1.84 41 05:28 23.06.2020
979 Clear 11 1026 87 10000 1.98 40 03:23 23.06.2020
980 Clear 12 1026 82 10000 1.98 40 02:53 23.06.2020
981 Clear 12 1026 82 10000 1.98 40 02:34 23.06.2020
982 Clear 13 1026 71 10000 2.07 35 01:46 23.06.2020
983 Clear 13 1026 71 10000 1.87 38 01:25 23.06.2020
984 Clear 14 1025 67 10000 2.1 20 00:53 23.06.2020
985 Clear 15 1025 67 10000 2.1 20 00:22 23.06.2020
986 Clear 15 1025 63 10000 2.6 10 23:55 22.06.2020
987 Clear 16 1025 59 10000 4.1 40 23:37 22.06.2020
988 Clear 16 1025 63 10000 2.6 10 23:18 22.06.2020
989 Clear 17 1025 59 10000 2.6 40 22:55 22.06.2020
990 Clear 17 1025 68 10000 2.6 60 22:37 22.06.2020
991 Clear 17 1025 59 10000 2.6 40 22:18 22.06.2020
992 Clear 19 1025 52 10000 3.1 60 21:54 22.06.2020
993 Clear 19 1025 60 10000 3.1 310 21:36 22.06.2020
994 Clear 20 1025 52 10000 3.1 60 21:18 22.06.2020
995 Clear 22 1025 49 10000 2.1 300 20:41 22.06.2020
996 Clear 22 1025 46 10000 3.1 30 20:22 22.06.2020
997 Clear 22 1025 46 10000 2.1 0 19:45 22.06.2020
998 Clouds 24 1025 43 10000 3.1 10 19:21 22.06.2020
999 Clouds 23 1025 43 10000 3.1 10 18:59 22.06.2020
1000 Clouds 23 1025 43 10000 3.1 10 18:59 22.06.2020
1001 Clouds 23 1025 43 10000 3.1 10 18:40 22.06.2020
1002 Clouds 24 1025 43 10000 3.1 10 18:21 22.06.2020
1003 Clouds 24 1025 46 10000 2.6 90 17:57 22.06.2020
1004 Clouds 24 1025 43 10000 3.1 10 17:38 22.06.2020
1005 Clouds 23 1025 43 10000 3.1 10 17:19 22.06.2020
1006 Clouds 23 1025 46 10000 1.5 70 16:55 22.06.2020
1007 Clouds 23 1025 46 10000 1.5 70 16:37 22.06.2020
1008 Clouds 22 1025 46 10000 1.5 70 16:18 22.06.2020
1009 Clouds 22 1026 53 10000 2.1 100 15:44 22.06.2020
1010 Clouds 22 1026 53 10000 2.1 100 15:25 22.06.2020
1011 Clouds 21 1026 56 10000 1.94 320 14:57 22.06.2020
1012 Clouds 21 1026 52 10000 2.6 280 14:37 22.06.2020
1013 Clouds 21 1026 52 10000 2.6 280 14:19 22.06.2020
1014 Clear 20 1026 56 10000 1.5 250 13:54 22.06.2020
1015 Clear 20 1026 56 10000 1.5 250 13:36 22.06.2020
1016 Clear 20 1026 56 10000 1.5 250 13:18 22.06.2020
1017 Clear 19 1026 55 10000 4.1 280 12:41 22.06.2020
1018 Clear 19 1026 55 10000 4.1 280 12:22 22.06.2020
1019 Clear 17 1026 63 10000 3.1 230 11:38 22.06.2020
1020 Clear 17 1026 63 10000 3.1 230 11:19 22.06.2020
1021 Clear 16 1026 63 10000 3.6 250 10:57 22.06.2020
1022 Clear 16 1026 63 10000 3.6 250 10:39 22.06.2020
1023 Clear 16 1026 63 10000 3.6 250 10:19 22.06.2020
1024 Clear 15 1025 72 10000 3.6 260 09:58 22.06.2020
1025 Clear 14 1025 72 10000 3.6 260 09:40 22.06.2020
1026 Clear 15 1025 72 10000 3.6 260 09:19 22.06.2020
1027 Clear 15 1025 76 10000 5.1 260 08:57 22.06.2020
1028 Clear 14 1025 76 10000 5.1 260 08:38 22.06.2020
1029 Clear 14 1025 76 10000 5.1 260 08:19 22.06.2020
1030 Clear 13 1024 82 10000 4.1 270 07:50 22.06.2020
1031 Clear 13 1024 82 10000 4.1 270 07:31 22.06.2020
1032 Clouds 14 1023 93 10000 2.6 290 06:44 22.06.2020
1033 Clouds 14 1023 93 10000 2.6 290 06:25 22.06.2020
1034 Clouds 14 1023 87 10000 4.1 260 05:43 22.06.2020
1035 Clouds 16 1023 87 10000 3.6 250 04:22 22.06.2020
1036 Clouds 16 1022 77 10000 2.1 200 02:35 22.06.2020
1037 Clear 15 1022 63 10000 1.5 250 01:25 22.06.2020
1038 Clear 16 1022 67 10000 2.6 230 00:41 22.06.2020
1039 Clouds 17 1022 68 10000 2.6 230 23:59 21.06.2020
1040 Clouds 17 1022 68 10000 2.6 230 23:39 21.06.2020
1041 Clouds 17 1022 68 10000 2.6 230 23:21 21.06.2020
1042 Clouds 18 1021 63 10000 2.1 240 22:57 21.06.2020
1043 Clouds 18 1021 64 10000 2.6 230 22:38 21.06.2020
1044 Clouds 19 1021 64 10000 2.6 230 22:19 21.06.2020
1045 Clouds 19 1021 63 10000 2.6 210 21:58 21.06.2020
1046 Clouds 20 1021 56 10000 2.6 230 21:39 21.06.2020
1047 Clouds 21 1021 56 10000 2.6 230 21:21 21.06.2020
1048 Clouds 21 1021 56 10000 3.1 230 20:59 21.06.2020
1049 Clouds 22 1021 56 10000 3.1 230 20:38 21.06.2020
1050 Clouds 22 1021 56 10000 3.1 230 20:19 21.06.2020
1051 Clouds 22 1020 53 10000 5.1 240 19:56 21.06.2020
1052 Clouds 22 1020 53 10000 5.1 240 19:38 21.06.2020
1053 Clouds 22 1020 53 10000 5.1 240 19:19 21.06.2020
1054 Clouds 23 1020 49 10000 4.1 230 18:54 21.06.2020
1055 Clouds 23 1020 49 10000 4.6 230 18:36 21.06.2020
1056 Clouds 23 1020 49 10000 4.6 230 18:18 21.06.2020
1057 Clouds 23 1020 49 10000 3.6 220 17:40 21.06.2020
1058 Clouds 23 1020 49 10000 3.6 220 17:20 21.06.2020
1059 Clouds 24 1021 53 10000 5.1 180 16:56 21.06.2020
1060 Clouds 24 1021 53 10000 5.1 180 16:56 21.06.2020
1061 Clouds 24 1021 53 10000 5.1 180 16:38 21.06.2020
1062 Clouds 24 1021 53 10000 5.1 180 16:19 21.06.2020
1063 Clouds 24 1021 49 10000 3.6 200 15:39 21.06.2020
1064 Clouds 23 1021 49 10000 3.6 200 15:21 21.06.2020
1065 Clouds 23 1021 49 10000 4.1 200 14:55 21.06.2020
1066 Clouds 22 1021 53 10000 3.6 210 14:36 21.06.2020
1067 Clouds 22 1021 53 10000 3.6 210 14:18 21.06.2020
1068 Clouds 22 1021 56 10000 4.6 200 13:42 21.06.2020
1069 Clouds 22 1021 56 10000 4.6 200 13:23 21.06.2020
1070 Clouds 22 1021 56 10000 4.1 230 12:58 21.06.2020
1071 Clouds 22 1021 56 10000 4.1 230 12:39 21.06.2020
1072 Clouds 21 1021 56 10000 4.1 230 12:21 21.06.2020
1073 Clear 19 1021 64 10000 3.6 210 11:42 21.06.2020
1074 Clear 21 1021 64 10000 3.6 210 11:24 21.06.2020
1075 Clear 20 1022 72 10000 1.5 190 10:58 21.06.2020
1076 Clear 19 1022 72 10000 1.5 190 10:40 21.06.2020
1077 Clear 19 1022 72 10000 1.5 190 10:21 21.06.2020
1078 Clear 17 1021 77 10000 1.57 233 09:44 21.06.2020
1079 Clear 16 1021 77 10000 0.99 210 09:25 21.06.2020
1080 Clear 15 1021 87 10000 0.88 210 08:59 21.06.2020
1081 Clear 14 1021 87 10000 0.88 210 08:41 21.06.2020
1082 Clear 13 1021 87 10000 0.59 164 08:20 21.06.2020
1083 Clear 12 1021 93 10000 0.59 164 07:59 21.06.2020
1084 Clear 12 1021 93 10000 0.59 164 07:39 21.06.2020
1085 Clear 11 1021 93 10000 0.8 207 07:19 21.06.2020
1086 Clear 11 1021 100 10000 0.8 207 06:46 21.06.2020
1087 Clear 10 1021 100 10000 0.72 153 05:57 21.06.2020
1088 Clear 11 1021 100 10000 0.23 129 04:48 21.06.2020
1089 Clear 11 1021 100 10000 0.89 84 03:20 21.06.2020
1090 Clear 11 1022 100 10000 0.89 84 02:49 21.06.2020
1091 Clear 12 1022 87 10000 0.82 60 01:48 21.06.2020
1092 Clouds 13 1022 82 10000 1.5 40 01:21 21.06.2020
1093 Clouds 13 1022 82 10000 1 50 00:55 21.06.2020
1094 Clouds 13 1022 87 10000 1 0 00:36 21.06.2020
1095 Clouds 13 1022 87 10000 1 0 00:18 21.06.2020
1096 Clouds 14 1022 82 10000 2.1 270 23:41 20.06.2020
1097 Clear 14 1021 82 10000 0.38 150 23:21 20.06.2020
1098 Clear 15 1021 82 10000 0.38 150 22:55 20.06.2020
1099 Clear 15 1021 82 10000 0.38 150 22:55 20.06.2020
1100 Clear 15 1021 82 10000 0.38 150 22:37 20.06.2020
1101 Clear 16 1021 82 10000 0.6 131 22:18 20.06.2020
1102 Clouds 17 1021 68 10000 0.5 180 21:55 20.06.2020
1103 Clouds 18 1021 63 10000 1.5 170 21:37 20.06.2020
1104 Clouds 18 1021 63 10000 1.5 170 21:19 20.06.2020
1105 Clouds 20 1021 49 10000 1.5 300 20:55 20.06.2020
1106 Clouds 19 1021 52 10000 2.6 310 20:37 20.06.2020
1107 Clouds 20 1021 52 10000 2.6 310 20:19 20.06.2020
1108 Clouds 20 1021 46 10000 3.1 320 19:43 20.06.2020
1109 Clouds 21 1021 46 10000 3.1 320 19:22 20.06.2020
1110 Clouds 20 1021 56 10000 1.5 30 18:54 20.06.2020
1111 Clouds 19 1021 56 10000 3.1 310 18:36 20.06.2020
1112 Clouds 19 1021 55 10000 2.1 250 18:18 20.06.2020
1113 Clouds 19 1021 55 10000 2.1 250 17:54 20.06.2020
1114 Clouds 19 1021 55 10000 2.1 250 17:36 20.06.2020
1115 Clouds 19 1021 55 10000 2.1 250 17:18 20.06.2020
1116 Clouds 19 1021 72 10000 3.6 230 16:39 20.06.2020
1117 Clouds 19 1021 72 10000 3.6 230 16:18 20.06.2020
1118 Clouds 19 1021 72 10000 3.6 230 16:18 20.06.2020
1119 Clouds 19 1022 63 10000 5.1 210 15:42 20.06.2020
1120 Clouds 19 1022 63 10000 5.1 210 15:19 20.06.2020
1121 Clouds 19 1021 52 10000 3.1 250 14:57 20.06.2020
1122 Clouds 19 1021 52 10000 3.1 250 14:39 20.06.2020
1123 Clouds 19 1021 52 10000 3.1 250 14:19 20.06.2020
1124 Clouds 19 1022 56 10000 3.6 240 13:41 20.06.2020
1125 Clouds 19 1022 56 10000 3.6 240 13:20 20.06.2020
1126 Clouds 20 1022 59 10000 3.1 230 12:56 20.06.2020
1127 Clouds 19 1022 59 10000 3.1 230 12:37 20.06.2020
1128 Clouds 18 1022 59 10000 3.1 230 12:18 20.06.2020
1129 Clouds 18 1022 72 10000 3.1 230 11:39 20.06.2020
1130 Clouds 18 1022 72 10000 3.1 230 11:20 20.06.2020
1131 Clouds 18 1022 72 10000 2.1 240 10:58 20.06.2020
1132 Clouds 17 1022 72 10000 2.1 240 10:40 20.06.2020
1133 Clouds 18 1022 72 10000 2.1 240 10:20 20.06.2020
1134 Clouds 18 1021 77 10000 1.5 60 09:43 20.06.2020
1135 Clouds 18 1021 77 10000 1.5 60 09:43 20.06.2020
1136 Clouds 16 1021 77 10000 1.5 60 09:25 20.06.2020
1137 Clear 15 1021 77 10000 0.53 290 08:58 20.06.2020
1138 Clear 15 1021 77 10000 0.53 290 08:39 20.06.2020
1139 Clear 15 1021 77 10000 0.26 250 08:21 20.06.2020
1140 Clear 13 1021 93 10000 0.26 250 07:50 20.06.2020
1141 Clear 12 1021 93 10000 0.52 241 07:25 20.06.2020
1142 Clear 11 1021 100 10000 0.52 241 06:49 20.06.2020
1143 Clear 11 1021 100 10000 0.56 219 06:22 20.06.2020
1144 Clouds 11 1021 100 10000 0.56 219 05:48 20.06.2020
1145 Clear 11 1020 93 10000 0.2 231 04:29 20.06.2020
1146 Clouds 13 1020 76 10000 0.75 222 01:58 20.06.2020
1147 Clouds 13 1020 72 10000 0.75 222 01:40 20.06.2020
1148 Clouds 13 1020 72 10000 0.71 228 00:50 20.06.2020
1149 Clouds 14 1020 72 10000 0.8 260 00:20 20.06.2020
1150 Clear 15 1020 72 10000 0.8 260 23:48 19.06.2020
1151 Clear 15 1020 72 10000 1.22 266 23:21 19.06.2020
1152 Clear 16 1019 63 10000 2.1 260 22:59 19.06.2020
1153 Clear 16 1019 63 10000 2.1 260 22:40 19.06.2020
1154 Clear 17 1019 63 10000 2.1 260 22:22 19.06.2020
1155 Clear 18 1018 59 10000 2.6 250 21:58 19.06.2020
1156 Clear 19 1018 59 10000 2.6 250 21:38 19.06.2020
1157 Clear 19 1018 59 10000 2.6 250 21:18 19.06.2020
1158 Clear 20 1018 52 10000 3.6 240 20:58 19.06.2020
1159 Clear 20 1018 52 10000 3.6 240 20:40 19.06.2020
1160 Clear 21 1018 52 10000 3.6 240 20:20 19.06.2020
1161 Clear 21 1018 43 10000 4.1 260 19:55 19.06.2020
1162 Clear 21 1018 43 10000 4.1 260 19:37 19.06.2020
1163 Clear 21 1018 43 10000 4.1 260 19:37 19.06.2020
1164 Clear 21 1018 43 10000 4.1 260 19:19 19.06.2020
1165 Clear 21 1018 52 10000 4.6 270 18:41 19.06.2020
1166 Clear 21 1018 52 10000 4.6 270 18:21 19.06.2020
1167 Clear 21 1017 49 10000 5.1 220 17:58 19.06.2020
1168 Clear 21 1017 49 10000 5.1 220 17:38 19.06.2020
1169 Clouds 20 1018 56 10000 3.1 260 17:20 19.06.2020
1170 Clouds 20 1018 56 10000 3.1 260 16:55 19.06.2020
1171 Clouds 19 1018 56 10000 3.1 260 16:37 19.06.2020
1172 Clouds 19 1018 56 10000 3.1 260 16:18 19.06.2020
1173 Clouds 19 1017 56 10000 2.1 220 15:42 19.06.2020
1174 Clouds 19 1017 56 10000 2.1 220 15:21 19.06.2020
1175 Clouds 20 1017 56 10000 5.1 240 14:56 19.06.2020
1176 Clouds 21 1017 56 10000 5.1 240 14:38 19.06.2020
1177 Clouds 20 1017 56 10000 5.1 240 14:19 19.06.2020
1178 Clouds 19 1017 56 10000 4.6 220 13:44 19.06.2020
1179 Clouds 19 1017 56 10000 4.6 220 13:26 19.06.2020
1180 Clouds 19 1017 59 10000 4.6 240 12:48 19.06.2020
1181 Clouds 18 1017 59 10000 4.6 240 12:23 19.06.2020
1182 Clear 19 1017 56 10000 5.7 250 11:59 19.06.2020
1183 Clear 18 1017 56 10000 5.7 250 11:40 19.06.2020
1184 Clear 18 1017 56 10000 5.7 250 11:19 19.06.2020
1185 Clear 18 1017 77 10000 1.5 230 10:59 19.06.2020
1186 Clear 17 1017 77 10000 1.5 230 10:40 19.06.2020
1187 Clear 17 1017 77 10000 1.5 230 10:19 19.06.2020
1188 Clear 16 1017 82 10000 3.6 230 09:42 19.06.2020
1189 Clear 15 1017 82 10000 3.6 230 09:21 19.06.2020
1190 Clear 14 1017 87 10000 3.1 230 08:58 19.06.2020
1191 Clear 14 1017 87 10000 3.1 230 08:38 19.06.2020
1192 Clear 14 1017 87 10000 3.1 230 08:20 19.06.2020
1193 Clear 12 1016 100 10000 1.5 250 07:40 19.06.2020
1194 Clear 12 1016 100 10000 1.5 250 07:21 19.06.2020
1195 Clear 11 1016 100 10000 1.79 195 06:44 19.06.2020
1196 Clear 11 1016 100 10000 1.72 189 06:20 19.06.2020
1197 Clear 11 1015 93 10000 1.67 198 04:30 19.06.2020
1198 Clear 11 1016 93 10000 1.51 198 03:31 19.06.2020
1199 Clear 13 1015 82 10000 1.49 188 01:45 19.06.2020
1200 Clear 13 1015 77 10000 1.52 189 00:43 19.06.2020
1201 Clear 14 1015 77 10000 1.55 198 00:22 19.06.2020
1202 Clear 14 1015 72 10000 1.55 198 23:57 18.06.2020
1203 Clear 14 1015 72 10000 1.55 198 23:38 18.06.2020
1204 Clear 15 1015 72 10000 1.85 199 23:20 18.06.2020
1205 Clear 16 1014 67 10000 1.85 199 22:40 18.06.2020
1206 Clear 16 1014 67 10000 2 211 22:20 18.06.2020
1207 Clear 16 1014 67 10000 2 211 22:20 18.06.2020
1208 Clear 17 1013 59 10000 2.6 240 21:56 18.06.2020
1209 Clear 18 1013 59 10000 2.6 240 21:37 18.06.2020
1210 Clear 18 1013 59 10000 2.6 240 21:19 18.06.2020
1211 Clouds 19 1013 56 10000 4.1 220 20:41 18.06.2020
1212 Clouds 19 1013 56 10000 4.1 220 20:21 18.06.2020
1213 Clouds 19 1013 56 10000 4.1 210 19:57 18.06.2020
1214 Clouds 20 1013 56 10000 4.1 210 19:39 18.06.2020
1215 Clouds 20 1013 56 10000 4.1 210 19:19 18.06.2020
1216 Clouds 20 1013 56 10000 3.1 210 18:41 18.06.2020
1217 Clouds 21 1013 56 10000 3.1 210 18:23 18.06.2020
1218 Clouds 21 1013 56 10000 4.6 200 17:55 18.06.2020
1219 Clouds 21 1013 56 10000 4.6 200 17:37 18.06.2020
1220 Clouds 20 1013 56 10000 4.6 200 17:19 18.06.2020
1221 Clouds 21 1013 60 10000 3.6 200 16:44 18.06.2020
1222 Clouds 21 1013 60 10000 3.6 200 16:25 18.06.2020
1223 Clouds 20 1013 63 10000 5.1 190 15:59 18.06.2020
1224 Clouds 20 1013 60 10000 4.6 170 15:40 18.06.2020
1225 Clouds 19 1013 60 10000 4.6 170 15:20 18.06.2020
1226 Clouds 19 1013 68 10000 2.6 210 14:57 18.06.2020
1227 Clouds 19 1013 68 10000 2.6 210 14:57 18.06.2020
1228 Clouds 19 1013 68 10000 2.6 210 14:39 18.06.2020
1229 Clouds 19 1013 68 10000 2.6 210 14:20 18.06.2020
1230 Clouds 18 1013 72 10000 2.6 190 13:48 18.06.2020
1231 Clouds 18 1014 72 10000 3.1 210 13:29 18.06.2020
1232 Clouds 18 1013 72 10000 4.1 200 12:58 18.06.2020
1233 Clouds 18 1013 72 10000 4.1 200 12:58 18.06.2020
1234 Clouds 18 1013 72 10000 4.1 200 12:40 18.06.2020
1235 Clouds 17 1013 72 10000 4.1 200 12:20 18.06.2020
1236 Clouds 16 1013 72 10000 3.1 220 11:59 18.06.2020
1237 Clouds 16 1014 82 10000 3.1 210 11:40 18.06.2020
1238 Clouds 16 1014 82 10000 3.1 210 11:19 18.06.2020
1239 Clouds 16 1014 82 10000 3.1 210 11:19 18.06.2020
1240 Clouds 15 1013 93 10000 2.6 210 10:41 18.06.2020
1241 Clouds 15 1013 93 10000 2.6 210 10:19 18.06.2020
1242 Clouds 15 1013 100 10000 2.6 220 09:55 18.06.2020
1243 Clouds 14 1013 100 10000 2.6 230 09:37 18.06.2020
1244 Clouds 14 1013 100 10000 2.6 230 09:19 18.06.2020
1245 Clouds 13 1013 100 10000 3.6 230 08:40 18.06.2020
1246 Clouds 13 1013 100 10000 3.6 230 08:21 18.06.2020
1247 Mist 13 1012 100 5000 4.1 220 07:46 18.06.2020
1248 Mist 12 1012 100 5000 4.1 220 07:26 18.06.2020
1249 Mist 12 1012 100 4000 3.6 230 06:54 18.06.2020
1250 Clouds 12 1012 100 10000 3.1 230 05:58 18.06.2020
1251 Clouds 12 1012 100 10000 2.6 210 04:24 18.06.2020
1252 Clouds 12 1012 100 10000 3.6 220 02:51 18.06.2020
1253 Rain 13 1012 100 10000 3.6 220 01:29 18.06.2020
1254 Rain 13 1012 100 10000 4.1 220 00:57 18.06.2020
1255 Rain 13 1012 100 10000 4.6 220 00:38 18.06.2020
1256 Rain 13 1012 100 10000 4.6 220 00:20 18.06.2020
1257 Rain 13 1012 100 10000 4.1 230 23:43 17.06.2020
1258 Rain 13 1012 100 10000 4.1 230 23:21 17.06.2020
1259 Rain 13 1012 100 10000 3.6 240 22:57 17.06.2020
1260 Rain 13 1011 100 10000 5.1 250 22:38 17.06.2020
1261 Rain 13 1011 100 10000 5.1 250 22:20 17.06.2020
1262 Rain 13 1012 100 10000 5.7 260 21:55 17.06.2020
1263 Rain 13 1012 100 10000 5.7 260 21:37 17.06.2020
1264 Rain 13 1012 100 10000 5.7 260 21:18 17.06.2020
1265 Rain 13 1012 100 10000 5.7 260 21:18 17.06.2020
1266 Mist 13 1011 100 2800 7.2 220 20:38 17.06.2020
1267 Rain 13 1011 100 2800 7.2 220 20:38 17.06.2020
1268 Rain 14 1011 100 8000 7.7 230 20:20 17.06.2020
1269 Rain 14 1011 100 8000 7.7 230 19:56 17.06.2020
1270 Rain 15 1010 100 10000 4.6 230 19:37 17.06.2020
1271 Rain 15 1010 100 10000 4.6 230 19:18 17.06.2020
1272 Rain 16 1010 100 10000 2.1 240 18:45 17.06.2020
1273 Rain 16 1010 100 10000 2.1 240 18:27 17.06.2020
1274 Thunderstorm 17 1010 77 10000 4.1 240 17:46 17.06.2020
1275 Thunderstorm 17 1010 77 10000 4.1 240 17:23 17.06.2020
1276 Clouds 17 1010 77 10000 4.1 230 16:58 17.06.2020
1277 Clouds 18 1011 77 10000 3.6 250 16:39 17.06.2020
1278 Clouds 19 1011 77 10000 3.6 250 16:21 17.06.2020
1279 Clouds 18 1011 60 10000 1.5 10 15:58 17.06.2020
1280 Clouds 18 1011 56 10000 5.25 266 15:39 17.06.2020
1281 Clouds 20 1011 56 10000 4.65 259 15:19 17.06.2020
1282 Clouds 21 1011 60 10000 2.1 130 14:58 17.06.2020
1283 Clouds 18 1011 64 10000 2.6 80 14:39 17.06.2020
1284 Clouds 18 1011 64 10000 2.6 80 14:19 17.06.2020
1285 Clouds 20 1011 77 10000 4.43 257 13:56 17.06.2020
1286 Clouds 20 1012 77 10000 2.1 90 13:37 17.06.2020
1287 Clouds 20 1012 77 10000 2.1 90 13:19 17.06.2020
1288 Clouds 19 1012 77 10000 2.1 90 12:42 17.06.2020
1289 Clouds 19 1012 77 10000 2.1 90 12:23 17.06.2020
1290 Clouds 19 1012 100 10000 1.5 120 11:57 17.06.2020
1291 Clouds 19 1012 100 10000 1.5 120 11:57 17.06.2020
1292 Clouds 19 1012 100 10000 1.5 120 11:38 17.06.2020
1293 Clouds 18 1012 100 10000 1.5 120 11:20 17.06.2020
1294 Clouds 18 1012 100 10000 1.5 120 11:20 17.06.2020
1295 Clouds 18 1013 100 10000 2.1 120 10:38 17.06.2020
1296 Clouds 17 1013 100 10000 2.1 120 10:19 17.06.2020
1297 Clouds 17 1013 100 10000 2.1 120 10:19 17.06.2020
1298 Mist 17 1013 100 6000 1.5 90 09:58 17.06.2020
1299 Mist 16 1013 100 1600 1.29 6 09:40 17.06.2020
1300 Mist 16 1013 100 1600 0.8 15 09:20 17.06.2020
1301 Fog 15 1013 100 400 0.8 15 08:46 17.06.2020
1302 Fog 14 1013 100 400 0.94 20 08:21 17.06.2020
1303 Fog 14 1013 100 400 0.94 20 07:57 17.06.2020
1304 Mist 14 1013 100 1400 1 40 07:39 17.06.2020
1305 Mist 14 1013 100 1400 1 40 07:20 17.06.2020
1306 Mist 14 1013 100 3600 0.73 42 06:55 17.06.2020
1307 Mist 13 1013 100 8000 1.5 60 06:37 17.06.2020
1308 Mist 13 1013 100 8000 1.5 60 06:19 17.06.2020
1309 Mist 13 1013 100 2400 0.89 52 04:56 17.06.2020
1310 Clouds 14 1014 100 10000 0.51 64 02:55 17.06.2020
1311 Clouds 14 1014 93 10000 0.43 78 01:43 17.06.2020
1312 Clouds 14 1015 100 10000 0.59 93 00:41 17.06.2020
1313 Clouds 14 1015 100 10000 0.74 99 00:23 17.06.2020
1314 Clouds 14 1015 93 10000 0.74 99 23:56 16.06.2020
1315 Clouds 14 1015 93 10000 0.74 99 23:37 16.06.2020
1316 Clouds 15 1015 93 10000 0.88 109 23:19 16.06.2020
1317 Clouds 15 1015 93 10000 0.88 109 22:54 16.06.2020
1318 Drizzle 15 1015 93 10000 2.1 30 22:36 16.06.2020
1319 Drizzle 15 1015 93 10000 2.1 30 22:36 16.06.2020
1320 Drizzle 15 1015 93 10000 2.1 30 22:18 16.06.2020
1321 Rain 16 1015 100 10000 0.95 132 21:47 16.06.2020
1322 Rain 16 1015 100 10000 3.1 70 21:23 16.06.2020
1323 Drizzle 17 1014 82 10000 1.5 80 20:57 16.06.2020
1324 Clouds 17 1014 82 10000 3.6 60 20:39 16.06.2020
1325 Clouds 18 1014 82 10000 3.6 60 20:19 16.06.2020
1326 Clouds 18 1014 82 10000 3.6 60 20:19 16.06.2020
1327 Rain 18 1014 68 10000 3.1 90 19:57 16.06.2020
1328 Clouds 19 1014 68 10000 3.1 40 19:39 16.06.2020
1329 Clouds 19 1014 68 10000 3.1 40 19:21 16.06.2020
1330 Clouds 20 1014 68 10000 3.1 40 18:55 16.06.2020
1331 Clouds 20 1014 68 10000 3.1 40 18:36 16.06.2020
1332 Clouds 20 1014 68 10000 3.1 40 18:18 16.06.2020
1333 Clouds 21 1015 64 10000 4.6 80 17:54 16.06.2020
1334 Clouds 21 1015 64 10000 4.6 80 17:36 16.06.2020
1335 Clouds 21 1015 64 10000 4.6 80 17:18 16.06.2020
1336 Clouds 22 1015 49 10000 1.08 92 16:42 16.06.2020
1337 Clouds 22 1015 49 10000 0.97 91 16:20 16.06.2020
1338 Clouds 21 1015 52 10000 2.1 220 15:58 16.06.2020
1339 Clouds 21 1015 52 10000 2.1 220 15:40 16.06.2020
1340 Clouds 21 1015 52 10000 2.1 220 15:22 16.06.2020
1341 Clouds 21 1016 56 10000 2.6 190 14:59 16.06.2020
1342 Clouds 20 1016 56 10000 2.6 190 14:41 16.06.2020
1343 Clouds 20 1016 56 10000 2.6 190 14:22 16.06.2020
1344 Clouds 20 1016 56 10000 1.5 220 13:48 16.06.2020
1345 Clouds 19 1016 60 10000 2.1 190 13:26 16.06.2020
1346 Clouds 19 1016 68 10000 0.68 122 12:57 16.06.2020
1347 Drizzle 19 1016 60 10000 1.5 150 12:38 16.06.2020
1348 Drizzle 19 1016 60 10000 1.5 150 12:20 16.06.2020
1349 Clouds 18 1017 63 10000 1.34 210 11:55 16.06.2020
1350 Clouds 18 1017 60 10000 1.34 210 11:37 16.06.2020
1351 Clouds 18 1017 60 10000 1.75 204 11:19 16.06.2020
1352 Clouds 18 1017 77 10000 1.75 204 10:42 16.06.2020
1353 Clouds 18 1017 77 10000 1.3 214 10:21 16.06.2020
1354 Clouds 18 1017 82 10000 1.3 214 09:58 16.06.2020
1355 Clouds 17 1017 87 10000 1.3 214 09:40 16.06.2020
1356 Clouds 16 1017 87 10000 1.43 235 09:21 16.06.2020
1357 Clouds 14 1017 87 10000 1.46 224 08:44 16.06.2020
1358 Clouds 16 1017 87 10000 1.38 222 08:25 16.06.2020
1359 Clouds 15 1017 87 10000 1.38 222 07:50 16.06.2020
1360 Clouds 15 1017 87 10000 1.28 213 07:27 16.06.2020
1361 Clouds 15 1017 87 10000 1.5 240 06:48 16.06.2020
1362 Clouds 14 1017 93 10000 1.02 202 06:27 16.06.2020
1363 Clouds 14 1017 87 10000 1.02 202 05:39 16.06.2020
1364 Clouds 15 1017 87 10000 2.6 230 04:39 16.06.2020
1365 Clouds 16 1018 82 10000 0.88 215 02:59 16.06.2020
1366 Clouds 15 1018 72 10000 1.5 240 02:00 16.06.2020
1367 Clouds 16 1018 72 10000 1.5 240 01:30 16.06.2020
1368 Clouds 17 1018 72 10000 1.29 227 00:45 16.06.2020
1369 Clouds 17 1018 72 10000 1.39 224 00:21 16.06.2020
1370 Clouds 17 1018 72 10000 1.5 280 23:43 15.06.2020
1371 Clouds 17 1018 72 10000 1.5 280 23:23 15.06.2020
1372 Clouds 17 1018 68 10000 3.1 220 22:56 15.06.2020
1373 Clouds 17 1018 68 10000 3.1 220 22:38 15.06.2020
1374 Clouds 17 1018 68 10000 3.1 220 22:19 15.06.2020
1375 Clouds 18 1017 72 10000 2.1 220 21:56 15.06.2020
1376 Clouds 18 1017 72 10000 2.1 220 21:37 15.06.2020
1377 Clouds 18 1017 72 10000 2.1 220 21:19 15.06.2020
1378 Clouds 19 1017 64 10000 3.6 210 20:56 15.06.2020
1379 Clouds 19 1017 64 10000 3.6 210 20:38 15.06.2020
1380 Clouds 20 1017 64 10000 3.6 210 20:19 15.06.2020
1381 Clouds 20 1017 60 10000 3.1 210 19:56 15.06.2020
1382 Clouds 20 1017 60 10000 3.1 210 19:38 15.06.2020
1383 Clouds 20 1017 60 10000 3.1 210 19:19 15.06.2020
1384 Clouds 21 1017 56 10000 4.6 220 18:55 15.06.2020
1385 Clouds 21 1017 56 10000 4.6 220 18:37 15.06.2020
1386 Clouds 21 1017 56 10000 4.6 220 18:19 15.06.2020
1387 Clouds 21 1017 53 10000 3.6 250 17:42 15.06.2020
1388 Clouds 21 1017 53 10000 3.6 250 17:22 15.06.2020
1389 Clouds 21 1017 53 10000 4.1 250 16:59 15.06.2020
1390 Clouds 21 1017 53 10000 4.1 250 16:41 15.06.2020
1391 Clouds 21 1017 53 10000 4.1 250 16:19 15.06.2020
1392 Clouds 22 1018 53 10000 3.6 240 15:56 15.06.2020
1393 Clouds 21 1018 53 10000 3.6 240 15:37 15.06.2020
1394 Clouds 21 1018 53 10000 3.6 240 15:18 15.06.2020
1395 Clouds 20 1018 60 10000 3.6 270 14:42 15.06.2020
1396 Clouds 20 1018 60 10000 3.6 270 14:21 15.06.2020
1397 Clouds 20 1018 56 10000 3.6 230 13:59 15.06.2020
1398 Clouds 20 1018 56 10000 3.6 230 13:41 15.06.2020
1399 Clouds 20 1018 56 10000 3.6 230 13:41 15.06.2020
1400 Clouds 20 1018 56 10000 3.6 230 13:22 15.06.2020
1401 Clouds 19 1018 56 10000 3.6 280 12:58 15.06.2020
1402 Clouds 20 1018 56 10000 3.6 280 12:39 15.06.2020
1403 Clouds 20 1018 56 10000 3.6 280 12:21 15.06.2020
1404 Clouds 19 1018 64 10000 2.6 240 11:44 15.06.2020
1405 Clouds 19 1018 64 10000 2.6 240 11:25 15.06.2020
1406 Clouds 19 1018 64 10000 2.1 280 10:56 15.06.2020
1407 Clouds 18 1018 82 10000 2.6 240 10:36 15.06.2020
1408 Clouds 18 1018 82 10000 2.6 240 10:18 15.06.2020
1409 Clouds 17 1018 100 10000 2.1 240 09:41 15.06.2020
1410 Clouds 16 1018 100 10000 2.1 240 09:21 15.06.2020
1411 Clouds 15 1018 100 10000 2.1 250 08:42 15.06.2020
1412 Clouds 15 1018 100 10000 2.1 250 08:23 15.06.2020
1413 Mist 14 1018 100 8000 2.6 250 07:48 15.06.2020
1414 Mist 14 1017 100 5000 2.1 250 07:29 15.06.2020
1415 Clouds 14 1018 100 3600 2.6 250 06:50 15.06.2020
1416 Mist 14 1017 100 3200 2.1 270 06:26 15.06.2020
1417 Clouds 14 1017 100 10000 2.1 240 05:47 15.06.2020
1418 Clouds 14 1017 100 10000 2.1 240 05:27 15.06.2020
1419 Clouds 14 1017 100 10000 1.5 260 04:21 15.06.2020
1420 Clouds 14 1017 100 10000 2.1 240 03:47 15.06.2020
1421 Clouds 14 1017 100 10000 2.1 240 02:55 15.06.2020
1422 Rain 14 1017 100 10000 1.5 250 01:59 15.06.2020
1423 Clouds 14 1017 100 10000 1.5 250 01:39 15.06.2020
1424 Clouds 15 1017 100 10000 1.5 250 01:21 15.06.2020
1425 Clouds 15 1017 100 10000 2.1 240 00:40 15.06.2020
1426 Clouds 15 1017 100 10000 2.1 240 00:20 15.06.2020
1427 Clear 15 1017 100 10000 3.1 230 23:55 14.06.2020
1428 Drizzle 15 1017 100 10000 2.1 240 23:36 14.06.2020
1429 Drizzle 15 1017 100 10000 2.1 240 23:18 14.06.2020
1430 Clouds 15 1017 100 10000 2.1 230 22:55 14.06.2020
1431 Rain 15 1017 93 10000 2.1 240 22:37 14.06.2020
1432 Rain 15 1017 93 10000 2.1 240 22:18 14.06.2020
1433 Rain 16 1017 93 10000 2.6 260 21:55 14.06.2020
1434 Rain 16 1017 87 10000 3.1 240 21:36 14.06.2020
1435 Rain 16 1017 87 10000 3.1 240 21:18 14.06.2020
1436 Drizzle 16 1016 82 10000 3.6 240 20:55 14.06.2020
1437 Drizzle 16 1016 82 10000 3.6 240 20:55 14.06.2020
1438 Clouds 17 1016 72 10000 4.1 240 20:36 14.06.2020
1439 Clouds 17 1016 72 10000 4.1 240 20:18 14.06.2020
1440 Clouds 18 1016 68 10000 4.6 230 19:55 14.06.2020
1441 Clouds 18 1016 68 10000 4.6 230 19:36 14.06.2020
1442 Clouds 18 1016 68 10000 4.6 230 19:18 14.06.2020
1443 Clouds 18 1016 72 10000 5.1 230 18:55 14.06.2020
1444 Clouds 19 1016 72 10000 5.1 230 18:37 14.06.2020
1445 Clouds 19 1016 72 10000 5.1 230 18:18 14.06.2020
1446 Clouds 18 1016 68 10000 4.6 230 17:40 14.06.2020
1447 Clouds 18 1016 68 10000 4.6 230 17:20 14.06.2020
1448 Clouds 18 1016 77 10000 5.1 220 16:59 14.06.2020
1449 Clouds 18 1016 77 10000 5.1 220 16:40 14.06.2020
1450 Clouds 18 1016 77 10000 5.1 220 16:20 14.06.2020
1451 Clouds 18 1016 72 10000 5.7 240 15:57 14.06.2020
1452 Clouds 17 1016 72 10000 5.7 240 15:38 14.06.2020
1453 Clouds 17 1016 72 10000 5.7 240 15:18 14.06.2020
1454 Clouds 17 1016 72 10000 4.6 240 14:55 14.06.2020
1455 Clouds 18 1016 72 10000 4.6 240 14:36 14.06.2020
1456 Clouds 17 1016 72 10000 4.6 240 14:18 14.06.2020
1457 Clouds 16 1016 77 10000 5.1 230 13:41 14.06.2020
1458 Clouds 16 1016 77 10000 5.1 230 13:22 14.06.2020
1459 Clouds 16 1016 82 10000 3.6 220 12:59 14.06.2020
1460 Clouds 16 1016 82 10000 3.6 220 12:40 14.06.2020
1461 Clouds 16 1016 82 10000 3.6 220 12:22 14.06.2020
1462 Clouds 16 1016 82 10000 3.1 230 11:59 14.06.2020
1463 Clouds 16 1016 82 10000 3.1 230 11:40 14.06.2020
1464 Clouds 15 1016 82 10000 3.1 230 11:21 14.06.2020
1465 Clouds 15 1016 82 10000 2.1 230 10:57 14.06.2020
1466 Clouds 16 1016 82 10000 2.1 230 10:38 14.06.2020
1467 Clouds 16 1016 82 10000 2.1 230 10:18 14.06.2020
1468 Clouds 16 1015 77 10000 2.6 230 09:42 14.06.2020
1469 Clouds 16 1015 77 10000 2.6 230 09:23 14.06.2020
1470 Clouds 16 1014 82 10000 2.6 250 08:42 14.06.2020
1471 Clouds 16 1014 82 10000 2.6 250 08:22 14.06.2020
1472 Clouds 16 1014 82 10000 2.6 250 08:22 14.06.2020
1473 Clouds 15 1014 93 10000 4.6 240 07:53 14.06.2020
1474 Clouds 15 1014 93 10000 4.6 240 07:35 14.06.2020
1475 Clouds 15 1014 93 10000 3.6 240 06:58 14.06.2020
1476 Clouds 15 1014 100 10000 4.1 230 05:56 14.06.2020
1477 Clouds 15 1014 100 10000 4.1 230 05:34 14.06.2020
1478 Rain 15 1014 100 10000 3.1 200 04:39 14.06.2020
1479 Clouds 16 1014 87 10000 4.6 100 03:55 14.06.2020
1480 Clouds 16 1014 82 10000 3.1 230 02:43 14.06.2020
1481 Clouds 16 1014 82 10000 3.1 230 02:23 14.06.2020
1482 Clouds 17 1014 82 10000 2.6 230 01:30 14.06.2020
1483 Clouds 17 1014 82 10000 3.6 250 00:49 14.06.2020
1484 Clouds 17 1014 82 10000 3.6 250 00:29 14.06.2020
1485 Clouds 17 1013 77 10000 3.6 240 23:49 13.06.2020
1486 Clouds 17 1013 77 10000 3.6 240 23:31 13.06.2020
1487 Clouds 18 1013 77 10000 2.1 250 22:59 13.06.2020
1488 Clouds 17 1013 77 10000 2.1 250 22:38 13.06.2020
1489 Clouds 18 1013 77 10000 2.1 250 22:19 13.06.2020
1490 Clouds 19 1013 72 10000 2.6 250 21:58 13.06.2020
1491 Clouds 19 1013 72 10000 2.6 250 21:40 13.06.2020
1492 Clouds 19 1013 72 10000 2.6 250 21:21 13.06.2020
1493 Clouds 19 1012 68 10000 2.6 250 20:54 13.06.2020
1494 Clouds 19 1012 68 10000 2.6 250 20:36 13.06.2020
1495 Clouds 19 1012 68 10000 2.6 250 20:18 13.06.2020
1496 Clouds 20 1012 60 10000 3.1 220 19:40 13.06.2020
1497 Clouds 20 1012 60 10000 3.1 220 19:20 13.06.2020
1498 Clouds 20 1012 53 10000 1.5 240 18:59 13.06.2020
1499 Clouds 20 1012 53 10000 1.5 240 18:40 13.06.2020
1500 Clouds 22 1012 53 10000 1.5 240 18:20 13.06.2020
1501 Clouds 22 1012 56 10000 2.51 254 17:57 13.06.2020
1502 Clouds 22 1012 56 10000 2.51 254 17:39 13.06.2020
1503 Clouds 22 1012 56 10000 1.73 253 17:20 13.06.2020
1504 Clouds 23 1012 56 10000 1.73 253 16:55 13.06.2020
1505 Clouds 22 1012 56 10000 1.73 253 16:37 13.06.2020
1506 Clouds 22 1012 56 10000 2.07 265 16:18 13.06.2020
1507 Clouds 21 1012 56 10000 1.5 240 15:44 13.06.2020
1508 Clouds 21 1012 56 10000 1.5 240 15:26 13.06.2020
1509 Clouds 22 1012 60 10000 1.5 200 14:55 13.06.2020
1510 Clouds 21 1012 60 10000 1.5 200 14:36 13.06.2020
1511 Clouds 21 1012 60 10000 3.48 235 14:18 13.06.2020
1512 Clouds 21 1012 60 10000 3.48 235 13:41 13.06.2020
1513 Clouds 22 1012 60 10000 3.09 234 13:23 13.06.2020
1514 Clouds 21 1012 64 10000 2.6 180 12:44 13.06.2020
1515 Clouds 20 1012 64 10000 2.6 180 12:26 13.06.2020
1516 Clear 20 1012 72 10000 2.6 190 11:59 13.06.2020
1517 Clear 20 1012 72 10000 2.6 190 11:40 13.06.2020
1518 Clear 20 1012 72 10000 2.6 190 11:19 13.06.2020
1519 Clear 20 1012 72 10000 2.6 190 11:19 13.06.2020
1520 Clouds 19 1012 88 10000 1.67 184 10:57 13.06.2020
1521 Clouds 19 1012 88 10000 1.67 184 10:38 13.06.2020
1522 Clouds 18 1012 88 10000 1.09 146 10:19 13.06.2020
1523 Clouds 17 1012 100 10000 1.09 146 09:45 13.06.2020
1524 Clouds 14 1012 100 10000 1.01 131 09:27 13.06.2020
1525 Clouds 16 1012 100 10000 2.1 70 08:55 13.06.2020
1526 Mist 15 1011 100 2000 1.55 149 08:37 13.06.2020
1527 Mist 15 1011 100 2000 0.73 74 08:19 13.06.2020
1528 Mist 14 1011 100 2000 2.1 60 07:42 13.06.2020
1529 Mist 13 1011 100 2000 2.1 60 07:22 13.06.2020
1530 Clouds 13 1011 100 10000 0.69 119 06:38 13.06.2020
1531 Clouds 12 1011 100 10000 0.15 117 06:19 13.06.2020
1532 Clouds 13 1010 100 10000 0.42 146 05:27 13.06.2020
1533 Clear 13 1010 100 10000 0.42 146 04:34 13.06.2020
1534 Rain 13 1011 100 10000 3.1 260 02:55 13.06.2020
1535 Rain 13 1011 100 10000 3.1 260 02:37 13.06.2020
1536 Drizzle 15 1011 93 10000 3.6 220 01:48 13.06.2020
1537 Drizzle 14 1011 93 10000 3.6 220 01:22 13.06.2020
1538 Clouds 15 1009 93 10000 4.6 260 00:48 13.06.2020
1539 Drizzle 16 1009 93 10000 3.6 260 00:27 13.06.2020
1540 Clouds 17 1009 87 10000 4.1 280 23:58 12.06.2020
1541 Clouds 16 1007 100 10000 3.6 240 23:38 12.06.2020
1542 Clouds 17 1007 100 10000 3.6 240 23:18 12.06.2020
1543 Clouds 16 1007 82 10000 3.1 260 22:42 12.06.2020
1544 Clouds 18 1007 82 10000 3.1 260 22:19 12.06.2020
1545 Clear 19 1006 77 10000 4.1 290 21:56 12.06.2020
1546 Clear 18 1006 77 10000 4.1 290 21:37 12.06.2020
1547 Clear 20 1006 77 10000 4.1 290 21:19 12.06.2020
1548 Clouds 22 1006 64 10000 6.7 220 20:56 12.06.2020
1549 Thunderstorm 23 1006 49 10000 2.1 90 20:37 12.06.2020
1550 Thunderstorm 23 1006 49 10000 2.1 90 20:19 12.06.2020
1551 Clouds 24 1005 44 10000 2.6 70 19:39 12.06.2020
1552 Clouds 25 1005 44 10000 2.6 70 19:21 12.06.2020
1553 Clouds 25 1005 47 10000 3.1 60 18:58 12.06.2020
1554 Clouds 25 1005 47 10000 3.1 60 18:36 12.06.2020
1555 Clouds 25 1005 47 10000 2.6 70 18:18 12.06.2020
1556 Clouds 24 1005 47 10000 2.6 70 17:40 12.06.2020
1557 Clouds 25 1005 47 10000 2.6 70 17:22 12.06.2020
1558 Clouds 25 1006 47 10000 3.6 70 16:45 12.06.2020
1559 Clouds 24 1006 47 10000 3.6 70 16:21 12.06.2020
1560 Clouds 25 1006 50 10000 4.1 60 15:50 12.06.2020
1561 Clouds 24 1006 50 10000 4.1 60 15:28 12.06.2020
1562 Clouds 24 1006 53 10000 3.1 80 14:59 12.06.2020
1563 Clouds 24 1006 53 10000 3.1 80 14:41 12.06.2020
1564 Clouds 24 1006 53 10000 3.1 80 14:21 12.06.2020
1565 Clear 24 1006 53 10000 5.7 70 13:56 12.06.2020
1566 Clear 24 1006 53 10000 5.7 70 13:37 12.06.2020
1567 Clear 23 1007 56 10000 4.1 90 13:18 12.06.2020
1568 Clear 22 1007 56 10000 4.1 90 12:39 12.06.2020
1569 Clear 21 1007 56 10000 4.1 90 12:19 12.06.2020
1570 Clear 21 1007 68 10000 3.1 70 11:44 12.06.2020
1571 Clear 21 1007 68 10000 3.1 70 11:23 12.06.2020
1572 Clear 21 1007 68 10000 3.1 70 11:23 12.06.2020
1573 Clear 20 1007 72 10000 4.1 60 10:57 12.06.2020
1574 Clear 19 1007 72 10000 4.1 60 10:39 12.06.2020
1575 Clear 19 1007 72 10000 4.1 60 10:21 12.06.2020
1576 Clear 18 1007 77 10000 5.7 60 09:44 12.06.2020
1577 Clear 16 1007 77 10000 5.7 60 09:20 12.06.2020
1578 Clear 15 1007 87 10000 4.6 50 08:42 12.06.2020
1579 Clear 15 1007 87 10000 4.6 50 08:23 12.06.2020
1580 Clear 14 1007 93 10000 4.1 50 07:43 12.06.2020
1581 Clear 13 1007 93 10000 4.1 50 07:24 12.06.2020
1582 Clear 12 1008 100 10000 4.1 50 06:44 12.06.2020
1583 Clear 12 1008 100 10000 4.1 50 06:24 12.06.2020
1584 Clear 11 1007 100 10000 4.6 50 05:50 12.06.2020
1585 Clear 11 1007 100 10000 4.6 50 05:26 12.06.2020
1586 Clear 12 1008 93 10000 4.1 50 03:58 12.06.2020
1587 Clear 12 1009 93 10000 3.1 50 02:46 12.06.2020
1588 Clouds 12 1009 93 10000 2.1 60 01:52 12.06.2020
1589 Clouds 12 1009 93 10000 2.1 60 01:23 12.06.2020
1590 Clear 13 1009 87 10000 3.6 50 00:42 12.06.2020
1591 Clear 13 1009 87 10000 3.6 50 00:24 12.06.2020
1592 Clouds 13 1010 87 10000 1.5 60 23:59 11.06.2020
1593 Clouds 13 1010 87 10000 1.5 60 23:40 11.06.2020
1594 Clouds 13 1010 87 10000 1.5 60 23:21 11.06.2020
1595 Clouds 13 1009 87 10000 1.5 30 22:57 11.06.2020
1596 Clouds 14 1009 77 10000 3.6 40 22:38 11.06.2020
1597 Clouds 14 1009 77 10000 3.6 40 22:19 11.06.2020
1598 Clouds 14 1009 77 10000 3.6 40 22:19 11.06.2020
1599 Clouds 15 1009 77 10000 3.6 40 21:55 11.06.2020
1600 Clouds 16 1009 72 10000 5.7 50 21:37 11.06.2020
1601 Clouds 16 1009 72 10000 5.7 50 21:19 11.06.2020
1602 Clouds 17 1009 67 10000 4.6 50 20:43 11.06.2020
1603 Clouds 17 1009 67 10000 4.6 50 20:21 11.06.2020
1604 Clouds 18 1009 67 10000 4.1 50 19:55 11.06.2020
1605 Clouds 18 1009 67 10000 4.1 50 19:36 11.06.2020
1606 Clouds 17 1009 67 10000 4.1 50 19:18 11.06.2020
1607 Clouds 17 1009 67 10000 3.1 60 18:41 11.06.2020
1608 Clouds 17 1009 67 10000 3.1 60 18:20 11.06.2020
1609 Clouds 17 1009 67 10000 3.1 60 18:20 11.06.2020
1610 Clouds 17 1009 67 10000 5.1 50 17:56 11.06.2020
1611 Clouds 17 1009 67 10000 5.1 50 17:37 11.06.2020
1612 Clouds 17 1009 67 10000 5.1 50 17:19 11.06.2020
1613 Clouds 17 1009 63 10000 3.1 90 16:56 11.06.2020
1614 Clouds 17 1009 63 10000 3.1 90 16:37 11.06.2020
1615 Clouds 17 1009 63 10000 3.1 90 16:19 11.06.2020
1616 Clouds 17 1010 67 10000 4.1 80 15:42 11.06.2020
1617 Clouds 18 1010 67 10000 4.1 80 15:23 11.06.2020
1618 Clouds 17 1010 67 10000 4.1 50 14:56 11.06.2020
1619 Clouds 17 1010 63 10000 3.1 80 14:38 11.06.2020
1620 Clouds 17 1010 63 10000 3.1 80 14:20 11.06.2020
1621 Clouds 17 1010 63 10000 3.1 50 13:55 11.06.2020
1622 Clouds 17 1010 63 10000 3.1 50 13:37 11.06.2020
1623 Clouds 17 1010 63 10000 3.1 50 13:18 11.06.2020
1624 Clouds 17 1010 67 10000 3.1 60 12:54 11.06.2020
1625 Clouds 17 1010 67 10000 3.1 60 12:36 11.06.2020
1626 Clouds 17 1010 67 10000 3.1 60 12:18 11.06.2020
1627 Clouds 16 1010 77 10000 2.1 60 11:56 11.06.2020
1628 Clouds 16 1010 63 10000 2.1 40 11:37 11.06.2020
1629 Clouds 16 1010 72 10000 3.1 60 11:18 11.06.2020
1630 Clouds 15 1011 77 10000 2.6 80 10:42 11.06.2020
1631 Clouds 16 1011 77 10000 2.1 80 10:19 11.06.2020
1632 Clouds 15 1011 76 10000 2.1 80 09:45 11.06.2020
1633 Clouds 14 1011 76 10000 2.1 80 09:26 11.06.2020
1634 Clouds 13 1011 82 10000 3.6 50 08:55 11.06.2020
1635 Clouds 13 1011 82 10000 3.1 60 08:37 11.06.2020
1636 Clouds 14 1011 82 10000 3.6 50 08:18 11.06.2020
1637 Clouds 13 1011 76 10000 3.6 40 07:42 11.06.2020
1638 Clouds 13 1011 76 10000 3.6 40 07:23 11.06.2020
1639 Clouds 12 1011 82 10000 2.1 40 06:35 11.06.2020
1640 Clouds 12 1011 82 10000 2.6 50 05:57 11.06.2020
1641 Clouds 13 1012 87 10000 2.6 60 04:48 11.06.2020
1642 Clouds 12 1012 87 10000 3.1 40 03:25 11.06.2020
1643 Clouds 12 1012 93 10000 2.1 60 02:49 11.06.2020
1644 Clouds 13 1013 82 10000 0.91 47 01:57 11.06.2020
1645 Clouds 13 1013 82 10000 0.91 47 01:35 11.06.2020
1646 Clouds 13 1013 82 10000 0.89 66 00:59 11.06.2020
1647 Clouds 13 1013 82 10000 0.89 66 00:39 11.06.2020
1648 Clouds 13 1013 82 10000 1.07 83 00:20 11.06.2020
1649 Clouds 13 1013 87 10000 1.07 83 23:43 10.06.2020
1650 Clouds 14 1013 76 10000 1.34 81 23:23 10.06.2020
1651 Clouds 14 1013 72 10000 1.34 81 22:56 10.06.2020
1652 Clouds 14 1013 72 10000 1.34 81 22:37 10.06.2020
1653 Clouds 14 1013 72 10000 1.63 66 22:18 10.06.2020
1654 Clouds 14 1013 76 10000 1.63 66 21:55 10.06.2020
1655 Clouds 14 1013 76 10000 1.63 66 21:37 10.06.2020
1656 Clouds 14 1013 76 10000 1.67 60 21:18 10.06.2020
1657 Clouds 15 1013 72 10000 2.1 40 20:56 10.06.2020
1658 Clouds 15 1013 72 10000 2.6 60 20:37 10.06.2020
1659 Clouds 15 1013 72 10000 2.6 60 20:19 10.06.2020
1660 Clouds 16 1013 67 10000 2.6 60 19:40 10.06.2020
1661 Clouds 16 1013 72 10000 2.6 30 19:19 10.06.2020
1662 Clouds 16 1013 72 10000 2.6 30 18:57 10.06.2020
1663 Clouds 16 1013 67 10000 2.6 40 18:39 10.06.2020
1664 Drizzle 16 1014 67 10000 5.1 40 18:19 10.06.2020
1665 Drizzle 16 1014 67 10000 5.1 40 17:55 10.06.2020
1666 Clouds 16 1014 72 10000 3.6 60 17:37 10.06.2020
1667 Clouds 16 1014 72 10000 3.6 60 17:18 10.06.2020
1668 Clouds 16 1014 72 10000 4.1 70 16:56 10.06.2020
1669 Rain 16 1014 72 10000 3.1 350 16:38 10.06.2020
1670 Clouds 16 1014 72 10000 4.1 30 16:18 10.06.2020
1671 Clouds 16 1014 77 10000 4.6 50 15:40 10.06.2020
1672 Clouds 15 1014 77 10000 5.1 40 15:21 10.06.2020
1673 Clouds 15 1015 77 10000 2.6 80 14:56 10.06.2020
1674 Clouds 15 1014 77 10000 3.6 50 14:38 10.06.2020
1675 Clouds 15 1014 77 10000 3.6 50 14:20 10.06.2020
1676 Clouds 15 1015 82 10000 2.1 110 13:41 10.06.2020
1677 Clouds 15 1015 82 10000 2.1 110 13:21 10.06.2020
1678 Clouds 15 1015 72 10000 2.6 60 12:45 10.06.2020
1679 Clouds 16 1015 72 10000 2.6 60 12:23 10.06.2020
1680 Clouds 15 1015 77 10000 3.8 33 11:59 10.06.2020
1681 Clouds 15 1015 77 10000 3.1 60 11:40 10.06.2020
1682 Clouds 15 1015 77 10000 3.1 60 11:19 10.06.2020
1683 Clouds 15 1015 82 10000 2.6 40 10:57 10.06.2020
1684 Clouds 14 1016 87 10000 3.1 30 10:39 10.06.2020
1685 Clouds 14 1016 87 10000 3.1 30 10:20 10.06.2020
1686 Clouds 13 1016 93 10000 2.65 34 09:42 10.06.2020
1687 Clouds 13 1016 93 10000 2.02 27 09:23 10.06.2020
1688 Clouds 12 1016 93 10000 1.88 20 08:57 10.06.2020
1689 Clouds 12 1015 100 10000 1.88 20 08:38 10.06.2020
1690 Clouds 12 1015 100 10000 1.54 15 08:20 10.06.2020
1691 Mist 11 1015 100 8000 1.5 260 07:39 10.06.2020
1692 Mist 11 1015 100 8000 1.5 260 07:21 10.06.2020
1693 Mist 10 1015 100 4400 1.43 17 06:46 10.06.2020
1694 Mist 10 1015 100 4400 1.37 26 06:24 10.06.2020
1695 Mist 10 1015 100 4000 1.37 26 05:58 10.06.2020
1696 Mist 10 1015 100 6000 1.44 29 05:26 10.06.2020
1697 Clouds 11 1016 93 10000 1.5 40 04:36 10.06.2020
1698 Clouds 12 1017 100 10000 1.59 20 02:57 10.06.2020
1699 Clouds 12 1017 100 10000 1.5 18 02:22 10.06.2020
1700 Mist 12 1017 93 9000 1.31 29 01:38 10.06.2020
1701 Rain 12 1017 93 10000 2.1 330 00:40 10.06.2020
1702 Rain 12 1017 93 10000 2.1 330 00:22 10.06.2020
1703 Clouds 12 1017 93 10000 1.33 24 23:57 09.06.2020
1704 Clouds 12 1017 87 10000 4.6 360 23:39 09.06.2020
1705 Clouds 13 1017 93 10000 1.39 11 23:20 09.06.2020
1706 Clouds 13 1017 87 10000 1.5 10 22:56 09.06.2020
1707 Clouds 13 1017 93 10000 1.39 11 22:38 09.06.2020
1708 Clouds 13 1017 93 10000 1.39 10 22:19 09.06.2020
1709 Mist 13 1017 93 9000 1.39 10 21:56 09.06.2020
1710 Mist 13 1016 93 9000 1.39 10 21:38 09.06.2020
1711 Mist 13 1016 93 9000 1.39 10 21:38 09.06.2020
1712 Mist 13 1016 93 9000 1.23 37 21:20 09.06.2020
1713 Clouds 13 1016 93 10000 2.1 330 20:56 09.06.2020
1714 Clouds 14 1016 93 10000 2.6 350 20:38 09.06.2020
1715 Clouds 14 1016 93 10000 2.6 350 20:18 09.06.2020
1716 Clouds 14 1016 93 10000 2.6 340 19:57 09.06.2020
1717 Rain 14 1016 93 10000 3.1 350 19:38 09.06.2020
1718 Rain 14 1016 93 10000 3.1 350 19:20 09.06.2020
1719 Rain 14 1016 93 10000 3.1 350 19:20 09.06.2020
1720 Rain 14 1016 93 10000 3.1 350 18:56 09.06.2020
1721 Rain 15 1016 93 10000 3.1 340 18:37 09.06.2020
1722 Rain 15 1016 93 10000 3.1 340 18:18 09.06.2020
1723 Drizzle 15 1016 87 10000 2.1 340 17:54 09.06.2020
1724 Rain 15 1016 87 10000 1.5 350 17:36 09.06.2020
1725 Rain 15 1016 87 10000 1.5 350 17:18 09.06.2020
1726 Rain 15 1016 82 6000 3.1 110 16:42 09.06.2020
1727 Rain 17 1015 59 10000 2.1 310 16:22 09.06.2020
1728 Clouds 16 1016 72 10000 2.1 270 15:55 09.06.2020
1729 Drizzle 16 1016 72 10000 2.6 300 15:37 09.06.2020
1730 Drizzle 16 1016 72 10000 2.6 300 15:18 09.06.2020
1731 Drizzle 17 1016 77 10000 2.6 280 14:41 09.06.2020
1732 Clouds 17 1016 82 10000 3.1 250 14:21 09.06.2020
1733 Rain 18 1016 72 10000 4.1 110 13:58 09.06.2020
1734 Rain 18 1016 72 10000 3.1 10 13:40 09.06.2020
1735 Rain 18 1016 72 10000 3.1 10 13:21 09.06.2020
1736 Rain 17 1016 67 10000 2.1 50 12:55 09.06.2020
1737 Clouds 17 1016 63 10000 3.1 30 12:37 09.06.2020
1738 Clouds 16 1016 63 10000 3.1 30 12:18 09.06.2020
1739 Clouds 15 1017 67 10000 4.1 70 11:54 09.06.2020
1740 Clouds 15 1017 67 10000 4.1 70 11:36 09.06.2020
1741 Clouds 16 1017 67 10000 4.1 70 11:18 09.06.2020
1742 Clouds 15 1016 72 10000 2.1 30 10:42 09.06.2020
1743 Clouds 15 1016 72 10000 2.1 30 10:24 09.06.2020
1744 Clouds 13 1016 82 10000 3.6 20 09:44 09.06.2020
1745 Clouds 13 1016 82 10000 3.6 20 09:24 09.06.2020
1746 Clouds 11 1016 93 10000 1.5 120 08:57 09.06.2020
1747 Clouds 11 1016 93 10000 1.5 120 08:38 09.06.2020
1748 Clouds 11 1016 93 10000 1.5 120 08:20 09.06.2020
1749 Clear 11 1016 93 10000 2.55 25 07:38 09.06.2020
1750 Clear 11 1016 93 10000 1.96 22 07:20 09.06.2020
1751 Clouds 10 1016 93 10000 1.5 110 06:54 09.06.2020
1752 Clouds 10 1016 93 10000 1.5 110 06:35 09.06.2020
1753 Clear 10 1015 93 10000 1.68 29 05:36 09.06.2020
1754 Clouds 10 1016 87 10000 2.1 80 03:47 09.06.2020
1755 Clouds 12 1016 81 10000 1.58 26 01:44 09.06.2020
1756 Clouds 12 1016 81 10000 1.54 27 01:20 09.06.2020
1757 Clouds 12 1016 81 10000 2.1 120 00:58 09.06.2020
1758 Clouds 12 1015 81 10000 2.1 50 00:38 09.06.2020
1759 Clouds 12 1015 81 10000 2.1 50 00:18 09.06.2020
1760 Clouds 12 1015 71 10000 3.6 340 23:40 08.06.2020
1761 Clouds 12 1015 76 10000 2.1 330 23:20 08.06.2020
1762 Clouds 12 1015 76 10000 2.1 330 23:20 08.06.2020
1763 Clouds 13 1015 76 10000 1.36 10 22:56 08.06.2020
1764 Clouds 13 1015 62 10000 3.1 360 22:38 08.06.2020
1765 Clouds 13 1015 76 10000 1.38 26 22:19 08.06.2020
1766 Clouds 13 1014 71 10000 4.1 340 21:55 08.06.2020
1767 Clouds 13 1014 71 10000 4.1 340 21:36 08.06.2020
1768 Clouds 14 1014 71 10000 4.1 340 21:18 08.06.2020
1769 Clouds 15 1014 62 10000 4.1 330 20:54 08.06.2020
1770 Clouds 15 1014 63 10000 4.1 290 20:36 08.06.2020
1771 Clouds 16 1014 63 10000 4.1 290 20:18 08.06.2020
1772 Clouds 16 1014 67 10000 1.5 270 19:43 08.06.2020
1773 Rain 16 1013 55 10000 2.1 130 19:21 08.06.2020
1774 Rain 17 1013 45 10000 2.6 220 18:43 08.06.2020
1775 Rain 17 1013 45 10000 2.6 220 18:21 08.06.2020
1776 Clouds 17 1013 42 10000 2.44 344 17:58 08.06.2020
1777 Clouds 17 1013 42 10000 2.44 344 17:58 08.06.2020
1778 Rain 17 1013 48 10000 2.6 300 17:40 08.06.2020
1779 Clouds 17 1013 42 10000 2.21 332 17:21 08.06.2020
1780 Clouds 18 1014 42 10000 3.1 290 16:58 08.06.2020
1781 Clouds 18 1014 42 10000 3.1 290 16:58 08.06.2020
1782 Clouds 19 1014 42 10000 3.1 290 16:39 08.06.2020
1783 Clouds 18 1014 42 10000 3.1 290 16:21 08.06.2020
1784 Clouds 20 1014 45 10000 4.1 300 15:43 08.06.2020
1785 Clouds 20 1014 34 10000 3.6 260 15:22 08.06.2020
1786 Clouds 19 1014 39 10000 4.1 280 14:58 08.06.2020
1787 Clouds 18 1014 39 10000 4.1 280 14:39 08.06.2020
1788 Clouds 18 1014 39 10000 4.1 280 14:19 08.06.2020
1789 Clouds 18 1014 48 10000 2.6 210 13:44 08.06.2020
1790 Clouds 18 1014 48 10000 2.6 210 13:24 08.06.2020
1791 Clouds 18 1014 45 10000 3.1 260 12:44 08.06.2020
1792 Clouds 17 1014 45 10000 3.1 260 12:21 08.06.2020
1793 Clouds 16 1014 59 10000 2.18 325 11:59 08.06.2020
1794 Clouds 16 1014 59 10000 2.18 325 11:41 08.06.2020
1795 Clouds 16 1014 59 10000 1.82 331 11:22 08.06.2020
1796 Clouds 16 1014 76 10000 1.82 331 10:58 08.06.2020
1797 Clouds 15 1014 76 10000 1.82 331 10:39 08.06.2020
1798 Clouds 15 1014 76 10000 1.7 343 10:20 08.06.2020
1799 Clouds 14 1014 81 10000 1.7 343 09:58 08.06.2020
1800 Clouds 13 1014 81 10000 1.7 343 09:40 08.06.2020
1801 Clouds 12 1014 81 10000 1.35 5 09:21 08.06.2020
1802 Clouds 11 1014 81 10000 1.35 5 08:46 08.06.2020
1803 Clouds 11 1014 81 10000 1.2 11 08:22 08.06.2020
1804 Clouds 9 1013 93 10000 1.2 11 07:46 08.06.2020
1805 Clouds 9 1013 93 10000 1.05 40 07:23 08.06.2020
1806 Clouds 8 1013 100 10000 1.05 40 06:50 08.06.2020
1807 Clouds 8 1013 100 10000 1.05 40 06:30 08.06.2020
1808 Clouds 8 1013 100 10000 1.07 29 05:51 08.06.2020
1809 Clouds 9 1012 93 10000 1.5 100 04:29 08.06.2020
1810 Clouds 9 1013 81 10000 1.22 24 02:32 08.06.2020
1811 Clouds 10 1013 71 10000 1.36 14 01:55 08.06.2020
1812 Clouds 10 1013 71 10000 1.36 14 01:30 08.06.2020
1813 Clouds 10 1013 71 10000 0.91 11 00:33 08.06.2020
1814 Clear 11 1012 71 10000 1.5 210 23:59 07.06.2020
1815 Clear 11 1013 76 10000 1.5 260 23:37 07.06.2020
1816 Clear 11 1012 71 10000 1.5 210 23:18 07.06.2020
1817 Clouds 11 1012 66 10000 2.1 200 22:55 07.06.2020
1818 Clear 11 1012 81 10000 3.1 300 22:36 07.06.2020
1819 Clouds 12 1012 66 10000 2.1 200 22:18 07.06.2020
1820 Clouds 13 1011 62 10000 3.1 230 21:56 07.06.2020
1821 Clouds 13 1011 62 10000 3.1 230 21:36 07.06.2020
1822 Clouds 14 1011 62 10000 3.1 230 21:18 07.06.2020
1823 Clouds 14 1011 62 10000 2.6 310 20:39 07.06.2020
1824 Clouds 15 1011 58 10000 3.6 220 20:20 07.06.2020
1825 Clouds 16 1010 44 10000 1.5 240 19:56 07.06.2020
1826 Clouds 16 1010 44 10000 1.5 240 19:38 07.06.2020
1827 Clouds 16 1010 48 10000 2.6 230 19:19 07.06.2020
1828 Clouds 16 1010 48 10000 2.6 230 18:56 07.06.2020
1829 Clouds 16 1010 51 10000 3.1 230 18:37 07.06.2020
1830 Clouds 16 1010 51 10000 3.1 230 18:19 07.06.2020
1831 Clouds 16 1010 51 10000 3.6 260 17:55 07.06.2020
1832 Clouds 16 1010 51 10000 3.6 260 17:37 07.06.2020
1833 Clouds 16 1010 51 10000 3.6 260 17:19 07.06.2020
1834 Clouds 16 1010 51 10000 2.6 230 16:42 07.06.2020
1835 Clouds 15 1009 48 10000 2.6 190 16:21 07.06.2020
1836 Clouds 15 1009 54 10000 3.6 240 15:40 07.06.2020
1837 Clouds 15 1009 54 10000 3.6 240 15:21 07.06.2020
1838 Clouds 14 1009 58 10000 4.6 250 14:41 07.06.2020
1839 Clouds 14 1009 58 10000 4.6 250 14:41 07.06.2020
1840 Clouds 14 1009 58 10000 4.6 250 14:41 07.06.2020
1841 Clouds 14 1009 58 10000 4.6 250 14:41 07.06.2020
1842 Clouds 14 1009 58 10000 4.6 250 14:22 07.06.2020
1843 Clouds 14 1009 58 10000 4.6 230 13:49 07.06.2020
1844 Clouds 14 1009 58 10000 4.6 240 13:22 07.06.2020
1845 Clouds 14 1009 66 10000 4.6 220 12:57 07.06.2020
1846 Clouds 13 1008 66 10000 5.1 210 12:39 07.06.2020
1847 Clouds 13 1008 66 10000 5.1 210 12:39 07.06.2020
1848 Clouds 13 1008 66 10000 5.1 210 12:20 07.06.2020
1849 Clouds 13 1008 66 10000 4.1 220 11:55 07.06.2020
1850 Clouds 13 1008 66 10000 3.6 230 11:36 07.06.2020
1851 Clouds 13 1008 66 10000 3.6 230 11:18 07.06.2020
1852 Clouds 12 1007 71 10000 4.1 230 10:45 07.06.2020
1853 Clouds 12 1007 71 10000 4.1 230 10:21 07.06.2020
1854 Clouds 12 1007 66 10000 3.6 210 09:59 07.06.2020
1855 Clouds 12 1007 66 10000 3.6 210 09:40 07.06.2020
1856 Clouds 10 1007 71 10000 4.1 230 09:21 07.06.2020
1857 Clouds 10 1006 71 10000 4.1 220 08:58 07.06.2020
1858 Clouds 10 1006 71 10000 4.1 220 08:40 07.06.2020
1859 Clouds 9 1006 70 10000 2.6 210 08:21 07.06.2020
1860 Clouds 8 1006 75 10000 2.6 190 07:39 07.06.2020
1861 Clear 7 1005 81 10000 2.1 220 06:55 07.06.2020
1862 Clear 6 1005 81 10000 2.6 220 05:54 07.06.2020
1863 Clouds 8 1005 81 10000 2.6 230 04:22 07.06.2020
1864 Clear 8 1005 75 10000 2.6 220 03:48 07.06.2020
1865 Clear 8 1005 75 10000 2.6 220 03:48 07.06.2020
1866 Clouds 10 1005 71 10000 3.1 230 02:19 07.06.2020
1867 Clear 10 1004 66 10000 2.1 220 01:26 07.06.2020
1868 Clouds 10 1004 62 10000 2.1 240 00:59 07.06.2020
1869 Clouds 10 1004 62 10000 2.1 240 00:39 07.06.2020
1870 Clouds 10 1004 62 10000 2.1 240 00:18 07.06.2020
1871 Clouds 10 1005 62 10000 3.1 210 23:38 06.06.2020
1872 Clear 10 1004 62 10000 3.1 210 23:20 06.06.2020
1873 Clear 11 1004 62 10000 4.1 220 22:58 06.06.2020
1874 Clouds 11 1004 50 10000 2.6 220 22:39 06.06.2020
1875 Clear 12 1004 62 10000 4.1 220 22:20 06.06.2020
1876 Clouds 13 1003 54 10000 3.6 200 21:58 06.06.2020
1877 Clouds 13 1003 54 10000 3.6 200 21:39 06.06.2020
1878 Clouds 14 1003 50 10000 4.6 220 21:20 06.06.2020
1879 Clouds 15 1003 47 10000 6.2 230 20:40 06.06.2020
1880 Clouds 15 1003 47 10000 6.2 230 20:21 06.06.2020
1881 Clouds 16 1003 44 10000 5.1 220 19:58 06.06.2020
1882 Clouds 16 1003 44 10000 5.1 220 19:40 06.06.2020
1883 Clouds 16 1003 44 10000 5.1 220 19:22 06.06.2020
1884 Clouds 16 1003 47 10000 8.7 220 18:57 06.06.2020
1885 Clouds 16 1003 47 10000 8.7 220 18:39 06.06.2020
1886 Clouds 16 1003 47 10000 8.7 220 18:20 06.06.2020
1887 Clouds 16 1003 51 10000 5.1 270 17:44 06.06.2020
1888 Clouds 16 1003 51 10000 5.1 270 17:21 06.06.2020
1889 Clouds 16 1003 48 10000 8.7 210 16:57 06.06.2020
1890 Clouds 15 1003 48 10000 8.7 210 16:39 06.06.2020
1891 Clouds 15 1003 48 10000 8.7 210 16:21 06.06.2020
1892 Clouds 14 1003 67 10000 6.2 230 15:54 06.06.2020
1893 Clouds 14 1004 54 10000 6.2 230 15:36 06.06.2020
1894 Clouds 14 1003 67 10000 6.2 230 15:18 06.06.2020
1895 Clouds 13 1003 81 10000 5.7 220 14:39 06.06.2020
1896 Rain 13 1003 66 10000 8.2 230 14:20 06.06.2020
1897 Clouds 13 1002 76 10000 6.7 230 13:54 06.06.2020
1898 Clouds 13 1002 76 10000 6.7 230 13:36 06.06.2020
1899 Clouds 13 1002 87 10000 5.7 220 13:18 06.06.2020
1900 Rain 11 1002 93 10000 7.2 220 12:41 06.06.2020
1901 Rain 11 1002 93 10000 7.2 220 12:21 06.06.2020
1902 Drizzle 12 1002 81 10000 8.7 230 11:58 06.06.2020
1903 Rain 13 1001 76 10000 7.7 220 11:38 06.06.2020
1904 Rain 12 1001 76 10000 7.7 220 11:19 06.06.2020
1905 Clouds 12 1001 81 10000 8.2 190 10:57 06.06.2020
1906 Clouds 12 1001 81 10000 8.2 190 10:39 06.06.2020
1907 Clouds 11 1001 81 10000 8.2 180 10:20 06.06.2020
1908 Clouds 10 1001 87 10000 5.7 210 09:45 06.06.2020
1909 Clouds 9 1001 93 10000 6.2 220 09:27 06.06.2020
1910 Clouds 9 1001 100 10000 5.1 220 08:56 06.06.2020
1911 Clouds 9 1002 93 10000 4.1 200 08:38 06.06.2020
1912 Clouds 9 1001 100 10000 3.6 220 08:18 06.06.2020
1913 Drizzle 9 1001 100 10000 2.6 230 07:45 06.06.2020
1914 Clouds 8 1001 100 10000 3.1 240 07:20 06.06.2020
1915 Clouds 8 1001 100 10000 2.6 230 06:46 06.06.2020
1916 Clouds 8 1001 100 10000 2.6 230 06:27 06.06.2020
1917 Clouds 8 1000 100 10000 2.6 220 05:50 06.06.2020
1918 Clouds 8 1000 100 10000 2.1 220 05:25 06.06.2020
1919 Clouds 8 1000 93 10000 2.1 230 04:38 06.06.2020
1920 Clouds 6 1000 100 10000 1.5 230 02:36 06.06.2020
1921 Clouds 6 1001 100 10000 3.35 214 01:42 06.06.2020
1922 Clouds 6 1001 100 10000 4.11 229 01:18 06.06.2020
1923 Clouds 7 1000 93 10000 2.1 220 00:43 06.06.2020
1924 Clouds 7 1000 93 10000 2.1 220 00:25 06.06.2020
1925 Clouds 6 1001 87 10000 3.1 240 23:40 05.06.2020
1926 Clouds 8 1001 93 10000 3.1 240 23:21 05.06.2020
1927 Clouds 8 1000 93 10000 3.6 220 22:59 05.06.2020
1928 Clouds 8 1000 93 10000 3.6 220 22:41 05.06.2020
1929 Clouds 8 1000 93 10000 3.1 230 22:23 05.06.2020
1930 Clouds 8 999 93 10000 4.6 250 21:58 05.06.2020
1931 Clouds 9 999 93 10000 4.6 250 21:40 05.06.2020
1932 Rain 9 999 93 10000 4.1 270 21:20 05.06.2020
1933 Rain 9 999 93 10000 4.1 250 20:57 05.06.2020
1934 Rain 10 998 76 10000 5.7 270 20:38 05.06.2020
1935 Rain 10 998 76 10000 5.7 270 20:19 05.06.2020
1936 Clouds 11 997 66 10000 7.2 240 19:40 05.06.2020
1937 Clouds 11 997 66 10000 7.2 240 19:40 05.06.2020
1938 Clouds 11 997 66 10000 7.2 240 19:22 05.06.2020
1939 Clouds 12 996 66 10000 7.7 240 18:56 05.06.2020
1940 Clouds 11 996 87 10000 6.7 230 18:38 05.06.2020
1941 Clouds 10 996 87 10000 6.7 230 18:19 05.06.2020
1942 Clouds 11 996 81 10000 7.7 230 17:56 05.06.2020
1943 Rain 11 997 87 10000 7.7 260 17:37 05.06.2020
1944 Clouds 11 996 87 10000 7.7 220 17:18 05.06.2020
1945 Clouds 10 997 87 10000 9.8 240 16:39 05.06.2020
1946 Rain 11 995 100 10000 8.7 210 16:20 05.06.2020
1947 Rain 10 995 93 10000 8.7 210 15:47 05.06.2020
1948 Clouds 10 995 100 10000 9.8 200 15:23 05.06.2020
1949 Rain 10 995 100 10000 8.2 190 14:59 05.06.2020
1950 Rain 10 995 100 10000 8.2 190 14:40 05.06.2020
1951 Rain 11 996 100 10000 9.3 190 14:22 05.06.2020
1952 Rain 11 996 87 10000 9.3 190 13:58 05.06.2020
1953 Rain 11 996 76 10000 9.3 190 13:39 05.06.2020
1954 Rain 11 996 76 10000 9.3 190 13:20 05.06.2020
1955 Clouds 11 997 71 10000 7.7 200 12:42 05.06.2020
1956 Clouds 11 997 71 10000 7.7 200 12:20 05.06.2020
1957 Clouds 12 997 71 10000 6.7 210 11:56 05.06.2020
1958 Clouds 12 997 71 10000 6.7 210 11:38 05.06.2020
1959 Clouds 12 997 71 10000 6.7 210 11:20 05.06.2020
1960 Clouds 11 998 76 10000 7.7 200 10:54 05.06.2020
1961 Clouds 12 998 76 10000 5.7 200 10:36 05.06.2020
1962 Clouds 11 998 76 10000 5.7 200 10:18 05.06.2020
1963 Rain 10 998 93 9000 5.1 210 09:54 05.06.2020
1964 Rain 11 998 87 10000 5.7 190 09:36 05.06.2020
1965 Rain 9 998 87 10000 5.7 190 09:18 05.06.2020
1966 Clouds 9 999 87 10000 5.1 210 08:41 05.06.2020
1967 Clouds 8 999 87 10000 4.1 190 08:19 05.06.2020
1968 Clouds 8 999 93 10000 3.6 210 07:56 05.06.2020
1969 Clouds 8 999 93 10000 3.6 210 07:37 05.06.2020
1970 Clouds 8 999 93 10000 3.1 220 06:56 05.06.2020
1971 Clouds 7 999 93 10000 3.6 230 05:41 05.06.2020
1972 Clouds 7 999 93 10000 3.1 230 05:18 05.06.2020
1973 Clouds 8 999 87 10000 3.1 250 03:53 05.06.2020
1974 Clouds 8 999 81 10000 3.6 250 02:45 05.06.2020
1975 Clouds 9 999 81 10000 3.1 260 02:21 05.06.2020
1976 Clouds 9 999 81 10000 3.1 260 02:21 05.06.2020
1977 Clouds 9 999 87 10000 3.1 260 01:52 05.06.2020
1978 Clouds 9 999 87 10000 3.1 260 01:20 05.06.2020
1979 Clouds 9 999 81 10000 4.1 270 00:41 05.06.2020
1980 Clouds 10 999 81 10000 4.1 270 00:20 05.06.2020
1981 Clouds 10 999 81 10000 3.1 240 23:46 04.06.2020
1982 Clouds 11 999 81 10000 2.6 250 23:27 04.06.2020
1983 Clouds 10 998 76 10000 2.6 260 22:55 04.06.2020
1984 Clouds 10 998 76 10000 2.6 260 22:36 04.06.2020
1985 Clouds 11 998 76 10000 2.6 260 22:18 04.06.2020
1986 Clouds 11 998 76 10000 3.1 280 21:56 04.06.2020
1987 Clouds 11 998 76 10000 4.1 280 21:36 04.06.2020
1988 Clouds 11 998 76 10000 4.1 280 21:18 04.06.2020
1989 Clouds 12 997 81 10000 2.1 280 20:54 04.06.2020
1990 Clouds 12 997 81 10000 3.1 280 20:36 04.06.2020
1991 Clouds 12 997 81 10000 3.1 280 20:18 04.06.2020
1992 Clouds 12 997 76 10000 4.1 300 19:39 04.06.2020
1993 Clouds 12 997 76 10000 4.1 300 19:21 04.06.2020
1994 Clouds 13 997 76 10000 3.6 280 18:56 04.06.2020
1995 Clouds 12 997 87 10000 4.6 300 18:38 04.06.2020
1996 Clouds 12 997 87 10000 4.6 300 18:38 04.06.2020
1997 Clouds 13 997 87 10000 4.6 300 18:19 04.06.2020
1998 Clouds 14 996 87 10000 5.7 280 17:42 04.06.2020
1999 Rain 14 996 87 10000 4.6 260 17:21 04.06.2020
2000 Rain 14 996 82 10000 4.1 270 16:56 04.06.2020
2001 Clouds 15 996 82 10000 2.6 290 16:38 04.06.2020
2002 Clouds 15 996 82 10000 2.6 290 16:18 04.06.2020
2003 Clouds 15 996 72 10000 4.1 270 15:43 04.06.2020
2004 Clouds 15 996 72 10000 2.6 280 15:24 04.06.2020
2005 Clouds 14 996 77 10000 3.1 260 14:41 04.06.2020
2006 Clouds 14 997 77 10000 2.1 280 14:22 04.06.2020
2007 Clouds 14 997 72 10000 2.6 270 13:57 04.06.2020
2008 Rain 14 997 82 10000 3.1 270 13:39 04.06.2020
2009 Rain 14 997 82 10000 3.1 270 13:20 04.06.2020
2010 Drizzle 15 997 72 10000 3.6 280 12:58 04.06.2020
2011 Drizzle 15 997 72 10000 3.6 280 12:58 04.06.2020
2012 Drizzle 15 997 77 10000 4.1 290 12:40 04.06.2020
2013 Drizzle 15 997 77 10000 4.1 290 12:21 04.06.2020
2014 Clouds 14 997 77 10000 2.6 300 11:54 04.06.2020
2015 Clouds 14 997 82 10000 2.1 320 11:36 04.06.2020
2016 Clouds 14 997 82 10000 2.1 320 11:18 04.06.2020
2017 Clouds 14 997 82 10000 2.6 300 10:40 04.06.2020
2018 Clouds 14 997 87 10000 1.5 300 10:22 04.06.2020
2019 Clouds 14 997 87 10000 2.1 290 09:57 04.06.2020
2020 Clouds 14 997 93 10000 2.1 260 09:38 04.06.2020
2021 Clouds 14 997 93 10000 2.1 260 09:20 04.06.2020
2022 Clouds 14 997 93 10000 1.76 270 08:42 04.06.2020
2023 Clouds 14 997 93 10000 1.5 270 08:23 04.06.2020
2024 Clouds 13 997 100 10000 2.1 250 07:46 04.06.2020
2025 Clouds 13 998 100 10000 2.6 260 07:22 04.06.2020
2026 Rain 13 997 100 10000 0.95 269 06:42 04.06.2020
2027 Rain 13 997 100 10000 0.16 253 06:23 04.06.2020
2028 Rain 13 998 100 10000 0.16 253 05:34 04.06.2020
2029 Rain 13 998 100 10000 0.16 253 05:34 04.06.2020
2030 Rain 13 999 100 10000 1.5 300 03:54 04.06.2020
2031 Clouds 13 1000 100 10000 1.5 70 02:38 04.06.2020
2032 Rain 14 1001 87 10000 2.1 320 01:42 04.06.2020
2033 Rain 14 1001 87 10000 2.1 320 01:19 04.06.2020
2034 Rain 14 1001 93 10000 3.1 330 00:36 04.06.2020
2035 Clouds 14 1001 87 10000 3.6 40 23:41 03.06.2020
2036 Rain 14 1002 93 10000 4.1 280 23:20 03.06.2020
2037 Rain 15 1003 87 10000 5.7 240 22:58 03.06.2020
2038 Rain 15 1003 87 10000 5.7 240 22:58 03.06.2020
2039 Rain 16 1002 93 10000 4.1 350 22:39 03.06.2020
2040 Rain 16 1002 59 10000 9.3 230 22:18 03.06.2020
2041 Clear 17 1002 56 10000 2.1 90 21:56 03.06.2020
2042 Thunderstorm 18 1002 87 10000 2.1 360 21:38 03.06.2020
2043 Clear 19 1002 56 10000 2.1 90 21:20 03.06.2020
2044 Clear 19 1002 56 10000 2.1 90 21:20 03.06.2020
2045 Clear 20 1002 52 10000 2.6 80 20:54 03.06.2020
2046 Clear 21 1002 52 10000 2.6 80 20:36 03.06.2020
2047 Clear 21 1002 52 10000 2.6 80 20:18 03.06.2020
2048 Clear 21 1002 46 10000 2.6 80 19:54 03.06.2020
2049 Clear 22 1002 46 10000 2.6 80 19:36 03.06.2020
2050 Clear 22 1002 46 10000 2.6 80 19:18 03.06.2020
2051 Clouds 22 1003 38 10000 2.1 340 18:41 03.06.2020
2052 Clouds 21 1003 38 10000 2.1 340 18:21 03.06.2020
2053 Clouds 22 1003 40 10000 4.1 300 17:57 03.06.2020
2054 Rain 21 1003 41 10000 3.6 10 17:37 03.06.2020
2055 Clouds 21 1003 40 10000 4.1 300 17:18 03.06.2020
2056 Drizzle 24 1004 31 10000 6.7 290 16:42 03.06.2020
2057 Drizzle 24 1004 33 10000 7.2 280 16:21 03.06.2020
2058 Clear 25 1004 31 10000 2.6 310 15:59 03.06.2020
2059 Clear 24 1004 31 10000 2.6 310 15:41 03.06.2020
2060 Clear 24 1004 31 10000 2.6 310 15:20 03.06.2020
2061 Clouds 24 1005 31 10000 5.7 300 14:47 03.06.2020
2062 Clouds 25 1005 31 10000 5.7 300 14:25 03.06.2020
2063 Clouds 25 1005 29 10000 2.1 200 13:59 03.06.2020
2064 Clouds 26 1005 29 10000 2.1 200 13:38 03.06.2020
2065 Clouds 25 1005 29 10000 2.1 200 13:18 03.06.2020
2066 Clear 25 1006 29 10000 1.25 332 12:43 03.06.2020
2067 Clear 24 1006 29 10000 1.19 359 12:21 03.06.2020
2068 Clear 23 1007 37 10000 1.19 359 11:46 03.06.2020
2069 Clear 23 1007 37 10000 1.53 339 11:27 03.06.2020
2070 Clouds 22 1007 40 10000 1.5 90 10:57 03.06.2020
2071 Clouds 21 1007 40 10000 1.5 90 10:39 03.06.2020
2072 Clouds 21 1007 40 10000 1.5 90 10:21 03.06.2020
2073 Clouds 20 1008 55 10000 1.23 333 09:44 03.06.2020
2074 Clouds 19 1008 55 10000 0.92 311 09:20 03.06.2020
2075 Clouds 18 1008 52 10000 0.92 311 08:56 03.06.2020
2076 Clouds 18 1008 45 10000 2.1 90 08:36 03.06.2020
2077 Clouds 17 1008 52 10000 0.63 308 08:18 03.06.2020
2078 Clear 15 1008 63 10000 0.63 308 07:42 03.06.2020
2079 Clouds 14 1009 58 10000 0.19 323 07:20 03.06.2020
2080 Clouds 13 1009 58 10000 0.19 323 06:50 03.06.2020
2081 Clouds 13 1009 58 10000 0.19 323 06:30 03.06.2020
2082 Clouds 13 1009 67 10000 0.4 13 05:46 03.06.2020
2083 Clouds 13 1010 62 10000 0.64 349 04:46 03.06.2020
2084 Clear 14 1011 51 10000 0.52 329 03:50 03.06.2020
2085 Clear 15 1011 48 10000 0.37 300 02:57 03.06.2020
2086 Clear 16 1011 45 10000 2.1 20 01:52 03.06.2020
2087 Clear 18 1012 40 10000 0.69 319 00:43 03.06.2020
2088 Clear 18 1012 40 10000 0.48 338 00:25 03.06.2020
2089 Clear 19 1012 40 10000 2.1 310 23:51 02.06.2020
2090 Clear 19 1012 40 10000 2.1 310 23:28 02.06.2020
2091 Clouds 20 1012 40 10000 1.5 300 22:57 02.06.2020
2092 Clouds 20 1013 49 10000 3.1 300 22:38 02.06.2020
2093 Clouds 20 1012 40 10000 1.5 300 22:19 02.06.2020
2094 Clear 21 1012 31 10000 2.1 210 21:56 02.06.2020
2095 Clouds 22 1013 46 10000 2.1 240 21:37 02.06.2020
2096 Clear 22 1012 31 10000 2.1 210 21:19 02.06.2020
2097 Clear 24 1013 27 10000 1.5 220 20:57 02.06.2020
2098 Clouds 24 1013 38 10000 1.5 290 20:39 02.06.2020
2099 Clear 25 1013 27 10000 1.5 220 20:20 02.06.2020
2100 Clear 26 1013 22 10000 3.1 210 19:43 02.06.2020
2101 Clear 26 1013 22 10000 3.1 210 19:25 02.06.2020
2102 Clear 26 1014 21 10000 3.1 330 18:58 02.06.2020
2103 Clouds 26 1014 27 10000 2.1 250 18:39 02.06.2020
2104 Clear 27 1014 21 10000 3.1 330 18:20 02.06.2020
2105 Clear 26 1015 26 10000 2.1 270 17:55 02.06.2020
2106 Clouds 26 1015 27 10000 1.5 0 17:37 02.06.2020
2107 Clear 26 1015 26 10000 2.1 270 17:19 02.06.2020
2108 Clear 26 1015 26 10000 2.1 260 16:54 02.06.2020
2109 Clouds 26 1015 27 10000 2.6 290 16:36 02.06.2020
2110 Clear 27 1015 26 10000 2.1 260 16:18 02.06.2020
2111 Clouds 26 1016 29 10000 2.6 0 15:40 02.06.2020
2112 Clear 26 1016 27 10000 4.1 120 15:20 02.06.2020
2113 Clear 25 1017 31 10000 3.1 60 14:46 02.06.2020
2114 Clear 25 1017 31 10000 3.1 60 14:27 02.06.2020
2115 Clear 26 1017 31 10000 3.1 60 13:55 02.06.2020
2116 Clear 26 1017 31 10000 3.1 60 13:36 02.06.2020
2117 Clear 26 1017 31 10000 3.1 60 13:18 02.06.2020
2118 Clear 25 1018 36 10000 3.1 110 12:56 02.06.2020
2119 Clear 25 1018 36 10000 3.1 110 12:37 02.06.2020
2120 Clear 24 1018 36 10000 3.1 110 12:19 02.06.2020
2121 Clear 23 1018 38 10000 1.5 70 11:41 02.06.2020
2122 Clear 23 1018 38 10000 1.5 70 11:22 02.06.2020
2123 Clear 22 1019 46 10000 2.1 100 10:56 02.06.2020
2124 Clear 22 1019 46 10000 2.1 100 10:38 02.06.2020
2125 Clear 21 1019 46 10000 2.1 100 10:20 02.06.2020
2126 Clear 19 1019 48 10000 3.1 70 09:43 02.06.2020
2127 Clear 19 1019 48 10000 3.1 70 09:21 02.06.2020
2128 Clear 18 1019 48 10000 1.49 26 08:55 02.06.2020
2129 Clear 17 1019 48 10000 1.49 26 08:29 02.06.2020
2130 Clear 16 1019 58 10000 1.4 31 07:58 02.06.2020
2131 Clear 15 1019 58 10000 1.4 31 07:38 02.06.2020
2132 Clear 14 1019 58 10000 1.44 33 07:18 02.06.2020
2133 Clear 13 1019 58 10000 1.44 33 06:39 02.06.2020
2134 Clear 13 1019 54 10000 2.6 50 05:38 02.06.2020
2135 Clear 13 1019 54 10000 4.6 60 04:41 02.06.2020
2136 Clear 14 1020 51 10000 4.1 70 02:37 02.06.2020
2137 Clear 14 1020 51 10000 4.1 70 02:18 02.06.2020
2138 Clear 15 1020 48 10000 2.6 60 00:51 02.06.2020
2139 Clear 15 1020 48 10000 2.6 60 00:22 02.06.2020
2140 Clear 17 1020 48 10000 4.1 50 23:39 01.06.2020
2141 Clear 17 1020 48 10000 4.1 50 23:21 01.06.2020
2142 Clear 17 1019 48 10000 3.6 50 22:58 01.06.2020
2143 Clear 17 1019 48 10000 3.6 50 22:39 01.06.2020
2144 Clear 18 1019 48 10000 3.6 50 22:20 01.06.2020
2145 Clear 18 1019 48 10000 3.6 50 22:20 01.06.2020
2146 Clear 20 1019 40 10000 4.6 60 21:57 01.06.2020
2147 Clear 20 1019 40 10000 2.6 80 21:37 01.06.2020
2148 Clear 21 1019 40 10000 4.6 60 21:18 01.06.2020
2149 Clear 22 1019 35 10000 3.6 110 20:55 01.06.2020
2150 Clear 22 1019 33 10000 4.1 70 20:36 01.06.2020
2151 Clear 24 1019 31 10000 4.6 70 20:18 01.06.2020
2152 Clear 25 1019 31 10000 5.7 100 19:43 01.06.2020
2153 Clear 25 1019 31 10000 5.7 100 19:21 01.06.2020
2154 Clear 24 1019 31 10000 4.6 70 18:59 01.06.2020
2155 Clear 24 1019 31 10000 4.6 70 18:39 01.06.2020
2156 Clear 24 1019 31 10000 4.6 70 18:19 01.06.2020
2157 Clear 25 1019 27 10000 5.1 90 17:56 01.06.2020
2158 Clear 25 1019 29 10000 2.6 80 17:38 01.06.2020
2159 Clear 25 1020 27 10000 5.1 70 17:18 01.06.2020
2160 Clear 25 1019 31 10000 4.6 70 16:40 01.06.2020
2161 Clear 25 1020 29 10000 2.6 100 16:22 01.06.2020
2162 Clear 25 1020 31 10000 5.7 120 15:56 01.06.2020
2163 Clear 24 1020 31 10000 6.2 70 15:37 01.06.2020
2164 Clear 24 1020 31 10000 6.2 70 15:18 01.06.2020
2165 Clear 23 1021 35 10000 4.6 110 14:56 01.06.2020
2166 Clear 23 1020 33 10000 4.6 100 14:38 01.06.2020
2167 Clear 23 1021 35 10000 4.6 110 14:20 01.06.2020
2168 Clear 23 1021 38 10000 5.7 80 13:43 01.06.2020
2169 Clear 23 1021 38 10000 5.7 80 13:22 01.06.2020
2170 Clear 22 1021 43 10000 4.6 80 12:59 01.06.2020
2171 Clear 22 1021 43 10000 4.6 80 12:40 01.06.2020
2172 Clear 22 1021 43 10000 4.6 80 12:40 01.06.2020
2173 Clear 22 1021 43 10000 4.6 80 12:40 01.06.2020
2174 Clear 22 1021 43 10000 4.6 80 12:40 01.06.2020
2175 Clear 21 1021 43 10000 4.6 80 12:22 01.06.2020
2176 Clear 20 1021 45 10000 6.7 80 11:59 01.06.2020
2177 Clear 19 1021 45 10000 6.7 80 11:38 01.06.2020
2178 Clear 20 1021 45 10000 6.7 80 11:19 01.06.2020
2179 Clear 19 1021 45 10000 6.7 70 10:56 01.06.2020
2180 Clear 19 1021 45 10000 6.7 70 10:36 01.06.2020
2181 Clear 19 1021 45 10000 6.7 70 10:18 01.06.2020
2182 Clear 18 1021 51 10000 6.7 70 09:46 01.06.2020
2183 Clear 16 1021 51 10000 6.7 70 09:26 01.06.2020
2184 Clear 15 1021 54 10000 3.6 70 08:57 01.06.2020
2185 Clear 14 1021 54 10000 3.6 70 08:37 01.06.2020
2186 Clear 14 1021 54 10000 3.6 70 08:18 01.06.2020
2187 Clear 13 1021 58 10000 2.71 58 07:41 01.06.2020
2188 Clear 12 1021 58 10000 2.39 46 07:22 01.06.2020
2189 Clear 11 1021 66 10000 1.5 330 06:49 01.06.2020
2190 Clear 10 1021 62 10000 2.17 49 05:57 01.06.2020
2191 Clear 10 1021 62 10000 2.25 49 05:18 01.06.2020
2192 Clear 11 1021 62 10000 3.6 70 03:57 01.06.2020
2193 Clear 11 1021 62 10000 3.6 70 03:39 01.06.2020
2194 Clear 12 1022 62 10000 2.6 70 02:56 01.06.2020
2195 Clear 13 1021 58 10000 3.1 80 01:40 01.06.2020
2196 Clear 13 1021 58 10000 3.1 80 01:18 01.06.2020
2197 Clear 13 1021 58 10000 3.6 60 00:56 01.06.2020
2198 Clear 13 1021 58 10000 3.6 60 00:37 01.06.2020
2199 Clear 13 1021 58 10000 3.6 60 00:19 01.06.2020
2200 Clear 14 1021 50 10000 4.1 70 23:41 31.05.2020
2201 Clear 14 1021 50 10000 4.1 70 23:22 31.05.2020
2202 Clear 15 1021 47 10000 4.6 70 22:59 31.05.2020
2203 Clear 15 1021 47 10000 4.6 70 22:40 31.05.2020
2204 Clear 15 1021 47 10000 4.6 70 22:22 31.05.2020
2205 Clear 16 1021 42 10000 5.1 50 21:57 31.05.2020
2206 Clear 17 1021 42 10000 5.1 50 21:39 31.05.2020
2207 Clear 17 1021 42 10000 5.1 50 21:20 31.05.2020
2208 Clear 18 1020 42 10000 6.2 80 20:45 31.05.2020
2209 Clear 19 1020 42 10000 6.2 80 20:25 31.05.2020
2210 Clear 20 1020 39 10000 5.7 60 19:56 31.05.2020
2211 Clear 18 1020 39 10000 5.7 60 19:38 31.05.2020
2212 Clear 20 1020 39 10000 5.7 60 19:20 31.05.2020
2213 Clear 20 1020 39 10000 5.7 60 19:20 31.05.2020
2214 Clear 20 1020 37 10000 6.7 70 18:56 31.05.2020
2215 Clear 20 1020 37 10000 6.7 70 18:37 31.05.2020
2216 Clear 19 1020 37 10000 6.7 70 18:19 31.05.2020
2217 Clear 21 1020 32 10000 3.6 80 17:42 31.05.2020
2218 Clear 20 1020 32 10000 3.6 80 17:24 31.05.2020
2219 Clear 20 1020 32 10000 6.2 70 16:42 31.05.2020
2220 Clear 20 1020 32 10000 6.2 70 16:22 31.05.2020
2221 Clear 20 1020 34 10000 6.7 80 15:57 31.05.2020
2222 Clear 20 1020 34 10000 6.7 80 15:57 31.05.2020
2223 Clear 20 1020 34 10000 6.7 80 15:37 31.05.2020
2224 Clear 20 1020 34 10000 6.7 80 15:19 31.05.2020
2225 Clear 19 1021 34 10000 5.1 60 14:44 31.05.2020
2226 Clear 19 1021 34 10000 5.1 60 14:20 31.05.2020
2227 Clear 19 1021 34 10000 6.2 70 13:56 31.05.2020
2228 Clear 19 1021 36 10000 6.2 60 13:37 31.05.2020
2229 Clear 18 1021 36 10000 6.2 60 13:19 31.05.2020
2230 Clouds 18 1021 42 10000 4.6 80 12:55 31.05.2020
2231 Clouds 18 1021 42 10000 4.6 80 12:37 31.05.2020
2232 Clouds 17 1021 42 10000 4.6 80 12:18 31.05.2020
2233 Clear 17 1021 42 10000 6.2 60 11:47 31.05.2020
2234 Clear 17 1021 42 10000 6.2 60 11:23 31.05.2020
2235 Clear 15 1021 44 10000 4.1 60 10:56 31.05.2020
2236 Clear 16 1021 44 10000 4.1 60 10:38 31.05.2020
2237 Clear 16 1021 44 10000 4.1 60 10:18 31.05.2020
2238 Clear 15 1021 54 10000 4.1 60 09:42 31.05.2020
2239 Clear 14 1021 54 10000 4.1 60 09:22 31.05.2020
2240 Clouds 13 1021 54 10000 2.6 40 08:57 31.05.2020
2241 Clouds 13 1021 54 10000 2.6 40 08:37 31.05.2020
2242 Clouds 13 1021 54 10000 2.6 40 08:19 31.05.2020
2243 Clear 12 1021 62 10000 3.06 49 07:43 31.05.2020
2244 Clear 11 1021 62 10000 2.38 44 07:21 31.05.2020
2245 Clear 9 1021 66 10000 2.38 44 06:54 31.05.2020
2246 Clear 9 1021 66 10000 2.38 44 06:31 31.05.2020
2247 Clear 8 1021 61 10000 2.6 70 05:44 31.05.2020
2248 Clear 9 1021 57 10000 3.6 50 04:29 31.05.2020
2249 Clear 10 1021 57 10000 3.1 50 03:48 31.05.2020
2250 Clear 10 1022 53 10000 3.1 50 02:59 31.05.2020
2251 Clear 11 1022 53 10000 3.6 50 01:50 31.05.2020
2252 Clear 11 1022 53 10000 3.6 50 01:27 31.05.2020
2253 Clear 13 1022 50 10000 3.6 50 00:31 31.05.2020
2254 Clear 13 1022 47 10000 5.1 60 23:59 30.05.2020
2255 Clear 14 1022 47 10000 5.1 60 23:39 30.05.2020
2256 Clear 14 1022 47 10000 5.1 60 23:21 30.05.2020
2257 Clear 15 1021 44 10000 3.6 70 22:41 30.05.2020
2258 Clear 15 1021 44 10000 3.6 70 22:23 30.05.2020
2259 Clear 16 1021 39 10000 4.6 80 21:56 30.05.2020
2260 Clear 17 1021 39 10000 4.6 80 21:38 30.05.2020
2261 Clear 17 1021 39 10000 4.6 80 21:20 30.05.2020
2262 Clear 18 1020 32 10000 5.7 80 20:57 30.05.2020
2263 Clear 18 1020 32 10000 5.7 80 20:38 30.05.2020
2264 Clear 19 1020 32 10000 5.7 80 20:20 30.05.2020
2265 Clouds 19 1020 37 10000 6.2 60 19:43 30.05.2020
2266 Clouds 19 1020 37 10000 6.2 60 19:22 30.05.2020
2267 Clouds 20 1021 34 10000 5.1 80 18:56 30.05.2020
2268 Clouds 20 1021 32 10000 6.2 60 18:38 30.05.2020
2269 Clouds 20 1021 32 10000 6.2 60 18:18 30.05.2020
2270 Clouds 21 1021 30 10000 5.1 50 17:39 30.05.2020
2271 Clouds 21 1021 30 10000 5.1 50 17:20 30.05.2020
2272 Clouds 21 1021 30 10000 6.7 50 16:45 30.05.2020
2273 Clouds 21 1021 30 10000 6.7 50 16:23 30.05.2020
2274 Clear 21 1022 30 10000 5.1 40 15:59 30.05.2020
2275 Clear 21 1022 30 10000 5.1 40 15:41 30.05.2020
2276 Clear 21 1022 30 10000 5.1 40 15:22 30.05.2020
2277 Clear 20 1022 30 10000 6.2 50 14:43 30.05.2020
2278 Clear 20 1022 30 10000 6.2 50 14:23 30.05.2020
2279 Clouds 20 1022 32 10000 5.7 70 13:43 30.05.2020
2280 Clouds 19 1022 32 10000 5.7 70 13:22 30.05.2020
2281 Clear 19 1023 34 10000 7.7 90 12:42 30.05.2020
2282 Clear 18 1023 34 10000 7.7 90 12:20 30.05.2020
2283 Clear 18 1023 39 10000 6.7 70 11:57 30.05.2020
2284 Clear 18 1023 39 10000 6.7 70 11:39 30.05.2020
2285 Clear 17 1023 39 10000 6.7 70 11:21 30.05.2020
2286 Clear 17 1023 42 10000 5.1 80 10:40 30.05.2020
2287 Clear 16 1023 42 10000 5.1 80 10:21 30.05.2020
2288 Clear 16 1023 44 10000 5.1 80 09:49 30.05.2020
2289 Clear 16 1023 44 10000 5.1 80 09:31 30.05.2020
2290 Clear 13 1023 50 10000 4.6 80 08:51 30.05.2020
2291 Clear 13 1023 50 10000 4.6 80 08:33 30.05.2020
2292 Clear 11 1023 57 10000 4.6 60 07:50 30.05.2020
2293 Clear 12 1023 57 10000 4.6 60 07:26 30.05.2020
2294 Clear 10 1023 57 10000 4.1 50 06:58 30.05.2020
2295 Clear 9 1023 57 10000 4.1 50 06:25 30.05.2020
2296 Clear 9 1023 57 10000 3.6 50 05:49 30.05.2020
2297 Clear 11 1023 57 10000 3.6 60 04:21 30.05.2020
2298 Clear 12 1023 50 10000 4.6 60 02:33 30.05.2020
2299 Clear 13 1023 46 10000 4.6 60 01:56 30.05.2020
2300 Clear 14 1023 43 10000 3.1 60 00:44 30.05.2020
2301 Clear 14 1023 43 10000 3.1 60 00:23 30.05.2020
2302 Clear 13 1023 44 10000 2.6 70 23:59 29.05.2020
2303 Clear 14 1023 44 10000 2.6 70 23:38 29.05.2020
2304 Clear 14 1023 44 10000 2.6 70 23:19 29.05.2020
2305 Clear 14 1023 41 10000 3.6 70 22:54 29.05.2020
2306 Clear 15 1023 41 10000 3.6 70 22:36 29.05.2020
2307 Clear 15 1023 41 10000 3.6 70 22:18 29.05.2020
2308 Clear 17 1023 36 10000 3.6 80 21:39 29.05.2020
2309 Clear 17 1023 36 10000 3.6 80 21:21 29.05.2020
2310 Clear 19 1023 34 10000 5.1 90 20:57 29.05.2020
2311 Clear 19 1023 34 10000 5.1 90 20:38 29.05.2020
2312 Clear 19 1023 34 10000 5.1 90 20:19 29.05.2020
2313 Clear 20 1023 32 10000 5.7 100 19:43 29.05.2020
2314 Clear 20 1023 32 10000 5.7 100 19:24 29.05.2020
2315 Clear 20 1023 30 10000 6.2 40 18:48 29.05.2020
2316 Clear 21 1023 32 10000 5.1 40 18:23 29.05.2020
2317 Clouds 21 1024 30 10000 7.2 40 17:59 29.05.2020
2318 Clouds 21 1024 30 10000 7.2 40 17:39 29.05.2020
2319 Clouds 21 1024 30 10000 7.2 40 17:20 29.05.2020
2320 Clear 22 1025 30 10000 4.6 70 16:55 29.05.2020
2321 Clear 22 1025 30 10000 4.6 70 16:37 29.05.2020
2322 Clear 21 1025 30 10000 4.6 70 16:19 29.05.2020
2323 Clear 21 1025 32 10000 5.7 100 15:42 29.05.2020
2324 Clear 21 1025 32 10000 5.7 100 15:21 29.05.2020
2325 Clouds 21 1026 32 10000 4.1 20 14:58 29.05.2020
2326 Clouds 20 1026 32 10000 4.1 20 14:39 29.05.2020
2327 Clouds 20 1026 32 10000 4.1 20 14:39 29.05.2020
2328 Clouds 20 1026 32 10000 4.1 20 14:20 29.05.2020
2329 Clouds 20 1026 37 10000 5.7 60 13:43 29.05.2020
2330 Clouds 19 1026 37 10000 5.7 60 13:23 29.05.2020
2331 Clear 20 1027 34 10000 5.7 90 12:58 29.05.2020
2332 Clear 19 1027 34 10000 5.7 90 12:39 29.05.2020
2333 Clear 18 1027 34 10000 5.7 90 12:21 29.05.2020
2334 Clear 17 1027 39 10000 6.2 80 11:44 29.05.2020
2335 Clear 17 1027 39 10000 6.2 80 11:25 29.05.2020
2336 Clear 17 1028 44 10000 5.7 90 10:55 29.05.2020
2337 Clear 17 1028 44 10000 5.7 90 10:36 29.05.2020
2338 Clear 16 1028 44 10000 5.7 90 10:18 29.05.2020
2339 Clear 15 1028 50 10000 4.1 70 09:42 29.05.2020
2340 Clear 14 1028 50 10000 4.1 70 09:19 29.05.2020
2341 Clear 13 1028 58 10000 3.6 70 08:48 29.05.2020
2342 Clear 12 1028 58 10000 3.6 70 08:26 29.05.2020
2343 Clear 11 1028 61 10000 2.6 90 07:59 29.05.2020
2344 Clear 11 1028 61 10000 2.6 90 07:39 29.05.2020
2345 Clear 11 1028 61 10000 2.6 90 07:21 29.05.2020
2346 Clear 9 1028 65 10000 3.6 70 06:46 29.05.2020
2347 Clear 8 1028 65 10000 3.6 70 06:27 29.05.2020
2348 Clear 8 1028 61 10000 4.6 60 05:46 29.05.2020
2349 Clear 12 1028 50 10000 4.1 50 02:37 29.05.2020
2350 Clear 13 1028 46 10000 5.1 50 01:30 29.05.2020
2351 Clear 12 1028 43 10000 6.2 50 00:59 29.05.2020
2352 Clear 13 1028 43 10000 6.2 50 00:40 29.05.2020
2353 Clear 13 1028 43 10000 6.2 50 00:18 29.05.2020
2354 Clear 15 1028 38 10000 5.1 30 23:39 28.05.2020
2355 Clear 15 1028 38 10000 5.1 30 23:19 28.05.2020
2356 Clear 15 1028 66 10000 4.1 20 22:44 28.05.2020
2357 Clear 15 1028 62 10000 4.1 20 22:26 28.05.2020
2358 Clear 16 1028 62 10000 3.6 10 21:57 28.05.2020
2359 Clear 17 1028 62 10000 3.6 10 21:39 28.05.2020
2360 Clear 18 1028 60 10000 3.6 10 21:20 28.05.2020
2361 Clear 18 1028 25 10000 5.1 30 20:57 28.05.2020
2362 Clear 18 1028 25 10000 5.1 30 20:39 28.05.2020
2363 Clear 20 1028 25 10000 5.1 30 20:18 28.05.2020
2364 Clear 19 1028 28 10000 4.6 50 19:56 28.05.2020
2365 Clear 19 1028 28 10000 4.6 50 19:38 28.05.2020
2366 Clear 19 1028 28 10000 4.6 50 19:20 28.05.2020
2367 Clear 21 1028 50 10000 6.7 30 18:43 28.05.2020
2368 Clear 21 1028 46 10000 6.7 30 18:25 28.05.2020
2369 Clear 22 1029 26 10000 6.2 40 17:57 28.05.2020
2370 Clear 22 1029 26 10000 6.2 40 17:39 28.05.2020
2371 Clear 22 1029 26 10000 6.2 40 17:19 28.05.2020
2372 Clear 22 1029 30 10000 8.2 70 16:45 28.05.2020
2373 Clear 21 1029 30 10000 8.2 70 16:21 28.05.2020
2374 Clear 21 1030 30 10000 6.2 20 15:54 28.05.2020
2375 Clear 20 1030 32 10000 5.7 50 15:36 28.05.2020
2376 Clear 20 1030 32 10000 5.7 50 15:18 28.05.2020
2377 Clear 20 1030 30 10000 6.2 40 14:41 28.05.2020
2378 Clear 20 1030 30 10000 6.2 40 14:22 28.05.2020
2379 Clear 20 1030 39 10000 7.2 80 13:46 28.05.2020
2380 Clear 19 1030 39 10000 7.2 80 13:27 28.05.2020
2381 Clear 19 1031 42 10000 6.2 60 12:43 28.05.2020
2382 Clear 18 1031 42 10000 6.2 60 12:20 28.05.2020
2383 Clear 17 1031 48 10000 7.2 50 11:57 28.05.2020
2384 Clear 17 1031 48 10000 7.2 50 11:39 28.05.2020
2385 Clear 17 1031 48 10000 7.2 50 11:20 28.05.2020
2386 Clear 16 1031 55 10000 6.2 60 10:46 28.05.2020
2387 Clear 16 1031 55 10000 6.2 60 10:28 28.05.2020
2388 Clear 15 1031 58 10000 6.2 60 09:59 28.05.2020
2389 Clear 15 1031 58 10000 6.2 60 09:38 28.05.2020
2390 Clear 14 1031 58 10000 6.2 60 09:18 28.05.2020
2391 Clear 13 1031 62 10000 5.7 60 08:44 28.05.2020
2392 Clear 13 1031 62 10000 5.7 60 08:25 28.05.2020
2393 Clear 12 1031 66 10000 1.5 50 07:45 28.05.2020
2394 Clear 12 1031 66 10000 1.5 50 07:23 28.05.2020
2395 Clear 12 1030 71 10000 4.1 20 06:45 28.05.2020
2396 Clear 12 1030 71 10000 4.1 20 06:27 28.05.2020
2397 Clouds 13 1030 76 10000 3.6 30 05:40 28.05.2020
2398 Clouds 13 1030 71 10000 2.6 30 04:39 28.05.2020
2399 Clouds 13 1030 71 10000 2.6 30 04:20 28.05.2020
2400 Clear 14 1031 67 10000 2.1 40 03:42 28.05.2020
2401 Clear 14 1031 67 10000 2.6 360 02:45 28.05.2020
2402 Clear 15 1031 62 10000 3.1 350 01:46 28.05.2020
2403 Clear 16 1031 59 10000 2.6 350 00:50 28.05.2020
2404 Clear 15 1031 59 10000 2.6 350 00:22 28.05.2020
2405 Clear 16 1031 55 10000 1.76 15 23:56 27.05.2020
2406 Clear 16 1031 55 10000 1.76 15 23:38 27.05.2020
2407 Clear 17 1031 55 10000 1.82 27 23:19 27.05.2020
2408 Clear 17 1031 52 10000 3.1 10 22:43 27.05.2020
2409 Clear 18 1031 52 10000 3.1 10 22:24 27.05.2020
2410 Clear 19 1030 48 10000 3.6 360 21:58 27.05.2020
2411 Clear 19 1030 48 10000 3.6 360 21:40 27.05.2020
2412 Clear 19 1030 48 10000 3.6 360 21:21 27.05.2020
2413 Clouds 21 1030 37 10000 4.1 10 20:58 27.05.2020
2414 Clouds 20 1030 37 10000 4.1 10 20:40 27.05.2020
2415 Clouds 20 1030 37 10000 4.1 10 20:40 27.05.2020
2416 Clouds 21 1030 37 10000 4.1 10 20:20 27.05.2020
2417 Clouds 22 1030 35 10000 3.1 40 19:47 27.05.2020
2418 Clouds 22 1030 35 10000 3.1 40 19:21 27.05.2020
2419 Clouds 22 1030 35 10000 3.6 60 18:58 27.05.2020
2420 Clouds 23 1030 31 10000 1.5 70 18:39 27.05.2020
2421 Clouds 24 1030 31 10000 1.5 70 18:19 27.05.2020
2422 Clouds 23 1031 33 10000 1.5 170 17:43 27.05.2020
2423 Clouds 23 1031 33 10000 1.5 170 17:25 27.05.2020
2424 Clear 22 1031 35 10000 1.5 90 16:57 27.05.2020
2425 Clear 23 1031 35 10000 1.5 90 16:38 27.05.2020
2426 Clear 23 1031 35 10000 1.5 90 16:20 27.05.2020
2427 Clear 23 1031 35 10000 1.5 90 16:20 27.05.2020
2428 Clear 24 1032 35 10000 2.02 350 15:59 27.05.2020
2429 Clear 23 1032 35 10000 2.02 350 15:37 27.05.2020
2430 Clear 23 1032 35 10000 2.62 354 15:18 27.05.2020
2431 Clear 22 1033 37 10000 1.5 140 14:42 27.05.2020
2432 Clear 22 1033 37 10000 1.5 140 14:21 27.05.2020
2433 Clouds 21 1033 40 10000 1.5 70 13:44 27.05.2020
2434 Clouds 21 1033 40 10000 1.5 70 13:26 27.05.2020
2435 Clear 20 1034 42 10000 1.5 70 12:57 27.05.2020
2436 Clear 20 1034 42 10000 1.5 70 12:57 27.05.2020
2437 Clear 20 1034 42 10000 1.5 70 12:39 27.05.2020
2438 Clear 20 1034 42 10000 1.5 70 12:21 27.05.2020
2439 Clear 19 1034 45 10000 2.02 12 11:39 27.05.2020
2440 Clear 19 1034 45 10000 1.5 17 11:21 27.05.2020
2441 Clear 18 1034 45 10000 1.5 17 10:57 27.05.2020
2442 Clear 18 1034 45 10000 1.5 17 10:57 27.05.2020
2443 Clear 18 1034 45 10000 1.5 17 10:38 27.05.2020
2444 Clear 18 1034 45 10000 1.29 24 10:19 27.05.2020
2445 Clear 16 1034 58 10000 1.29 24 09:41 27.05.2020
2446 Clear 15 1034 58 10000 1.27 36 09:22 27.05.2020
2447 Clear 14 1034 66 10000 1.32 35 08:56 27.05.2020
2448 Clear 14 1034 66 10000 1.32 35 08:36 27.05.2020
2449 Clear 13 1034 66 10000 1.23 35 08:18 27.05.2020
2450 Clear 12 1034 71 10000 1.23 35 07:49 27.05.2020
2451 Clear 11 1034 71 10000 1.23 35 07:30 27.05.2020
2452 Clear 8 1034 87 10000 1.22 47 06:49 27.05.2020
2453 Clear 8 1034 87 10000 1.09 48 06:21 27.05.2020
2454 Clear 9 1034 76 10000 1.09 48 05:49 27.05.2020
2455 Clear 9 1034 76 10000 1.05 54 05:22 27.05.2020
2456 Clear 11 1034 66 10000 1.01 76 02:34 27.05.2020
2457 Clear 11 1034 71 10000 1.13 73 01:53 27.05.2020
2458 Clear 11 1034 71 10000 1.13 73 01:30 27.05.2020
2459 Clear 13 1034 62 10000 2.6 90 00:46 27.05.2020
2460 Clear 13 1034 62 10000 2.6 90 00:20 27.05.2020
2461 Clear 14 1034 66 10000 3.1 60 23:57 26.05.2020
2462 Clear 14 1034 66 10000 3.1 60 23:38 26.05.2020
2463 Clear 14 1034 66 10000 3.1 60 23:20 26.05.2020
2464 Clear 15 1034 58 10000 2.6 60 22:41 26.05.2020
2465 Clear 15 1034 58 10000 2.6 60 22:23 26.05.2020
2466 Clear 15 1034 58 10000 2.6 60 22:23 26.05.2020
2467 Clear 17 1033 42 10000 3.6 20 21:59 26.05.2020
2468 Clear 17 1033 42 10000 3.6 20 21:40 26.05.2020
2469 Clear 17 1033 42 10000 3.6 20 21:22 26.05.2020
2470 Clear 19 1033 39 10000 4.1 50 20:58 26.05.2020
2471 Clear 20 1033 39 10000 4.1 50 20:39 26.05.2020
2472 Clear 20 1033 39 10000 4.1 50 20:20 26.05.2020
2473 Clear 21 1033 30 10000 3.1 10 19:41 26.05.2020
2474 Clear 22 1033 30 10000 3.1 10 19:21 26.05.2020
2475 Clear 22 1033 32 10000 2.1 20 18:59 26.05.2020
2476 Clear 22 1033 32 10000 2.1 20 18:39 26.05.2020
2477 Clear 22 1033 32 10000 2.1 20 18:21 26.05.2020
2478 Clear 22 1033 35 10000 4.1 340 17:42 26.05.2020
2479 Clear 22 1033 35 10000 4.1 340 17:23 26.05.2020
2480 Clear 22 1033 35 10000 5.1 350 16:55 26.05.2020
2481 Clear 22 1034 33 10000 3.6 40 16:36 26.05.2020
2482 Clear 22 1034 33 10000 3.6 40 16:18 26.05.2020
2483 Clouds 21 1034 37 10000 2.6 70 15:41 26.05.2020
2484 Clouds 21 1034 37 10000 2.6 70 15:20 26.05.2020
2485 Clear 20 1034 40 10000 4.6 50 14:56 26.05.2020
2486 Clear 20 1034 40 10000 4.6 50 14:37 26.05.2020
2487 Clear 20 1034 40 10000 4.6 50 14:18 26.05.2020
2488 Clear 19 1034 40 10000 4.6 30 13:41 26.05.2020
2489 Clear 19 1034 40 10000 4.6 30 13:41 26.05.2020
2490 Clear 19 1034 40 10000 4.6 30 13:23 26.05.2020
2491 Clear 19 1035 40 10000 4.6 20 12:56 26.05.2020
2492 Clear 19 1035 40 10000 4.6 20 12:37 26.05.2020
2493 Clear 18 1035 40 10000 4.6 20 12:19 26.05.2020
2494 Clear 16 1035 51 10000 3.1 30 11:41 26.05.2020
2495 Clear 16 1035 51 10000 3.1 30 11:21 26.05.2020
2496 Clear 16 1035 59 10000 3.1 30 10:57 26.05.2020
2497 Clear 16 1035 59 10000 3.1 30 10:38 26.05.2020
2498 Clear 15 1035 59 10000 3.1 30 10:18 26.05.2020
2499 Clear 14 1035 67 10000 2.97 24 09:38 26.05.2020
2500 Clear 13 1035 67 10000 2.44 25 09:19 26.05.2020
2501 Clear 12 1034 76 10000 2.44 25 08:42 26.05.2020
2502 Clear 12 1034 76 10000 1.76 20 08:22 26.05.2020
2503 Clear 10 1034 81 10000 1.76 20 07:44 26.05.2020
2504 Clear 9 1034 81 10000 1.51 33 07:24 26.05.2020
2505 Clear 8 1034 87 10000 1.51 33 06:54 26.05.2020
2506 Clear 8 1034 87 10000 1.51 33 06:36 26.05.2020
2507 Clear 8 1034 87 10000 1.41 32 05:53 26.05.2020
2508 -273 0 0 0 0 0 05:29 26.05.2020
2509 Clear 7 1034 93 10000 1.5 32 04:52 26.05.2020
2510 Clear 7 1034 93 10000 1.5 32 04:33 26.05.2020
2511 Clear 8 1034 81 10000 1.5 33 03:55 26.05.2020
2512 Clear 9 1034 81 10000 1.35 42 02:45 26.05.2020
2513 Clear 10 1034 71 10000 2.1 30 01:48 26.05.2020
2514 Clear 10 1034 71 10000 2.1 30 01:27 26.05.2020
2515 Clear 11 1034 71 10000 1.5 360 00:37 26.05.2020
2516 Clear 11 1034 71 10000 1.5 360 00:19 26.05.2020
2517 Clear 12 1034 71 10000 1.5 350 23:55 25.05.2020
2518 Clear 13 1034 71 10000 1.5 350 23:37 25.05.2020
2519 Clear 12 1034 71 10000 1.5 350 23:18 25.05.2020
2520 Clear 14 1034 67 10000 1.5 360 22:55 25.05.2020
2521 Clear 14 1034 67 10000 1.5 360 22:36 25.05.2020
2522 Clear 14 1034 67 10000 1.5 360 22:18 25.05.2020
2523 Clouds 15 1033 59 10000 3.6 360 21:55 25.05.2020
2524 Clouds 16 1033 59 10000 3.6 360 21:36 25.05.2020
2525 Clouds 16 1033 59 10000 3.6 360 21:18 25.05.2020
2526 Clouds 17 1033 55 10000 3.6 360 20:42 25.05.2020
2527 Clouds 17 1033 55 10000 3.6 360 20:42 25.05.2020
2528 Clouds 18 1033 55 10000 3.6 360 20:22 25.05.2020
2529 Clouds 18 1033 55 10000 3.6 360 20:22 25.05.2020
2530 Clouds 18 1033 48 10000 3.1 330 19:59 25.05.2020
2531 Clouds 18 1033 48 10000 3.1 330 19:41 25.05.2020
2532 Clouds 18 1033 48 10000 3.1 330 19:19 25.05.2020
2533 Clouds 18 1033 55 10000 3.6 300 18:57 25.05.2020
2534 Clouds 18 1033 55 10000 3.6 300 18:38 25.05.2020
2535 Clouds 18 1033 55 10000 3.6 300 18:20 25.05.2020
2536 Clouds 18 1033 52 10000 2.6 310 17:44 25.05.2020
2537 Clouds 18 1033 52 10000 2.6 310 17:44 25.05.2020
2538 Clouds 18 1033 52 10000 2.6 310 17:24 25.05.2020
2539 Clouds 19 1033 52 10000 4.6 310 16:58 25.05.2020
2540 Clouds 19 1033 52 10000 4.6 310 16:40 25.05.2020
2541 Clouds 18 1033 52 10000 4.6 310 16:20 25.05.2020
2542 Clouds 17 1034 59 10000 3.1 340 15:45 25.05.2020
2543 Clouds 17 1034 59 10000 3.1 340 15:20 25.05.2020
2544 Clouds 17 1034 55 10000 2.6 310 14:59 25.05.2020
2545 Clouds 18 1034 55 10000 2.6 310 14:40 25.05.2020
2546 Clouds 17 1034 55 10000 2.6 310 14:22 25.05.2020
2547 Clouds 16 1034 59 10000 1.5 290 13:55 25.05.2020
2548 Clouds 16 1034 59 10000 1.5 290 13:37 25.05.2020
2549 Clouds 16 1034 59 10000 1.5 290 13:18 25.05.2020
2550 Clouds 16 1034 63 10000 2.6 290 12:39 25.05.2020
2551 Clouds 15 1034 63 10000 2.6 290 12:21 25.05.2020
2552 Clouds 15 1034 67 10000 2.6 320 11:57 25.05.2020
2553 Clouds 15 1034 67 10000 2.6 320 11:37 25.05.2020
2554 Clouds 15 1034 67 10000 2.6 320 11:18 25.05.2020
2555 Clouds 14 1033 71 10000 3.6 320 10:41 25.05.2020
2556 Clouds 14 1033 71 10000 3.6 320 10:21 25.05.2020
2557 Clouds 13 1033 82 10000 3.1 300 09:56 25.05.2020
2558 Clouds 13 1033 82 10000 3.1 300 09:38 25.05.2020
2559 Clouds 12 1033 82 10000 3.1 300 09:19 25.05.2020
2560 Clouds 11 1033 87 10000 1.5 260 08:44 25.05.2020
2561 Clouds 11 1033 87 10000 1.5 260 08:25 25.05.2020
2562 Clouds 10 1033 93 10000 2.1 290 07:59 25.05.2020
2563 Clouds 10 1033 93 10000 2.1 290 07:59 25.05.2020
2564 Clouds 11 1033 93 10000 2.1 290 07:41 25.05.2020
2565 Clouds 11 1033 93 10000 2.1 290 07:20 25.05.2020
2566 Clouds 11 1032 87 10000 2.1 270 06:46 25.05.2020
2567 Clouds 9 1032 87 10000 2.1 270 06:27 25.05.2020
2568 Clouds 9 1032 87 10000 1.5 280 03:47 25.05.2020
2569 Clouds 10 1032 87 10000 2.6 330 03:22 25.05.2020
2570 Clouds 11 1032 81 10000 2.6 290 02:45 25.05.2020
2571 Clouds 11 1032 81 10000 2.6 240 01:46 25.05.2020
2572 Clouds 11 1032 81 10000 2.6 240 01:28 25.05.2020
2573 Clouds 11 1033 81 10000 2.1 280 00:37 25.05.2020
2574 Clouds 11 1033 81 10000 2.1 280 00:18 25.05.2020
2575 Clouds 11 1032 81 10000 2.1 280 23:43 24.05.2020
2576 Clouds 11 1032 81 10000 2.1 280 23:23 24.05.2020
2577 Clouds 12 1032 81 10000 2.1 270 22:59 24.05.2020
2578 Clouds 12 1032 81 10000 2.1 270 22:41 24.05.2020
2579 Clouds 12 1032 81 10000 2.1 270 22:41 24.05.2020
2580 Clouds 12 1032 81 10000 2.1 270 22:19 24.05.2020
2581 Clouds 12 1032 81 10000 2.6 280 21:56 24.05.2020
2582 Clouds 13 1031 71 10000 3.6 290 21:38 24.05.2020
2583 Clouds 14 1031 71 10000 3.6 290 21:19 24.05.2020
2584 Clouds 14 1031 67 10000 3.1 310 20:44 24.05.2020
2585 Clouds 14 1031 67 10000 3.1 310 20:23 24.05.2020
2586 Clouds 15 1031 62 10000 4.6 310 19:59 24.05.2020
2587 Clouds 15 1031 62 10000 3.1 310 19:41 24.05.2020
2588 Clouds 15 1031 62 10000 3.1 310 19:20 24.05.2020
2589 Clouds 15 1031 58 10000 3.6 290 18:59 24.05.2020
2590 Clouds 16 1031 58 10000 5.1 290 18:40 24.05.2020
2591 Clouds 15 1031 58 10000 5.1 290 18:22 24.05.2020
2592 Clouds 15 1030 58 10000 4.6 270 17:56 24.05.2020
2593 Clouds 15 1030 62 10000 6.2 250 17:36 24.05.2020
2594 Clouds 15 1030 62 10000 6.2 250 17:18 24.05.2020
2595 Clouds 15 1030 62 10000 5.1 230 16:39 24.05.2020
2596 Clouds 15 1030 62 10000 5.1 230 16:21 24.05.2020
2597 Clouds 15 1030 58 10000 5.1 240 15:58 24.05.2020
2598 Clouds 15 1030 58 10000 5.1 240 15:39 24.05.2020
2599 Clouds 15 1030 58 10000 5.1 240 15:20 24.05.2020
2600 Clouds 15 1030 58 10000 5.7 230 14:55 24.05.2020
2601 Clouds 15 1030 51 10000 6.2 240 14:37 24.05.2020
2602 Clouds 15 1030 51 10000 6.2 240 14:18 24.05.2020
2603 Clouds 14 1030 51 10000 4.1 250 13:55 24.05.2020
2604 Clouds 14 1030 51 10000 4.1 250 13:36 24.05.2020
2605 Clouds 15 1030 51 10000 4.1 250 13:18 24.05.2020
2606 Clouds 14 1030 51 10000 5.1 240 12:55 24.05.2020
2607 Clouds 14 1030 58 10000 5.7 250 12:37 24.05.2020
2608 Clouds 13 1030 58 10000 5.7 250 12:18 24.05.2020
2609 Clouds 13 1030 62 10000 4.1 260 11:46 24.05.2020
2610 Clouds 13 1030 62 10000 4.1 260 11:26 24.05.2020
2611 Clouds 12 1030 71 10000 4.6 270 10:59 24.05.2020
2612 Clouds 12 1030 71 10000 4.6 270 10:59 24.05.2020
2613 Clouds 12 1030 71 10000 5.1 230 10:41 24.05.2020
2614 Clouds 11 1030 71 10000 5.1 230 10:23 24.05.2020
2615 Clouds 11 1030 81 10000 4.6 240 09:56 24.05.2020
2616 Clouds 10 1030 81 10000 4.6 240 09:38 24.05.2020
2617 Clouds 9 1030 81 10000 4.6 240 09:18 24.05.2020
2618 Clouds 9 1030 87 10000 2.6 260 08:41 24.05.2020
2619 Clouds 9 1030 87 10000 2.6 260 08:23 24.05.2020
2620 Clouds 8 1029 93 10000 1.5 260 07:58 24.05.2020
2621 Clouds 8 1029 87 10000 1.5 270 07:39 24.05.2020
2622 Clouds 8 1029 87 10000 1.5 270 07:20 24.05.2020
2623 Clouds 7 1028 93 10000 2.1 250 06:39 24.05.2020
2624 Clear 6 1028 93 10000 1.5 240 05:50 24.05.2020
2625 Clear 6 1028 100 10000 2.89 228 03:57 24.05.2020
2626 Clear 6 1028 100 10000 2.89 228 03:37 24.05.2020
2627 Clouds 7 1028 93 10000 2.1 260 02:24 24.05.2020
2628 Clear 7 1028 93 10000 2.6 270 01:21 24.05.2020
2629 Clear 8 1028 81 10000 3.1 240 00:38 24.05.2020
2630 Clear 8 1028 81 10000 3.1 240 00:20 24.05.2020
2631 Clear 8 1028 93 10000 3.6 240 23:40 23.05.2020
2632 Clear 9 1028 93 10000 3.6 240 23:20 23.05.2020
2633 Clear 9 1028 87 10000 3.6 220 22:56 23.05.2020
2634 Clear 9 1028 87 10000 3.6 220 22:37 23.05.2020
2635 Clear 10 1028 87 10000 3.6 220 22:19 23.05.2020
2636 Clear 11 1027 76 10000 4.1 230 21:57 23.05.2020
2637 Clear 11 1027 76 10000 4.1 230 21:37 23.05.2020
2638 Clear 11 1027 76 10000 4.1 230 21:19 23.05.2020
2639 Clear 11 1026 76 10000 3.6 220 20:55 23.05.2020
2640 Clear 12 1026 76 10000 3.6 220 20:36 23.05.2020
2641 Clear 12 1026 76 10000 3.6 220 20:18 23.05.2020
2642 Clouds 11 1026 87 10000 5.7 230 19:41 23.05.2020
2643 Clouds 12 1026 87 10000 5.7 230 19:19 23.05.2020
2644 Clouds 12 1026 81 10000 4.1 240 18:57 23.05.2020
2645 Clouds 13 1026 81 10000 4.1 240 18:39 23.05.2020
2646 Clouds 12 1026 81 10000 4.1 240 18:20 23.05.2020
2647 Clouds 13 1026 87 10000 3.6 240 17:55 23.05.2020
2648 Clouds 14 1026 67 10000 6.7 220 17:37 23.05.2020
2649 Clouds 14 1026 67 10000 6.7 220 17:18 23.05.2020
2650 Clouds 13 1026 71 10000 4.6 230 16:55 23.05.2020
2651 Clouds 13 1026 71 10000 4.6 240 16:37 23.05.2020
2652 Clouds 13 1026 71 10000 4.6 240 16:18 23.05.2020
2653 Clouds 13 1026 71 10000 4.6 240 16:18 23.05.2020
2654 Clouds 12 1025 76 10000 4.1 240 15:42 23.05.2020
2655 Clouds 12 1025 76 10000 4.1 240 15:23 23.05.2020
2656 Clouds 12 1025 76 10000 4.1 230 14:55 23.05.2020
2657 Clouds 11 1025 81 10000 4.6 260 14:37 23.05.2020
2658 Clouds 11 1025 81 10000 4.6 260 14:19 23.05.2020
2659 Clouds 10 1025 87 10000 3.1 230 13:40 23.05.2020
2660 Clouds 10 1025 87 10000 3.1 230 13:19 23.05.2020
2661 Clouds 9 1025 93 10000 3.1 240 12:55 23.05.2020
2662 Rain 10 1025 93 10000 3.6 240 12:36 23.05.2020
2663 Rain 10 1025 93 10000 3.6 240 12:18 23.05.2020
2664 Rain 10 1025 81 10000 3.6 240 11:42 23.05.2020
2665 Rain 10 1025 81 10000 3.6 240 11:21 23.05.2020
2666 Rain 10 1025 76 10000 4.1 280 10:57 23.05.2020
2667 Rain 11 1025 87 10000 3.6 250 10:39 23.05.2020
2668 Rain 11 1025 87 10000 3.6 250 10:19 23.05.2020
2669 Rain 11 1024 76 10000 3.6 270 09:56 23.05.2020
2670 Clouds 11 1024 76 10000 2.6 280 09:38 23.05.2020
2671 Clouds 11 1024 76 10000 2.6 280 09:20 23.05.2020
2672 Rain 12 1023 81 10000 3.1 260 08:42 23.05.2020
2673 Rain 11 1023 81 10000 3.1 260 08:19 23.05.2020
2674 Clouds 11 1023 81 10000 2.6 240 07:46 23.05.2020
2675 Rain 12 1023 81 10000 2.6 250 07:28 23.05.2020
2676 Rain 12 1023 87 10000 2.6 250 06:55 23.05.2020
2677 Clouds 12 1022 87 10000 3.1 240 06:36 23.05.2020
2678 Drizzle 12 1022 82 10000 2.6 250 04:56 23.05.2020
2679 Clouds 14 1022 87 10000 3.1 250 03:30 23.05.2020
2680 Clouds 14 1022 82 10000 2.6 260 02:57 23.05.2020
2681 Clouds 15 1022 100 10000 3.1 280 01:58 23.05.2020
2682 Clouds 15 1022 100 10000 4.1 300 01:23 23.05.2020
2683 Clouds 16 1022 100 10000 2.6 250 00:47 23.05.2020
2684 Clouds 16 1022 93 10000 2.6 260 00:25 23.05.2020
2685 Mist 16 1022 93 8000 4.1 270 23:57 22.05.2020
2686 Clouds 17 1022 77 10000 4.6 280 23:39 22.05.2020
2687 Clouds 17 1022 77 10000 4.6 280 23:19 22.05.2020
2688 Clouds 17 1021 82 10000 3.6 310 22:55 22.05.2020
2689 Clouds 18 1021 82 10000 4.6 300 22:36 22.05.2020
2690 Clouds 18 1021 82 10000 4.6 300 22:18 22.05.2020
2691 Clouds 18 1021 82 10000 4.6 300 22:18 22.05.2020
2692 Clouds 20 1020 77 10000 3.1 270 21:42 22.05.2020
2693 Clouds 20 1020 77 10000 3.1 270 21:21 22.05.2020
2694 Rain 21 1020 68 10000 5.1 300 20:46 22.05.2020
2695 Rain 21 1020 68 10000 5.1 300 20:21 22.05.2020
2696 Clouds 21 1019 47 10000 5.1 240 19:59 22.05.2020
2697 Clouds 21 1019 47 10000 5.1 240 19:41 22.05.2020
2698 Clouds 21 1019 47 10000 5.1 240 19:22 22.05.2020
2699 Clouds 24 1019 47 10000 5.1 230 18:40 22.05.2020
2700 Clouds 24 1019 47 10000 5.1 230 18:40 22.05.2020
2701 Clouds 24 1019 47 10000 5.1 230 18:21 22.05.2020
2702 Clouds 26 1019 44 10000 6.7 240 17:59 22.05.2020
2703 Clouds 26 1019 47 10000 5.1 220 17:38 22.05.2020
2704 Clouds 26 1019 47 10000 5.1 220 17:18 22.05.2020
2705 Clouds 24 1019 53 10000 7.2 200 16:45 22.05.2020
2706 Clouds 25 1019 53 10000 7.2 200 16:21 22.05.2020
2707 Clouds 25 1020 57 10000 5.1 220 15:59 22.05.2020
2708 Clouds 25 1020 57 10000 5.1 220 15:41 22.05.2020
2709 Clouds 24 1020 57 10000 5.1 220 15:21 22.05.2020
2710 Clouds 24 1020 56 10000 3.6 210 14:44 22.05.2020
2711 Clouds 23 1020 56 10000 3.6 210 14:25 22.05.2020
2712 Clouds 22 1020 60 10000 4.1 180 13:49 22.05.2020
2713 Clouds 22 1020 60 10000 4.1 180 13:21 22.05.2020
2714 Drizzle 22 1020 60 10000 4.1 190 12:59 22.05.2020
2715 Clouds 22 1020 64 10000 2.6 220 12:39 22.05.2020
2716 Clouds 22 1020 64 10000 2.6 220 12:20 22.05.2020
2717 Clouds 22 1021 60 10000 4.07 205 11:44 22.05.2020
2718 Clouds 21 1021 60 10000 3.26 206 11:22 22.05.2020
2719 Clouds 21 1021 68 10000 3.26 206 10:57 22.05.2020
2720 Clouds 20 1021 68 10000 3.26 206 10:38 22.05.2020
2721 Clouds 20 1021 68 10000 2.68 203 10:19 22.05.2020
2722 Clouds 20 1020 68 10000 2.68 203 09:47 22.05.2020
2723 Clouds 19 1020 68 10000 1.75 189 09:21 22.05.2020
2724 Clouds 17 1020 82 10000 1.75 189 08:58 22.05.2020
2725 Clouds 16 1020 82 10000 1.75 189 08:39 22.05.2020
2726 Clouds 16 1020 82 10000 1.2 182 08:18 22.05.2020
2727 Clear 15 1020 87 10000 1.2 182 07:52 22.05.2020
2728 Clear 14 1020 87 10000 1.23 174 07:23 22.05.2020
2729 Clear 14 1020 82 10000 1.23 174 06:48 22.05.2020
2730 Clear 13 1020 82 10000 1.23 174 06:29 22.05.2020
2731 Clear 13 1020 82 10000 1.23 174 06:29 22.05.2020
2732 Clear 13 1020 82 10000 1.24 173 05:37 22.05.2020
2733 Clear 13 1020 82 10000 1.24 173 05:37 22.05.2020
2734 Clear 14 1020 82 10000 1.08 185 04:49 22.05.2020
2735 Clear 15 1020 77 10000 1.19 155 03:52 22.05.2020
2736 Clear 15 1020 77 10000 1.19 155 03:33 22.05.2020
2737 Clear 16 1021 68 10000 1.5 330 02:55 22.05.2020
2738 Clear 16 1021 68 10000 0.7 190 01:48 22.05.2020
2739 Clear 16 1021 68 10000 1.26 144 01:22 22.05.2020
2740 Clear 18 1021 63 10000 1.5 220 00:34 22.05.2020
2741 Clear 18 1021 60 10000 1.5 210 23:58 21.05.2020
2742 Clear 18 1021 60 10000 1.5 210 23:40 21.05.2020
2743 Clear 19 1021 60 10000 1.5 210 23:22 21.05.2020
2744 Clouds 20 1021 56 10000 0.84 163 22:57 21.05.2020
2745 Clouds 20 1021 56 10000 0.84 163 22:37 21.05.2020
2746 Clouds 20 1021 56 10000 0.57 131 22:19 21.05.2020
2747 Clear 22 1020 49 10000 2.6 200 21:48 21.05.2020
2748 Clear 22 1020 49 10000 2.6 200 21:27 21.05.2020
2749 Clear 24 1020 41 10000 2.1 230 20:59 21.05.2020
2750 Clear 24 1020 41 10000 2.1 230 20:40 21.05.2020
2751 Clear 25 1020 41 10000 2.1 230 20:21 21.05.2020
2752 Clouds 25 1020 36 10000 2.6 240 19:40 21.05.2020
2753 Clouds 25 1020 36 10000 2.6 240 19:20 21.05.2020
2754 Clouds 26 1020 36 10000 2.6 250 18:58 21.05.2020
2755 Clouds 26 1020 36 10000 2.6 250 18:37 21.05.2020
2756 Clouds 26 1020 36 10000 2.6 250 18:18 21.05.2020
2757 Clear 26 1021 39 10000 4.1 290 17:55 21.05.2020
2758 Clear 26 1021 39 10000 4.1 290 17:37 21.05.2020
2759 Clear 26 1021 39 10000 4.1 290 17:19 21.05.2020
2760 Clear 25 1021 38 10000 1.5 250 16:44 21.05.2020
2761 Clear 25 1021 38 10000 1.5 250 16:22 21.05.2020
2762 Clear 25 1021 41 10000 1.81 288 15:44 21.05.2020
2763 Clear 25 1021 41 10000 1.76 299 15:23 21.05.2020
2764 Clear 25 1021 41 10000 1.76 299 14:43 21.05.2020
2765 Clear 25 1021 41 10000 2.06 312 14:23 21.05.2020
2766 Clear 24 1022 46 10000 2.1 270 13:58 21.05.2020
2767 Clear 24 1022 46 10000 2.1 270 13:38 21.05.2020
2768 Clear 24 1022 46 10000 2.1 270 13:19 21.05.2020
2769 Clear 23 1022 49 10000 2.1 180 12:40 21.05.2020
2770 Clear 23 1022 49 10000 2.1 180 12:22 21.05.2020
2771 Clear 22 1022 60 10000 1.38 330 11:59 21.05.2020
2772 Clear 21 1022 60 10000 1.38 330 11:39 21.05.2020
2773 Clear 21 1022 60 10000 0.99 353 11:21 21.05.2020
2774 Clear 20 1022 59 10000 2.6 80 10:55 21.05.2020
2775 Clear 20 1022 59 10000 2.6 80 10:37 21.05.2020
2776 Clear 18 1022 59 10000 2.6 80 10:18 21.05.2020
2777 Clear 18 1022 72 10000 4.6 80 09:42 21.05.2020
2778 Clear 17 1022 72 10000 4.6 80 09:24 21.05.2020
2779 Clear 17 1022 72 10000 4.6 80 09:24 21.05.2020
2780 Clear 16 1022 76 10000 3.6 80 08:58 21.05.2020
2781 Clear 16 1022 76 10000 3.6 80 08:40 21.05.2020
2782 Clear 15 1022 76 10000 3.6 80 08:22 21.05.2020
2783 Clear 14 1022 76 10000 1.5 80 07:43 21.05.2020
2784 Clear 13 1022 76 10000 1.5 80 07:24 21.05.2020
2785 Clear 11 1021 81 10000 1.15 41 06:45 21.05.2020
2786 Clear 12 1021 76 10000 1.5 80 05:52 21.05.2020
2787 Clear 12 1022 76 10000 3.1 60 04:29 21.05.2020
2788 Clear 12 1022 76 10000 3.1 60 03:21 21.05.2020
2789 Clear 13 1022 76 10000 1.5 80 02:37 21.05.2020
2790 Clear 13 1022 76 10000 1.5 80 02:18 21.05.2020
2791 Clear 13 1022 76 10000 2.6 80 01:42 21.05.2020
2792 Clear 13 1022 76 10000 2.6 80 01:18 21.05.2020
2793 Clear 14 1022 71 10000 1.5 100 00:44 21.05.2020
2794 Clear 14 1022 71 10000 1.5 100 00:21 21.05.2020
2795 Clear 15 1022 63 10000 2.6 40 23:41 20.05.2020
2796 Clear 15 1022 63 10000 2.6 40 23:20 20.05.2020
2797 Clear 16 1022 67 10000 3.1 30 22:57 20.05.2020
2798 Clear 17 1022 67 10000 3.1 30 22:38 20.05.2020
2799 Clear 16 1022 67 10000 3.1 30 22:20 20.05.2020
2800 Clear 18 1021 59 10000 3.6 20 21:40 20.05.2020
2801 Clear 19 1021 59 10000 3.6 20 21:21 20.05.2020
2802 Clear 20 1021 52 10000 3.6 40 20:44 20.05.2020
2803 Clear 21 1021 52 10000 3.6 40 20:25 20.05.2020
2804 Clear 22 1021 46 10000 4.6 40 19:57 20.05.2020
2805 Clear 22 1021 46 10000 4.6 40 19:38 20.05.2020
2806 Clear 23 1021 46 10000 4.6 40 19:19 20.05.2020
2807 Clouds 24 1021 43 10000 3.6 60 18:44 20.05.2020
2808 Clouds 23 1021 43 10000 3.6 60 18:26 20.05.2020
2809 Clouds 24 1021 43 10000 2.6 20 17:46 20.05.2020
2810 Clouds 23 1021 43 10000 2.6 20 17:24 20.05.2020
2811 Clouds 24 1021 41 10000 4.6 10 16:59 20.05.2020
2812 Clouds 23 1021 43 10000 4.6 70 16:41 20.05.2020
2813 Clouds 24 1021 43 10000 4.6 70 16:21 20.05.2020
2814 Clouds 24 1021 41 10000 4.6 40 15:56 20.05.2020
2815 Clouds 24 1021 41 10000 4.6 40 15:36 20.05.2020
2816 Clouds 23 1021 41 10000 4.6 40 15:18 20.05.2020
2817 Clouds 22 1021 46 10000 1.5 100 14:41 20.05.2020
2818 Clouds 22 1021 46 10000 1.5 100 14:20 20.05.2020
2819 Clouds 21 1021 52 10000 2.1 30 13:40 20.05.2020
2820 Clouds 22 1021 52 10000 2.1 30 13:19 20.05.2020
2821 Clouds 22 1022 53 10000 1.5 350 12:56 20.05.2020
2822 Clouds 21 1022 56 10000 1.5 50 12:37 20.05.2020
2823 Clouds 20 1022 56 10000 1.5 50 12:18 20.05.2020
2824 Clear 20 1022 60 10000 2.22 12 11:36 20.05.2020
2825 Clear 20 1022 60 10000 2.18 25 11:18 20.05.2020
2826 Clear 18 1022 63 10000 2.18 25 10:42 20.05.2020
2827 Clear 19 1022 63 10000 1.99 28 10:20 20.05.2020
2828 Clear 17 1022 67 10000 1.99 28 09:44 20.05.2020
2829 Clear 17 1022 67 10000 2 30 09:21 20.05.2020
2830 Clear 16 1022 72 10000 2 30 08:57 20.05.2020
2831 Clear 15 1022 72 10000 2 30 08:39 20.05.2020
2832 Clear 15 1022 72 10000 1.58 34 08:18 20.05.2020
2833 Clear 13 1022 82 10000 1.58 34 07:46 20.05.2020
2834 Clear 13 1022 82 10000 1.66 32 07:20 20.05.2020
2835 Clear 11 1022 87 10000 1.66 32 06:42 20.05.2020
2836 Clouds 11 1022 81 10000 1.5 350 05:24 20.05.2020
2837 Clear 12 1022 71 10000 1.9 26 04:33 20.05.2020
2838 Clear 13 1022 67 10000 1.79 31 03:51 20.05.2020
2839 Clear 13 1022 67 10000 2.6 360 02:30 20.05.2020
2840 Clear 14 1022 67 10000 2.6 350 01:29 20.05.2020
2841 Clouds 16 1022 67 10000 1.5 10 00:45 20.05.2020
2842 Clouds 16 1022 67 10000 1.5 10 00:24 20.05.2020
2843 Clouds 17 1022 59 10000 1.5 10 23:43 19.05.2020
2844 Clouds 17 1022 59 10000 1.5 10 23:19 19.05.2020
2845 Clear 17 1022 55 10000 2.6 30 22:56 19.05.2020
2846 Clear 17 1022 55 10000 2.6 30 22:38 19.05.2020
2847 Clear 18 1022 55 10000 2.6 30 22:20 19.05.2020
2848 Clear 18 1022 55 10000 2.6 30 22:20 19.05.2020
2849 Clear 19 1021 49 10000 5.1 10 21:58 19.05.2020
2850 Clear 19 1021 49 10000 5.1 10 21:38 19.05.2020
2851 Clear 20 1021 49 10000 5.1 10 21:20 19.05.2020
2852 Clear 21 1021 43 10000 3.6 350 20:58 19.05.2020
2853 Clear 21 1021 43 10000 3.6 350 20:58 19.05.2020
2854 Clear 22 1021 43 10000 3.6 350 20:40 19.05.2020
2855 Clear 23 1021 43 10000 3.6 350 20:21 19.05.2020
2856 Clear 22 1020 40 10000 3.6 350 19:56 19.05.2020
2857 Clear 22 1020 40 10000 3.6 350 19:37 19.05.2020
2858 Clear 23 1020 40 10000 3.6 350 19:19 19.05.2020
2859 Clouds 23 1020 38 10000 4.1 340 18:43 19.05.2020
2860 Clouds 24 1020 38 10000 4.1 340 18:21 19.05.2020
2861 Clouds 25 1020 33 10000 4.1 300 17:56 19.05.2020
2862 Clouds 24 1020 33 10000 4.1 300 17:38 19.05.2020
2863 Clouds 24 1020 33 10000 4.1 300 17:18 19.05.2020
2864 Clear 24 1020 27 10000 4.6 270 16:40 19.05.2020
2865 Clear 24 1020 27 10000 4.6 270 16:21 19.05.2020
2866 Clear 25 1021 25 10000 4.1 290 15:56 19.05.2020
2867 Clear 24 1021 25 10000 4.1 290 15:38 19.05.2020
2868 Clear 24 1021 25 10000 4.1 290 15:19 19.05.2020
2869 Clouds 23 1022 25 10000 4.6 230 14:54 19.05.2020
2870 Clouds 23 1022 25 10000 4.6 230 14:36 19.05.2020
2871 Clouds 23 1022 25 10000 4.6 230 14:18 19.05.2020
2872 Clouds 22 1022 23 10000 2.1 260 13:54 19.05.2020
2873 Clouds 23 1022 23 10000 2.1 260 13:36 19.05.2020
2874 Clouds 23 1022 23 10000 2.1 260 13:18 19.05.2020
2875 Clear 22 1022 38 10000 1.5 300 12:40 19.05.2020
2876 Clear 21 1022 40 10000 1.5 300 12:22 19.05.2020
2877 Clear 20 1023 25 10000 3.1 230 11:59 19.05.2020
2878 Clear 20 1023 25 10000 3.1 230 11:40 19.05.2020
2879 Clear 20 1023 25 10000 3.1 230 11:21 19.05.2020
2880 Clear 18 1023 36 10000 1.77 347 10:49 19.05.2020
2881 Clear 18 1023 36 10000 1.77 347 10:29 19.05.2020
2882 Clear 16 1023 58 10000 1.5 356 09:59 19.05.2020
2883 Clear 15 1023 58 10000 1.5 356 09:41 19.05.2020
2884 Clear 16 1023 58 10000 1.43 352 09:23 19.05.2020
2885 Clear 13 1022 66 10000 1.43 352 08:44 19.05.2020
2886 Clear 12 1022 66 10000 0.86 359 08:24 19.05.2020
2887 Clear 10 1023 76 10000 1.5 330 07:45 19.05.2020
2888 Clear 10 1023 76 10000 1.5 330 07:27 19.05.2020
2889 Clear 8 1022 75 10000 0.84 38 06:54 19.05.2020
2890 Clear 7 1022 75 10000 1.18 18 06:25 19.05.2020
2891 Clear 8 1023 76 10000 1.5 310 05:42 19.05.2020
2892 Clear 8 1023 76 10000 1.5 310 05:19 19.05.2020
2893 Clear 9 1022 66 10000 1.18 6 04:35 19.05.2020
2894 Clear 11 1023 76 10000 1.01 360 02:23 19.05.2020
2895 Clear 14 1023 55 10000 1.22 360 00:48 19.05.2020
2896 Clear 14 1023 55 10000 1.32 357 00:28 19.05.2020
2897 Clear 14 1023 63 10000 2.6 330 23:59 18.05.2020
2898 Clear 15 1023 63 10000 2.6 330 23:40 18.05.2020
2899 Clear 15 1023 63 10000 2.6 330 23:20 18.05.2020
2900 Clear 16 1023 55 10000 2.1 320 22:54 18.05.2020
2901 Clear 17 1023 55 10000 2.1 320 22:36 18.05.2020
2902 Clear 17 1023 55 10000 2.1 320 22:18 18.05.2020
2903 Clear 18 1022 48 10000 2.6 320 21:41 18.05.2020
2904 Clear 19 1022 48 10000 2.6 320 21:20 18.05.2020
2905 Clear 21 1022 37 10000 4.1 300 20:57 18.05.2020
2906 Clear 20 1023 43 10000 2.6 280 20:37 18.05.2020
2907 Clouds 22 1022 37 10000 4.1 240 20:18 18.05.2020
2908 Clear 21 1022 35 10000 3.6 280 19:41 18.05.2020
2909 Clear 21 1022 35 10000 3.6 280 19:41 18.05.2020
2910 Clear 21 1022 35 10000 3.6 280 19:20 18.05.2020
2911 Clear 21 1022 33 10000 4.1 270 18:59 18.05.2020
2912 Clear 21 1022 33 10000 4.1 270 18:41 18.05.2020
2913 Clear 22 1022 33 10000 4.1 270 18:20 18.05.2020
2914 Clear 22 1023 31 10000 2.6 290 17:38 18.05.2020
2915 Clear 22 1023 31 10000 2.6 290 17:18 18.05.2020
2916 Clear 22 1023 31 10000 3.6 270 16:56 18.05.2020
2917 Clear 22 1023 31 10000 3.6 270 16:37 18.05.2020
2918 Clear 22 1023 31 10000 3.6 270 16:18 18.05.2020
2919 Clear 22 1023 31 10000 3.6 270 16:18 18.05.2020
2920 Clear 21 1023 35 10000 4.1 260 15:54 18.05.2020
2921 Clear 22 1023 35 10000 4.1 260 15:36 18.05.2020
2922 Clear 21 1023 35 10000 4.1 260 15:18 18.05.2020
2923 Clear 21 1024 37 10000 3.1 230 14:41 18.05.2020
2924 Clear 21 1024 37 10000 3.1 230 14:23 18.05.2020
2925 Clouds 21 1024 35 10000 3.1 270 13:57 18.05.2020
2926 Clouds 21 1024 35 10000 3.1 270 13:38 18.05.2020
2927 Clouds 21 1024 35 10000 3.1 270 13:19 18.05.2020
2928 Clear 20 1024 42 10000 2.1 270 12:56 18.05.2020
2929 Clear 20 1024 42 10000 2.1 270 12:37 18.05.2020
2930 Clear 19 1024 42 10000 2.1 270 12:18 18.05.2020
2931 Clear 18 1024 51 10000 1.5 210 11:46 18.05.2020
2932 Clear 18 1024 51 10000 1.5 210 11:27 18.05.2020
2933 Clear 17 1024 48 10000 2.1 260 10:58 18.05.2020
2934 Clear 17 1024 48 10000 2.1 260 10:40 18.05.2020
2935 Clear 16 1024 48 10000 2.1 260 10:22 18.05.2020
2936 Clouds 14 1024 66 10000 0.68 287 09:43 18.05.2020
2937 Clouds 14 1024 66 10000 0.69 296 09:24 18.05.2020
2938 Clear 12 1024 66 10000 0.69 296 08:45 18.05.2020
2939 Clear 11 1024 66 10000 0.09 93 08:26 18.05.2020
2940 Clear 9 1024 70 10000 0.09 93 07:54 18.05.2020
2941 Clear 8 1024 70 10000 0.52 54 07:26 18.05.2020
2942 Clear 6 1024 81 10000 0.52 54 06:54 18.05.2020
2943 Clear 6 1024 81 10000 0.52 54 06:34 18.05.2020
2944 Clear 6 1024 75 10000 0.72 27 05:49 18.05.2020
2945 Clear 6 1024 75 10000 0.84 29 05:25 18.05.2020
2946 Clear 8 1024 66 10000 1.5 110 03:34 18.05.2020
2947 Clear 9 1024 61 10000 1.04 20 02:30 18.05.2020
2948 Clear 10 1024 54 10000 0.97 39 01:23 18.05.2020
2949 Clear 10 1024 57 10000 1.5 130 00:27 18.05.2020
2950 Clear 12 1024 47 10000 2.1 30 23:58 17.05.2020
2951 Clear 12 1024 47 10000 2.1 30 23:58 17.05.2020
2952 Clear 12 1024 47 10000 2.1 30 23:39 17.05.2020
2953 Clear 12 1024 47 10000 2.1 30 23:20 17.05.2020
2954 Clear 13 1023 44 10000 2.6 360 22:57 17.05.2020
2955 Clear 14 1023 44 10000 2.6 360 22:38 17.05.2020
2956 Clear 13 1023 44 10000 2.6 360 22:20 17.05.2020
2957 Clear 15 1023 39 10000 1.5 230 21:57 17.05.2020
2958 Clear 15 1023 39 10000 1.5 230 21:39 17.05.2020
2959 Clear 16 1023 39 10000 1.5 230 21:19 17.05.2020
2960 Clear 18 1023 34 10000 1.11 293 20:42 17.05.2020
2961 Clear 18 1023 34 10000 1.44 305 20:22 17.05.2020
2962 Clear 17 1023 34 10000 1.44 305 19:58 17.05.2020
2963 Clear 17 1023 34 10000 1.44 305 19:40 17.05.2020
2964 Clear 17 1023 34 10000 2.09 318 19:21 17.05.2020
2965 Clear 19 1023 29 10000 2.1 350 18:55 17.05.2020
2966 Clear 18 1023 29 10000 2.1 350 18:37 17.05.2020
2967 Clear 20 1023 29 10000 2.1 350 18:19 17.05.2020
2968 Clear 20 1023 29 10000 2.6 250 17:40 17.05.2020
2969 Clear 20 1023 29 10000 2.6 250 17:21 17.05.2020
2970 Clear 18 1023 31 10000 2.15 324 16:55 17.05.2020
2971 Clear 18 1023 31 10000 2.15 324 16:37 17.05.2020
2972 Clear 18 1023 31 10000 2.08 333 16:19 17.05.2020
2973 Clear 18 1024 33 10000 2.08 333 15:41 17.05.2020
2974 Clear 17 1024 33 10000 1.82 343 15:23 17.05.2020
2975 Clear 17 1024 38 10000 2.6 300 14:56 17.05.2020
2976 Clear 17 1024 38 10000 2.6 300 14:37 17.05.2020
2977 Clear 17 1024 38 10000 2.6 300 14:19 17.05.2020
2978 Clear 16 1024 41 10000 2.06 358 13:41 17.05.2020
2979 Clear 16 1024 41 10000 2.24 5 13:20 17.05.2020
2980 Clear 6 1022 80 10000 1.53 2 05:22 17.05.2020
2981 Clear 7 1022 65 10000 2.1 350 03:31 17.05.2020
2982 Clear 8 1022 61 10000 1.83 14 02:26 17.05.2020
2983 Clear 9 1022 66 10000 2.6 340 01:53 17.05.2020
2984 Clear 9 1021 57 10000 3.6 10 00:48 17.05.2020
2985 Clear 10 1021 57 10000 3.6 10 00:30 17.05.2020
2986 Clear 11 1021 54 10000 2.1 20 23:42 16.05.2020
2987 Clear 11 1021 54 10000 2.1 20 23:24 16.05.2020
2988 Clear 12 1021 50 10000 2.1 350 22:59 16.05.2020
2989 Clear 12 1021 50 10000 2.1 350 22:41 16.05.2020
2990 Clear 12 1021 50 10000 2.1 350 22:22 16.05.2020
2991 Clear 13 1020 44 10000 1.5 330 21:57 16.05.2020
2992 Clear 14 1020 44 10000 1.5 330 21:38 16.05.2020
2993 Clear 14 1020 44 10000 1.5 330 21:19 16.05.2020
2994 Clear 16 1020 33 10000 3.1 290 20:56 16.05.2020
2995 Clear 16 1020 33 10000 3.1 290 20:38 16.05.2020
2996 Clear 17 1020 33 10000 3.1 290 20:19 16.05.2020
2997 Clouds 16 1020 33 10000 2.1 260 19:43 16.05.2020
2998 Clouds 16 1020 33 10000 2.1 260 19:23 16.05.2020
2999 Clouds 17 1020 58 10000 1.5 280 18:59 16.05.2020
3000 Clouds 17 1020 58 10000 1.5 280 18:59 16.05.2020
3001 Clouds 18 1020 58 10000 1.5 280 18:40 16.05.2020
3002 Clouds 18 1020 56 10000 1.5 280 18:22 16.05.2020
3003 Clouds 18 1020 33 10000 2.6 230 17:42 16.05.2020
3004 Clouds 18 1020 33 10000 2.6 230 17:42 16.05.2020
3005 Clouds 18 1020 33 10000 2.6 230 17:21 16.05.2020
3006 Clouds 18 1021 33 10000 2.82 300 16:57 16.05.2020
3007 Clouds 18 1021 33 10000 2.82 300 16:39 16.05.2020
3008 Clouds 18 1021 33 10000 2.84 307 16:18 16.05.2020
3009 Clear 18 1021 29 10000 2.6 270 15:54 16.05.2020
3010 Clear 18 1021 29 10000 2.6 270 15:36 16.05.2020
3011 Clear 18 1021 29 10000 2.6 270 15:18 16.05.2020
3012 Clear 17 1022 42 10000 2.68 313 14:42 16.05.2020
3013 Clear 17 1022 43 10000 2.5 324 14:20 16.05.2020
3014 Clear 16 1022 43 10000 2.5 324 13:56 16.05.2020
3015 Clear 16 1022 43 10000 2.5 324 13:36 16.05.2020
3016 Clear 16 1022 44 10000 2.29 330 13:18 16.05.2020
3017 Clear 15 1023 41 10000 2.29 330 12:43 16.05.2020
3018 Clear 15 1023 41 10000 1.64 353 12:20 16.05.2020
3019 Clear 15 1023 43 10000 2.6 140 11:56 16.05.2020
3020 Clear 13 1023 43 10000 2.6 140 11:37 16.05.2020
3021 Clear 14 1023 43 10000 2.6 140 11:18 16.05.2020
3022 Clear 13 1024 52 10000 3.1 90 10:54 16.05.2020
3023 Clear 13 1024 52 10000 3.1 90 10:36 16.05.2020
3024 Clear 13 1024 55 10000 3.1 90 10:18 16.05.2020
3025 Clear 11 1023 57 10000 2.1 80 09:40 16.05.2020
3026 Clear 10 1023 57 10000 2.1 80 09:19 16.05.2020
3027 Clear 8 1023 61 10000 1.79 36 08:43 16.05.2020
3028 Clear 8 1023 61 10000 1.71 28 08:21 16.05.2020
3029 Clear 7 1022 75 10000 1.71 28 07:46 16.05.2020
3030 Clear 6 1022 75 10000 1.68 38 07:27 16.05.2020
3031 Clear 4 1022 74 10000 1.68 38 06:59 16.05.2020
3032 Clear 4 1022 74 10000 1.68 38 06:41 16.05.2020
3033 Clear 3 1022 74 10000 1.73 37 06:18 16.05.2020
3034 Clear 4 1022 69 10000 1.73 37 05:38 16.05.2020
3035 Clear 4 1023 65 10000 2.01 40 03:58 16.05.2020
3036 Clear 5 1023 87 10000 2.12 35 02:59 16.05.2020
3037 Clear 6 1023 87 10000 2.04 42 02:22 16.05.2020
3038 Clear 6 1023 87 10000 1.5 110 01:54 16.05.2020
3039 Clear 6 1023 87 10000 1.5 110 01:27 16.05.2020
3040 Clear 8 1022 87 10000 4.6 20 00:51 16.05.2020
3041 Clear 8 1022 85 10000 4.6 20 00:23 16.05.2020
3042 Clear 9 1022 85 10000 4.6 20 23:56 15.05.2020
3043 Clear 9 1022 85 10000 4.6 20 23:37 15.05.2020
3044 Clear 9 1022 81 10000 4.6 20 23:18 15.05.2020
3045 Clear 10 1022 43 10000 2.1 350 22:40 15.05.2020
3046 Clear 10 1022 43 10000 2.1 350 22:20 15.05.2020
3047 Clear 11 1021 40 10000 3.1 10 21:40 15.05.2020
3048 Clear 12 1021 40 10000 3.1 10 21:22 15.05.2020
3049 Clear 13 1021 35 10000 4.6 350 20:59 15.05.2020
3050 Clear 13 1021 35 10000 4.6 350 20:59 15.05.2020
3051 Clear 14 1021 35 10000 4.6 350 20:41 15.05.2020
3052 Clear 14 1021 35 10000 4.6 350 20:23 15.05.2020
3053 Clear 15 1020 33 10000 4.6 360 19:59 15.05.2020
3054 Clear 16 1020 33 10000 4.6 360 19:41 15.05.2020
3055 Clear 16 1020 33 10000 4.6 360 19:22 15.05.2020
3056 Clear 16 1020 31 10000 4.6 20 18:47 15.05.2020
3057 Clear 17 1020 31 10000 4.6 20 18:27 15.05.2020
3058 Clear 17 1020 31 10000 5.7 20 17:57 15.05.2020
3059 Clear 17 1020 31 10000 5.7 20 17:36 15.05.2020
3060 Clear 17 1020 31 10000 5.7 20 17:18 15.05.2020
3061 Clear 17 1020 31 10000 3.2 11 16:54 15.05.2020
3062 Clear 16 1020 31 10000 3.2 11 16:36 15.05.2020
3063 Clear 16 1020 31 10000 2.83 26 16:18 15.05.2020
3064 Clear 15 1020 31 10000 3.6 340 15:40 15.05.2020
3065 Clear 16 1020 31 10000 3.6 340 15:20 15.05.2020
3066 Clear 16 1019 42 10000 3.6 70 14:56 15.05.2020
3067 Clear 16 1019 42 10000 3.6 70 14:38 15.05.2020
3068 Clear 15 1019 43 10000 3.6 70 14:19 15.05.2020
3069 Clear 15 1019 35 10000 4.6 40 13:41 15.05.2020
3070 Clear 14 1019 35 10000 4.6 40 13:22 15.05.2020
3071 Clear 14 1019 45 10000 3.6 50 12:56 15.05.2020
3072 Clear 14 1019 45 10000 3.6 50 12:36 15.05.2020
3073 Clear 12 1019 48 10000 5.7 40 12:18 15.05.2020
3074 Clear 12 1018 48 10000 4.6 70 11:56 15.05.2020
3075 Clear 11 1018 48 10000 4.6 70 11:37 15.05.2020
3076 Clear 12 1018 50 10000 4.6 70 11:18 15.05.2020
3077 Clear 11 1018 50 10000 6.2 50 10:54 15.05.2020
3078 Clear 11 1018 50 10000 6.2 50 10:36 15.05.2020
3079 Clear 11 1018 55 10000 6.2 50 10:18 15.05.2020
3080 Clear 9 1018 55 10000 5.7 50 09:39 15.05.2020
3081 Clear 8 1018 64 10000 5.7 50 09:19 15.05.2020
3082 Clear 7 1017 52 10000 4.6 40 08:58 15.05.2020
3083 Clear 7 1017 52 10000 4.6 40 08:37 15.05.2020
3084 Clear 7 1017 52 10000 4.6 40 08:19 15.05.2020
3085 Clear 6 1017 60 10000 4.6 50 07:44 15.05.2020
3086 Clear 6 1017 60 10000 4.6 50 07:24 15.05.2020
3087 Clear 4 1017 60 10000 4.6 40 06:54 15.05.2020
3088 Clear 4 1016 60 10000 4.6 40 05:53 15.05.2020
3089 Clear 5 1016 60 10000 4.6 50 04:29 15.05.2020
3090 Clear 5 1016 56 10000 5.1 50 03:48 15.05.2020
3091 Clear 6 1016 60 10000 5.1 40 02:40 15.05.2020
3092 Clear 7 1017 52 10000 4.1 40 01:31 15.05.2020
3093 Clear 7 1017 56 10000 4.1 20 00:57 15.05.2020
3094 Clear 7 1017 56 10000 4.1 20 00:38 15.05.2020
3095 Clear 7 1017 56 10000 4.1 20 00:20 15.05.2020
3096 Clear 8 1017 56 10000 4.1 10 23:40 14.05.2020
3097 Clear 8 1017 56 10000 4.1 10 23:18 14.05.2020
3098 Clear 9 1016 49 10000 4.1 30 22:41 14.05.2020
3099 Clear 9 1016 49 10000 4.1 30 22:21 14.05.2020
3100 Clouds 9 1016 49 10000 3.6 30 21:58 14.05.2020
3101 Clouds 10 1016 49 10000 3.6 30 21:40 14.05.2020
3102 Clouds 10 1016 49 10000 3.6 30 21:19 14.05.2020
3103 Clouds 11 1016 40 10000 4.6 30 20:56 14.05.2020
3104 Clouds 11 1016 40 10000 4.6 30 20:38 14.05.2020
3105 Clouds 11 1016 40 10000 4.6 30 20:19 14.05.2020
3106 Clouds 12 1016 40 10000 5.7 70 19:56 14.05.2020
3107 Clouds 12 1016 37 10000 4.6 20 19:37 14.05.2020
3108 Clouds 13 1016 37 10000 4.6 20 19:19 14.05.2020
3109 Clouds 13 1016 56 10000 6.7 50 18:56 14.05.2020
3110 Clouds 13 1016 40 10000 8.2 40 18:37 14.05.2020
3111 Clouds 13 1016 40 10000 5.7 40 18:18 14.05.2020
3112 Clouds 13 1016 40 10000 5.7 40 17:55 14.05.2020
3113 Clouds 13 1016 37 10000 5.1 50 17:36 14.05.2020
3114 Clouds 13 1016 37 10000 5.1 50 17:18 14.05.2020
3115 Clouds 13 1016 40 10000 6.7 40 16:39 14.05.2020
3116 Clouds 13 1016 40 10000 6.7 40 16:21 14.05.2020
3117 Clouds 13 1016 50 10000 5.1 60 15:58 14.05.2020
3118 Clouds 12 1016 50 10000 5.1 60 15:40 14.05.2020
3119 Clouds 13 1016 52 10000 5.1 60 15:20 14.05.2020
3120 Clouds 13 1016 52 10000 3.6 40 14:56 14.05.2020
3121 Clouds 12 1016 52 10000 4.6 60 14:38 14.05.2020
3122 Clouds 13 1016 53 10000 4.6 60 14:20 14.05.2020
3123 Clouds 12 1016 53 10000 6.2 50 13:57 14.05.2020
3124 Clear 12 1017 53 10000 4.6 30 13:38 14.05.2020
3125 Clear 13 1017 54 10000 4.6 30 13:19 14.05.2020
3126 Clear 11 1017 43 10000 5.7 50 12:57 14.05.2020
3127 Clear 11 1017 43 10000 5.7 50 12:37 14.05.2020
3128 Clear 10 1017 43 10000 5.7 50 12:18 14.05.2020
3129 Clear 10 1017 43 10000 6.7 70 11:56 14.05.2020
3130 Clear 10 1017 46 10000 6.7 40 11:38 14.05.2020
3131 Clear 9 1017 46 10000 6.7 40 11:19 14.05.2020
3132 Clear 8 1017 59 10000 6.7 40 10:44 14.05.2020
3133 Clear 8 1017 64 10000 6.7 40 10:26 14.05.2020
3134 Clear 7 1017 64 10000 5.7 30 09:56 14.05.2020
3135 Clear 7 1017 64 10000 5.7 30 09:38 14.05.2020
3136 Clear 6 1017 71 10000 5.7 30 09:19 14.05.2020
3137 Clear 5 1016 75 10000 5.1 30 08:40 14.05.2020
3138 Clear 5 1016 75 10000 5.1 30 08:19 14.05.2020
3139 Clear 5 1016 80 10000 2.6 50 07:45 14.05.2020
3140 Clear 4 1016 80 10000 2.6 50 07:22 14.05.2020
3141 Clear 4 1016 88 10000 3.1 60 06:53 14.05.2020
3142 Clear 4 1016 88 10000 3.1 60 06:53 14.05.2020
3143 Clear 3 1016 91 10000 3.1 60 06:27 14.05.2020
3144 Clear 3 1015 91 10000 4.6 50 05:43 14.05.2020
3145 Clear 4 1015 92 10000 4.6 50 05:22 14.05.2020
3146 Clear 4 1015 92 10000 3.1 50 04:24 14.05.2020
3147 Clear 4 1014 92 10000 3.6 40 03:21 14.05.2020
3148 Clear 5 1014 92 10000 3.1 50 02:40 14.05.2020
3149 Clear 6 1013 70 10000 5.7 20 01:55 14.05.2020
3150 Clear 6 1013 70 10000 5.7 20 01:19 14.05.2020
3151 Clear 7 1013 70 10000 5.1 20 00:42 14.05.2020
3152 Clear 7 1013 70 10000 5.1 20 00:21 14.05.2020
3153 Clouds 7 1012 70 10000 5.1 10 23:40 13.05.2020
3154 Clouds 7 1012 70 10000 5.1 10 23:21 13.05.2020
3155 Clouds 8 1011 65 10000 4.1 20 22:54 13.05.2020
3156 Clouds 8 1011 65 10000 4.1 20 22:36 13.05.2020
3157 Clouds 9 1011 65 10000 4.1 20 22:18 13.05.2020
3158 Clouds 10 1010 69 10000 4.1 10 21:55 13.05.2020
3159 Clouds 10 1010 69 10000 4.1 10 21:36 13.05.2020
3160 Clouds 10 1010 60 10000 4.1 10 21:18 13.05.2020
3161 Clouds 10 1009 43 10000 4.6 20 20:40 13.05.2020
3162 Clouds 11 1009 43 10000 4.6 20 20:22 13.05.2020
3163 Clouds 11 1010 43 10000 6.2 10 19:43 13.05.2020
3164 Clouds 12 1010 43 10000 6.2 10 19:24 13.05.2020
3165 Clouds 12 1010 43 10000 6.7 360 18:55 13.05.2020
3166 Clouds 13 1009 54 10000 5.1 10 18:37 13.05.2020
3167 Clouds 13 1009 49 10000 5.1 10 18:18 13.05.2020
3168 Clouds 13 1009 49 10000 3.6 30 17:39 13.05.2020
3169 Clouds 14 1009 45 10000 3.6 30 17:19 13.05.2020
3170 Clouds 14 1009 43 10000 5.7 20 16:55 13.05.2020
3171 Clouds 14 1009 43 10000 5.7 20 16:55 13.05.2020
3172 Clouds 14 1009 43 10000 5.7 20 16:37 13.05.2020
3173 Clouds 14 1009 43 10000 5.7 20 16:18 13.05.2020
3174 Clouds 14 1010 45 10000 2.6 70 15:42 13.05.2020
3175 Clouds 14 1010 45 10000 2.6 70 15:19 13.05.2020
3176 Clouds 14 1011 45 10000 4.1 90 14:57 13.05.2020
3177 Clouds 13 1011 45 10000 4.1 90 14:39 13.05.2020
3178 Clouds 13 1011 46 10000 4.1 90 14:21 13.05.2020
3179 Clouds 13 1011 46 10000 3.6 110 13:57 13.05.2020
3180 Clouds 13 1011 46 10000 3.6 40 13:38 13.05.2020
3181 Clouds 13 1011 46 10000 3.6 40 13:19 13.05.2020
3182 Clouds 13 1011 47 10000 1.5 50 12:43 13.05.2020
3183 Clouds 12 1011 47 10000 1.5 50 12:23 13.05.2020
3184 Clouds 11 1011 47 10000 3.1 60 11:57 13.05.2020
3185 Clouds 12 1012 50 10000 2.1 100 11:39 13.05.2020
3186 Clouds 11 1012 50 10000 2.1 100 11:20 13.05.2020
3187 Clear 11 1012 49 10000 3.6 80 10:59 13.05.2020
3188 Clear 11 1012 49 10000 3.6 80 10:39 13.05.2020
3189 Clear 10 1012 49 10000 3.6 80 10:20 13.05.2020
3190 Clear 10 1013 52 10000 3.6 80 09:59 13.05.2020
3191 Clear 9 1013 52 10000 3.6 80 09:40 13.05.2020
3192 Clear 8 1013 52 10000 3.6 80 09:22 13.05.2020
3193 Clear 6 1013 56 10000 2.63 47 08:42 13.05.2020
3194 Clear 7 1013 56 10000 2.66 34 08:22 13.05.2020
3195 Clear 4 1013 69 10000 2.66 34 07:59 13.05.2020
3196 Clear 4 1013 69 10000 2.66 34 07:37 13.05.2020
3197 Clear 2 1013 80 10000 2.1 70 06:59 13.05.2020
3198 Clear 1 1013 80 10000 2.1 70 06:41 13.05.2020
3199 Clear 2 1013 69 10000 1.88 46 05:54 13.05.2020
3200 Clear 2 1013 80 10000 1.5 80 04:48 13.05.2020
3201 Clear 3 1014 64 10000 1.5 40 03:26 13.05.2020
3202 Clear 4 1014 60 10000 2.1 70 02:27 13.05.2020
3203 Clear 4 1014 69 10000 3.6 50 01:36 13.05.2020
3204 Clear 5 1014 60 10000 2.6 40 00:47 13.05.2020
3205 Clear 6 1014 60 10000 2.6 40 00:20 13.05.2020
3206 Clear 6 1015 60 10000 2.1 50 23:40 12.05.2020
3207 Clear 6 1015 60 10000 2.1 50 23:21 12.05.2020
3208 Clear 7 1015 68 10000 3.1 60 22:58 12.05.2020
3209 Clear 7 1015 68 10000 3.1 60 22:40 12.05.2020
3210 Clear 8 1015 66 10000 3.1 60 22:21 12.05.2020
3211 Clear 8 1014 66 10000 4.1 50 21:56 12.05.2020
3212 Clear 9 1014 66 10000 4.1 50 21:37 12.05.2020
3213 Clear 9 1014 64 10000 4.1 50 21:19 12.05.2020
3214 Clear 10 1014 68 10000 4.6 60 20:57 12.05.2020
3215 Clear 10 1014 68 10000 4.6 60 20:38 12.05.2020
3216 Clear 11 1014 63 10000 4.6 60 20:20 12.05.2020
3217 Clear 12 1014 37 10000 1.5 140 19:56 12.05.2020
3218 Clear 12 1014 37 10000 1.5 140 19:56 12.05.2020
3219 Clear 12 1014 37 10000 1.5 140 19:38 12.05.2020
3220 Clear 12 1014 37 10000 1.5 140 19:20 12.05.2020
3221 Clear 13 1015 32 10000 1.5 200 18:55 12.05.2020
3222 Clear 13 1015 32 10000 1.5 200 18:36 12.05.2020
3223 Clear 13 1015 32 10000 1.5 200 18:18 12.05.2020
3224 Clear 13 1015 32 10000 1.5 340 17:41 12.05.2020
3225 Clear 14 1015 32 10000 1.5 340 17:23 12.05.2020
3226 Clear 14 1016 30 10000 2.6 260 16:47 12.05.2020
3227 Clear 14 1016 30 10000 2.6 260 16:25 12.05.2020
3228 Clear 13 1016 34 10000 2.6 210 15:56 12.05.2020
3229 Clear 13 1016 34 10000 2.6 210 15:37 12.05.2020
3230 Clear 13 1016 34 10000 2.6 210 15:19 12.05.2020
3231 Clear 12 1017 37 10000 3.06 358 14:57 12.05.2020
3232 Clear 12 1017 37 10000 3.06 358 14:37 12.05.2020
3233 Clear 12 1017 37 10000 2.76 7 14:19 12.05.2020
3234 Clear 12 1018 39 10000 2.1 190 13:57 12.05.2020
3235 Clear 11 1018 39 10000 2.1 190 13:39 12.05.2020
3236 Clear 11 1018 39 10000 2.1 190 13:19 12.05.2020
3237 Clear 11 1018 39 10000 2.1 190 13:19 12.05.2020
3238 Clear 11 1018 39 10000 2.6 16 12:57 12.05.2020
3239 Clear 11 1018 39 10000 2.6 16 12:39 12.05.2020
3240 Clear 9 1018 39 10000 2.59 20 12:21 12.05.2020
3241 Clear 9 1019 52 10000 2.6 150 11:57 12.05.2020
3242 Clear 9 1019 52 10000 2.6 150 11:38 12.05.2020
3243 Clear 9 1019 52 10000 2.6 150 11:20 12.05.2020
3244 Clear 8 1019 56 10000 2.6 50 10:58 12.05.2020
3245 Clear 8 1019 56 10000 2.6 50 10:39 12.05.2020
3246 Clear 8 1019 56 10000 2.6 50 10:21 12.05.2020
3247 Clear 7 1019 56 10000 5.1 80 09:58 12.05.2020
3248 Clear 6 1019 56 10000 5.1 80 09:39 12.05.2020
3249 Clear 5 1019 56 10000 5.1 80 09:20 12.05.2020
3250 Clear 4 1019 64 10000 4.1 40 08:54 12.05.2020
3251 Clear 3 1019 64 10000 4.1 40 08:36 12.05.2020
3252 Clear 4 1019 64 10000 4.1 40 08:18 12.05.2020
3253 Clear 3 1019 74 10000 2.51 40 07:41 12.05.2020
3254 Clear 2 1019 74 10000 2.08 33 07:21 12.05.2020
3255 Clear 0 1018 88 10000 2.6 80 06:41 12.05.2020
3256 Clear 0 1018 94 10000 2.6 80 06:22 12.05.2020
3257 Clear 1 1018 64 10000 2.1 20 05:50 12.05.2020
3258 Clear 1 1018 64 10000 2.1 20 05:30 12.05.2020
3259 Clear 3 1017 55 10000 5.1 10 03:26 12.05.2020
3260 Clear 3 1017 59 10000 5.1 360 02:28 12.05.2020
3261 Clear 3 1016 55 10000 2.6 350 01:59 12.05.2020
3262 Clear 4 1016 55 10000 2.6 350 01:24 12.05.2020
3263 Clouds 4 1016 56 10000 2.6 10 00:26 12.05.2020
3264 Clouds 5 1015 56 10000 2.1 10 23:58 11.05.2020
3265 Clouds 5 1015 56 10000 2.1 10 23:40 11.05.2020
3266 Clouds 6 1015 56 10000 2.1 10 23:20 11.05.2020
3267 Clouds 6 1014 48 10000 2.6 30 22:58 11.05.2020
3268 Clouds 6 1014 48 10000 2.6 30 22:58 11.05.2020
3269 Clouds 6 1014 48 10000 2.6 30 22:40 11.05.2020
3270 Clouds 7 1014 48 10000 2.6 30 22:20 11.05.2020
3271 Clouds 7 1013 52 10000 3.6 30 21:58 11.05.2020
3272 Clouds 7 1013 52 10000 3.6 30 21:40 11.05.2020
3273 Clouds 7 1013 52 10000 3.6 30 21:19 11.05.2020
3274 Clouds 8 1012 48 10000 3.6 30 20:58 11.05.2020
3275 Clouds 8 1012 45 10000 4.6 30 20:40 11.05.2020
3276 Clouds 8 1012 45 10000 4.6 30 20:20 11.05.2020
3277 Clouds 10 1011 42 10000 6.2 30 19:55 11.05.2020
3278 Clouds 10 1011 42 10000 6.2 30 19:37 11.05.2020
3279 Clouds 10 1011 42 10000 6.2 30 19:19 11.05.2020
3280 Clouds 9 1011 42 10000 5.1 30 18:55 11.05.2020
3281 Clouds 10 1010 40 10000 7.2 350 18:37 11.05.2020
3282 Clouds 10 1010 40 10000 7.2 350 18:18 11.05.2020
3283 Clouds 10 1009 43 10000 8.7 10 17:55 11.05.2020
3284 Clouds 10 1009 46 10000 6.2 30 17:36 11.05.2020
3285 Clouds 10 1009 46 10000 6.2 30 17:18 11.05.2020
3286 Clouds 9 1008 49 10000 9.3 10 16:42 11.05.2020
3287 Clouds 8 1008 49 10000 9.3 10 16:22 11.05.2020
3288 Clouds 8 1007 58 10000 12.3 40 15:58 11.05.2020
3289 Clouds 8 1007 58 10000 7.7 30 15:39 11.05.2020
3290 Clouds 7 1007 67 10000 7.7 30 15:19 11.05.2020
3291 Clouds 6 1007 61 10000 5.7 30 14:55 11.05.2020
3292 Clouds 6 1007 67 10000 7.2 10 14:37 11.05.2020
3293 Clouds 5 1007 66 10000 7.2 10 14:19 11.05.2020
3294 Rain 5 1007 70 10000 7.7 20 13:42 11.05.2020
3295 Rain 5 1007 70 10000 7.7 20 13:22 11.05.2020
3296 Rain 4 1007 77 10000 8.7 20 12:58 11.05.2020
3297 Clouds 4 1007 77 10000 6.7 30 12:40 11.05.2020
3298 Clouds 4 1007 85 10000 6.7 30 12:22 11.05.2020
3299 Drizzle 4 1006 80 10000 10.8 30 11:57 11.05.2020
3300 Clouds 4 1006 80 10000 9.8 20 11:39 11.05.2020
3301 Clouds 4 1006 80 10000 9.8 20 11:21 11.05.2020
3302 Clouds 4 1006 80 10000 7.7 20 10:56 11.05.2020
3303 Clouds 4 1006 86 10000 6.2 20 10:38 11.05.2020
3304 Clouds 4 1006 86 10000 6.2 20 10:20 11.05.2020
3305 Clouds 4 1005 93 10000 6.2 20 09:57 11.05.2020
3306 Rain 4 1005 93 10000 5.1 20 09:39 11.05.2020
3307 Rain 4 1005 93 10000 5.1 20 09:19 11.05.2020
3308 Rain 5 1005 93 10000 3.6 20 08:42 11.05.2020
3309 Rain 4 1005 93 10000 3.6 20 08:24 11.05.2020
3310 Rain 5 1005 93 10000 5.7 10 07:56 11.05.2020
3311 Rain 5 1005 93 10000 3.6 10 07:38 11.05.2020
3312 Rain 5 1005 93 10000 3.6 10 07:20 11.05.2020
3313 Rain 6 1005 86 10000 4.1 20 06:34 11.05.2020
3314 Rain 6 1005 93 10000 4.6 10 05:53 11.05.2020
3315 Rain 7 1005 93 10000 2.6 20 05:22 11.05.2020
3316 Clouds 10 1004 93 10000 5.7 10 03:56 11.05.2020
3317 Clouds 12 1004 93 10000 3.6 360 02:36 11.05.2020
3318 Clouds 12 1004 93 10000 3.6 360 02:18 11.05.2020
3319 Clouds 13 1005 87 10000 5.1 350 01:23 11.05.2020
3320 Clouds 14 1005 87 10000 4.6 360 00:42 11.05.2020
3321 Clouds 14 1005 87 10000 4.6 360 00:19 11.05.2020
3322 Clouds 15 1005 87 10000 3.1 10 23:42 10.05.2020
3323 Clouds 15 1005 87 10000 3.1 10 23:20 10.05.2020
3324 Clouds 14 1005 87 10000 3.1 20 22:55 10.05.2020
3325 Clouds 14 1005 87 10000 3.1 20 22:37 10.05.2020
3326 Clouds 15 1005 87 10000 3.1 20 22:18 10.05.2020
3327 Clouds 16 1004 82 10000 2.1 20 21:44 10.05.2020
3328 Clouds 16 1004 82 10000 2.1 20 21:19 10.05.2020
3329 Clouds 17 1004 77 10000 3.82 20 20:54 10.05.2020
3330 Clouds 17 1004 77 10000 1.5 330 20:36 10.05.2020
3331 Clouds 17 1004 77 10000 1.5 330 20:36 10.05.2020
3332 Clouds 18 1004 77 10000 1.5 330 20:18 10.05.2020
3333 Clouds 18 1004 77 10000 2.84 17 19:40 10.05.2020
3334 Clouds 19 1004 77 10000 1.64 342 19:22 10.05.2020
3335 Clouds 19 1005 82 10000 2.1 260 18:57 10.05.2020
3336 Clouds 19 1005 82 10000 2.1 260 18:37 10.05.2020
3337 Clouds 19 1005 82 10000 2.1 260 18:19 10.05.2020
3338 Clouds 18 1005 82 10000 3.1 240 17:59 10.05.2020
3339 Clouds 18 1005 82 10000 3.1 240 17:40 10.05.2020
3340 Clouds 18 1005 82 10000 3.1 240 17:21 10.05.2020
3341 Clouds 18 1005 88 10000 3.6 250 16:58 10.05.2020
3342 Rain 18 1005 93 10000 5.1 250 16:40 10.05.2020
3343 Rain 19 1005 93 10000 5.1 250 16:19 10.05.2020
3344 Rain 20 1005 88 10000 3.6 260 15:55 10.05.2020
3345 Rain 19 1005 82 10000 4.1 230 15:36 10.05.2020
3346 Rain 19 1005 82 10000 4.1 230 15:18 10.05.2020
3347 Clouds 20 1005 64 10000 5.7 210 14:38 10.05.2020
3348 Clouds 20 1005 64 10000 5.7 210 14:20 10.05.2020
3349 Clouds 20 1005 64 10000 5.7 210 14:20 10.05.2020
3350 Clouds 20 1005 64 10000 5.7 210 14:20 10.05.2020
3351 Clouds 20 1005 68 10000 4.1 170 13:59 10.05.2020
3352 Clouds 21 1006 68 10000 2.6 230 13:39 10.05.2020
3353 Clouds 20 1006 68 10000 2.6 230 13:20 10.05.2020
3354 Clouds 20 1006 72 10000 2.6 210 12:58 10.05.2020
3355 Clouds 19 1006 77 10000 3.1 230 12:40 10.05.2020
3356 Clouds 19 1006 77 10000 3.1 230 12:21 10.05.2020
3357 Clouds 18 1006 82 10000 2.1 240 11:58 10.05.2020
3358 Clouds 17 1006 87 10000 1.5 200 11:39 10.05.2020
3359 Clouds 16 1006 87 10000 1.5 200 11:20 10.05.2020
3360 Clouds 15 1006 93 10000 3.32 227 10:47 10.05.2020
3361 Clouds 15 1006 100 10000 3.32 227 10:29 10.05.2020
3362 Clouds 14 1006 100 10000 2.66 209 09:59 10.05.2020
3363 Clouds 13 1006 100 10000 2.66 209 09:40 10.05.2020
3364 Clouds 13 1006 100 10000 1.39 189 09:21 10.05.2020
3365 Mist 13 1006 100 9000 1.39 189 08:52 10.05.2020
3366 Rain 12 1007 100 10000 0.9 125 08:24 10.05.2020
3367 Rain 12 1007 100 10000 0.9 125 07:56 10.05.2020
3368 Clouds 12 1007 100 10000 0.9 125 07:37 10.05.2020
3369 Clouds 11 1007 100 10000 0.68 129 07:19 10.05.2020
3370 Clouds 11 1006 100 10000 2.1 70 06:48 10.05.2020
3371 Rain 11 1007 100 9000 1.05 118 06:21 10.05.2020
3372 Rain 11 1007 100 10000 1.05 118 05:43 10.05.2020
3373 Clouds 11 1007 93 10000 2.1 50 04:41 10.05.2020
3374 Clouds 11 1007 93 10000 2.1 50 04:22 10.05.2020
3375 Clear 11 1008 93 10000 1.5 50 03:41 10.05.2020
3376 Clear 11 1008 93 10000 1.5 50 02:54 10.05.2020
3377 Clear 11 1008 93 10000 1.5 50 02:24 10.05.2020
3378 Clear 11 1008 93 10000 1.5 50 02:24 10.05.2020
3379 Clear 11 1009 93 10000 1.5 60 01:43 10.05.2020
3380 Clear 11 1009 93 10000 1.5 60 01:23 10.05.2020
3381 Clear 12 1009 82 10000 1.13 93 00:58 10.05.2020
3382 Clear 12 1009 82 10000 1.13 93 00:37 10.05.2020
3383 Clear 12 1009 82 10000 1.23 93 00:19 10.05.2020
3384 Clear 12 1010 76 10000 1.23 93 23:39 09.05.2020
3385 Clear 13 1010 76 10000 1.46 79 23:21 09.05.2020
3386 Clear 13 1010 82 10000 1.46 79 22:55 09.05.2020
3387 Clear 13 1010 82 10000 1.46 79 22:37 09.05.2020
3388 Clear 13 1010 82 10000 1.79 78 22:19 09.05.2020
3389 Clear 14 1011 67 10000 1.79 78 21:55 09.05.2020
3390 Clear 15 1011 67 10000 1.79 78 21:37 09.05.2020
3391 Clear 15 1011 67 10000 1.6 111 21:19 09.05.2020
3392 Clear 16 1011 67 10000 2.1 90 20:55 09.05.2020
3393 Clear 16 1011 67 10000 2.1 90 20:36 09.05.2020
3394 Clear 16 1011 67 10000 2.1 90 20:18 09.05.2020
3395 Clear 18 1011 55 10000 3.1 120 19:40 09.05.2020
3396 Clear 18 1011 55 10000 3.1 120 19:20 09.05.2020
3397 Clear 18 1011 55 10000 2.6 70 18:55 09.05.2020
3398 Clear 18 1011 55 10000 2.6 70 18:55 09.05.2020
3399 Clear 19 1011 55 10000 2.6 70 18:37 09.05.2020
3400 Clear 19 1011 55 10000 2.6 70 18:18 09.05.2020
3401 Clouds 19 1012 63 10000 3.6 90 17:44 09.05.2020
3402 Clouds 18 1012 63 10000 3.6 90 17:23 09.05.2020
3403 Clouds 18 1012 72 10000 2.1 120 16:55 09.05.2020
3404 Clouds 17 1012 72 10000 2.1 120 16:37 09.05.2020
3405 Clouds 17 1012 72 10000 2.1 120 16:18 09.05.2020
3406 Clouds 16 1013 68 10000 1.5 100 15:40 09.05.2020
3407 Clouds 17 1013 68 10000 1.5 100 15:21 09.05.2020
3408 Clouds 16 1013 68 10000 2.37 93 14:43 09.05.2020
3409 Clouds 17 1013 68 10000 2.87 154 14:20 09.05.2020
3410 Clouds 16 1013 67 10000 2.87 154 13:59 09.05.2020
3411 Clouds 16 1013 67 10000 2.87 154 13:41 09.05.2020
3412 Clouds 16 1013 67 10000 2.07 199 13:21 09.05.2020
3413 Clouds 15 1014 67 10000 2.07 199 12:58 09.05.2020
3414 Clouds 15 1014 67 10000 2.07 199 12:39 09.05.2020
3415 Clouds 15 1014 67 10000 2.07 199 12:39 09.05.2020
3416 Clouds 16 1014 67 10000 1.69 227 12:21 09.05.2020
3417 Clouds 14 1014 67 10000 1.69 227 11:44 09.05.2020
3418 Clouds 14 1014 67 10000 1.6 221 11:20 09.05.2020
3419 Clouds 13 1014 71 10000 1.6 221 10:54 09.05.2020
3420 Clouds 13 1014 71 10000 1.6 221 10:36 09.05.2020
3421 Clouds 13 1014 71 10000 1.08 195 10:18 09.05.2020
3422 Clouds 12 1014 66 10000 3.1 80 09:41 09.05.2020
3423 Clouds 12 1014 66 10000 3.1 80 09:20 09.05.2020
3424 Clouds 12 1014 58 10000 0.18 144 08:54 09.05.2020
3425 Clouds 12 1014 58 10000 0.18 144 08:54 09.05.2020
3426 Clouds 12 1014 58 10000 0.18 144 08:35 09.05.2020
3427 Clouds 12 1014 58 10000 2.6 60 07:56 09.05.2020
3428 Clouds 13 1014 50 10000 3.6 70 07:38 09.05.2020
3429 Clouds 13 1014 50 10000 3.6 70 07:20 09.05.2020
3430 Clouds 13 1014 54 10000 3.1 50 06:27 09.05.2020
3431 Clouds 13 1014 50 10000 3.6 70 05:50 09.05.2020
3432 Clouds 13 1014 54 10000 2.6 50 05:20 09.05.2020
3433 Clouds 14 1015 50 10000 3.1 50 03:39 09.05.2020
3434 Clouds 13 1015 54 10000 3.1 50 02:54 09.05.2020
3435 Clouds 13 1015 54 10000 3.1 50 02:30 09.05.2020
3436 Clouds 15 1015 47 10000 2.6 60 01:50 09.05.2020
3437 Clouds 15 1015 47 10000 2.6 60 01:22 09.05.2020
3438 Clouds 15 1015 44 10000 2.6 70 00:43 09.05.2020
3439 Clouds 15 1015 44 10000 2.6 70 00:19 09.05.2020
3440 Clouds 15 1015 41 10000 2.1 70 23:44 08.05.2020
3441 Clouds 15 1015 41 10000 2.1 70 23:25 08.05.2020
3442 Clouds 16 1016 42 10000 3.6 30 22:56 08.05.2020
3443 Clouds 16 1016 42 10000 3.6 30 22:38 08.05.2020
3444 Clouds 17 1016 42 10000 3.6 30 22:19 08.05.2020
3445 Clouds 17 1015 42 10000 3.1 50 21:55 08.05.2020
3446 Clouds 17 1015 42 10000 3.1 50 21:37 08.05.2020
3447 Clouds 18 1015 42 10000 3.1 50 21:18 08.05.2020
3448 Clear 19 1015 37 10000 4.1 60 20:56 08.05.2020
3449 Clear 20 1015 37 10000 4.1 60 20:38 08.05.2020
3450 Clear 21 1015 37 10000 4.1 60 20:19 08.05.2020
3451 Clear 21 1015 37 10000 4.1 60 20:19 08.05.2020
3452 Clear 21 1015 32 10000 2.1 70 19:42 08.05.2020
3453 Clear 21 1015 32 10000 2.1 70 19:22 08.05.2020
3454 Clear 22 1016 28 10000 0.6 301 18:50 08.05.2020
3455 Clear 22 1016 28 10000 0.6 301 18:31 08.05.2020
3456 Clouds 23 1016 30 10000 1.12 296 17:55 08.05.2020
3457 Clouds 22 1016 30 10000 1.12 296 17:37 08.05.2020
3458 Clouds 23 1017 26 10000 1.19 281 17:18 08.05.2020
3459 Clouds 23 1017 26 10000 1.19 281 16:42 08.05.2020
3460 Clouds 23 1017 26 10000 1.22 322 16:24 08.05.2020
3461 Clouds 22 1017 32 10000 2.6 80 15:55 08.05.2020
3462 Clouds 23 1017 32 10000 2.6 80 15:36 08.05.2020
3463 Clouds 23 1017 32 10000 2.6 80 15:18 08.05.2020
3464 Clouds 22 1017 30 10000 2.1 50 14:41 08.05.2020
3465 Clouds 23 1017 30 10000 2.1 50 14:20 08.05.2020
3466 Clouds 22 1018 37 10000 1.5 100 13:58 08.05.2020
3467 Clouds 22 1018 37 10000 1.5 100 13:39 08.05.2020
3468 Clouds 22 1018 37 10000 1.5 100 13:19 08.05.2020
3469 Clear 21 1018 39 10000 2.6 70 12:45 08.05.2020
3470 Clear 19 1018 39 10000 2.6 70 12:25 08.05.2020
3471 Clear 19 1018 45 10000 3.6 100 11:57 08.05.2020
3472 Clear 19 1018 45 10000 3.6 100 11:39 08.05.2020
3473 Clear 19 1018 45 10000 3.6 100 11:20 08.05.2020
3474 Clear 18 1019 51 10000 2.1 110 10:57 08.05.2020
3475 Clear 17 1019 51 10000 2.1 110 10:39 08.05.2020
3476 Clear 16 1019 58 10000 1.5 80 10:18 08.05.2020
3477 Clear 15 1019 58 10000 1.5 80 09:41 08.05.2020
3478 Clear 15 1019 58 10000 1.5 80 09:19 08.05.2020
3479 Clear 12 1019 76 10000 0.77 42 08:57 08.05.2020
3480 Clear 12 1019 76 10000 0.77 42 08:39 08.05.2020
3481 Clear 11 1019 76 10000 0.8 34 08:20 08.05.2020
3482 Clear 10 1019 70 10000 0.8 34 07:40 08.05.2020
3483 Clear 9 1019 70 10000 0.66 57 07:20 08.05.2020
3484 Clear 7 1019 75 10000 0.66 57 06:48 08.05.2020
3485 Clear 7 1019 75 10000 1.02 39 06:20 08.05.2020
3486 Clear 8 1019 70 10000 1.02 39 05:35 08.05.2020
3487 Clouds 9 1019 61 10000 0.68 69 03:55 08.05.2020
3488 Clouds 10 1020 58 10000 0.83 75 02:31 08.05.2020
3489 Clouds 12 1020 58 10000 0.97 26 01:44 08.05.2020
3490 Clouds 12 1020 58 10000 0.59 9 01:21 08.05.2020
3491 Clouds 13 1020 50 10000 0.59 9 00:48 08.05.2020
3492 Clouds 13 1020 50 10000 0.41 104 00:28 08.05.2020
3493 Clear 14 1020 47 10000 0.41 104 23:58 07.05.2020
3494 Clear 13 1020 47 10000 0.41 104 23:40 07.05.2020
3495 Clear 13 1020 47 10000 0.76 125 23:21 07.05.2020
3496 Clear 14 1020 39 10000 1.5 300 22:55 07.05.2020
3497 Clear 15 1020 39 10000 1.5 300 22:37 07.05.2020
3498 Clear 15 1020 39 10000 1.5 300 22:18 07.05.2020
3499 Clear 16 1020 36 10000 0.68 119 21:55 07.05.2020
3500 Clear 16 1020 36 10000 0.68 119 21:36 07.05.2020
3501 Clear 16 1020 36 10000 0.25 27 21:18 07.05.2020
3502 Clear 18 1020 34 10000 2.1 270 20:42 07.05.2020
3503 Clear 18 1020 34 10000 2.1 270 20:21 07.05.2020
3504 Clear 20 1020 32 10000 2.1 270 19:54 07.05.2020
3505 Clear 20 1020 32 10000 2.1 270 19:36 07.05.2020
3506 Clear 21 1020 32 10000 2.1 270 19:18 07.05.2020
3507 Clear 19 1021 32 10000 1 312 18:43 07.05.2020
3508 Clear 22 1021 32 10000 1.3 332 18:25 07.05.2020
3509 Clear 22 1021 32 10000 1.3 332 17:44 07.05.2020
3510 Clear 22 1021 32 10000 1.87 333 17:21 07.05.2020
3511 Clear 22 1022 30 10000 3.6 290 16:59 07.05.2020
3512 Clear 22 1022 30 10000 3.6 290 16:40 07.05.2020
3513 Clear 22 1022 30 10000 3.6 290 16:18 07.05.2020
3514 Clear 21 1023 32 10000 2.6 100 15:56 07.05.2020
3515 Clear 21 1023 32 10000 2.6 100 15:37 07.05.2020
3516 Clear 20 1023 32 10000 2.6 100 15:18 07.05.2020
3517 Clouds 20 1023 34 10000 3.1 80 14:44 07.05.2020
3518 Clouds 20 1023 34 10000 3.1 80 14:21 07.05.2020
3519 Clear 19 1024 33 10000 2.1 70 13:45 07.05.2020
3520 Clear 19 1024 33 10000 2.1 70 13:26 07.05.2020
3521 Clear 18 1024 41 10000 1.48 351 12:58 07.05.2020
3522 Clear 18 1024 41 10000 1.48 351 12:39 07.05.2020
3523 Clear 17 1024 43 10000 1.11 353 12:19 07.05.2020
3524 Clear 16 1024 36 10000 1.11 353 11:39 07.05.2020
3525 Clear 16 1024 36 10000 0.84 16 11:21 07.05.2020
3526 Clear 14 1024 50 10000 1.5 80 10:54 07.05.2020
3527 Clear 14 1024 50 10000 1.5 80 10:36 07.05.2020
3528 Clear 13 1024 50 10000 1.5 80 10:18 07.05.2020
3529 Clear 11 1024 53 10000 2.1 90 09:39 07.05.2020
3530 Clear 11 1024 53 10000 2.1 90 09:18 07.05.2020
3531 Clear 9 1024 75 10000 1.26 358 08:45 07.05.2020
3532 Clear 8 1024 75 10000 1.03 22 08:23 07.05.2020
3533 Clear 6 1024 66 10000 1.03 22 07:58 07.05.2020
3534 Clear 5 1024 66 10000 1.03 22 07:40 07.05.2020
3535 Clear 4 1024 74 10000 1.19 53 07:20 07.05.2020
3536 Clear 3 1024 74 10000 1.19 53 06:38 07.05.2020
3537 Clear 3 1024 75 10000 1.31 51 06:19 07.05.2020
3538 Clear 4 1025 65 10000 1.43 56 04:41 07.05.2020
3539 Clear 4 1025 60 10000 1.38 50 03:47 07.05.2020
3540 Clear 5 1025 60 10000 1.32 45 03:20 07.05.2020
3541 Clear 5 1025 67 10000 1.32 45 02:36 07.05.2020
3542 Clear 6 1025 66 10000 1.3 42 01:40 07.05.2020
3543 Clear 6 1025 66 10000 1.24 44 01:22 07.05.2020
3544 Clear 7 1024 49 10000 2.6 10 00:44 07.05.2020
3545 Clear 7 1024 49 10000 2.6 10 00:25 07.05.2020
3546 Clear 8 1024 43 10000 2.6 10 23:45 06.05.2020
3547 Clear 8 1024 43 10000 2.6 10 23:24 06.05.2020
3548 Clear 9 1024 37 10000 0.84 63 22:57 06.05.2020
3549 Clear 9 1024 37 10000 0.84 63 22:38 06.05.2020
3550 Clear 10 1024 37 10000 1.26 95 22:19 06.05.2020
3551 Clear 11 1024 37 10000 1.5 70 21:56 06.05.2020
3552 Clear 12 1024 37 10000 1.5 70 21:38 06.05.2020
3553 Clear 12 1024 37 10000 1.5 70 21:18 06.05.2020
3554 Clear 14 1024 30 10000 1.5 60 20:42 06.05.2020
3555 Clear 15 1024 30 10000 1.5 60 20:23 06.05.2020
3556 Clear 15 1024 30 10000 1.5 60 20:23 06.05.2020
3557 Clear 16 1023 30 10000 1.5 350 19:57 06.05.2020
3558 Clear 16 1023 30 10000 1.5 350 19:38 06.05.2020
3559 Clear 16 1023 30 10000 1.5 350 19:19 06.05.2020
3560 Clear 17 1023 29 10000 5.1 60 18:58 06.05.2020
3561 Clear 15 1023 29 10000 5.1 60 18:39 06.05.2020
3562 Clear 17 1023 29 10000 5.1 60 18:21 06.05.2020
3563 Clear 16 1023 40 10000 2.77 48 17:58 06.05.2020
3564 Clear 16 1023 40 10000 2.77 48 17:39 06.05.2020
3565 Clear 17 1023 36 10000 3.12 53 17:21 06.05.2020
3566 Clear 16 1023 36 10000 2.1 80 16:58 06.05.2020
3567 Clear 17 1023 36 10000 2.1 80 16:40 06.05.2020
3568 Clear 16 1023 35 10000 2.1 80 16:21 06.05.2020
3569 Clear 15 1024 33 10000 2.6 100 15:58 06.05.2020
3570 Clear 16 1024 33 10000 2.6 100 15:40 06.05.2020
3571 Clear 16 1024 33 10000 2.6 100 15:20 06.05.2020
3572 Clear 15 1024 33 10000 3.6 70 14:55 06.05.2020
3573 Clear 15 1024 33 10000 3.6 70 14:36 06.05.2020
3574 Clear 15 1024 33 10000 3.6 70 14:18 06.05.2020
3575 Clear 14 1024 35 10000 4.1 80 13:43 06.05.2020
3576 Clear 14 1024 35 10000 4.1 80 13:24 06.05.2020
3577 Clear 14 1024 35 10000 3.1 80 12:58 06.05.2020
3578 Clear 13 1024 35 10000 3.1 80 12:39 06.05.2020
3579 Clear 13 1024 35 10000 3.1 80 12:21 06.05.2020
3580 Clear 12 1024 40 10000 5.7 70 11:41 06.05.2020
3581 Clear 12 1024 40 10000 5.7 70 11:21 06.05.2020
3582 Clear 11 1024 46 10000 5.1 70 10:58 06.05.2020
3583 Clear 11 1024 46 10000 5.1 70 10:38 06.05.2020
3584 Clear 11 1024 46 10000 5.1 70 10:19 06.05.2020
3585 Clear 10 1024 49 10000 4.1 60 09:45 06.05.2020
3586 Clear 8 1024 49 10000 4.1 60 09:24 06.05.2020
3587 Clear 7 1023 52 10000 4.1 50 08:55 06.05.2020
3588 Clear 7 1023 52 10000 4.1 50 08:36 06.05.2020
3589 Clear 7 1023 52 10000 4.1 50 08:18 06.05.2020
3590 Clear 5 1023 60 10000 4.1 40 07:40 06.05.2020
3591 Clear 5 1023 60 10000 4.1 40 07:21 06.05.2020
3592 Clear 4 1022 64 10000 2.6 40 06:58 06.05.2020
3593 Clear 3 1022 64 10000 2.6 40 06:40 06.05.2020
3594 Clear 3 1022 64 10000 2.6 40 06:19 06.05.2020
3595 Clear 4 1022 64 10000 2.6 40 05:37 06.05.2020
3596 Clear 4 1022 60 10000 3.1 30 04:49 06.05.2020
3597 Clear 4 1022 69 10000 2.6 40 03:49 06.05.2020
3598 Clear 4 1022 69 10000 2.6 40 03:24 06.05.2020
3599 Clear 5 1022 65 10000 2.6 40 02:43 06.05.2020
3600 Clear 5 1022 65 10000 2.6 40 02:20 06.05.2020
3601 Clear 6 1022 60 10000 2.6 40 01:42 06.05.2020
3602 Clear 7 1021 52 10000 3.6 40 00:57 06.05.2020
3603 Clear 8 1021 52 10000 3.6 40 00:37 06.05.2020
3604 Clear 7 1021 52 10000 3.6 40 00:18 06.05.2020
3605 Clear 9 1020 45 10000 4.6 10 23:40 05.05.2020
3606 Clear 8 1020 45 10000 4.6 10 23:19 05.05.2020
3607 Clear 8 1020 45 10000 4.6 10 23:19 05.05.2020
3608 Clear 9 1020 39 10000 4.1 10 22:54 05.05.2020
3609 Clear 9 1020 39 10000 4.1 10 22:36 05.05.2020
3610 Clear 9 1020 39 10000 4.1 10 22:18 05.05.2020
3611 Clear 11 1019 37 10000 3.1 10 21:41 05.05.2020
3612 Clear 11 1019 37 10000 3.1 10 21:21 05.05.2020
3613 Clear 13 1018 32 10000 3.6 60 20:59 05.05.2020
3614 Clear 13 1018 32 10000 3.6 60 20:40 05.05.2020
3615 Clear 14 1018 32 10000 3.6 60 20:20 05.05.2020
3616 Clear 15 1018 33 10000 4.1 60 19:59 05.05.2020
3617 Clear 15 1018 33 10000 4.1 60 19:39 05.05.2020
3618 Clear 15 1018 33 10000 4.1 60 19:21 05.05.2020
3619 Clear 15 1018 41 10000 5.1 50 18:56 05.05.2020
3620 Clear 15 1018 41 10000 5.1 50 18:38 05.05.2020
3621 Clear 15 1018 41 10000 5.1 50 18:19 05.05.2020
3622 Clear 15 1018 44 10000 2.6 60 17:54 05.05.2020
3623 Clear 15 1018 44 10000 2.6 60 17:36 05.05.2020
3624 Clear 15 1018 44 10000 2.6 60 17:18 05.05.2020
3625 Clear 16 1018 41 10000 4.1 90 16:38 05.05.2020
3626 Clear 16 1018 41 10000 4.1 90 16:20 05.05.2020
3627 Clouds 15 1019 44 10000 4.6 30 15:58 05.05.2020
3628 Clouds 15 1019 44 10000 4.6 30 15:39 05.05.2020
3629 Clouds 14 1019 44 10000 4.6 30 15:20 05.05.2020
3630 Clouds 14 1018 50 10000 4.6 80 14:55 05.05.2020
3631 Clouds 14 1018 50 10000 4.6 80 14:37 05.05.2020
3632 Clouds 14 1018 50 10000 4.6 80 14:18 05.05.2020
3633 Clouds 13 1018 58 10000 7.2 70 13:55 05.05.2020
3634 Clouds 13 1018 58 10000 7.2 70 13:37 05.05.2020
3635 Clouds 13 1018 58 10000 7.2 70 13:18 05.05.2020
3636 Clouds 12 1018 62 10000 5.7 30 12:55 05.05.2020
3637 Clouds 12 1018 62 10000 5.7 30 12:37 05.05.2020
3638 Clouds 12 1018 62 10000 5.7 30 12:19 05.05.2020
3639 Clouds 11 1018 66 10000 5.1 60 11:41 05.05.2020
3640 Clouds 10 1018 66 10000 5.1 60 11:20 05.05.2020
3641 Clouds 10 1018 75 10000 6.2 40 10:56 05.05.2020
3642 Clouds 9 1018 75 10000 6.2 40 10:38 05.05.2020
3643 Clouds 9 1018 75 10000 6.2 40 10:18 05.05.2020
3644 Clouds 8 1018 75 10000 4.6 40 09:55 05.05.2020
3645 Clouds 8 1018 75 10000 4.6 40 09:36 05.05.2020
3646 Clouds 7 1018 75 10000 4.6 40 09:18 05.05.2020
3647 Clear 7 1018 81 10000 4.1 50 08:40 05.05.2020
3648 Clear 6 1018 81 10000 4.1 50 08:19 05.05.2020
3649 Clear 6 1019 86 10000 2.6 50 07:44 05.05.2020
3650 Clear 5 1019 86 10000 2.6 50 07:23 05.05.2020
3651 Clear 5 1018 86 10000 1.5 40 06:59 05.05.2020
3652 Clear 5 1018 86 10000 1.5 40 06:40 05.05.2020
3653 Clear 5 1018 86 10000 1.5 40 06:20 05.05.2020
3654 Clear 6 1018 75 10000 1.5 70 05:28 05.05.2020
3655 Clear 6 1018 75 10000 2.6 50 02:57 05.05.2020
3656 Clear 7 1019 70 10000 4.6 20 01:23 05.05.2020
3657 Clear 7 1019 65 10000 3.6 10 00:49 05.05.2020
3658 Clear 7 1019 65 10000 3.6 10 00:18 05.05.2020
3659 Clear 8 1019 65 10000 3.1 10 23:42 04.05.2020
3660 Clear 8 1019 65 10000 3.1 10 23:21 04.05.2020
3661 Clear 9 1018 70 10000 2.6 10 22:56 04.05.2020
3662 Clear 9 1018 70 10000 2.6 10 22:37 04.05.2020
3663 Clear 9 1018 70 10000 2.6 10 22:19 04.05.2020
3664 Clear 10 1018 66 10000 2.6 20 21:52 04.05.2020
3665 Clear 10 1018 66 10000 2.6 20 21:52 04.05.2020
3666 Clear 10 1018 66 10000 2.6 20 21:52 04.05.2020
3667 Clear 10 1018 66 10000 2.6 20 21:52 04.05.2020
3668 Clear 10 1018 66 10000 2.6 20 21:52 04.05.2020
3669 Clear 10 1018 66 10000 2.6 20 21:29 04.05.2020
3670 Clear 10 1018 66 10000 2.6 20 21:29 04.05.2020
3671 Clear 10 1018 66 10000 2.6 20 21:29 04.05.2020
3672 Clear 10 1018 66 10000 2.6 20 21:28 04.05.2020
3673 Clear 10 1018 66 10000 2.6 20 21:28 04.05.2020
3674 Clouds 11 1018 71 10000 3.1 20 20:44 04.05.2020
3675 Clouds 11 1018 71 10000 3.1 20 20:23 04.05.2020
3676 Clouds 11 1018 71 10000 3.1 20 20:23 04.05.2020
3677 Clouds 12 1018 66 10000 2.6 10 19:59 04.05.2020
3678 Clouds 12 1018 66 10000 5.7 20 19:40 04.05.2020
3679 Clouds 12 1018 66 10000 5.7 20 19:20 04.05.2020
3680 Clouds 13 1017 71 10000 3.6 10 18:55 04.05.2020
3681 Clouds 12 1017 71 10000 3.6 10 18:37 04.05.2020
3682 Clouds 13 1017 71 10000 3.6 10 18:18 04.05.2020
3683 Clouds 13 1017 71 10000 4.6 360 17:55 04.05.2020
3684 Clouds 13 1017 71 10000 5.1 20 17:37 04.05.2020
3685 Clouds 13 1017 71 10000 5.1 20 17:18 04.05.2020
3686 Clouds 14 1017 67 10000 3.1 20 16:42 04.05.2020
3687 Clouds 14 1017 67 10000 3.1 20 16:42 04.05.2020
3688 Clouds 14 1017 67 10000 3.1 20 16:21 04.05.2020
3689 Clouds 15 1017 71 10000 3.1 320 15:46 04.05.2020
3690 Clouds 15 1017 71 10000 3.1 320 15:46 04.05.2020
3691 Clouds 15 1017 71 10000 3.1 320 15:25 04.05.2020
3692 Clouds 15 1017 71 10000 3.1 320 15:25 04.05.2020
3693 Clouds 15 1017 62 10000 3.6 310 14:58 04.05.2020
3694 Clouds 14 1016 63 10000 4.6 330 14:40 04.05.2020
3695 Clouds 14 1016 63 10000 4.6 330 14:40 04.05.2020
3696 Clouds 14 1016 63 10000 4.6 330 14:40 04.05.2020
3697 Clouds 14 1016 63 10000 4.6 330 14:40 04.05.2020
3698 Clouds 14 1016 63 10000 4.6 330 14:40 04.05.2020
3699 Clouds 16 1016 55 10000 3.6 290 14:01 04.05.2020
3700 Clouds 16 1016 55 10000 3.6 290 14:01 04.05.2020
3701 Clouds 16 1016 55 10000 3.6 290 14:01 04.05.2020
3702 Clouds 16 1016 55 10000 3.6 290 14:01 04.05.2020
3703 Clouds 16 1016 55 10000 3.6 290 13:59 04.05.2020
3704 Clouds 15 1016 67 10000 4.1 300 12:49 04.05.2020
3705 Clouds 15 1016 67 10000 4.1 300 12:49 04.05.2020
3706 Clouds 15 1016 67 10000 4.1 300 12:49 04.05.2020
3707 Clouds 15 1016 63 10000 5.1 280 12:25 04.05.2020
3708 Clouds 15 1016 63 10000 5.1 280 12:24 04.05.2020
3709 Clouds 15 1016 63 10000 5.1 280 12:24 04.05.2020
3710 Clouds 15 1016 63 10000 5.1 280 12:24 04.05.2020
3711 Clouds 15 1016 63 10000 5.1 280 12:24 04.05.2020
3712 Clouds 11 1016 93 10000 3.45 259 09:40 04.05.2020
3713 Clouds 11 1016 93 10000 1.5 290 09:13 04.05.2020
3714 Clouds 11 1016 93 10000 1.5 290 09:09 04.05.2020
3715 Clouds 11 1016 93 10000 1.5 290 09:09 04.05.2020
3716 Clouds 11 1016 93 10000 1.5 290 09:09 04.05.2020
3717 Clouds 11 1016 93 10000 1.5 290 09:05 04.05.2020
3718 Clouds 9 1016 93 10000 2.04 207 07:51 04.05.2020
3719 Clouds 8 1015 93 10000 1.74 201 07:31 04.05.2020
3720 Clouds 8 1015 93 10000 1.74 201 07:31 04.05.2020
3721 Clouds 9 1015 93 10000 2.04 207 07:31 04.05.2020
3722 Clouds 9 1015 93 10000 2.04 207 07:31 04.05.2020
3723 Clouds 8 1015 93 10000 1.74 201 07:28 04.05.2020
3724 Clouds 8 1016 87 10000 1.95 171 04:58 04.05.2020
3725 Clouds 8 1016 76 10000 1.62 192 03:22 04.05.2020
3726 Clouds 8 1016 76 10000 1.62 192 03:22 04.05.2020
3727 Clear 9 1017 76 10000 1.62 192 02:31 04.05.2020
3728 Clouds 10 1017 71 10000 1.25 178 00:45 04.05.2020
3729 Clouds 11 1017 66 10000 1.11 170 23:46 03.05.2020
3730 Clouds 11 1017 66 10000 0.75 135 23:25 03.05.2020
3731 Clouds 11 1017 62 10000 1.5 90 22:59 03.05.2020
3732 Clouds 11 1017 62 10000 1.5 90 22:59 03.05.2020
3733 Clouds 12 1017 62 10000 1.5 90 22:40 03.05.2020
3734 Clouds 12 1017 62 10000 1.5 90 22:22 03.05.2020
3735 Clouds 13 1017 54 10000 0.51 105 21:41 03.05.2020
3736 Clouds 13 1017 54 10000 0.51 105 21:41 03.05.2020
3737 Clouds 13 1017 54 10000 0.51 105 21:41 03.05.2020
3738 Clouds 12 1017 54 10000 0.98 60 21:21 03.05.2020
3739 Clouds 13 1017 54 10000 0.98 60 20:47 03.05.2020
3740 Clouds 13 1017 54 10000 1.24 296 20:23 03.05.2020
3741 Clouds 14 1017 50 10000 1.24 296 19:57 03.05.2020
3742 Clouds 14 1017 50 10000 1.24 296 19:38 03.05.2020
3743 Clouds 14 1017 50 10000 1.6 266 19:18 03.05.2020
3744 Clouds 15 1018 47 10000 1.6 266 18:39 03.05.2020
3745 Clouds 15 1018 47 10000 2.67 271 18:20 03.05.2020
3746 Clouds 15 1018 47 10000 2.1 220 17:58 03.05.2020
3747 Clouds 15 1018 47 10000 2.1 220 17:39 03.05.2020
3748 Clouds 15 1018 47 10000 2.1 220 17:20 03.05.2020
3749 Clouds 15 1018 44 10000 3.09 253 16:44 03.05.2020
3750 Clouds 15 1018 44 10000 3.17 246 16:19 03.05.2020
3751 Clouds 15 1018 44 10000 2.6 230 15:58 03.05.2020
3752 Clouds 15 1018 44 10000 2.6 230 15:39 03.05.2020
3753 Clouds 15 1018 44 10000 2.6 230 15:39 03.05.2020
3754 Clouds 15 1018 44 10000 2.6 230 15:20 03.05.2020
3755 Clouds 15 1018 44 10000 2.6 230 15:20 03.05.2020
3756 Clouds 14 1018 41 10000 4.1 210 14:57 03.05.2020
3757 Clouds 14 1018 41 10000 4.1 210 14:38 03.05.2020
3758 Clouds 14 1018 41 10000 4.1 210 14:20 03.05.2020
3759 Clouds 14 1018 41 10000 4.1 210 14:20 03.05.2020
3760 Clouds 14 1019 54 10000 2.6 250 13:41 03.05.2020
3761 Clouds 14 1019 54 10000 2.6 250 13:41 03.05.2020
3762 Clouds 13 1019 58 10000 1.5 190 12:59 03.05.2020
3763 Clouds 13 1019 58 10000 1.5 190 12:59 03.05.2020
3764 Clouds 13 1019 58 10000 1.5 190 12:59 03.05.2020
3765 Clouds 13 1019 58 10000 1.5 190 12:39 03.05.2020
3766 Clouds 13 1019 58 10000 1.5 190 12:18 03.05.2020
3767 Clouds 12 1019 76 10000 1.5 250 11:55 03.05.2020
3768 Clouds 11 1019 76 10000 1.5 250 11:37 03.05.2020
3769 Clouds 11 1019 76 10000 1.5 250 11:18 03.05.2020
3770 Clouds 9 1019 87 10000 2.23 215 10:39 03.05.2020
3771 Clouds 9 1019 87 10000 2.23 215 10:39 03.05.2020
3772 Clouds 9 1019 87 10000 2.23 215 10:39 03.05.2020
3773 Clouds 9 1019 87 10000 2.23 215 10:39 03.05.2020
3774 Clouds 9 1019 87 10000 2.23 215 10:39 03.05.2020
3775 Clear 8 1018 100 10000 1.83 217 09:56 03.05.2020
3776 Clear 8 1018 100 10000 1.83 217 09:56 03.05.2020
3777 Clear 8 1018 100 10000 1.83 217 09:56 03.05.2020
3778 Clear 8 1018 100 10000 1.83 217 09:56 03.05.2020
3779 Clear 8 1018 100 10000 1.83 217 09:56 03.05.2020
3780 Clear 7 1018 100 10000 0.77 189 09:28 03.05.2020
3781 Clear 7 1018 100 10000 1.06 191 09:28 03.05.2020
3782 Clear 7 1018 100 10000 1.06 191 09:28 03.05.2020
3783 Clear 6 1018 100 10000 0.77 189 08:54 03.05.2020
3784 Clear 6 1018 100 10000 0.77 189 08:54 03.05.2020
3785 Clear 6 1018 100 10000 0.77 189 08:54 03.05.2020
3786 Clear 6 1018 100 10000 0.77 189 08:54 03.05.2020
3787 Clear 6 1018 100 10000 0.77 189 08:54 03.05.2020
3788 Clear 5 1018 100 10000 0.81 150 08:21 03.05.2020
3789 Clear 5 1018 100 10000 0.81 150 08:20 03.05.2020
3790 Clear 5 1018 100 10000 0.81 150 08:20 03.05.2020
3791 Clear 3 1017 100 10000 0.81 150 07:38 03.05.2020
3792 Clear 3 1017 100 10000 0.81 150 07:38 03.05.2020
3793 Clear 2 1017 100 10000 0.56 185 06:19 03.05.2020
3794 Clear 2 1017 100 10000 0.56 185 06:19 03.05.2020
3795 Clear 3 1017 100 10000 0.56 185 05:44 03.05.2020
3796 Clear 3 1016 100 10000 0.74 175 04:31 03.05.2020
3797 Clear 3 1017 93 10000 0.54 174 03:59 03.05.2020
3798 Clear 4 1016 93 10000 1.5 300 02:53 03.05.2020
3799 Clear 4 1016 93 10000 1.5 300 02:22 03.05.2020
3800 Clear 4 1016 87 10000 0.29 208 01:44 03.05.2020
3801 Clear 4 1016 87 10000 0.34 231 01:24 03.05.2020
3802 Clear 5 1015 87 10000 0.34 231 00:42 03.05.2020
3803 Clear 5 1015 87 10000 0.98 250 00:21 03.05.2020
3804 Clear 5 1015 87 10000 0.98 250 00:21 03.05.2020
3805 Clear 5 1015 81 10000 0.98 250 23:59 02.05.2020
3806 Clear 6 1015 81 10000 0.98 250 23:41 02.05.2020
3807 Clear 6 1015 81 10000 1.1 261 23:21 02.05.2020
3808 Clear 7 1014 75 10000 1.1 261 22:43 02.05.2020
3809 Clear 7 1014 75 10000 1.34 282 22:23 02.05.2020
3810 Clouds 8 1014 70 10000 1.34 282 21:56 02.05.2020
3811 Clouds 9 1014 70 10000 1.34 282 21:38 02.05.2020
3812 Clouds 9 1014 70 10000 2.58 280 21:18 02.05.2020
3813 Clouds 10 1013 61 10000 2.59 286 20:56 02.05.2020
3814 Clouds 10 1013 66 10000 2.59 286 20:37 02.05.2020
3815 Clouds 10 1013 66 10000 3.03 286 20:19 02.05.2020
3816 Clouds 10 1012 57 10000 3.1 280 19:56 02.05.2020
3817 Clouds 10 1012 57 10000 3.1 280 19:38 02.05.2020
3818 Clouds 11 1012 57 10000 3.1 280 19:18 02.05.2020
3819 Clouds 10 1012 50 10000 5.1 280 18:41 02.05.2020
3820 Clouds 10 1012 50 10000 5.1 280 18:22 02.05.2020
3821 Clouds 10 1011 57 10000 4.6 280 17:58 02.05.2020
3822 Clouds 10 1011 62 10000 5.7 290 17:39 02.05.2020
3823 Clouds 10 1011 62 10000 5.7 290 17:20 02.05.2020
3824 Clouds 11 1011 66 10000 6.2 270 16:58 02.05.2020
3825 Clouds 10 1011 76 10000 5.7 280 16:39 02.05.2020
3826 Clouds 10 1011 76 10000 5.7 280 16:21 02.05.2020
3827 Clouds 10 1010 62 10000 7.7 240 15:43 02.05.2020
3828 Clouds 10 1010 62 10000 7.7 240 15:20 02.05.2020
3829 Clouds 9 1010 66 10000 6.7 210 14:58 02.05.2020
3830 Clouds 8 1010 76 10000 8.2 220 14:39 02.05.2020
3831 Clouds 8 1010 76 10000 8.2 220 14:20 02.05.2020
3832 Clouds 9 1009 87 10000 3.6 260 13:40 02.05.2020
3833 Clouds 9 1009 87 10000 3.6 260 13:22 02.05.2020
3834 Rain 8 1010 93 10000 5.7 260 12:54 02.05.2020
3835 Clouds 9 1009 61 10000 9.8 230 12:36 02.05.2020
3836 Clouds 9 1009 61 10000 9.8 230 12:18 02.05.2020
3837 Clouds 8 1009 66 10000 7.7 240 11:41 02.05.2020
3838 Clouds 8 1009 66 10000 7.7 240 11:22 02.05.2020
3839 Clouds 8 1009 70 10000 7.7 230 10:59 02.05.2020
3840 Clouds 8 1009 70 10000 5.7 230 10:39 02.05.2020
3841 Clouds 8 1009 70 10000 5.7 230 10:21 02.05.2020
3842 Clouds 7 1008 81 10000 8.7 220 09:57 02.05.2020
3843 Clouds 6 1008 93 10000 5.7 220 09:38 02.05.2020
3844 Clouds 6 1008 93 10000 5.7 220 09:20 02.05.2020
3845 Clouds 6 1008 93 10000 5.1 210 08:50 02.05.2020
3846 Clouds 6 1008 93 10000 4.6 220 08:30 02.05.2020
3847 Clouds 5 1008 100 10000 5.1 220 07:49 02.05.2020
3848 Clouds 5 1008 100 10000 5.1 220 07:29 02.05.2020
3849 Clouds 5 1007 100 10000 5.7 220 06:53 02.05.2020
3850 Clouds 5 1007 100 10000 5.7 220 06:23 02.05.2020
3851 Clouds 6 1007 100 10000 4.1 220 05:27 02.05.2020
3852 Clouds 6 1006 100 10000 4.6 230 04:26 02.05.2020
3853 Clouds 6 1006 100 10000 4.1 230 03:34 02.05.2020
3854 Clouds 6 1006 100 10000 4.1 230 02:39 02.05.2020
3855 Clouds 6 1006 100 10000 4.1 230 01:52 02.05.2020
3856 Clouds 7 1005 100 10000 3.1 230 00:58 02.05.2020
3857 Clouds 7 1005 100 10000 3.1 230 00:40 02.05.2020
3858 Clouds 7 1005 100 10000 3.1 230 00:19 02.05.2020
3859 Clouds 7 1004 100 10000 2.6 230 23:40 01.05.2020
3860 Clouds 7 1004 100 10000 2.6 230 23:40 01.05.2020
3861 Clouds 7 1004 100 10000 2.6 230 23:20 01.05.2020
3862 Rain 7 1004 100 10000 2.6 230 22:58 01.05.2020
3863 Clouds 7 1004 100 10000 3.1 220 22:38 01.05.2020
3864 Clouds 7 1004 100 10000 3.1 220 22:19 01.05.2020
3865 Clouds 7 1004 100 10000 3.1 180 21:57 01.05.2020
3866 Clouds 7 1004 100 10000 2.6 220 21:39 01.05.2020
3867 Clouds 7 1004 100 10000 2.6 220 21:19 01.05.2020
3868 Clouds 8 1003 100 10000 2.6 180 20:57 01.05.2020
3869 Rain 8 1003 100 10000 3.1 240 20:38 01.05.2020
3870 Rain 8 1003 100 10000 3.1 240 20:19 01.05.2020
3871 Rain 9 1003 93 10000 4.6 260 19:54 01.05.2020
3872 Clouds 10 1002 81 10000 4.1 250 19:36 01.05.2020
3873 Clouds 10 1002 81 10000 4.1 250 19:18 01.05.2020
3874 Rain 10 1003 87 9000 6.2 230 18:54 01.05.2020
3875 Clouds 11 1002 76 10000 2.1 300 18:36 01.05.2020
3876 Clouds 12 1002 76 10000 2.1 300 18:18 01.05.2020
3877 Clouds 11 1002 76 10000 3.6 220 17:40 01.05.2020
3878 Clouds 12 1002 76 10000 3.6 220 17:21 01.05.2020
3879 Clouds 12 1002 62 10000 5.1 240 16:57 01.05.2020
3880 Clouds 12 1001 66 10000 8.2 220 16:39 01.05.2020
3881 Clouds 11 1001 66 10000 8.2 220 16:20 01.05.2020
3882 Clouds 11 1002 66 10000 8.2 200 15:57 01.05.2020
3883 Clouds 11 1002 71 10000 5.7 220 15:39 01.05.2020
3884 Clouds 12 1002 71 10000 5.7 220 15:19 01.05.2020
3885 Clouds 11 1002 66 10000 6.2 210 14:43 01.05.2020
3886 Clouds 12 1002 66 10000 6.2 210 14:24 01.05.2020
3887 Clouds 11 1002 71 10000 6.2 230 13:55 01.05.2020
3888 Clouds 10 1002 81 10000 6.7 250 13:36 01.05.2020
3889 Clouds 10 1002 81 10000 6.7 250 13:18 01.05.2020
3890 Clouds 9 1002 93 10000 4.1 240 12:54 01.05.2020
3891 Clouds 9 1003 93 10000 7.2 240 12:36 01.05.2020
3892 Clouds 8 1003 93 10000 7.2 240 12:18 01.05.2020
3893 Rain 8 1002 93 10000 5.1 210 11:41 01.05.2020
3894 Rain 8 1002 93 10000 5.1 210 11:21 01.05.2020
3895 Clouds 9 1002 87 10000 5.7 230 10:56 01.05.2020
3896 Clouds 9 1002 87 10000 5.7 230 10:37 01.05.2020
3897 Clouds 9 1002 87 10000 5.7 230 10:19 01.05.2020
3898 Clouds 9 1002 87 10000 5.7 230 10:19 01.05.2020
3899 Clouds 8 1003 93 10000 6.2 220 09:43 01.05.2020
3900 Clouds 8 1003 93 10000 6.2 220 09:19 01.05.2020
3901 Clouds 8 1002 93 10000 6.7 220 08:55 01.05.2020
3902 Rain 7 1002 100 10000 6.2 220 08:37 01.05.2020
3903 Rain 7 1002 100 10000 6.2 220 08:19 01.05.2020
3904 Rain 7 1002 100 10000 1.5 210 07:42 01.05.2020
3905 Rain 7 1002 100 10000 1.5 210 07:22 01.05.2020
3906 Drizzle 7 1002 100 10000 3.1 230 06:39 01.05.2020
3907 Mist 7 1003 100 8000 6.2 230 05:35 01.05.2020
3908 Rain 7 1002 100 10000 6.7 190 04:21 01.05.2020
3909 Clouds 7 1003 100 10000 3.6 220 03:24 01.05.2020
3910 Clouds 7 1003 100 10000 3.1 230 02:43 01.05.2020
3911 Clouds 7 1003 100 10000 3.1 230 02:18 01.05.2020
3912 Clouds 7 1003 100 10000 6.2 220 01:28 01.05.2020
3913 Clouds 7 1003 100 10000 5.7 220 00:59 01.05.2020
3914 Clouds 8 1002 100 10000 4.1 220 00:37 01.05.2020
3915 Clouds 8 1002 100 10000 4.1 220 00:18 01.05.2020
3916 Clouds 8 1002 93 10000 4.6 220 23:54 30.04.2020
3917 Rain 9 1002 87 10000 10.8 230 23:36 30.04.2020
3918 Rain 9 1002 87 10000 10.8 230 23:18 30.04.2020
3919 Clouds 9 1002 93 10000 4.6 200 22:41 30.04.2020
3920 Clouds 9 1002 93 10000 4.6 200 22:20 30.04.2020
3921 Rain 9 1002 93 10000 6.2 200 21:56 30.04.2020
3922 Clouds 9 1002 93 10000 7.7 180 21:37 30.04.2020
3923 Clouds 9 1002 93 10000 7.7 180 21:19 30.04.2020
3924 Clouds 9 1002 93 10000 3.1 190 20:54 30.04.2020
3925 Clouds 9 1002 93 10000 5.1 210 20:36 30.04.2020
3926 Clouds 9 1002 93 10000 5.1 210 20:18 30.04.2020
3927 Clouds 9 1001 87 10000 6.2 210 19:42 30.04.2020
3928 Clouds 9 1001 87 10000 6.2 210 19:23 30.04.2020
3929 Clouds 9 1002 100 10000 4.1 210 18:56 30.04.2020
3930 Rain 9 1002 100 10000 4.6 230 18:37 30.04.2020
3931 Rain 9 1002 100 10000 4.6 230 18:19 30.04.2020
3932 Rain 9 1001 93 10000 6.7 220 17:56 30.04.2020
3933 Rain 9 1001 93 10000 6.2 200 17:37 30.04.2020
3934 Rain 10 1001 93 10000 6.2 200 17:19 30.04.2020
3935 Rain 11 1002 81 10000 7.7 200 16:54 30.04.2020
3936 Rain 11 1002 81 10000 7.7 200 16:36 30.04.2020
3937 Rain 11 1002 81 10000 7.7 200 16:18 30.04.2020
3938 Clouds 13 1002 66 10000 6.2 190 15:44 30.04.2020
3939 Clouds 13 1002 66 10000 6.2 190 15:23 30.04.2020
3940 Clouds 13 1003 62 10000 6.7 210 14:43 30.04.2020
3941 Clouds 13 1003 62 10000 6.7 210 14:22 30.04.2020
3942 -273 0 0 0 0 0 13:59 30.04.2020
3943 Clouds 12 1003 62 10000 5.7 190 13:41 30.04.2020
3944 Clouds 12 1003 62 10000 5.7 190 13:22 30.04.2020
3945 Clouds 12 1004 62 10000 7.2 200 12:59 30.04.2020
3946 Clouds 11 1004 62 10000 8.2 200 12:41 30.04.2020
3947 Clouds 11 1004 62 10000 8.2 200 12:19 30.04.2020
3948 Clouds 11 1004 66 10000 9.3 230 11:38 30.04.2020
3949 Clouds 11 1004 66 10000 9.3 230 11:19 30.04.2020
3950 Clouds 11 1004 81 10000 8.7 240 10:58 30.04.2020
3951 Clouds 10 1004 81 10000 8.7 240 10:39 30.04.2020
3952 Clouds 10 1004 81 10000 8.7 240 10:21 30.04.2020
3953 Clouds 10 1003 81 10000 6.2 230 09:56 30.04.2020
3954 Clouds 9 1003 93 10000 6.2 220 09:38 30.04.2020
3955 Clouds 10 1003 93 10000 6.2 220 09:19 30.04.2020
3956 Rain 10 1003 100 10000 6.2 210 08:45 30.04.2020
3957 Rain 10 1003 100 10000 6.2 210 08:45 30.04.2020
3958 Rain 9 1003 100 10000 6.2 210 08:26 30.04.2020
3959 Clouds 9 1003 100 10000 6.7 210 07:44 30.04.2020
3960 Clouds 9 1003 100 10000 6.7 210 07:25 30.04.2020
3961 Rain 9 1002 100 10000 3.6 220 06:54 30.04.2020
3962 Rain 9 1002 100 10000 3.6 220 06:26 30.04.2020
3963 Rain 10 1002 100 10000 5.7 180 05:46 30.04.2020
3964 Rain 9 1003 100 10000 5.7 180 04:43 30.04.2020
3965 Rain 10 1003 100 10000 5.7 180 04:19 30.04.2020
3966 Rain 9 1004 100 10000 3.1 170 02:48 30.04.2020
3967 Clouds 10 1005 93 10000 4.6 200 02:26 30.04.2020
3968 Rain 10 1005 87 10000 8.7 210 01:37 30.04.2020
3969 Rain 10 1005 87 10000 6.7 190 00:50 30.04.2020
3970 Clouds 10 1005 87 10000 5.1 180 00:20 30.04.2020
3971 Rain 10 1006 81 10000 5.1 190 23:58 29.04.2020
3972 Rain 10 1006 81 10000 5.1 190 23:39 29.04.2020
3973 Rain 10 1006 81 10000 5.1 190 23:21 29.04.2020
3974 Rain 11 1006 76 10000 5.1 190 22:58 29.04.2020
3975 Clouds 11 1006 76 10000 5.7 190 22:38 29.04.2020
3976 Clouds 11 1006 76 10000 5.7 190 22:18 29.04.2020
3977 Clouds 12 1006 71 10000 3.1 180 21:38 29.04.2020
3978 Clouds 12 1006 71 10000 3.1 180 21:20 29.04.2020
3979 Clouds 12 1006 76 10000 3.6 180 20:58 29.04.2020
3980 Clouds 12 1006 71 10000 4.6 180 20:39 29.04.2020
3981 Clouds 12 1006 71 10000 4.6 180 20:19 29.04.2020
3982 Clouds 13 1006 62 10000 5.7 190 19:54 29.04.2020
3983 Clouds 13 1006 62 10000 5.7 190 19:36 29.04.2020
3984 Clouds 13 1006 62 10000 5.7 190 19:18 29.04.2020
3985 Clouds 15 1007 54 10000 5.7 220 18:41 29.04.2020
3986 Clouds 15 1007 54 10000 5.7 220 18:20 29.04.2020
3987 Clouds 14 1007 62 10000 6.2 230 17:55 29.04.2020
3988 Clouds 14 1007 62 10000 6.2 230 17:37 29.04.2020
3989 Clouds 14 1007 62 10000 6.2 230 17:18 29.04.2020
3990 Clouds 14 1007 71 10000 4.6 190 16:37 29.04.2020
3991 Clouds 14 1007 71 10000 4.6 190 16:19 29.04.2020
3992 Clouds 14 1007 71 10000 4.6 190 16:19 29.04.2020
3993 Rain 14 1007 66 10000 4.6 200 15:57 29.04.2020
3994 Clouds 13 1007 66 10000 3.6 220 15:38 29.04.2020
3995 Clouds 12 1007 66 10000 3.6 220 15:20 29.04.2020
3996 Clouds 12 1008 71 10000 5.7 240 14:45 29.04.2020
3997 Clouds 13 1008 71 10000 5.7 240 14:26 29.04.2020
3998 Clouds 13 1008 76 10000 5.1 240 13:58 29.04.2020
3999 Clouds 13 1008 76 10000 5.1 230 13:40 29.04.2020
4000 Clouds 13 1008 76 10000 5.1 230 13:20 29.04.2020
4001 Clouds 12 1008 93 10000 5.1 220 12:56 29.04.2020
4002 Rain 12 1008 81 10000 5.1 220 12:38 29.04.2020
4003 Rain 12 1008 81 10000 5.1 220 12:38 29.04.2020
4004 Rain 11 1008 81 10000 5.1 220 12:18 29.04.2020
4005 Clouds 12 1007 66 10000 7.7 200 11:39 29.04.2020
4006 Clouds 12 1007 66 10000 7.7 200 11:20 29.04.2020
4007 Clouds 11 1007 71 10000 6.2 220 10:57 29.04.2020
4008 Clouds 11 1007 71 10000 6.2 220 10:37 29.04.2020
4009 Clouds 11 1007 71 10000 6.2 220 10:37 29.04.2020
4010 Clouds 11 1007 71 10000 6.2 220 10:19 29.04.2020
4011 Clouds 11 1007 81 10000 6.7 220 09:42 29.04.2020
4012 Clouds 10 1007 81 10000 6.7 220 09:23 29.04.2020
4013 Clouds 10 1007 81 10000 5.1 220 08:56 29.04.2020
4014 Clouds 10 1007 93 10000 3.6 210 08:37 29.04.2020
4015 Clouds 9 1007 93 10000 3.6 210 08:19 29.04.2020
4016 Clouds 10 1006 93 10000 5.1 210 07:41 29.04.2020
4017 Clouds 10 1006 93 10000 5.1 210 07:23 29.04.2020
4018 Clouds 10 1006 93 10000 4.1 220 06:50 29.04.2020
4019 Clouds 9 1006 93 10000 4.1 210 06:30 29.04.2020
4020 Clouds 9 1006 93 10000 3.1 230 05:21 29.04.2020
4021 Clouds 10 1006 87 10000 3.1 200 04:39 29.04.2020
4022 Clouds 10 1006 87 10000 3.1 200 04:18 29.04.2020
4023 Clouds 10 1006 87 10000 2.6 230 02:40 29.04.2020
4024 Clouds 11 1006 81 10000 2.6 230 01:44 29.04.2020
4025 Clouds 11 1006 81 10000 2.6 230 01:23 29.04.2020
4026 Clouds 11 1006 81 10000 2.6 230 00:41 29.04.2020
4027 Clouds 11 1006 81 10000 2.6 230 00:19 29.04.2020
4028 Clouds 11 1006 76 10000 2.1 220 23:50 28.04.2020
4029 Clouds 11 1006 76 10000 2.1 220 23:24 28.04.2020
4030 Clouds 11 1005 76 10000 2.1 230 22:57 28.04.2020
4031 Clouds 12 1005 76 10000 2.1 230 22:37 28.04.2020
4032 Clouds 12 1005 76 10000 2.1 230 22:18 28.04.2020
4033 Clouds 12 1005 76 10000 3.1 220 21:56 28.04.2020
4034 Clear 12 1005 71 10000 4.1 220 21:37 28.04.2020
4035 Clear 13 1005 71 10000 4.1 220 21:19 28.04.2020
4036 Clouds 13 1005 67 10000 5.7 220 20:55 28.04.2020
4037 Clouds 14 1005 67 10000 5.7 220 20:37 28.04.2020
4038 Clouds 14 1005 67 10000 5.7 220 20:19 28.04.2020
4039 Clouds 15 1005 62 10000 5.1 220 19:43 28.04.2020
4040 Clouds 15 1005 62 10000 5.1 220 19:22 28.04.2020
4041 Clouds 16 1005 63 10000 5.1 220 18:59 28.04.2020
4042 Clouds 16 1005 63 10000 5.1 220 18:40 28.04.2020
4043 Clouds 15 1005 63 10000 5.1 220 18:19 28.04.2020
4044 Clouds 15 1005 63 10000 5.1 220 18:19 28.04.2020
4045 Clouds 15 1005 71 10000 5.7 220 18:19 28.04.2020
4046 Clouds 15 1005 71 10000 5.7 220 17:58 28.04.2020
4047 Clouds 14 1005 71 10000 5.7 220 17:36 28.04.2020
4048 Clouds 14 1005 71 10000 5.7 220 17:18 28.04.2020
4049 Clouds 13 1005 87 10000 7.7 220 16:43 28.04.2020
4050 Clouds 13 1005 87 10000 7.7 220 16:24 28.04.2020
4051 Clouds 13 1005 100 10000 6.7 230 15:58 28.04.2020
4052 Clouds 13 1005 100 10000 6.7 230 15:40 28.04.2020
4053 Clouds 13 1005 100 10000 6.7 230 15:21 28.04.2020
4054 Clouds 13 1005 100 10000 6.7 230 15:21 28.04.2020
4055 Rain 12 1005 100 10000 7.2 220 14:59 28.04.2020
4056 Rain 12 1005 100 8000 5.7 220 14:41 28.04.2020
4057 Rain 12 1005 100 8000 5.7 220 14:21 28.04.2020
4058 Rain 12 1005 100 8000 5.1 230 13:59 28.04.2020
4059 Rain 12 1004 100 6000 5.7 220 13:39 28.04.2020
4060 Rain 12 1004 100 6000 5.7 220 13:21 28.04.2020
4061 Rain 12 1004 100 6000 5.7 220 13:21 28.04.2020
4062 Drizzle 13 1004 100 5000 3.6 240 12:57 28.04.2020
4063 Rain 12 1004 100 3200 2.6 240 12:37 28.04.2020
4064 Mist 12 1004 100 3200 2.6 240 12:19 28.04.2020
4065 Drizzle 12 1004 100 5000 5.2 240 11:41 28.04.2020
4066 Drizzle 12 1004 100 5000 3.24 223 11:21 28.04.2020
4067 Rain 11 1004 100 3600 3.24 223 10:56 28.04.2020
4068 Rain 11 1004 93 10000 2.6 100 10:37 28.04.2020
4069 Rain 11 1004 93 10000 2.6 100 10:18 28.04.2020
4070 Drizzle 11 1004 81 10000 2.1 100 09:42 28.04.2020
4071 Drizzle 11 1004 81 10000 2.1 100 09:42 28.04.2020
4072 Drizzle 11 1004 81 10000 2.1 100 09:24 28.04.2020
4073 Clouds 11 1005 81 10000 1.5 80 08:54 28.04.2020
4074 Clouds 11 1005 93 10000 2.1 110 08:36 28.04.2020
4075 Clouds 10 1005 93 10000 2.1 110 08:18 28.04.2020
4076 Drizzle 10 1005 87 10000 1.25 156 07:41 28.04.2020
4077 Drizzle 10 1005 87 10000 1.35 143 07:18 28.04.2020
4078 Clouds 10 1005 76 10000 1.35 143 06:39 28.04.2020
4079 Clouds 10 1005 76 10000 1.5 120 05:51 28.04.2020
4080 Clouds 10 1005 76 10000 1.5 120 05:33 28.04.2020
4081 Clouds 9 1006 81 10000 1.5 145 04:33 28.04.2020
4082 Clouds 9 1006 81 10000 1.5 145 04:33 28.04.2020
4083 Clouds 9 1006 81 10000 1.5 145 04:33 28.04.2020
4084 Clear 10 1006 66 10000 1.44 156 02:38 28.04.2020
4085 Clear 12 1006 71 10000 1.05 134 01:51 28.04.2020
4086 Clear 10 1006 71 10000 0.99 125 01:22 28.04.2020
4087 Clear 11 1007 62 10000 2.1 110 00:32 28.04.2020
4088 Clear 12 1007 54 10000 0.91 130 23:58 27.04.2020
4089 Clear 12 1007 54 10000 0.91 130 23:40 27.04.2020
4090 Clear 12 1007 54 10000 1.02 132 23:20 27.04.2020
4091 Clear 15 1007 51 10000 1.02 132 22:43 27.04.2020
4092 Clear 13 1007 51 10000 1.29 167 22:23 27.04.2020
4093 Clear 14 1007 48 10000 1.29 167 21:57 27.04.2020
4094 Clear 15 1007 48 10000 1.29 167 21:39 27.04.2020
4095 Clear 15 1007 48 10000 1.34 187 21:20 27.04.2020
4096 Clear 17 1007 45 10000 1.34 187 20:58 27.04.2020
4097 Clear 17 1007 45 10000 1.34 187 20:39 27.04.2020
4098 Clear 18 1007 45 10000 1.51 210 20:21 27.04.2020
4099 Clear 19 1007 39 10000 2.6 300 19:57 27.04.2020
4100 Clear 19 1007 39 10000 2.6 300 19:37 27.04.2020
4101 Clear 20 1007 39 10000 2.6 300 19:19 27.04.2020
4102 Clouds 20 1007 39 10000 2.6 280 18:56 27.04.2020
4103 Clouds 20 1007 39 10000 2.6 280 18:37 27.04.2020
4104 Clouds 20 1007 39 10000 2.6 280 18:18 27.04.2020
4105 Clouds 19 1007 37 10000 3.6 240 17:41 27.04.2020
4106 Clouds 19 1007 37 10000 3.6 240 17:20 27.04.2020
4107 Clouds 19 1008 34 10000 3.6 240 16:55 27.04.2020
4108 Clouds 19 1008 34 10000 3.6 240 16:37 27.04.2020
4109 Clouds 20 1008 34 10000 3.6 240 16:19 27.04.2020
4110 Clouds 19 1008 32 10000 3.6 230 15:56 27.04.2020
4111 Clouds 19 1008 32 10000 3.6 230 15:37 27.04.2020
4112 Clouds 19 1008 32 10000 3.6 230 15:18 27.04.2020
4113 Clear 18 1008 29 10000 4.1 210 14:41 27.04.2020
4114 Clear 19 1008 29 10000 4.1 210 14:20 27.04.2020
4115 Clear 19 1009 34 10000 2.1 250 13:57 27.04.2020
4116 Clear 19 1009 34 10000 2.1 250 13:39 27.04.2020
4117 Clear 19 1009 34 10000 2.1 250 13:39 27.04.2020
4118 Clear 19 1009 34 10000 2.1 250 13:19 27.04.2020
4119 Clear 18 1009 42 10000 2.6 220 12:43 27.04.2020
4120 Clear 17 1009 42 10000 2.6 220 12:23 27.04.2020
4121 Clear 15 1009 50 10000 1.5 220 11:59 27.04.2020
4122 Clear 15 1009 50 10000 1.5 220 11:40 27.04.2020
4123 Clear 15 1009 50 10000 1.5 220 11:19 27.04.2020
4124 Clear 14 1009 62 10000 2.6 250 10:55 27.04.2020
4125 Clear 13 1009 62 10000 2.6 250 10:37 27.04.2020
4126 Clear 13 1009 62 10000 2.6 250 10:37 27.04.2020
4127 Clear 13 1009 62 10000 2.6 250 10:19 27.04.2020
4128 Clear 11 1009 57 10000 2.96 234 09:43 27.04.2020
4129 Clear 10 1009 57 10000 0.71 212 09:18 27.04.2020
4130 Clear 9 1009 70 10000 0.71 212 08:53 27.04.2020
4131 Clear 7 1009 70 10000 0.71 212 08:34 27.04.2020
4132 Clear 6 1009 70 10000 0.71 212 07:58 27.04.2020
4133 Clear 6 1009 70 10000 0.71 212 07:40 27.04.2020
4134 Clear 6 1009 70 10000 0.71 212 07:18 27.04.2020
4135 Clear 5 1009 75 10000 0.71 212 06:39 27.04.2020
4136 Clear 5 1009 75 10000 0.44 181 06:21 27.04.2020
4137 Clear 5 1009 80 10000 0.44 181 05:48 27.04.2020
4138 Clear 7 1009 57 10000 0.44 181 04:41 27.04.2020
4139 Clear 7 1009 57 10000 0.44 181 03:49 27.04.2020
4140 Clear 9 1009 57 10000 0.82 57 02:42 27.04.2020
4141 Clear 9 1010 61 10000 0.54 61 01:31 27.04.2020
4142 Clear 9 1010 50 10000 0.54 61 00:47 27.04.2020
4143 Clear 10 1010 50 10000 1.14 38 00:19 27.04.2020
4144 Clear 10 1009 47 10000 3.6 50 23:55 26.04.2020
4145 Clear 11 1009 47 10000 3.6 50 23:37 26.04.2020
4146 Clear 11 1009 47 10000 3.6 50 23:19 26.04.2020
4147 Clear 11 1009 47 10000 3.1 10 22:57 26.04.2020
4148 Clear 12 1009 47 10000 3.1 10 22:39 26.04.2020
4149 Clear 12 1009 47 10000 3.1 10 22:19 26.04.2020
4150 Clear 14 1009 63 10000 1.5 170 21:57 26.04.2020
4151 Clear 14 1009 65 10000 1.5 170 21:37 26.04.2020
4152 Clear 15 1009 55 10000 1.5 170 21:18 26.04.2020
4153 Clear 17 1008 29 10000 2.1 190 20:42 26.04.2020
4154 Clear 18 1008 29 10000 2.1 190 20:23 26.04.2020
4155 Clear 18 1009 27 10000 0.34 329 19:59 26.04.2020
4156 Clear 18 1009 27 10000 0.34 329 19:59 26.04.2020
4157 Clear 17 1009 27 10000 0.34 329 19:38 26.04.2020
4158 Clear 19 1009 27 10000 0.34 329 19:20 26.04.2020
4159 Clear 18 1009 25 10000 0.34 329 18:57 26.04.2020
4160 Clear 18 1009 25 10000 0.34 329 18:39 26.04.2020
4161 Clear 19 1009 25 10000 1.5 269 18:21 26.04.2020
4162 Clear 19 1009 25 10000 2.1 250 17:42 26.04.2020
4163 Clear 19 1009 25 10000 2.1 250 17:22 26.04.2020
4164 Clear 20 1009 25 10000 2.6 280 16:55 26.04.2020
4165 Clear 19 1009 25 10000 2.6 280 16:37 26.04.2020
4166 Clear 19 1009 25 10000 2.6 280 16:19 26.04.2020
4167 Clear 19 1010 25 10000 1.5 270 15:56 26.04.2020
4168 Clear 19 1010 25 10000 1.5 270 15:37 26.04.2020
4169 Clear 19 1010 25 10000 1.5 270 15:18 26.04.2020
4170 Clear 18 1010 29 10000 1.5 200 14:40 26.04.2020
4171 Clear 18 1010 29 10000 1.5 200 14:19 26.04.2020
4172 Clear 17 1011 35 10000 1.07 257 13:58 26.04.2020
4173 Clear 17 1011 35 10000 1.07 257 13:40 26.04.2020
4174 Clear 17 1011 35 10000 1.07 257 13:22 26.04.2020
4175 Clear 16 1011 38 10000 2.1 290 12:57 26.04.2020
4176 Clear 16 1011 38 10000 2.1 290 12:38 26.04.2020
4177 Clear 16 1011 38 10000 2.1 290 12:20 26.04.2020
4178 Clear 15 1011 47 10000 2.1 110 11:54 26.04.2020
4179 Clear 15 1011 47 10000 2.1 110 11:36 26.04.2020
4180 Clear 14 1011 47 10000 2.1 110 11:18 26.04.2020
4181 Clear 13 1011 54 10000 2.6 90 10:42 26.04.2020
4182 Clear 12 1011 54 10000 2.6 90 10:24 26.04.2020
4183 Clear 11 1011 66 10000 3.1 80 09:58 26.04.2020
4184 Clear 10 1011 66 10000 3.1 80 09:39 26.04.2020
4185 Clear 10 1011 66 10000 3.1 80 09:20 26.04.2020
4186 Clear 8 1011 80 10000 1.28 36 08:41 26.04.2020
4187 Clear 7 1011 80 10000 1.28 36 08:23 26.04.2020
4188 Clear 6 1011 68 10000 1.28 36 07:50 26.04.2020
4189 Clear 5 1011 68 10000 1.28 36 07:25 26.04.2020
4190 Clear 4 1011 68 10000 1.28 36 06:56 26.04.2020
4191 Clear 5 1011 68 10000 1.28 36 06:33 26.04.2020
4192 Clear 5 1011 75 10000 1.71 29 05:54 26.04.2020
4193 Clear 5 1011 75 10000 1.71 29 05:35 26.04.2020
4194 Clear 5 1011 75 10000 1.5 360 04:44 26.04.2020
4195 Clear 6 1011 74 10000 1.71 29 03:50 26.04.2020
4196 Clear 6 1011 75 10000 2.6 90 02:44 26.04.2020
4197 Clear 6 1011 75 10000 2.6 90 02:21 26.04.2020
4198 Clear 6 1011 70 10000 3.1 90 01:40 26.04.2020
4199 Clear 6 1011 70 10000 3.1 90 01:21 26.04.2020
4200 Clear 8 1011 57 10000 1.96 39 00:39 26.04.2020
4201 Clear 8 1011 57 10000 2.35 36 00:18 26.04.2020
4202 Clear 9 1011 57 10000 3.1 20 23:38 25.04.2020
4203 Clear 9 1011 57 10000 3.1 20 23:20 25.04.2020
4204 Clear 10 1011 53 10000 2.6 30 22:55 25.04.2020
4205 Clear 10 1011 53 10000 2.6 30 22:37 25.04.2020
4206 Clear 10 1011 53 10000 2.6 30 22:18 25.04.2020
4207 Clear 12 1011 50 10000 3.6 70 21:40 25.04.2020
4208 Clear 12 1011 50 10000 3.6 70 21:20 25.04.2020
4209 Clear 12 1011 50 10000 3.6 70 21:20 25.04.2020
4210 Clear 14 1010 41 10000 3.6 90 20:58 25.04.2020
4211 Clear 14 1010 41 10000 3.6 90 20:40 25.04.2020
4212 Clear 15 1010 41 10000 3.6 90 20:21 25.04.2020
4213 Clear 16 1010 38 10000 3.1 120 19:55 25.04.2020
4214 Clear 16 1010 38 10000 3.1 120 19:37 25.04.2020
4215 Clear 16 1010 38 10000 3.1 120 19:18 25.04.2020
4216 Clear 17 1010 38 10000 2.46 39 18:39 25.04.2020
4217 Clear 17 1010 38 10000 2.44 29 18:21 25.04.2020
4218 Clear 18 1011 36 10000 4.1 110 17:58 25.04.2020
4219 Clear 17 1011 36 10000 4.1 110 17:38 25.04.2020
4220 Clear 17 1011 36 10000 4.1 110 17:19 25.04.2020
4221 Clear 17 1011 36 10000 4.1 110 17:19 25.04.2020
4222 Clear 18 1011 36 10000 2.6 140 16:56 25.04.2020
4223 Clear 17 1011 36 10000 2.6 140 16:38 25.04.2020
4224 Clear 16 1011 36 10000 2.6 140 16:19 25.04.2020
4225 Clear 17 1012 41 10000 2.6 60 15:41 25.04.2020
4226 Clear 16 1012 41 10000 2.6 60 15:21 25.04.2020
4227 Clear 15 1012 44 10000 4.6 90 14:58 25.04.2020
4228 Clear 15 1012 44 10000 4.6 90 14:39 25.04.2020
4229 Clear 14 1012 44 10000 4.6 90 14:20 25.04.2020
4230 Clear 14 1013 54 10000 2.1 90 13:54 25.04.2020
4231 Clear 14 1013 54 10000 2.1 90 13:36 25.04.2020
4232 Clear 14 1013 54 10000 2.1 90 13:18 25.04.2020
4233 Clear 12 1013 57 10000 2.6 90 12:42 25.04.2020
4234 Clear 12 1013 57 10000 2.6 90 12:21 25.04.2020
4235 Clear 11 1014 66 10000 2.6 60 11:59 25.04.2020
4236 Clear 11 1014 66 10000 2.6 60 11:41 25.04.2020
4237 Clear 10 1014 66 10000 2.6 60 11:23 25.04.2020
4238 Clouds 9 1014 75 10000 4.6 10 10:54 25.04.2020
4239 Clouds 8 1014 75 10000 4.6 10 10:36 25.04.2020
4240 Clouds 8 1014 75 10000 4.6 10 10:18 25.04.2020
4241 Clear 8 1014 75 10000 3.6 30 09:41 25.04.2020
4242 Clear 8 1014 75 10000 3.6 30 09:21 25.04.2020
4243 Clear 7 1013 81 10000 3.1 10 08:41 25.04.2020
4244 Clear 7 1013 81 10000 3.1 10 08:22 25.04.2020
4245 Clear 6 1013 70 10000 2.33 24 07:59 25.04.2020
4246 Clear 6 1013 70 10000 2.33 24 07:41 25.04.2020
4247 Clear 5 1012 75 10000 1.5 310 06:57 25.04.2020
4248 Clear 5 1012 75 10000 1.5 310 06:38 25.04.2020
4249 Clear 6 1012 65 10000 2.1 4 05:42 25.04.2020
4250 Clear 6 1012 65 10000 2.1 8 05:24 25.04.2020
4251 Clear 8 1012 61 10000 2.1 340 03:56 25.04.2020
4252 Clear 9 1012 61 10000 2.1 350 02:38 25.04.2020
4253 Clear 9 1012 61 10000 2.1 350 02:18 25.04.2020
4254 Clear 9 1012 53 10000 1.9 349 01:45 25.04.2020
4255 Clear 10 1012 53 10000 1.9 349 01:19 25.04.2020
4256 Clear 10 1012 54 10000 2.1 340 00:42 25.04.2020
4257 Clear 10 1012 54 10000 2.1 340 00:18 25.04.2020
4258 Clear 11 1012 54 10000 1.67 330 23:41 24.04.2020
4259 Clear 12 1012 54 10000 1.67 330 23:21 24.04.2020
4260 Clear 13 1012 50 10000 3.1 330 22:41 24.04.2020
4261 Clear 13 1012 50 10000 3.1 330 22:21 24.04.2020
4262 Clear 15 1012 38 10000 2.6 310 21:59 24.04.2020
4263 Clear 15 1012 38 10000 2.6 310 21:59 24.04.2020
4264 Clear 14 1012 38 10000 2.6 310 21:41 24.04.2020
4265 Clear 16 1012 38 10000 2.6 310 21:23 24.04.2020
4266 Clear 17 1011 29 10000 4.1 290 21:00 24.04.2020
4267 Clear 17 1011 29 10000 4.1 290 20:41 24.04.2020
4268 Clear 18 1011 29 10000 4.1 290 20:19 24.04.2020
4269 Clear 18 1011 29 10000 4.1 290 20:19 24.04.2020
4270 Clear 19 1011 28 10000 4.6 310 19:58 24.04.2020
4271 Clear 19 1011 28 10000 4.6 310 19:38 24.04.2020
4272 Clear 20 1011 28 10000 4.6 310 19:20 24.04.2020
4273 Clear 20 1011 22 10000 5.1 320 18:43 24.04.2020
4274 Clear 20 1011 22 10000 5.1 320 18:25 24.04.2020
4275 Clear 21 1012 21 10000 4.6 310 17:54 24.04.2020
4276 Clear 21 1012 21 10000 4.6 310 17:36 24.04.2020
4277 Clear 21 1012 21 10000 4.6 310 17:18 24.04.2020
4278 Clear 21 1012 21 10000 5.7 290 16:55 24.04.2020
4279 Clear 21 1012 21 10000 5.7 290 16:37 24.04.2020
4280 Clear 21 1012 21 10000 5.7 290 16:19 24.04.2020
4281 Clouds 21 1013 21 10000 5.1 300 15:40 24.04.2020
4282 Clouds 21 1013 21 10000 5.1 300 15:20 24.04.2020
4283 Clouds 21 1013 22 10000 3.6 280 14:41 24.04.2020
4284 Clouds 21 1013 22 10000 3.6 280 14:22 24.04.2020
4285 Clear 20 1013 41 10000 4.6 320 13:59 24.04.2020
4286 Clear 20 1013 41 10000 4.6 320 13:41 24.04.2020
4287 Clear 20 1013 41 10000 4.6 320 13:20 24.04.2020
4288 Clear 19 1014 34 10000 5.1 290 12:57 24.04.2020
4289 Clear 19 1014 34 10000 5.1 290 12:39 24.04.2020
4290 Clear 18 1014 34 10000 5.1 290 12:19 24.04.2020
4291 Clear 17 1014 51 10000 2.6 260 11:43 24.04.2020
4292 Clear 17 1014 51 10000 2.6 260 11:22 24.04.2020
4293 Clear 16 1014 58 10000 2.1 250 10:57 24.04.2020
4294 Clear 14 1014 58 10000 2.1 250 10:38 24.04.2020
4295 Clear 14 1014 58 10000 2.1 250 10:20 24.04.2020
4296 Clear 13 1014 61 10000 1.5 280 09:55 24.04.2020
4297 Clear 12 1014 61 10000 1.5 280 09:36 24.04.2020
4298 Clear 12 1014 61 10000 1.5 280 09:18 24.04.2020
4299 Clear 9 1014 75 10000 2.1 250 08:42 24.04.2020
4300 Clear 8 1014 75 10000 2.1 250 08:20 24.04.2020
4301 Clear 7 1014 75 10000 0.99 244 07:56 24.04.2020
4302 Clear 8 1014 75 10000 0.99 244 07:38 24.04.2020
4303 Clear 7 1014 75 10000 0.99 244 07:19 24.04.2020
4304 Clear 7 1014 70 10000 0.99 244 06:43 24.04.2020
4305 Clear 8 1015 65 10000 0.78 237 05:51 24.04.2020
4306 Clear 8 1015 65 10000 0.78 237 05:20 24.04.2020
4307 Clear 9 1015 57 10000 1.5 120 03:34 24.04.2020
4308 Clear 9 1016 57 10000 0.27 223 02:50 24.04.2020
4309 Clear 9 1016 57 10000 0.18 196 02:30 24.04.2020
4310 Clear 10 1016 57 10000 0.18 196 01:46 24.04.2020
4311 Clear 11 1016 46 10000 0.18 196 00:54 24.04.2020
4312 Clear 12 1016 46 10000 0.55 82 00:19 24.04.2020
4313 Clear 13 1017 41 10000 2.6 90 23:47 23.04.2020
4314 Clear 13 1017 41 10000 2.6 90 23:27 23.04.2020
4315 Clear 14 1017 38 10000 2.6 90 22:58 23.04.2020
4316 Clear 14 1017 38 10000 2.6 90 22:39 23.04.2020
4317 Clear 14 1017 38 10000 2.6 90 22:20 23.04.2020
4318 Clear 15 1017 59 10000 2.6 100 21:57 23.04.2020
4319 Clear 16 1017 59 10000 2.6 100 21:39 23.04.2020
4320 Clear 16 1017 59 10000 2.6 100 21:39 23.04.2020
4321 Clear 16 1017 55 10000 2.6 100 21:20 23.04.2020
4322 Clear 18 1016 55 10000 2.6 90 20:58 23.04.2020
4323 Clear 19 1016 55 10000 2.6 90 20:40 23.04.2020
4324 Clear 19 1016 55 10000 2.6 90 20:20 23.04.2020
4325 Clear 20 1017 28 10000 2.6 130 19:56 23.04.2020
4326 Clear 19 1017 28 10000 2.6 130 19:38 23.04.2020
4327 Clear 21 1017 28 10000 2.6 130 19:20 23.04.2020
4328 Clear 20 1017 26 10000 2.6 90 18:55 23.04.2020
4329 Clear 20 1017 26 10000 2.6 90 18:36 23.04.2020
4330 Clear 21 1017 26 10000 2.6 90 18:18 23.04.2020
4331 Clear 21 1017 37 10000 3.1 40 17:40 23.04.2020
4332 Clear 22 1017 37 10000 3.1 40 17:22 23.04.2020
4333 Haze 22 1018 22 10000 2.6 50 16:57 23.04.2020
4334 Haze 22 1018 22 10000 2.6 50 16:39 23.04.2020
4335 Haze 22 1018 22 10000 2.6 50 16:19 23.04.2020
4336 Clear 21 1018 28 10000 4.1 90 15:42 23.04.2020
4337 Clear 20 1018 28 10000 4.1 90 15:23 23.04.2020
4338 Clear 21 1019 37 10000 5.7 100 14:58 23.04.2020
4339 Clear 21 1019 39 10000 5.7 100 14:38 23.04.2020
4340 Clear 20 1019 39 10000 5.7 100 14:20 23.04.2020
4341 Clear 20 1019 29 10000 4.1 80 13:56 23.04.2020
4342 Clear 20 1019 29 10000 4.1 80 13:38 23.04.2020
4343 Clear 20 1019 29 10000 4.1 80 13:38 23.04.2020
4344 Clear 19 1019 29 10000 4.1 80 13:19 23.04.2020
4345 Clear 18 1020 34 10000 4.1 100 12:44 23.04.2020
4346 Clear 17 1020 34 10000 4.1 100 12:26 23.04.2020
4347 Clear 16 1020 38 10000 5.1 100 11:59 23.04.2020
4348 Clear 16 1020 38 10000 5.1 100 11:40 23.04.2020
4349 Clear 16 1020 38 10000 5.1 100 11:22 23.04.2020
4350 Clear 15 1020 41 10000 6.2 70 10:42 23.04.2020
4351 Clear 15 1020 41 10000 6.2 70 10:24 23.04.2020
4352 Clear 14 1020 48 10000 6.7 70 09:58 23.04.2020
4353 Clear 13 1020 48 10000 6.7 70 09:37 23.04.2020
4354 Clear 12 1020 68 10000 6.7 70 09:18 23.04.2020
4355 Clear 11 1020 68 10000 7.2 70 08:46 23.04.2020
4356 Clear 11 1020 68 10000 7.2 70 08:27 23.04.2020
4357 Clear 9 1019 68 10000 7.7 70 07:44 23.04.2020
4358 Clear 9 1019 68 10000 7.7 70 07:24 23.04.2020
4359 Clear 8 1019 68 10000 6.7 60 06:50 23.04.2020
4360 Clear 8 1019 73 10000 6.7 60 06:28 23.04.2020
4361 Clear 10 1019 73 10000 6.7 70 05:32 23.04.2020
4362 Clear 10 1019 73 10000 5.7 70 04:54 23.04.2020
4363 Clear 11 1019 69 10000 6.7 70 02:40 23.04.2020
4364 Clear 11 1019 66 10000 6.7 70 02:22 23.04.2020
4365 Clear 11 1019 66 10000 4.6 50 01:35 23.04.2020
4366 Clear 12 1019 66 10000 2.6 80 00:50 23.04.2020
4367 Clear 13 1019 60 10000 2.6 80 00:25 23.04.2020
4368 Clear 14 1018 60 10000 5.7 70 23:53 22.04.2020
4369 Clear 14 1018 60 10000 5.7 70 23:26 22.04.2020
4370 Clear 15 1018 60 10000 5.1 60 22:59 22.04.2020
4371 Clear 14 1018 60 10000 5.1 60 22:39 22.04.2020
4372 Clear 14 1018 60 10000 5.1 60 22:20 22.04.2020
4373 Clear 15 1018 60 10000 6.7 50 21:58 22.04.2020
4374 Clear 15 1018 60 10000 6.7 50 21:40 22.04.2020
4375 Clear 15 1018 55 10000 6.7 50 21:21 22.04.2020
4376 Clear 17 1017 55 10000 5.7 50 20:56 22.04.2020
4377 Clear 18 1017 55 10000 5.7 50 20:37 22.04.2020
4378 Clear 19 1017 55 10000 5.7 50 20:18 22.04.2020
4379 Clear 19 1017 28 10000 7.2 50 19:56 22.04.2020
4380 Clear 19 1017 28 10000 7.2 50 19:37 22.04.2020
4381 Clear 21 1017 28 10000 7.2 50 19:18 22.04.2020
4382 Clear 20 1016 55 10000 5.7 100 18:56 22.04.2020
4383 Clear 20 1016 55 10000 5.7 100 18:37 22.04.2020
4384 Clear 21 1016 39 10000 5.7 100 18:19 22.04.2020
4385 Clear 21 1016 39 10000 4.1 90 17:43 22.04.2020
4386 Clear 21 1016 39 10000 4.1 90 17:43 22.04.2020
4387 Clear 21 1016 39 10000 4.1 90 17:25 22.04.2020
4388 Clear 21 1017 21 10000 6.7 110 16:56 22.04.2020
4389 Clear 21 1017 21 10000 6.7 110 16:38 22.04.2020
4390 Clear 21 1017 21 10000 6.7 110 16:19 22.04.2020
4391 Clear 20 1017 22 10000 7.7 80 15:41 22.04.2020
4392 Clear 20 1017 22 10000 7.7 80 15:22 22.04.2020
4393 Clear 20 1017 20 10000 8.2 70 14:58 22.04.2020
4394 Clear 19 1017 22 10000 9.8 80 14:38 22.04.2020
4395 Clear 19 1017 22 10000 9.8 80 14:19 22.04.2020
4396 Clear 18 1017 23 10000 7.7 70 13:45 22.04.2020
4397 Clear 18 1017 23 10000 7.7 70 13:21 22.04.2020
4398 Clear 17 1017 36 10000 8.7 70 12:57 22.04.2020
4399 Clear 16 1017 36 10000 8.7 70 12:39 22.04.2020
4400 Clear 16 1017 36 10000 8.7 70 12:21 22.04.2020
4401 Clear 14 1017 46 10000 8.2 50 11:40 22.04.2020
4402 Clear 15 1017 46 10000 8.2 50 11:20 22.04.2020
4403 Clear 14 1017 37 10000 6.7 90 10:59 22.04.2020
4404 Clear 13 1017 37 10000 6.7 90 10:39 22.04.2020
4405 Clear 13 1017 37 10000 6.7 90 10:20 22.04.2020
4406 Clear 12 1017 43 10000 8.7 80 09:39 22.04.2020
4407 Clear 10 1017 43 10000 8.7 80 09:21 22.04.2020
4408 Clear 10 1017 43 10000 8.7 80 09:21 22.04.2020
4409 Clear 9 1017 49 10000 7.7 70 08:58 22.04.2020
4410 Clear 9 1017 49 10000 7.7 70 08:40 22.04.2020
4411 Clear 9 1017 49 10000 7.7 70 08:21 22.04.2020
4412 Clear 8 1016 52 10000 7.2 70 07:53 22.04.2020
4413 Clear 9 1016 52 10000 7.2 70 07:28 22.04.2020
4414 Clear 8 1016 52 10000 7.2 60 06:53 22.04.2020
4415 Clear 8 1016 52 10000 7.2 60 06:18 22.04.2020
4416 Clear 9 1016 49 10000 8.2 60 05:37 22.04.2020
4417 Clear 9 1016 62 10000 6.2 60 04:20 22.04.2020
4418 Clear 9 1016 62 10000 6.2 60 04:20 22.04.2020
4419 Clear 11 1016 43 10000 8.2 60 02:50 22.04.2020
4420 Clear 11 1016 56 10000 8.2 70 01:53 22.04.2020
4421 Clear 11 1016 56 10000 8.2 70 01:27 22.04.2020
4422 Clear 12 1016 56 10000 8.2 60 00:57 22.04.2020
4423 Clear 12 1016 56 10000 8.2 60 00:37 22.04.2020
4424 Clear 13 1016 49 10000 8.2 60 00:19 22.04.2020
4425 Clear 13 1015 49 10000 7.7 60 23:41 21.04.2020
4426 Clear 13 1015 49 10000 7.7 60 23:19 21.04.2020
4427 Clear 14 1015 49 10000 8.7 60 22:40 21.04.2020
4428 Clear 14 1015 49 10000 8.7 60 22:22 21.04.2020
4429 Clear 15 1015 49 10000 8.2 60 21:59 21.04.2020
4430 Clear 15 1015 49 10000 8.2 60 21:41 21.04.2020
4431 Clear 15 1015 51 10000 8.2 60 21:23 21.04.2020
4432 Clear 16 1014 29 10000 7.2 70 20:57 21.04.2020
4433 Clear 17 1014 29 10000 7.2 70 20:39 21.04.2020
4434 Clear 17 1014 29 10000 7.2 70 20:20 21.04.2020
4435 Clear 18 1013 20 10000 8.7 90 19:41 21.04.2020
4436 Clear 19 1013 20 10000 8.7 90 19:20 21.04.2020
4437 Clear 19 1013 19 10000 8.2 90 18:58 21.04.2020
4438 Clear 19 1013 19 10000 8.2 90 18:39 21.04.2020
4439 Clear 19 1013 19 10000 8.2 90 18:19 21.04.2020
4440 Clear 19 1013 19 10000 8.2 90 17:59 21.04.2020
4441 Clear 20 1013 19 10000 8.2 90 17:38 21.04.2020
4442 Clear 20 1013 19 10000 8.2 90 17:19 21.04.2020
4443 Clear 20 1013 19 10000 10.3 70 16:39 21.04.2020
4444 Clear 19 1013 19 10000 10.3 70 16:20 21.04.2020
4445 Clear 19 1013 20 10000 10.8 70 15:59 21.04.2020
4446 Clear 18 1013 20 10000 10.8 70 15:41 21.04.2020
4447 Clear 18 1013 20 10000 10.8 70 15:23 21.04.2020
4448 Clear 18 1014 23 10000 10.8 70 14:58 21.04.2020
4449 Clear 18 1014 23 10000 10.8 70 14:40 21.04.2020
4450 Clear 17 1014 23 10000 10.8 70 14:22 21.04.2020
4451 Clear 17 1014 25 10000 9.3 100 13:54 21.04.2020
4452 Clear 17 1014 25 10000 9.3 100 13:36 21.04.2020
4453 Clear 17 1014 25 10000 9.3 100 13:18 21.04.2020
4454 Clear 15 1014 33 10000 10.3 80 12:38 21.04.2020
4455 Clear 15 1014 33 10000 10.3 80 12:38 21.04.2020
4456 Clear 15 1014 33 10000 10.3 80 12:19 21.04.2020
4457 Clear 13 1014 37 10000 9.3 80 11:57 21.04.2020
4458 Clear 13 1014 37 10000 9.3 80 11:38 21.04.2020
4459 Clear 13 1014 37 10000 9.3 80 11:19 21.04.2020
4460 Clear 12 1014 40 10000 8.7 80 10:58 21.04.2020
4461 Clear 12 1014 40 10000 8.7 80 10:39 21.04.2020
4462 Clear 12 1014 40 10000 8.7 80 10:39 21.04.2020
4463 Clear 12 1014 40 10000 8.7 80 10:20 21.04.2020
4464 Clear 11 1014 45 10000 10.3 80 09:55 21.04.2020
4465 Clear 10 1014 45 10000 10.3 80 09:36 21.04.2020
4466 Clear 9 1014 45 10000 10.3 80 09:18 21.04.2020
4467 Clear 8 1014 49 10000 10.3 70 08:43 21.04.2020
4468 Clear 8 1014 49 10000 10.3 70 08:24 21.04.2020
4469 Clear 7 1014 52 10000 9.3 60 07:50 21.04.2020
4470 Clear 8 1014 52 10000 9.3 60 07:27 21.04.2020
4471 Clear 8 1013 48 10000 8.7 70 06:50 21.04.2020
4472 Clear 8 1013 48 10000 8.7 70 06:31 21.04.2020
4473 Clear 8 1014 48 10000 7.7 70 05:49 21.04.2020
4474 Clear 8 1014 45 10000 8.7 60 04:55 21.04.2020
4475 Clear 8 1014 45 10000 8.2 60 03:45 21.04.2020
4476 Clear 9 1014 42 10000 10.3 70 02:40 21.04.2020
4477 Clear 10 1015 39 10000 9.3 70 01:30 21.04.2020
4478 Clear 11 1015 40 10000 10.3 60 00:38 21.04.2020
4479 Clear 11 1015 40 10000 10.3 70 23:58 20.04.2020
4480 Clear 11 1015 40 10000 10.3 70 23:40 20.04.2020
4481 Clear 11 1015 40 10000 10.3 70 23:19 20.04.2020
4482 Clear 12 1014 40 10000 9.8 70 22:54 20.04.2020
4483 Clear 13 1014 40 10000 9.8 70 22:36 20.04.2020
4484 Clear 13 1014 40 10000 9.8 70 22:18 20.04.2020
4485 Clear 14 1014 37 10000 8.7 70 21:54 20.04.2020
4486 Clear 14 1014 37 10000 8.7 70 21:36 20.04.2020
4487 Clear 14 1014 37 10000 8.7 70 21:18 20.04.2020
4488 Clear 15 1013 33 10000 7.7 60 20:41 20.04.2020
4489 Clear 15 1013 33 10000 7.7 60 20:20 20.04.2020
4490 Clear 16 1013 23 10000 9.8 90 19:59 20.04.2020
4491 Clear 17 1013 23 10000 9.8 90 19:40 20.04.2020
4492 Clear 17 1013 23 10000 9.8 90 19:22 20.04.2020
4493 Clear 17 1013 22 10000 11.3 90 18:56 20.04.2020
4494 Clear 17 1013 22 10000 11.3 90 18:38 20.04.2020
4495 Clear 17 1013 22 10000 11.3 90 18:38 20.04.2020
4496 Clear 18 1013 22 10000 11.3 90 18:19 20.04.2020
4497 Clear 18 1013 25 10000 9.8 70 17:54 20.04.2020
4498 Clear 18 1013 25 10000 9.8 70 17:36 20.04.2020
4499 Clear 18 1012 25 10000 9.3 60 17:18 20.04.2020
4500 Clear 18 1014 29 10000 8.2 70 16:41 20.04.2020
4501 Clear 17 1014 29 10000 8.2 70 16:20 20.04.2020
4502 Clear 18 1014 39 10000 6.2 80 15:56 20.04.2020
4503 Clear 17 1014 39 10000 6.2 80 15:38 20.04.2020
4504 Clear 17 1014 38 10000 6.2 80 15:19 20.04.2020
4505 Clear 17 1014 29 10000 9.3 80 14:42 20.04.2020
4506 Clear 16 1014 29 10000 9.3 80 14:20 20.04.2020
4507 Clear 16 1015 26 10000 7.7 80 13:58 20.04.2020
4508 Clear 16 1015 26 10000 7.7 80 13:39 20.04.2020
4509 Clear 16 1015 26 10000 7.7 80 13:20 20.04.2020
4510 Clear 14 1015 30 10000 10.8 50 12:44 20.04.2020
4511 Clear 13 1015 30 10000 10.8 50 12:24 20.04.2020
4512 Clear 12 1015 46 10000 7.7 60 11:58 20.04.2020
4513 Clear 12 1015 46 10000 7.7 60 11:38 20.04.2020
4514 Clear 13 1015 46 10000 7.7 60 11:19 20.04.2020
4515 Clear 12 1016 50 10000 9.3 40 10:55 20.04.2020
4516 Clear 12 1016 50 10000 9.3 40 10:37 20.04.2020
4517 Clear 12 1016 50 10000 9.3 40 10:18 20.04.2020
4518 Clear 10 1016 51 10000 8.7 50 09:44 20.04.2020
4519 Clear 8 1016 68 10000 8.7 50 09:26 20.04.2020
4520 Clear 7 1016 56 10000 7.7 50 08:59 20.04.2020
4521 Clear 7 1016 56 10000 7.7 50 08:40 20.04.2020
4522 Clear 7 1016 56 10000 7.7 50 08:19 20.04.2020
4523 Clear 7 1016 56 10000 8.2 40 07:52 20.04.2020
4524 Clear 7 1016 56 10000 8.2 40 07:29 20.04.2020
4525 Clear 6 1016 56 10000 6.7 50 06:55 20.04.2020
4526 Clear 6 1016 56 10000 6.7 50 06:35 20.04.2020
4527 Clear 7 1016 52 10000 7.2 40 05:38 20.04.2020
4528 Clear 8 1016 52 10000 6.7 40 03:45 20.04.2020
4529 Clear 9 1016 64 10000 6.7 40 02:44 20.04.2020
4530 Clear 9 1017 57 10000 6.7 50 01:37 20.04.2020
4531 Clear 9 1017 57 10000 6.7 50 01:19 20.04.2020
4532 Clear 10 1016 57 10000 6.2 50 00:35 20.04.2020
4533 Clear 11 1016 57 10000 7.2 50 23:57 19.04.2020
4534 Clear 11 1016 57 10000 7.2 50 23:38 19.04.2020
4535 Clear 11 1016 57 10000 7.2 50 23:19 19.04.2020
4536 Clear 11 1016 62 10000 7.2 50 22:40 19.04.2020
4537 Clear 11 1016 62 10000 7.2 50 22:22 19.04.2020
4538 Clear 12 1016 62 10000 7.2 50 21:58 19.04.2020
4539 Clear 12 1016 62 10000 7.2 50 21:40 19.04.2020
4540 Clear 12 1016 62 10000 7.2 50 21:21 19.04.2020
4541 Clouds 13 1015 67 10000 7.7 50 20:55 19.04.2020
4542 Clouds 14 1015 67 10000 7.7 50 20:37 19.04.2020
4543 Clouds 14 1015 67 10000 7.7 50 20:19 19.04.2020
4544 Clouds 15 1015 62 10000 6.7 40 19:41 19.04.2020
4545 Clouds 15 1015 62 10000 6.7 40 19:23 19.04.2020
4546 Clouds 15 1015 62 10000 6.2 50 18:58 19.04.2020
4547 Clouds 15 1015 62 10000 6.7 40 18:40 19.04.2020
4548 Clouds 16 1015 62 10000 6.7 40 18:21 19.04.2020
4549 Clouds 16 1015 63 10000 6.7 40 17:59 19.04.2020
4550 Clouds 16 1015 63 10000 6.7 40 17:41 19.04.2020
4551 Clouds 17 1015 63 10000 6.7 40 17:22 19.04.2020
4552 Clouds 17 1015 59 10000 5.7 50 16:58 19.04.2020
4553 Clouds 17 1015 59 10000 5.7 50 16:39 19.04.2020
4554 Clouds 17 1015 59 10000 5.7 50 16:21 19.04.2020
4555 Clouds 16 1016 67 10000 5.1 10 15:54 19.04.2020
4556 Clouds 16 1016 67 10000 5.1 10 15:36 19.04.2020
4557 Clouds 16 1016 67 10000 5.1 10 15:36 19.04.2020
4558 Clouds 16 1016 67 10000 5.1 10 15:18 19.04.2020
4559 Clouds 16 1016 67 10000 5.1 30 14:38 19.04.2020
4560 Clouds 16 1016 67 10000 5.1 30 14:20 19.04.2020
4561 Clouds 15 1016 76 10000 4.1 50 13:56 19.04.2020
4562 Clouds 15 1017 82 10000 3.1 40 13:36 19.04.2020
4563 Clouds 15 1017 82 10000 3.1 40 13:18 19.04.2020
4564 Clouds 14 1017 93 10000 4.1 60 12:43 19.04.2020
4565 Clouds 13 1017 93 10000 4.1 60 12:24 19.04.2020
4566 Clouds 12 1017 100 10000 2.1 60 11:39 19.04.2020
4567 Clouds 12 1017 100 10000 2.1 60 11:20 19.04.2020
4568 Clouds 12 1017 100 10000 2.1 70 10:59 19.04.2020
4569 Mist 12 1017 100 9000 2.1 80 10:41 19.04.2020
4570 Mist 12 1017 100 9000 2.1 80 10:20 19.04.2020
4571 Clouds 11 1017 100 10000 2.88 61 09:56 19.04.2020
4572 Mist 10 1017 100 9000 2.88 61 09:38 19.04.2020
4573 Mist 10 1017 100 9000 1.83 22 09:18 19.04.2020
4574 Mist 10 1017 100 9000 1.83 22 08:40 19.04.2020
4575 Mist 9 1017 100 9000 1.83 22 08:21 19.04.2020
4576 Clouds 9 1016 100 10000 2.1 40 07:45 19.04.2020
4577 Clouds 9 1016 100 10000 2.1 40 07:25 19.04.2020
4578 Mist 8 1016 100 1600 1.87 22 06:56 19.04.2020
4579 Mist 8 1017 100 1800 0.94 358 06:22 19.04.2020
4580 Clear 9 1016 100 10000 1.1 9 04:57 19.04.2020
4581 Clear 9 1016 100 10000 1.1 9 03:40 19.04.2020
4582 Mist 10 1016 100 2000 1.32 346 02:23 19.04.2020
4583 Mist 10 1016 100 8000 1.32 346 01:58 19.04.2020
4584 Mist 10 1016 100 6000 1.32 346 01:22 19.04.2020
4585 Clear 11 1017 93 10000 2.1 20 00:41 19.04.2020
4586 Clear 11 1017 93 10000 2.1 20 00:19 19.04.2020
4587 Clouds 12 1017 87 10000 1.5 360 23:43 18.04.2020
4588 Clouds 12 1017 87 10000 1.5 360 23:19 18.04.2020
4589 Clear 13 1016 82 10000 1.5 340 22:55 18.04.2020
4590 Clear 12 1016 82 10000 1.5 340 22:37 18.04.2020
4591 Clear 13 1016 82 10000 1.5 340 22:18 18.04.2020
4592 Clear 13 1016 87 10000 1.46 339 21:42 18.04.2020
4593 Clear 15 1016 87 10000 1.99 310 21:22 18.04.2020
4594 Clouds 16 1016 82 10000 1.92 309 20:59 18.04.2020
4595 Clouds 15 1016 82 10000 1.92 309 20:40 18.04.2020
4596 Clouds 16 1016 82 10000 1.92 309 20:21 18.04.2020
4597 Rain 17 1016 82 10000 2.1 290 19:43 18.04.2020
4598 Rain 16 1016 82 10000 2.1 290 19:25 18.04.2020
4599 Thunderstorm 16 1016 72 9000 7.2 310 18:58 18.04.2020
4600 Clouds 20 1015 49 10000 4.1 270 18:36 18.04.2020
4601 Clouds 19 1015 49 10000 4.1 270 18:18 18.04.2020
4602 Clouds 19 1015 56 10000 4.6 260 17:41 18.04.2020
4603 Clouds 19 1015 56 10000 4.6 260 17:41 18.04.2020
4604 Clouds 19 1015 56 10000 4.6 260 17:21 18.04.2020
4605 Clouds 18 1015 49 10000 4.6 230 16:56 18.04.2020
4606 Clouds 18 1015 55 10000 3.1 290 16:37 18.04.2020
4607 Clouds 18 1015 55 10000 3.1 290 16:19 18.04.2020
4608 Clouds 18 1016 55 10000 5.1 250 15:38 18.04.2020
4609 Clouds 18 1016 55 10000 5.1 250 15:20 18.04.2020
4610 Clouds 21 1015 46 10000 4.1 230 14:46 18.04.2020
4611 Clouds 21 1015 46 10000 4.1 230 14:27 18.04.2020
4612 Clouds 20 1015 49 10000 3.6 240 13:56 18.04.2020
4613 Clouds 20 1015 49 10000 3.6 240 13:38 18.04.2020
4614 Clouds 20 1015 49 10000 3.6 240 13:18 18.04.2020
4615 Clouds 18 1015 59 10000 2.1 240 12:41 18.04.2020
4616 Clouds 18 1015 59 10000 2.1 240 12:22 18.04.2020
4617 Clouds 17 1015 63 10000 2.1 210 11:43 18.04.2020
4618 Clouds 17 1015 63 10000 2.1 210 11:25 18.04.2020
4619 Clouds 15 1015 71 10000 2.68 267 10:58 18.04.2020
4620 Clouds 15 1015 71 10000 2.68 267 10:39 18.04.2020
4621 Clouds 15 1015 71 10000 2.68 267 10:19 18.04.2020
4622 Clear 13 1015 71 10000 2.68 267 09:58 18.04.2020
4623 Clear 13 1015 71 10000 2.68 267 09:38 18.04.2020
4624 Clear 13 1015 71 10000 1.61 212 09:20 18.04.2020
4625 Clouds 11 1015 81 10000 2.1 220 08:39 18.04.2020
4626 Clouds 11 1015 81 10000 2.1 220 08:21 18.04.2020
4627 Clouds 10 1015 76 10000 1.61 212 07:41 18.04.2020
4628 Clouds 10 1015 76 10000 1.61 212 07:19 18.04.2020
4629 Clear 10 1014 76 10000 1.61 212 06:38 18.04.2020
4630 Clouds 10 1014 76 10000 0.57 169 05:48 18.04.2020
4631 Clouds 10 1014 71 10000 0.57 169 04:54 18.04.2020
4632 Clouds 11 1014 71 10000 0.57 169 04:29 18.04.2020
4633 Clear 11 1014 62 10000 0.51 117 02:59 18.04.2020
4634 Clear 11 1014 62 10000 0.51 117 02:40 18.04.2020
4635 Clear 11 1014 62 10000 0.51 158 02:20 18.04.2020
4636 Clear 12 1014 62 10000 0.51 158 01:37 18.04.2020
4637 Clear 12 1014 58 10000 0.51 158 00:54 18.04.2020
4638 Clear 12 1014 58 10000 0.54 117 00:24 18.04.2020
4639 Clear 13 1014 51 10000 2.6 10 23:58 17.04.2020
4640 Clear 14 1014 51 10000 2.6 10 23:40 17.04.2020
4641 Clear 14 1014 51 10000 2.6 10 23:19 17.04.2020
4642 Clear 15 1014 55 10000 2.6 360 22:58 17.04.2020
4643 Clear 15 1014 55 10000 2.6 360 22:58 17.04.2020
4644 Clear 15 1014 55 10000 2.6 360 22:40 17.04.2020
4645 Clear 15 1014 55 10000 2.6 360 22:20 17.04.2020
4646 Clouds 17 1014 45 10000 2.1 210 21:57 17.04.2020
4647 Clouds 17 1014 45 10000 2.1 210 21:38 17.04.2020
4648 Clouds 18 1014 45 10000 2.1 210 21:18 17.04.2020
4649 Clear 19 1014 45 10000 1.5 220 20:55 17.04.2020
4650 Clear 20 1014 45 10000 1.5 220 20:36 17.04.2020
4651 Clear 19 1014 45 10000 1.5 220 20:18 17.04.2020
4652 Clouds 20 1014 43 10000 2.6 210 19:42 17.04.2020
4653 Clouds 22 1014 43 10000 2.6 210 19:23 17.04.2020
4654 Clear 23 1014 35 10000 3.6 240 18:47 17.04.2020
4655 Clear 22 1014 35 10000 3.6 240 18:25 17.04.2020
4656 Clear 22 1014 38 10000 3.1 230 17:58 17.04.2020
4657 Clear 22 1014 38 10000 3.1 230 17:37 17.04.2020
4658 Clear 22 1014 38 10000 3.1 230 17:19 17.04.2020
4659 Clear 22 1014 38 10000 3.1 230 17:19 17.04.2020
4660 Clear 23 1014 38 10000 4.6 230 16:44 17.04.2020
4661 Clear 23 1014 38 10000 4.6 230 16:23 17.04.2020
4662 Clear 22 1015 40 10000 4.1 200 15:58 17.04.2020
4663 Clear 23 1015 40 10000 4.1 200 15:38 17.04.2020
4664 Clear 23 1015 40 10000 4.1 200 15:19 17.04.2020
4665 Clear 22 1015 40 10000 2.1 190 14:41 17.04.2020
4666 Clear 22 1015 40 10000 2.1 190 14:41 17.04.2020
4667 Clear 22 1015 40 10000 2.1 190 14:22 17.04.2020
4668 Clear 22 1015 40 10000 4.1 230 13:58 17.04.2020
4669 Clear 22 1015 40 10000 4.1 230 13:37 17.04.2020
4670 Clear 21 1015 40 10000 4.1 230 13:19 17.04.2020
4671 Clear 21 1016 48 10000 2 201 12:48 17.04.2020
4672 Clear 19 1016 48 10000 1.61 168 12:26 17.04.2020
4673 Clear 19 1016 51 10000 1.5 90 11:58 17.04.2020
4674 Clear 18 1016 51 10000 1.5 90 11:38 17.04.2020
4675 Clear 18 1016 51 10000 1.5 90 11:19 17.04.2020
4676 Clear 17 1016 62 10000 1.5 80 10:40 17.04.2020
4677 Clear 16 1016 62 10000 1.5 80 10:20 17.04.2020
4678 Clear 15 1016 66 10000 1.5 80 09:55 17.04.2020
4679 Clear 14 1016 66 10000 1.5 80 09:36 17.04.2020
4680 Clear 12 1016 66 10000 1.5 80 09:18 17.04.2020
4681 Clouds 11 1016 67 10000 1 0 08:46 17.04.2020
4682 Clouds 10 1016 71 10000 1.5 40 08:26 17.04.2020
4683 Clear 10 1016 81 10000 0.39 94 07:56 17.04.2020
4684 Clear 9 1016 81 10000 0.39 94 07:38 17.04.2020
4685 Clouds 8 1016 81 10000 1 0 07:18 17.04.2020
4686 Clear 9 1016 81 10000 0.39 94 06:43 17.04.2020
4687 Clear 9 1016 75 10000 0.18 179 05:58 17.04.2020
4688 Clear 9 1016 76 10000 0.24 349 03:24 17.04.2020
4689 Clear 10 1016 71 10000 2.1 70 02:50 17.04.2020
4690 Clouds 10 1016 66 10000 2.6 290 01:41 17.04.2020
4691 Clear 10 1016 66 10000 0.23 1 01:19 17.04.2020
4692 Clear 12 1016 62 10000 0.82 304 00:21 17.04.2020
4693 Clear 12 1016 58 10000 0.82 304 23:55 16.04.2020
4694 Clear 12 1016 58 10000 0.82 304 23:36 16.04.2020
4695 Clear 12 1016 58 10000 0.82 304 23:18 16.04.2020
4696 Clear 13 1016 51 10000 0.82 304 22:40 16.04.2020
4697 Clear 13 1016 51 10000 0.82 304 22:22 16.04.2020
4698 Clear 14 1016 48 10000 0.82 304 21:58 16.04.2020
4699 Clouds 14 1016 51 10000 2.6 300 21:40 16.04.2020
4700 Clear 15 1016 48 10000 2.1 259 21:19 16.04.2020
4701 Clear 17 1015 39 10000 2.1 259 20:42 16.04.2020
4702 Clear 19 1015 39 10000 2.1 259 20:23 16.04.2020
4703 Clear 19 1016 34 10000 2.1 260 19:59 16.04.2020
4704 Clear 20 1016 34 10000 2.1 260 19:39 16.04.2020
4705 Clear 20 1016 34 10000 2.1 260 19:20 16.04.2020
4706 Clear 20 1016 34 10000 2.6 230 18:56 16.04.2020
4707 Clear 20 1016 34 10000 2.6 230 18:38 16.04.2020
4708 Clear 20 1016 34 10000 2.6 230 18:20 16.04.2020
4709 Clear 20 1016 39 10000 2.6 220 17:45 16.04.2020
4710 Clear 20 1016 39 10000 2.6 220 17:26 16.04.2020
4711 Clouds 21 1017 37 10000 4.1 200 17:00 16.04.2020
4712 Clouds 21 1016 37 10000 3.1 180 16:41 16.04.2020
4713 Clouds 20 1017 37 10000 4.1 200 16:19 16.04.2020
4714 Clouds 20 1017 35 10000 4.6 190 15:45 16.04.2020
4715 Clouds 20 1017 35 10000 4.6 190 15:19 16.04.2020
4716 Clear 20 1017 37 10000 3.6 240 14:58 16.04.2020
4717 Clouds 20 1017 42 10000 3.1 210 14:39 16.04.2020
4718 Clear 19 1017 37 10000 3.6 240 14:20 16.04.2020
4719 Clear 19 1018 42 10000 3.6 210 13:57 16.04.2020
4720 Clear 19 1018 42 10000 3.6 210 13:37 16.04.2020
4721 Clear 19 1018 42 10000 3.6 210 13:19 16.04.2020
4722 Clear 18 1018 44 10000 4.6 200 12:57 16.04.2020
4723 Clear 18 1018 44 10000 4.6 200 12:38 16.04.2020
4724 Clear 16 1018 44 10000 4.6 200 12:19 16.04.2020
4725 Clear 16 1018 44 10000 2.1 240 11:56 16.04.2020
4726 Clouds 16 1018 44 10000 2.6 0 11:37 16.04.2020
4727 Clear 16 1018 44 10000 2.1 240 11:18 16.04.2020
4728 Clouds 14 1018 47 10000 2.1 180 10:40 16.04.2020
4729 Clear 13 1018 46 10000 2.6 220 10:19 16.04.2020
4730 Clear 13 1018 46 10000 2.6 220 10:19 16.04.2020
4731 Clear 12 1018 57 10000 2.97 220 09:59 16.04.2020
4732 Clouds 11 1018 59 10000 3.1 170 09:38 16.04.2020
4733 Clouds 11 1018 59 10000 3.1 170 09:38 16.04.2020
4734 Clouds 11 1018 58 10000 3.1 170 09:38 16.04.2020
4735 Clear 9 1018 57 10000 1.11 160 09:20 16.04.2020
4736 Clear 8 1018 65 10000 1.11 160 08:45 16.04.2020
4737 Clear 7 1018 65 10000 1.11 160 08:26 16.04.2020
4738 Clear 6 1018 64 10000 1.11 160 07:59 16.04.2020
4739 Clouds 5 1018 49 10000 1.5 110 07:41 16.04.2020
4740 Clear 5 1018 64 10000 1.11 160 07:20 16.04.2020
4741 Clouds 4 1018 45 10000 1.5 80 06:41 16.04.2020
4742 Clear 4 1018 64 10000 0.89 107 06:22 16.04.2020
4743 Clear 5 1018 52 10000 0.89 107 04:53 16.04.2020
4744 Clear 6 1019 49 10000 1.5 30 03:28 16.04.2020
4745 Clear 5 1019 49 10000 1.14 98 02:59 16.04.2020
4746 Clear 5 1019 49 10000 1.12 95 02:38 16.04.2020
4747 Clear 7 1019 45 10000 2.1 60 01:29 16.04.2020
4748 Clear 7 1020 39 10000 3.6 60 00:54 16.04.2020
4749 Clear 8 1020 39 10000 3.6 60 00:25 16.04.2020
4750 Clear 8 1020 40 10000 3.6 60 23:55 15.04.2020
4751 Clouds 8 1020 53 10000 3.1 60 23:37 15.04.2020
4752 Clear 9 1020 40 10000 3.6 60 23:19 15.04.2020
4753 Clouds 9 1020 53 10000 3.1 80 22:39 15.04.2020
4754 Clear 10 1020 40 10000 2.1 70 22:21 15.04.2020
4755 Clear 11 1020 35 10000 2.6 80 21:56 15.04.2020
4756 Clouds 11 1020 37 10000 3.1 80 21:38 15.04.2020
4757 Clear 12 1020 35 10000 2.6 80 21:20 15.04.2020
4758 Clear 12 1020 35 10000 3.6 60 20:56 15.04.2020
4759 Clear 13 1019 28 10000 2.6 100 20:38 15.04.2020
4760 Clear 15 1020 35 10000 3.6 60 20:20 15.04.2020
4761 Clear 16 1019 25 10000 3.6 80 19:41 15.04.2020
4762 Clear 17 1020 31 10000 2.1 60 19:20 15.04.2020
4763 Clear 17 1020 31 10000 2.1 60 19:20 15.04.2020
4764 Clear 17 1021 29 10000 2.1 90 18:54 15.04.2020
4765 Clear 17 1021 29 10000 2.1 90 18:36 15.04.2020
4766 Clear 17 1020 18 10000 4.6 80 18:18 15.04.2020
4767 Clear 17 1020 20 10000 5.7 70 17:40 15.04.2020
4768 Clear 17 1021 29 10000 1.5 100 17:21 15.04.2020
4769 Clear 17 1022 29 10000 2.6 40 16:57 15.04.2020
4770 Clear 17 1021 21 10000 4.1 90 16:38 15.04.2020
4771 Clear 17 1021 21 10000 4.1 90 16:38 15.04.2020
4772 Clear 17 1022 29 10000 2.6 40 16:20 15.04.2020
4773 Clear 17 1023 30 10000 2.1 80 15:58 15.04.2020
4774 Clear 17 1022 25 10000 4.1 110 15:39 15.04.2020
4775 Clear 15 1023 30 10000 2.1 80 15:19 15.04.2020
4776 Clouds 14 1023 32 10000 3.1 80 14:58 15.04.2020
4777 Clear 15 1023 26 10000 4.6 140 14:39 15.04.2020
4778 Clear 15 1023 26 10000 4.6 140 14:39 15.04.2020
4779 Clouds 15 1023 32 10000 3.1 80 14:21 15.04.2020
4780 Clouds 14 1024 37 10000 4.1 40 13:58 15.04.2020
4781 Clouds 14 1023 32 10000 4.1 150 13:39 15.04.2020
4782 Clouds 14 1024 37 10000 4.1 40 13:20 15.04.2020
4783 Clear 14 1024 43 10000 3.6 60 12:56 15.04.2020
4784 Clouds 13 1023 34 10000 3.6 140 12:38 15.04.2020
4785 Clear 10 1024 43 10000 3.6 60 12:20 15.04.2020
4786 Clear 10 1024 42 10000 3.6 70 11:44 15.04.2020
4787 Clear 10 1024 42 10000 3.6 70 11:25 15.04.2020
4788 Clear 10 1024 48 10000 4.6 60 10:59 15.04.2020
4789 Clouds 9 1024 45 10000 5.7 60 10:37 15.04.2020
4790 Clear 8 1024 48 10000 4.6 60 10:19 15.04.2020
4791 Clear 7 1024 60 10000 2.6 50 09:55 15.04.2020
4792 Clouds 6 1024 56 10000 5.1 60 09:37 15.04.2020
4793 Clear 4 1024 60 10000 2.6 50 09:19 15.04.2020
4794 Clouds 3 1024 64 10000 4.6 60 08:42 15.04.2020
4795 Clear 3 1024 69 10000 2.6 30 08:23 15.04.2020
4796 Clear 2 1024 69 10000 1.5 50 07:57 15.04.2020
4797 Clear 1 1024 69 10000 1.5 50 07:38 15.04.2020
4798 Clear 0 1024 69 10000 2.6 50 06:59 15.04.2020
4799 Clear 0 1024 69 10000 2.6 50 06:24 15.04.2020
4800 Clear 1 1024 69 10000 1.5 60 05:23 15.04.2020
4801 Clear 1 1024 64 10000 1.5 60 04:46 15.04.2020
4802 Clear 1 1024 64 10000 1.5 60 04:18 15.04.2020
4803 Clear 1 1024 64 10000 2.1 50 03:22 15.04.2020
4804 Clear 2 1024 64 10000 2.1 40 02:45 15.04.2020
4805 Clear 2 1025 69 10000 1.5 110 01:51 15.04.2020
4806 Clear 2 1025 69 10000 1.5 110 01:25 15.04.2020
4807 Clear 2 1025 59 10000 1.5 60 00:47 15.04.2020
4808 Clear 3 1025 59 10000 1.5 60 00:24 15.04.2020
4809 Clear 3 1025 56 10000 3.1 10 23:56 14.04.2020
4810 Clear 3 1025 52 10000 5.1 50 23:38 14.04.2020
4811 Clear 4 1025 56 10000 3.1 10 23:20 14.04.2020
4812 Clear 4 1025 56 10000 3.6 10 22:56 14.04.2020
4813 Clear 5 1025 52 10000 4.6 40 22:38 14.04.2020
4814 Clear 5 1025 56 10000 3.6 10 22:20 14.04.2020
4815 Clear 5 1025 52 10000 2.1 360 21:56 14.04.2020
4816 Clear 6 1024 48 10000 3.6 40 21:38 14.04.2020
4817 Clear 6 1025 52 10000 2.1 360 21:19 14.04.2020
4818 Clear 7 1024 48 10000 2.6 10 20:57 14.04.2020
4819 Clear 8 1024 42 10000 3.6 40 20:38 14.04.2020
4820 Clear 9 1024 48 10000 2.6 10 20:19 14.04.2020
4821 Clear 10 1024 39 10000 3.6 60 19:41 14.04.2020
4822 Clear 10 1024 39 10000 3.1 30 19:22 14.04.2020
4823 Clear 10 1024 39 10000 4.1 350 18:58 14.04.2020
4824 Clear 10 1024 37 10000 4.1 50 18:39 14.04.2020
4825 Clear 11 1024 39 10000 4.1 350 18:21 14.04.2020
4826 Clear 11 1024 37 10000 4.6 40 17:58 14.04.2020
4827 Clear 11 1024 37 10000 4.6 50 17:38 14.04.2020
4828 Clear 11 1024 37 10000 4.6 40 17:20 14.04.2020
4829 Clouds 11 1024 39 10000 4.1 40 16:56 14.04.2020
4830 Clear 11 1024 37 10000 4.6 20 16:38 14.04.2020
4831 Clouds 11 1024 39 10000 4.1 40 16:19 14.04.2020
4832 Clouds 11 1024 39 10000 2.6 70 15:56 14.04.2020
4833 Clear 11 1024 39 10000 3.1 0 15:37 14.04.2020
4834 Clouds 10 1024 39 10000 3.1 320 15:18 14.04.2020
4835 Clouds 10 1025 39 10000 2.6 30 14:55 14.04.2020
4836 Clouds 10 1024 39 10000 4.6 0 14:37 14.04.2020
4837 Clouds 10 1025 42 10000 4.6 90 14:19 14.04.2020
4838 Clouds 9 1025 39 10000 4.6 70 13:43 14.04.2020
4839 Clouds 9 1025 39 10000 4.6 70 13:24 14.04.2020
4840 Clouds 9 1025 42 10000 5.1 50 12:56 14.04.2020
4841 Clouds 8 1025 45 10000 3.6 360 12:37 14.04.2020
4842 Clouds 6 1025 45 10000 3.6 360 12:18 14.04.2020
4843 Clouds 6 1025 48 10000 5.1 50 11:40 14.04.2020
4844 Clouds 6 1025 48 10000 3.6 10 11:22 14.04.2020
4845 Clouds 5 1025 51 10000 5.1 10 10:55 14.04.2020
4846 Clouds 5 1025 48 10000 6.2 60 10:37 14.04.2020
4847 Clouds 5 1025 52 10000 5.7 360 10:18 14.04.2020
4848 Clouds 4 1025 55 10000 5.7 30 09:41 14.04.2020
4849 Drizzle 3 1025 59 10000 2.6 20 09:22 14.04.2020
4850 Clouds 2 1025 69 10000 2.1 10 08:56 14.04.2020
4851 Clear 1 1025 59 10000 3.6 50 08:36 14.04.2020
4852 Clouds 0 1025 69 10000 1.5 20 08:18 14.04.2020
4853 Clouds 0 1024 78 10000 2.1 10 07:49 14.04.2020
4854 Clear -1 1024 74 10000 1.5 10 07:26 14.04.2020
4855 Clear 2 1026 78 0 2.93 35 06:45 14.04.2020
4856 Clear 0 1024 87 10000 2.3 31 05:47 14.04.2020
4857 Clear 1 1023 64 10000 6.2 20 03:38 14.04.2020
4858 Clear 2 1023 55 10000 6.7 30 02:38 14.04.2020
4859 Clear 2 1022 59 10000 4.1 20 01:28 14.04.2020
4860 Clear 3 1022 55 10000 4.6 20 00:52 14.04.2020
4861 Clear 3 1022 55 10000 5.7 30 00:32 14.04.2020
4862 Clear 4 1022 51 10000 2.6 360 23:59 13.04.2020
4863 Clear 4 1022 51 10000 2.6 360 23:39 13.04.2020
4864 Clear 4 1022 51 10000 2.6 360 23:20 13.04.2020
4865 Clear 5 1022 51 10000 3.1 10 22:55 13.04.2020
4866 Clear 5 1022 45 10000 6.7 20 22:37 13.04.2020
4867 Clear 5 1022 51 10000 3.1 10 22:18 13.04.2020
4868 Clear 6 1021 48 10000 6.7 30 21:41 13.04.2020
4869 Clear 6 1021 52 10000 2.6 350 21:21 13.04.2020
4870 Clear 7 1020 45 10000 3.1 360 20:59 13.04.2020
4871 Clouds 7 1020 45 10000 7.2 40 20:40 13.04.2020
4872 Clear 8 1020 45 10000 3.1 360 20:20 13.04.2020
4873 Clear 9 1020 42 10000 5.1 340 19:58 13.04.2020
4874 Clear 9 1020 42 10000 5.1 340 19:37 13.04.2020
4875 Clear 9 1020 42 10000 5.1 340 19:19 13.04.2020
4876 Clear 10 1019 42 10000 5.7 340 18:57 13.04.2020
4877 Clear 10 1019 42 10000 5.7 340 18:37 13.04.2020
4878 Clear 10 1019 42 10000 5.7 340 18:19 13.04.2020
4879 Clouds 10 1019 49 10000 6.7 20 17:57 13.04.2020
4880 Clouds 10 1019 53 10000 7.7 30 17:37 13.04.2020
4881 Clouds 10 1019 49 10000 6.7 20 17:19 13.04.2020
4882 Clouds 10 1019 61 10000 5.1 30 16:58 13.04.2020
4883 Clouds 10 1019 61 10000 5.1 30 16:39 13.04.2020
4884 Clouds 11 1020 61 10000 5.1 30 16:20 13.04.2020
4885 Rain 11 1020 65 10000 5.7 10 15:57 13.04.2020
4886 Clouds 11 1018 62 10000 8.7 30 15:38 13.04.2020
4887 Clouds 11 1020 75 10000 6.2 360 15:20 13.04.2020
4888 Clouds 12 1019 70 10000 6.7 360 14:42 13.04.2020
4889 Clouds 13 1018 54 10000 7.7 40 14:24 13.04.2020
4890 Clouds 13 1019 71 10000 5.1 360 13:57 13.04.2020
4891 Clouds 13 1018 58 10000 7.7 40 13:39 13.04.2020
4892 Clouds 13 1019 71 10000 5.1 360 13:21 13.04.2020
4893 Clouds 13 1018 71 10000 5.7 10 12:59 13.04.2020
4894 Clouds 13 1017 66 9000 6.2 30 12:40 13.04.2020
4895 Clouds 12 1018 71 10000 5.7 10 12:21 13.04.2020
4896 Clouds 12 1018 71 10000 5.7 10 12:21 13.04.2020
4897 Clouds 12 1017 76 10000 3.6 30 11:59 13.04.2020
4898 Clouds 12 1016 71 10000 5.7 40 11:41 13.04.2020
4899 Clouds 12 1017 76 10000 3.6 30 11:18 13.04.2020
4900 Clouds 12 1017 81 10000 5.1 20 10:55 13.04.2020
4901 Clouds 12 1016 62 10000 4.6 50 10:37 13.04.2020
4902 Clouds 13 1016 81 10000 5.1 340 10:18 13.04.2020
4903 Clouds 12 1016 81 10000 2.1 20 09:44 13.04.2020
4904 Clouds 11 1015 81 10000 2.1 60 09:26 13.04.2020
4905 Rain 10 1015 76 10000 6.7 10 08:49 13.04.2020
4906 Clouds 10 1015 76 10000 3.1 290 08:30 13.04.2020
4907 Clouds 9 1015 81 10000 2.6 200 07:59 13.04.2020
4908 Clouds 9 1014 66 10000 2.6 80 07:39 13.04.2020
4909 Clouds 9 1014 76 10000 2.1 290 07:20 13.04.2020
4910 Clouds 9 1014 81 10000 3.6 50 06:47 13.04.2020
4911 Clouds 9 1013 76 10000 3.1 150 05:59 13.04.2020
4912 Rain 9 1013 66 10000 1.5 140 05:30 13.04.2020
4913 Clouds 9 1014 66 10000 0.32 0 04:53 13.04.2020
4914 Clouds 9 1014 66 10000 0.32 0 04:23 13.04.2020
4915 Clouds 9 1014 61 10000 0.32 0 03:47 13.04.2020
4916 Clear 9 1014 53 10000 0.41 317 02:59 13.04.2020
4917 Clear 10 1014 53 10000 0.5 257 02:25 13.04.2020
4918 Clear 10 1014 50 10000 1.5 290 01:42 13.04.2020
4919 Clear 11 1014 50 10000 1.5 290 01:23 13.04.2020
4920 Clear 11 1014 58 10000 3.6 290 00:42 13.04.2020
4921 Clear 11 1014 50 10000 1.5 340 00:20 13.04.2020
4922 Clear 12 1014 44 10000 0.65 191 23:48 12.04.2020
4923 Clear 12 1014 44 10000 0.65 191 23:23 12.04.2020
4924 Clear 12 1014 38 10000 1.5 330 22:59 12.04.2020
4925 Rain 13 1014 47 10000 2.1 200 22:37 12.04.2020
4926 Clear 13 1014 38 10000 1.5 330 22:19 12.04.2020
4927 Clouds 14 1013 33 10000 2.6 330 21:54 12.04.2020
4928 Rain 14 1013 36 10000 1.5 50 21:36 12.04.2020
4929 Clouds 15 1013 33 10000 2.6 330 21:18 12.04.2020
4930 Clouds 17 1013 29 10000 1.5 350 20:41 12.04.2020
4931 Clouds 18 1013 29 10000 3.1 260 20:23 12.04.2020
4932 Clouds 19 1013 56 10000 2.6 230 19:57 12.04.2020
4933 Clouds 20 1013 56 10000 2.6 230 19:38 12.04.2020
4934 Clouds 20 1014 28 10000 4.1 310 19:19 12.04.2020
4935 Clouds 21 1014 56 10000 2.1 230 18:41 12.04.2020
4936 Clouds 21 1014 37 10000 5.1 280 18:23 12.04.2020
4937 Clouds 21 1014 24 10000 4.1 190 17:59 12.04.2020
4938 Clouds 21 1014 26 10000 4.1 270 17:41 12.04.2020
4939 Clouds 21 1014 24 10000 4.1 190 17:23 12.04.2020
4940 Clouds 21 1015 28 10000 2.6 260 16:58 12.04.2020
4941 Clouds 21 1014 24 10000 5.1 250 16:39 12.04.2020
4942 Clouds 21 1015 28 10000 2.6 260 16:20 12.04.2020
4943 Clear 22 1015 37 10000 4.1 260 15:49 12.04.2020
4944 Clear 21 1015 37 10000 4.1 260 15:30 12.04.2020
4945 Clear 21 1016 34 10000 1.5 270 14:56 12.04.2020
4946 Clouds 21 1016 26 10000 5.1 250 14:37 12.04.2020
4947 Clear 21 1016 35 10000 1.5 270 14:18 12.04.2020
4948 Clear 21 1017 24 10000 3.6 230 13:43 12.04.2020
4949 Clear 21 1017 24 10000 3.6 230 13:25 12.04.2020
4950 Clear 20 1017 37 10000 2.1 230 12:56 12.04.2020
4951 Clear 20 1017 37 10000 2.1 230 12:38 12.04.2020
4952 Clear 18 1017 37 10000 2.1 230 12:19 12.04.2020
4953 Clear 18 1018 51 10000 1.5 240 11:57 12.04.2020
4954 Clouds 18 1018 48 10000 1 0 11:37 12.04.2020
4955 Clear 17 1018 51 10000 1.5 240 11:18 12.04.2020
4956 Clear 17 1018 51 10000 1.5 240 11:18 12.04.2020
4957 Clouds 17 1018 55 10000 1 0 10:55 12.04.2020
4958 Clouds 17 1018 55 10000 1 0 10:55 12.04.2020
4959 Clouds 15 1018 55 10000 1 0 10:37 12.04.2020
4960 Clouds 15 1018 66 10000 1.19 209 10:18 12.04.2020
4961 Clear 14 1018 66 10000 1.19 209 09:54 12.04.2020
4962 Clouds 14 1018 58 10000 1 0 09:36 12.04.2020
4963 Clear 12 1018 66 10000 0.35 240 09:18 12.04.2020
4964 Clouds 11 1018 81 10000 0.35 240 08:47 12.04.2020
4965 Clouds 10 1018 81 10000 0.35 240 08:28 12.04.2020
4966 Clouds 10 1019 76 10000 0.35 240 07:46 12.04.2020
4967 Clouds 10 1019 76 10000 0.35 240 07:19 12.04.2020
4968 Clear 10 1019 70 10000 0.35 240 06:42 12.04.2020
4969 Clear 10 1019 70 10000 0.33 255 06:22 12.04.2020
4970 Clouds 10 1019 62 10000 1.5 320 05:42 12.04.2020
4971 Clouds 10 1019 62 10000 0.33 255 04:25 12.04.2020
4972 Clouds 11 1020 62 10000 0.31 89 03:29 12.04.2020
4973 Clear 11 1020 54 10000 0.31 89 02:48 12.04.2020
4974 Clear 11 1020 54 10000 0.31 89 02:27 12.04.2020
4975 Clouds 12 1021 54 10000 1.5 150 01:22 12.04.2020
4976 Clouds 12 1021 51 10000 0.91 120 00:43 12.04.2020
4977 Clouds 13 1021 54 10000 1.19 108 00:21 12.04.2020
4978 Clouds 13 1021 54 10000 1.19 108 00:21 12.04.2020
4979 Clouds 13 1021 48 10000 2.1 80 23:47 11.04.2020
4980 Clouds 13 1021 48 10000 2.1 80 23:26 11.04.2020
4981 Clouds 13 1021 48 10000 2.1 240 22:59 11.04.2020
4982 Clouds 14 1021 48 10000 2.1 240 22:37 11.04.2020
4983 Clouds 14 1021 48 10000 0.5 270 22:18 11.04.2020
4984 Clouds 14 1021 45 10000 0.5 0 21:55 11.04.2020
4985 Clouds 15 1021 45 10000 0.5 0 21:36 11.04.2020
4986 Clouds 15 1021 39 10000 0.86 45 21:18 11.04.2020
4987 Clouds 16 1021 45 10000 1.5 130 20:56 11.04.2020
4988 Clouds 17 1021 39 10000 2.1 190 20:37 11.04.2020
4989 Clouds 18 1021 37 10000 0.86 45 20:19 11.04.2020
4990 Clouds 18 1021 37 10000 0.86 45 20:19 11.04.2020
4991 Clear 19 1021 40 10000 2.1 200 19:56 11.04.2020
4992 Clouds 20 1021 40 10000 2.1 200 19:38 11.04.2020
4993 Clouds 20 1021 40 10000 2.1 200 19:38 11.04.2020
4994 Clear 20 1021 40 10000 2.1 200 19:18 11.04.2020
4995 Clear 20 1021 35 10000 0.86 45 18:55 11.04.2020
4996 Clear 21 1021 35 10000 0.86 45 18:37 11.04.2020
4997 Clear 21 1021 35 10000 1 252 18:18 11.04.2020
4998 Clear 21 1021 33 10000 3.1 100 17:57 11.04.2020
4999 Clouds 21 1021 33 10000 3.1 200 17:37 11.04.2020
5000 Clear 21 1021 33 10000 3.1 100 17:19 11.04.2020
5001 Clear 22 1022 35 10000 1 252 16:42 11.04.2020
5002 Clear 22 1022 35 10000 1 252 16:21 11.04.2020
5003 Clouds 22 1022 35 10000 3.1 180 15:42 11.04.2020
5004 Clear 22 1022 30 10000 2.1 300 15:22 11.04.2020
5005 Clear 21 1023 34 10000 1.56 129 14:59 11.04.2020
5006 Clouds 21 1023 35 10000 1.5 0 14:41 11.04.2020
5007 Clear 21 1023 34 10000 1.78 127 14:23 11.04.2020
5008 Clear 21 1023 34 10000 1.78 127 13:58 11.04.2020
5009 Clear 21 1023 40 10000 2.6 0 13:38 11.04.2020
5010 Clear 20 1023 34 10000 1.78 127 13:18 11.04.2020
5011 Clear 20 1024 45 10000 2.6 140 12:41 11.04.2020
5012 Clear 17 1024 36 10000 3.6 80 12:18 11.04.2020
5013 Clear 17 1024 38 10000 4.1 60 11:56 11.04.2020
5014 Clear 17 1024 45 10000 3.6 120 11:38 11.04.2020
5015 Clear 17 1024 38 10000 4.1 60 11:18 11.04.2020
5016 Clear 16 1024 43 10000 4.1 70 10:43 11.04.2020
5017 Clear 16 1024 43 10000 4.1 70 10:43 11.04.2020
5018 Clear 15 1024 43 10000 4.1 70 10:22 11.04.2020
5019 Clear 14 1024 51 10000 5.1 60 09:59 11.04.2020
5020 Clear 13 1024 50 10000 3.6 50 09:39 11.04.2020
5021 Clear 10 1024 69 10000 5.1 60 09:21 11.04.2020
5022 Clear 11 1024 69 10000 4.6 50 08:49 11.04.2020
5023 Clear 9 1024 69 10000 4.6 50 08:28 11.04.2020
5024 Clear 8 1023 69 10000 4.6 50 07:53 11.04.2020
5025 Clear 8 1023 69 10000 4.6 50 07:34 11.04.2020
5026 Clouds 8 1024 69 10000 3.6 50 06:51 11.04.2020
5027 Clouds 8 1024 70 10000 3.6 50 06:20 11.04.2020
5028 Clouds 9 1024 53 10000 4.1 50 05:55 11.04.2020
5029 Clouds 10 1024 54 10000 4.6 40 03:41 11.04.2020
5030 Clouds 10 1024 54 10000 4.6 50 02:37 11.04.2020
5031 Clouds 12 1024 50 10000 4.1 50 01:25 11.04.2020
5032 Clouds 12 1024 54 10000 5.1 30 00:44 11.04.2020
5033 Clear 12 1024 50 10000 4.6 30 00:20 11.04.2020
5034 Clear 13 1024 47 10000 3.6 40 23:59 10.04.2020
5035 Clouds 13 1023 44 10000 6.2 40 23:40 10.04.2020
5036 Clear 14 1024 47 10000 3.6 40 23:19 10.04.2020
5037 Clear 14 1023 47 10000 5.1 20 22:55 10.04.2020
5038 Clouds 14 1023 45 10000 5.7 40 22:37 10.04.2020
5039 Clear 15 1023 47 10000 5.1 20 22:18 10.04.2020
5040 Clear 15 1023 47 10000 5.1 20 22:18 10.04.2020
5041 Clear 15 1023 44 10000 4.1 30 21:41 10.04.2020
5042 Clear 16 1023 44 10000 4.1 30 21:21 10.04.2020
5043 Clear 16 1022 42 10000 4.1 30 20:57 10.04.2020
5044 Clouds 17 1022 39 10000 1.5 80 20:38 10.04.2020
5045 Clouds 17 1022 39 10000 1.5 80 20:38 10.04.2020
5046 Clear 18 1022 42 10000 4.1 30 20:19 10.04.2020
5047 Clear 19 1022 39 10000 2.6 60 19:55 10.04.2020
5048 Clear 19 1022 39 10000 2.6 60 19:37 10.04.2020
5049 Clear 20 1022 39 10000 2.6 60 19:18 10.04.2020
5050 Clear 21 1022 32 10000 2.12 46 18:55 10.04.2020
5051 Clear 20 1022 32 10000 2.12 46 18:37 10.04.2020
5052 Clear 21 1022 32 10000 1.77 73 18:18 10.04.2020
5053 Clear 21 1022 33 10000 2.1 60 17:56 10.04.2020
5054 Clouds 21 1022 35 10000 1.5 10 17:38 10.04.2020
5055 Clear 22 1022 33 10000 2.1 60 17:18 10.04.2020
5056 Clouds 22 1023 35 10000 2.1 70 16:42 10.04.2020
5057 Clouds 21 1023 35 10000 2.1 70 16:23 10.04.2020
5058 Clear 21 1024 37 10000 2.6 40 15:58 10.04.2020
5059 Clouds 21 1023 40 10000 1.5 0 15:39 10.04.2020
5060 Clear 21 1024 37 10000 2.6 40 15:21 10.04.2020
5061 Clear 22 1024 37 10000 1.5 30 14:58 10.04.2020
5062 Clear 21 1024 40 10000 2.6 40 14:40 10.04.2020
5063 Clear 21 1024 37 10000 1.5 30 14:21 10.04.2020
5064 Clear 21 1025 40 10000 3.1 100 13:49 10.04.2020
5065 Clear 20 1025 40 10000 3.1 100 13:23 10.04.2020
5066 Clear 20 1025 42 10000 3.1 80 12:59 10.04.2020
5067 Clear 20 1025 45 10000 3.1 40 12:41 10.04.2020
5068 Clear 19 1025 42 10000 3.1 80 12:21 10.04.2020
5069 Clear 18 1025 48 10000 4.6 60 11:54 10.04.2020
5070 Clear 18 1025 51 10000 3.6 40 11:36 10.04.2020
5071 Clear 18 1025 48 10000 4.6 60 11:18 10.04.2020
5072 Clear 17 1025 51 10000 3.1 50 10:41 10.04.2020
5073 Clear 15 1025 51 10000 3.6 50 10:22 10.04.2020
5074 Clear 14 1025 54 10000 4.1 50 09:44 10.04.2020
5075 Clear 12 1025 54 10000 4.1 50 09:25 10.04.2020
5076 Clear 11 1025 62 10000 4.1 50 08:56 10.04.2020
5077 Clouds 10 1025 62 10000 4.6 50 08:38 10.04.2020
5078 Clouds 10 1025 62 10000 4.6 50 08:38 10.04.2020
5079 Clear 10 1025 62 10000 4.1 50 08:20 10.04.2020
5080 Clear 9 1024 62 10000 4.1 40 07:44 10.04.2020
5081 Clear 9 1024 62 10000 4.1 40 07:22 10.04.2020
5082 Clear 9 1024 62 10000 5.1 50 06:48 10.04.2020
5083 Clear 9 1024 62 10000 5.1 50 06:27 10.04.2020
5084 Clouds 9 1024 58 10000 5.1 40 05:40 10.04.2020
5085 Clear 10 1024 62 10000 3.1 50 04:57 10.04.2020
5086 Clear 10 1025 62 10000 3.6 40 03:49 10.04.2020
5087 Clear 10 1025 62 10000 3.6 40 03:30 10.04.2020
5088 Clear 11 1025 62 10000 2.6 70 02:48 10.04.2020
5089 Clear 11 1025 62 10000 2.6 70 02:28 10.04.2020
5090 Clear 12 1025 58 10000 2.1 40 01:30 10.04.2020
5091 Clear 12 1025 54 10000 4.1 30 00:50 10.04.2020
5092 Clear 13 1025 54 10000 4.1 30 00:23 10.04.2020
5093 Clear 14 1025 51 10000 4.6 10 23:55 09.04.2020
5094 Clouds 14 1025 51 10000 5.7 40 23:37 09.04.2020
5095 Clear 14 1025 51 10000 4.6 10 23:19 09.04.2020
5096 Clouds 15 1024 48 10000 6.2 30 22:41 09.04.2020
5097 Clear 15 1024 51 10000 2.6 10 22:23 09.04.2020
5098 Clear 15 1024 45 10000 3.1 360 21:55 09.04.2020
5099 Clouds 16 1024 45 10000 5.7 30 21:37 09.04.2020
5100 Clear 16 1024 45 10000 3.1 360 21:18 09.04.2020
5101 Clouds 18 1023 39 10000 4.6 30 20:41 09.04.2020
5102 Clouds 18 1023 42 10000 4.6 350 20:21 09.04.2020
5103 Clouds 19 1023 40 10000 3.6 360 19:57 09.04.2020
5104 Clouds 20 1023 40 10000 3.6 360 19:36 09.04.2020
5105 Clouds 20 1023 40 10000 3.6 360 19:18 09.04.2020
5106 Clouds 20 1023 28 10000 1.5 0 18:41 09.04.2020
5107 Clouds 21 1023 35 10000 2.6 40 18:19 09.04.2020
5108 Clouds 21 1023 30 10000 4.6 40 17:41 09.04.2020
5109 Clouds 22 1023 35 10000 4.1 30 17:23 09.04.2020
5110 Clouds 22 1023 25 10000 2.1 230 16:56 09.04.2020
5111 Clouds 22 1023 28 10000 3.6 360 16:38 09.04.2020
5112 Clouds 22 1023 25 10000 2.1 230 16:18 09.04.2020
5113 Clear 22 1023 26 10000 0.78 353 15:55 09.04.2020
5114 Clouds 22 1023 25 10000 2.1 0 15:36 09.04.2020
5115 Clear 22 1023 26 10000 1.15 47 15:18 09.04.2020
5116 Clouds 22 1024 28 10000 2.6 0 14:40 09.04.2020
5117 Clouds 22 1024 32 10000 2.1 190 14:21 09.04.2020
5118 Clouds 21 1024 32 10000 1.1 73 13:54 09.04.2020
5119 Clouds 21 1024 32 10000 3.6 170 13:36 09.04.2020
5120 Clouds 21 1024 32 10000 3.6 170 13:18 09.04.2020
5121 Clouds 20 1025 32 10000 3.6 50 12:41 09.04.2020
5122 Clear 19 1024 40 10000 1.5 130 12:21 09.04.2020
5123 Clear 19 1024 52 10000 0.95 34 11:58 09.04.2020
5124 Clouds 19 1025 45 10000 1 20 11:38 09.04.2020
5125 Clear 18 1024 52 10000 0.95 34 11:20 09.04.2020
5126 Clear 17 1024 54 10000 0.95 34 10:57 09.04.2020
5127 Clouds 16 1024 51 10000 0.5 0 10:38 09.04.2020
5128 Clear 15 1024 54 10000 0.95 34 10:19 09.04.2020
5129 Clear 15 1024 54 10000 0.95 34 10:19 09.04.2020
5130 Clear 14 1024 58 10000 0.95 34 09:55 09.04.2020
5131 Clouds 13 1024 58 10000 0.5 0 09:37 09.04.2020
5132 Clear 12 1024 58 10000 0.73 11 09:19 09.04.2020
5133 Clouds 11 1023 66 10000 0.73 11 08:43 09.04.2020
5134 Clouds 11 1023 66 10000 0.73 11 08:23 09.04.2020
5135 Clouds 11 1023 66 10000 0.73 11 08:23 09.04.2020
5136 Clouds 11 1023 66 10000 0.73 11 07:55 09.04.2020
5137 Clouds 11 1023 66 10000 0.73 11 07:24 09.04.2020
5138 Clouds 11 1023 70 10000 1.5 60 06:52 09.04.2020
5139 Clouds 11 1023 57 10000 0.69 343 05:59 09.04.2020
5140 Clouds 11 1023 44 10000 0.5 0 05:38 09.04.2020
5141 Clouds 11 1023 50 10000 0.69 343 03:49 09.04.2020
5142 Clouds 11 1023 47 10000 0.77 303 02:25 09.04.2020
5143 Clouds 12 1023 38 10000 2.6 330 01:40 09.04.2020
5144 Clouds 12 1023 44 10000 0.77 303 01:20 09.04.2020
5145 Clouds 12 1023 38 10000 3.1 270 00:41 09.04.2020
5146 Clouds 13 1023 44 10000 0.33 17 00:20 09.04.2020
5147 Clouds 13 1023 41 10000 0.33 17 23:58 08.04.2020
5148 Clouds 13 1023 41 10000 2.1 270 23:40 08.04.2020
5149 Clouds 13 1023 41 10000 2.1 270 23:40 08.04.2020
5150 Clouds 14 1023 41 10000 0.33 17 23:21 08.04.2020
5151 Clear 14 1023 39 10000 1.5 290 22:43 08.04.2020
5152 Clear 14 1023 39 10000 1.5 290 22:24 08.04.2020
5153 Clear 14 1023 39 10000 1.5 290 22:24 08.04.2020
5154 Clouds 14 1023 33 10000 2.6 160 21:56 08.04.2020
5155 Clouds 15 1023 34 10000 0.33 17 21:38 08.04.2020
5156 Clouds 16 1023 34 10000 0.65 294 21:19 08.04.2020
5157 Clear 16 1022 32 10000 2.1 230 20:57 08.04.2020
5158 Clear 17 1022 32 10000 2.1 230 20:38 08.04.2020
5159 Clouds 18 1023 30 10000 2.1 230 20:20 08.04.2020
5160 Clear 20 1023 52 10000 0.65 294 19:55 08.04.2020
5161 Clouds 20 1023 30 10000 2.1 180 19:36 08.04.2020
5162 Clear 21 1023 52 10000 0.65 294 19:18 08.04.2020
5163 Clouds 22 1023 26 10000 2.6 190 18:41 08.04.2020
5164 Clear 22 1023 24 10000 1.5 240 18:23 08.04.2020
5165 Clear 22 1023 26 10000 1.5 100 17:54 08.04.2020
5166 Clear 22 1023 26 10000 1.5 100 17:36 08.04.2020
5167 Clear 22 1023 26 10000 1.5 100 17:18 08.04.2020
5168 Clouds 22 1024 30 10000 2.1 130 16:42 08.04.2020
5169 Clouds 22 1024 30 10000 2.1 130 16:42 08.04.2020
5170 Clear 22 1023 24 10000 1.5 90 16:23 08.04.2020
5171 Clear 22 1024 24 10000 0.97 198 15:55 08.04.2020
5172 Clouds 22 1024 28 10000 3.1 140 15:37 08.04.2020
5173 Clear 21 1024 28 10000 3.1 180 15:18 08.04.2020
5174 Clear 21 1024 24 10000 1.5 140 14:43 08.04.2020
5175 Clear 21 1024 24 10000 1.5 140 14:24 08.04.2020
5176 Clear 21 1025 26 10000 3.6 160 13:55 08.04.2020
5177 Clear 21 1025 26 10000 3.6 160 13:37 08.04.2020
5178 Clear 21 1025 26 10000 3.6 160 13:18 08.04.2020
5179 Clear 20 1025 42 10000 2.6 180 12:41 08.04.2020
5180 Clear 19 1025 37 10000 2.1 100 12:18 08.04.2020
5181 Clear 18 1026 51 10000 2.6 70 11:58 08.04.2020
5182 Clear 18 1026 42 10000 3.1 160 11:39 08.04.2020
5183 Clear 17 1026 51 10000 2.6 70 11:21 08.04.2020
5184 Clear 17 1026 51 10000 2.6 70 11:21 08.04.2020
5185 Clear 17 1026 58 10000 2.1 90 10:55 08.04.2020
5186 Clear 16 1026 58 10000 2.1 90 10:37 08.04.2020
5187 Clear 15 1026 58 10000 2.1 90 10:18 08.04.2020
5188 Clear 15 1026 58 10000 2.1 90 10:18 08.04.2020
5189 Clear 15 1026 66 10000 3.6 50 09:55 08.04.2020
5190 Clear 14 1026 54 10000 2.1 60 09:36 08.04.2020
5191 Clear 12 1026 66 10000 3.6 50 09:18 08.04.2020
5192 Clear 11 1026 62 10000 3.1 40 08:42 08.04.2020
5193 Clear 10 1026 71 10000 2.6 50 08:22 08.04.2020
5194 Clear 9 1026 76 10000 3.6 50 07:44 08.04.2020
5195 Clear 9 1026 76 10000 3.6 50 07:25 08.04.2020
5196 Clear 9 1026 71 10000 3.6 50 06:56 08.04.2020
5197 Clear 9 1026 66 10000 4.6 50 05:56 08.04.2020
5198 Clear 10 1026 66 10000 4.1 50 04:19 08.04.2020
5199 Clear 11 1027 66 10000 4.1 50 02:49 08.04.2020
5200 Clear 11 1027 66 10000 4.1 50 02:20 08.04.2020
5201 Clear 12 1027 66 10000 3.1 50 01:45 08.04.2020
5202 Clear 12 1027 66 10000 3.1 50 01:23 08.04.2020
5203 Clouds 12 1027 41 10000 4.1 40 00:41 08.04.2020
5204 Clear 13 1028 54 10000 3.1 50 00:21 08.04.2020
5205 Clouds 13 1027 41 10000 3.6 50 23:39 07.04.2020
5206 Clear 13 1028 54 10000 2.1 40 23:21 07.04.2020
5207 Clear 14 1028 51 10000 2.6 50 22:57 07.04.2020
5208 Clouds 14 1027 41 10000 3.6 60 22:39 07.04.2020
5209 Clear 14 1028 51 10000 2.6 50 22:19 07.04.2020
5210 Clear 14 1027 54 10000 3.1 40 21:56 07.04.2020
5211 Clouds 15 1027 39 10000 3.1 70 21:38 07.04.2020
5212 Clear 15 1027 54 10000 3.1 40 21:20 07.04.2020
5213 Clear 16 1027 45 10000 4.1 40 20:57 07.04.2020
5214 Clear 17 1027 45 10000 4.1 40 20:38 07.04.2020
5215 Clear 18 1027 45 10000 4.1 40 20:20 07.04.2020
5216 Clear 19 1027 34 10000 3.1 60 19:57 07.04.2020
5217 Clear 20 1027 34 10000 3.1 60 19:36 07.04.2020
5218 Rain 20 1027 35 10000 4.1 60 19:18 07.04.2020
5219 Clouds 21 1027 35 10000 4.1 80 18:56 07.04.2020
5220 Rain 21 1027 33 10000 5.1 60 18:38 07.04.2020
5221 Clouds 21 1027 35 10000 4.1 80 18:19 07.04.2020
5222 Clouds 21 1028 37 10000 3.1 40 17:44 07.04.2020
5223 Clouds 21 1028 37 10000 3.1 40 17:21 07.04.2020
5224 Clear 22 1028 35 10000 2.1 50 16:47 07.04.2020
5225 Clear 22 1028 35 10000 2.1 50 16:47 07.04.2020
5226 Clear 21 1028 35 10000 2.1 50 16:28 07.04.2020
5227 Clear 21 1028 35 10000 2.1 50 15:58 07.04.2020
5228 Clear 21 1029 32 10000 3.1 70 15:40 07.04.2020
5229 Rain 21 1028 33 10000 3.1 0 15:22 07.04.2020
5230 Rain 21 1029 35 10000 3.1 60 14:41 07.04.2020
5231 Clear 20 1029 37 10000 3.1 90 14:22 07.04.2020
5232 Clear 20 1030 48 10000 3.1 50 13:57 07.04.2020
5233 Rain 19 1029 45 10000 4.1 50 13:39 07.04.2020
5234 Clear 20 1030 48 10000 3.1 50 13:18 07.04.2020
5235 Clear 19 1030 55 10000 4.6 50 12:55 07.04.2020
5236 Clear 19 1030 55 10000 4.6 50 12:37 07.04.2020
5237 Clear 17 1030 55 10000 4.6 50 12:18 07.04.2020
5238 Clear 16 1030 58 10000 6.2 40 11:44 07.04.2020
5239 Clear 16 1030 58 10000 6.2 40 11:26 07.04.2020
5240 Clear 15 1030 71 10000 4.1 60 10:59 07.04.2020
5241 Clouds 15 1030 62 10000 5.7 50 10:39 07.04.2020
5242 Clear 14 1030 71 10000 4.1 60 10:19 07.04.2020
5243 Clear 13 1030 76 10000 2.1 70 09:46 07.04.2020
5244 Clear 11 1030 76 10000 2.1 70 09:20 07.04.2020
5245 Clear 10 1029 87 10000 2.6 60 08:59 07.04.2020
5246 Clouds 9 1029 62 10000 3.6 60 08:39 07.04.2020
5247 Clear 9 1029 87 10000 2.6 60 08:19 07.04.2020
5248 Clear 8 1029 76 10000 1.5 50 07:44 07.04.2020
5249 Clear 8 1029 76 10000 1.5 50 07:26 07.04.2020
5250 Clear 8 1028 75 10000 1.58 55 06:52 07.04.2020
5251 Clear 8 1028 75 10000 1.12 43 06:25 07.04.2020
5252 Clear 8 1028 66 10000 2.1 10 05:50 07.04.2020
5253 Clear 8 1028 66 10000 2.1 10 05:24 07.04.2020
5254 Clouds 9 1027 66 10000 3.6 20 03:36 07.04.2020
5255 Clouds 9 1028 53 10000 2.1 50 03:18 07.04.2020
5256 Clear 9 1027 62 10000 5.1 360 02:36 07.04.2020
5257 Clear 9 1026 53 10000 0.81 319 01:38 07.04.2020
5258 Clear 10 1026 53 10000 0.81 319 01:20 07.04.2020
5259 Clouds 10 1026 79 10000 2.1 300 00:25 07.04.2020
5260 Clear 11 1026 50 10000 3.6 300 23:42 06.04.2020
5261 Clouds 11 1025 35 10000 2.1 300 23:21 06.04.2020
5262 Clear 11 1025 35 10000 0.98 275 22:54 06.04.2020
5263 Clear 11 1025 35 10000 0.98 275 22:36 06.04.2020
5264 Clear 12 1025 35 10000 0.98 275 22:18 06.04.2020
5265 Clear 13 1024 30 10000 2.1 220 21:43 06.04.2020
5266 Clear 13 1024 30 10000 2.1 220 21:20 06.04.2020
5267 Clear 14 1023 29 10000 2.6 230 20:58 06.04.2020
5268 Clear 14 1023 29 10000 2.6 230 20:58 06.04.2020
5269 Clear 15 1024 36 10000 3.1 240 20:40 06.04.2020
5270 Clear 16 1023 29 10000 2.6 230 20:21 06.04.2020
5271 Clear 17 1023 25 10000 4.6 190 19:58 06.04.2020
5272 Clear 18 1023 68 10000 4.6 250 19:39 06.04.2020
5273 Clear 19 1023 25 10000 4.6 190 19:20 06.04.2020
5274 Clear 19 1022 24 10000 5.7 220 18:45 06.04.2020
5275 Clear 19 1022 24 10000 5.7 220 18:24 06.04.2020
5276 Clear 19 1022 44 10000 4.6 190 17:59 06.04.2020
5277 Clear 19 1022 44 10000 6.2 200 17:41 06.04.2020
5278 Clear 19 1022 44 10000 4.6 190 17:19 06.04.2020
5279 Clear 20 1022 44 10000 6.2 170 16:49 06.04.2020
5280 Clear 20 1022 44 10000 6.2 170 16:49 06.04.2020
5281 Clear 19 1022 24 10000 7.2 190 16:31 06.04.2020
5282 Clear 19 1022 44 10000 6.7 180 15:40 06.04.2020
5283 Clear 19 1022 44 10000 6.7 180 15:40 06.04.2020
5284 Clear 18 1022 42 10000 6.2 200 13:45 06.04.2020
5285 Clear 17 1022 42 10000 6.2 200 13:24 06.04.2020
5286 Clear 17 1022 36 10000 5.1 200 12:54 06.04.2020
5287 Clear 17 1022 36 10000 5.1 200 12:54 06.04.2020
5288 Clear 17 1022 36 10000 5.1 200 12:54 06.04.2020
5289 Clear 17 1022 36 10000 5.1 200 12:54 06.04.2020
5290 Clear 17 1022 36 10000 5.1 200 12:54 06.04.2020
5291 Clear 17 1022 36 10000 5.1 200 12:21 06.04.2020
5292 Clear 15 1022 38 10000 4.1 190 11:54 06.04.2020
5293 Clear 15 1022 38 10000 4.1 190 11:54 06.04.2020
5294 Clear 15 1022 38 10000 4.1 190 11:54 06.04.2020
5295 Clear 15 1022 38 10000 4.1 190 11:54 06.04.2020
5296 Clear 15 1022 38 10000 4.1 190 11:54 06.04.2020
5297 Clear 15 1022 41 10000 4.1 200 11:31 06.04.2020
5298 Clear 15 1022 41 10000 4.1 200 11:31 06.04.2020
5299 Clear 15 1022 41 10000 4.1 200 11:31 06.04.2020
5300 Clear 15 1022 41 10000 4.1 200 11:31 06.04.2020
5301 Clear 15 1022 41 10000 4.1 200 11:31 06.04.2020
5302 Clear 13 1021 43 10000 3.1 190 10:50 06.04.2020
5303 Clear 13 1021 43 10000 3.1 190 10:50 06.04.2020
5304 Clear 13 1021 43 10000 3.1 190 10:50 06.04.2020
5305 Clear 13 1021 43 10000 3.1 190 10:50 06.04.2020
5306 Clear 13 1021 43 10000 3.1 190 10:50 06.04.2020
5307 Clear 13 1021 43 10000 3.1 190 10:21 06.04.2020
5308 Clear 11 1021 53 10000 1.5 180 09:47 06.04.2020
5309 Clear 11 1021 53 10000 1.5 180 09:47 06.04.2020
5310 Clear 11 1021 53 10000 1.5 180 09:47 06.04.2020
5311 Clear 11 1021 53 10000 1.5 180 09:47 06.04.2020
5312 Clear 11 1021 53 10000 1.5 180 09:47 06.04.2020
5313 Clear 10 1021 53 10000 1.5 180 09:20 06.04.2020
5314 Clear 8 1020 77 10000 1.5 100 08:54 06.04.2020
5315 Clear 7 1020 57 10000 4.1 180 08:30 06.04.2020
5316 Clear 6 1019 56 10000 1.63 159 07:35 06.04.2020
5317 Clear 6 1019 56 10000 1.63 159 07:35 06.04.2020
5318 Clear 6 1019 60 10000 1.5 70 06:42 06.04.2020
5319 Clear 6 1019 60 10000 1.5 70 06:23 06.04.2020
5320 Clear 7 1018 45 10000 2.1 60 04:20 06.04.2020
5321 Clear 7 1018 76 10000 2.1 160 02:58 06.04.2020
5322 Clear 7 1019 43 10000 2.1 50 02:36 06.04.2020
5323 Clear 8 1019 43 10000 2.1 50 01:26 06.04.2020
5324 Clear 8 1019 43 10000 3.1 70 00:41 06.04.2020
5325 Clear 9 1019 43 10000 3.1 70 00:23 06.04.2020
5326 Clear 9 1019 40 10000 3.1 60 23:44 05.04.2020
5327 Clear 10 1019 40 10000 3.1 60 23:25 05.04.2020
5328 Clear 10 1019 40 10000 3.1 60 23:25 05.04.2020
5329 Clear 10 1019 37 10000 2.6 70 22:55 05.04.2020
5330 Clear 11 1019 37 10000 2.6 70 22:37 05.04.2020
5331 Clear 11 1019 37 10000 2.6 70 22:18 05.04.2020
5332 Clear 12 1019 37 10000 2.1 80 21:46 05.04.2020
5333 Clear 12 1019 37 10000 2.1 80 21:25 05.04.2020
5334 Clear 13 1019 33 10000 3.1 80 20:47 05.04.2020
5335 Clear 15 1019 33 10000 3.1 80 20:20 05.04.2020
5336 Clear 15 1019 33 10000 3.1 80 20:20 05.04.2020
5337 Clear 15 1019 33 10000 3.1 80 20:19 05.04.2020
5338 Clear 15 1019 33 10000 3.1 80 20:19 05.04.2020
5339 Clear 15 1019 33 10000 3.1 80 20:19 05.04.2020
5340 Clear 16 1019 29 10000 4.1 70 19:38 05.04.2020
5341 Clear 17 1019 29 10000 4.1 70 19:20 05.04.2020
5342 Clear 18 1019 27 10000 5.1 90 18:44 05.04.2020
5343 Clear 18 1019 27 10000 5.1 90 18:44 05.04.2020
5344 Clear 18 1019 27 10000 5.1 90 18:44 05.04.2020
5345 Clear 18 1019 27 10000 5.1 90 18:44 05.04.2020
5346 Clear 18 1019 27 10000 5.1 90 18:44 05.04.2020
5347 Clear 18 1019 42 10000 5.1 80 17:57 05.04.2020
5348 Clear 18 1019 42 10000 5.1 80 17:39 05.04.2020
5349 Clear 18 1019 42 10000 5.1 80 17:39 05.04.2020
5350 Clear 18 1019 42 10000 5.1 80 17:20 05.04.2020
5351 Clear 18 1019 42 10000 5.1 80 17:20 05.04.2020
5352 Clear 18 1019 42 10000 5.1 80 17:20 05.04.2020
5353 Clear 18 1019 42 10000 5.1 80 17:20 05.04.2020
5354 Clear 18 1019 42 10000 5.1 80 17:20 05.04.2020
5355 Clear 18 1020 27 10000 3.6 90 16:20 05.04.2020
5356 Clear 18 1020 27 10000 3.6 150 15:52 05.04.2020
5357 Clear 18 1020 27 10000 3.6 150 15:33 05.04.2020
5358 Clear 17 1021 31 10000 2.6 140 14:50 05.04.2020
5359 Clear 17 1020 33 10000 5.1 140 14:26 05.04.2020
5360 Clear 17 1022 31 10000 3.6 70 13:44 05.04.2020
5361 Clear 16 1022 41 10000 3.6 80 12:54 05.04.2020
5362 Clear 16 1022 41 10000 3.6 80 12:54 05.04.2020
5363 Clear 16 1022 41 10000 3.6 80 12:54 05.04.2020
5364 Clear 16 1022 41 10000 3.6 80 12:54 05.04.2020
5365 Clear 16 1022 41 10000 3.6 80 12:54 05.04.2020
5366 Clear 13 1023 48 10000 5.1 70 11:43 05.04.2020
5367 Clear 13 1023 48 10000 5.1 70 11:21 05.04.2020
5368 Clear 13 1023 48 10000 5.1 70 11:21 05.04.2020
5369 Clear 12 1022 46 10000 4.1 120 10:59 05.04.2020
5370 Clear 12 1023 50 10000 3.6 70 10:40 05.04.2020
5371 Clear 12 1023 50 10000 3.6 70 10:40 05.04.2020
5372 Clear 12 1023 50 10000 3.6 70 10:18 05.04.2020
5373 Clear 10 1023 48 10000 3.6 50 09:43 05.04.2020
5374 Clear 9 1023 48 10000 3.6 50 09:24 05.04.2020
5375 Clear 9 1023 48 10000 3.6 50 09:24 05.04.2020
5376 Clear 9 1023 52 10000 3.6 50 09:24 05.04.2020
5377 Clear 9 1023 48 10000 3.6 50 09:24 05.04.2020
5378 Clear 9 1023 48 10000 3.6 50 09:24 05.04.2020
5379 Clear 4 1022 69 10000 3.1 50 07:42 05.04.2020
5380 Clear 5 1022 60 10000 4.1 50 04:40 05.04.2020
5381 Clear 5 1022 60 10000 3.1 60 03:33 05.04.2020
5382 Clear 5 1023 56 10000 4.1 50 02:52 05.04.2020
5383 Clear 5 1023 52 10000 3.6 50 01:48 05.04.2020
5384 Clear 6 1022 52 10000 4.1 60 01:30 05.04.2020
5385 Clear 6 1023 49 10000 3.6 60 00:46 05.04.2020
5386 Clear 6 1023 49 10000 3.6 60 00:22 05.04.2020
5387 Clear 6 1023 49 10000 3.1 60 23:56 04.04.2020
5388 Clear 6 1023 49 10000 3.1 60 23:38 04.04.2020
5389 Clear 7 1023 49 10000 3.1 60 23:19 04.04.2020
5390 Clear 7 1023 49 10000 2.6 60 22:55 04.04.2020
5391 Clear 7 1023 49 10000 2.6 60 22:37 04.04.2020
5392 Clear 7 1023 49 10000 2.6 60 22:19 04.04.2020
5393 Clear 8 1023 42 10000 2.1 60 21:54 04.04.2020
5394 Clear 8 1023 42 10000 2.1 60 21:36 04.04.2020
5395 Clear 9 1023 42 10000 2.1 60 21:18 04.04.2020
5396 Clear 9 1022 40 10000 2.6 80 20:42 04.04.2020
5397 Clear 10 1022 40 10000 2.6 80 20:23 04.04.2020
5398 Clear 12 1022 64 10000 2.1 70 19:58 04.04.2020
5399 Clear 12 1022 35 10000 3.6 50 19:37 04.04.2020
5400 Clear 13 1022 35 10000 3.6 50 19:19 04.04.2020
5401 Clear 13 1022 32 10000 3.1 70 18:57 04.04.2020
5402 Clear 13 1022 32 10000 3.1 70 18:38 04.04.2020
5403 Clear 14 1022 32 10000 3.1 70 18:19 04.04.2020
5404 Clear 14 1022 35 10000 2.6 130 17:56 04.04.2020
5405 Clear 14 1022 35 10000 2.6 130 17:38 04.04.2020
5406 Clear 14 1022 35 10000 2.6 130 17:18 04.04.2020
5407 Clear 14 1023 35 10000 3.1 100 16:42 04.04.2020
5408 Clear 14 1023 35 10000 3.1 100 16:23 04.04.2020
5409 Clear 14 1022 35 10000 2.6 60 15:57 04.04.2020
5410 Clear 14 1023 37 10000 2.38 105 15:38 04.04.2020
5411 Clear 13 1023 37 10000 1.47 115 15:19 04.04.2020
5412 Clear 13 1023 37 10000 1.47 115 15:19 04.04.2020
5413 Clear 13 1023 40 10000 3.6 40 14:44 04.04.2020
5414 Clear 12 1023 40 10000 3.6 40 14:23 04.04.2020
5415 Clouds 12 1023 43 10000 3.6 40 13:58 04.04.2020
5416 Clear 12 1024 43 10000 3.6 60 13:40 04.04.2020
5417 Clear 12 1024 43 10000 3.6 60 13:20 04.04.2020
5418 Clear 12 1024 42 10000 2.1 70 12:57 04.04.2020
5419 Clear 11 1024 42 10000 2.1 70 12:39 04.04.2020
5420 Clear 10 1024 42 10000 2.1 70 12:19 04.04.2020
5421 Clear 9 1024 52 10000 3.1 70 11:41 04.04.2020
5422 Clear 9 1024 52 10000 3.1 70 11:23 04.04.2020
5423 Clear 8 1024 52 10000 3.6 50 10:58 04.04.2020
5424 Clear 8 1024 60 10000 2.1 60 10:40 04.04.2020
5425 Clear 7 1024 60 10000 2.1 60 10:22 04.04.2020
5426 Clouds 6 1024 69 10000 2.1 103 09:56 04.04.2020
5427 Clouds 5 1024 69 10000 2.1 103 09:38 04.04.2020
5428 Clouds 4 1024 69 10000 0.93 55 09:20 04.04.2020
5429 Clouds 3 1023 69 10000 0.93 55 08:43 04.04.2020
5430 Clear 2 1023 74 10000 2.6 280 08:23 04.04.2020
5431 Clouds 1 1022 76 10000 3.1 70 07:57 04.04.2020
5432 Clouds 0 1022 76 10000 3.1 70 07:38 04.04.2020
5433 Clouds 0 1022 76 10000 2.1 50 07:20 04.04.2020
5434 Clouds 0 1022 86 10000 2.6 50 06:38 04.04.2020
5435 Clouds 0 1022 86 10000 1.06 29 05:52 04.04.2020
5436 Clouds 0 1022 86 10000 1.06 29 05:52 04.04.2020
5437 Clouds 1 1021 69 10000 3.1 60 05:32 04.04.2020
5438 Clear 1 1021 82 10000 1.06 29 04:34 04.04.2020
5439 Clear 1 1021 82 10000 1.06 29 03:57 04.04.2020
5440 Clear 1 1021 82 10000 1.06 29 03:36 04.04.2020
5441 Clear 1 1021 64 10000 1.5 320 02:46 04.04.2020
5442 Clear 1 1021 64 10000 1.5 320 02:25 04.04.2020
5443 Clear 2 1021 64 10000 0.96 344 01:46 04.04.2020
5444 Clear 2 1021 64 10000 0.96 344 01:20 04.04.2020
5445 Clear 3 1020 64 10000 1.5 330 00:43 04.04.2020
5446 Clear 2 1020 64 10000 1.5 330 00:23 04.04.2020
5447 Clear 3 1020 56 10000 1.43 342 23:38 03.04.2020
5448 Clear 3 1020 56 10000 1.43 342 23:19 03.04.2020
5449 Clear 4 1019 60 10000 1.43 342 22:55 03.04.2020
5450 Clear 4 1019 60 10000 1.43 342 22:36 03.04.2020
5451 Clear 4 1019 60 10000 1.43 342 22:18 03.04.2020
5452 Clouds 5 1019 52 10000 2.1 270 21:42 03.04.2020
5453 Clouds 6 1019 52 10000 2.1 270 21:22 03.04.2020
5454 Clouds 6 1019 52 10000 2.1 280 20:56 03.04.2020
5455 Clouds 7 1019 52 10000 2.1 280 20:36 03.04.2020
5456 Clear 8 1018 48 10000 4.1 300 20:18 03.04.2020
5457 Clear 8 1018 48 10000 4.1 300 20:18 03.04.2020
5458 Clouds 8 1018 49 10000 4.1 290 19:56 03.04.2020
5459 Clouds 9 1018 49 10000 4.1 290 19:37 03.04.2020
5460 Clouds 9 1018 45 10000 4.1 290 19:19 03.04.2020
5461 Clouds 9 1017 45 10000 4.6 270 18:58 03.04.2020
5462 Clouds 9 1017 45 10000 4.6 270 18:40 03.04.2020
5463 Clouds 10 1017 45 10000 4.6 270 18:22 03.04.2020
5464 Clouds 10 1017 46 10000 5.7 290 17:43 03.04.2020
5465 Clouds 10 1017 46 10000 5.7 290 17:21 03.04.2020
5466 Clouds 10 1017 53 10000 4.6 280 16:58 03.04.2020
5467 Clouds 10 1017 46 10000 5.1 260 16:40 03.04.2020
5468 Clouds 10 1017 46 10000 5.1 260 16:21 03.04.2020
5469 Clouds 10 1017 55 10000 4.6 270 15:58 03.04.2020
5470 Clouds 10 1017 55 10000 4.6 270 15:38 03.04.2020
5471 Clouds 10 1017 51 10000 4.6 270 15:19 03.04.2020
5472 Clouds 10 1017 46 10000 5.1 260 14:55 03.04.2020
5473 Clouds 10 1017 46 10000 5.1 260 14:55 03.04.2020
5474 Clouds 10 1017 62 10000 4.1 240 14:37 03.04.2020
5475 Clouds 10 1016 57 10000 4.1 230 14:18 03.04.2020
5476 Clouds 10 1016 57 10000 4.1 230 13:42 03.04.2020
5477 Clouds 9 1016 57 10000 4.1 230 13:24 03.04.2020
5478 Clouds 9 1016 65 10000 2.6 220 12:44 03.04.2020
5479 Clouds 9 1016 65 10000 2.6 220 12:20 03.04.2020
5480 Clouds 8 1016 81 10000 3.6 240 11:57 03.04.2020
5481 Clouds 8 1016 81 10000 3.6 240 11:39 03.04.2020
5482 Clouds 8 1016 81 10000 3.6 240 11:21 03.04.2020
5483 Clouds 7 1016 81 10000 3.6 250 10:59 03.04.2020
5484 Clouds 7 1015 80 10000 2.6 200 10:39 03.04.2020
5485 Clouds 6 1015 80 10000 2.6 200 10:20 03.04.2020
5486 Clouds 6 1016 80 10000 4.1 260 09:59 03.04.2020
5487 Clouds 5 1015 80 10000 2.1 250 09:40 03.04.2020
5488 Clouds 5 1015 80 10000 2.1 250 09:22 03.04.2020
5489 Clouds 4 1014 82 10000 2.6 250 08:57 03.04.2020
5490 Clouds 4 1014 82 10000 2.6 250 08:38 03.04.2020
5491 Clouds 3 1014 82 10000 2.6 250 08:20 03.04.2020
5492 Clouds 3 1014 82 10000 3.1 250 07:48 03.04.2020
5493 Clouds 3 1014 80 10000 3.6 270 07:29 03.04.2020
5494 Clouds 3 1013 82 10000 2.6 250 06:49 03.04.2020
5495 Clouds 3 1013 74 10000 2.6 240 06:24 03.04.2020
5496 Clouds 2 1013 74 10000 3.1 240 05:40 03.04.2020
5497 Clouds 1 1013 74 10000 3.1 260 03:45 03.04.2020
5498 Clear 1 1013 74 10000 2.6 260 02:56 03.04.2020
5499 Clouds 1 1013 69 10000 3.6 280 02:28 03.04.2020
5500 Clear 2 1013 74 10000 2.6 260 01:23 03.04.2020
5501 Clear 2 1013 69 10000 2.6 220 00:40 03.04.2020
5502 Clear 2 1013 69 10000 2.6 220 00:20 03.04.2020
5503 Clear 3 1013 64 10000 2.1 250 23:42 02.04.2020
5504 Clear 3 1013 64 10000 2.1 250 23:42 02.04.2020
5505 Clear 3 1013 64 10000 2.1 250 23:23 02.04.2020
5506 Clear 4 1013 60 10000 2.6 320 22:59 02.04.2020
5507 Clear 4 1013 60 10000 2.6 270 22:41 02.04.2020
5508 Clear 5 1013 60 10000 2.6 270 22:20 02.04.2020
5509 Clear 5 1012 52 10000 2.1 270 21:55 02.04.2020
5510 Clear 5 1012 52 10000 2.1 270 21:36 02.04.2020
5511 Clear 6 1012 52 10000 2.1 270 21:18 02.04.2020
5512 Clear 6 1012 52 10000 4.1 290 20:42 02.04.2020
5513 Clear 7 1012 52 10000 4.1 290 20:23 02.04.2020
5514 Clear 8 1011 49 10000 5.1 290 19:55 02.04.2020
5515 Clear 9 1011 49 10000 5.1 290 19:37 02.04.2020
5516 Clear 9 1011 49 10000 5.1 290 19:19 02.04.2020
5517 Clear 10 1011 37 10000 5.1 290 18:42 02.04.2020
5518 Clear 11 1011 37 10000 5.1 290 18:21 02.04.2020
5519 Clear 11 1011 32 10000 2.1 200 17:59 02.04.2020
5520 Clear 11 1011 32 10000 2.1 200 17:59 02.04.2020
5521 Clear 12 1011 32 10000 2.1 200 17:40 02.04.2020
5522 Clear 12 1011 32 10000 2.1 200 17:22 02.04.2020
5523 Clear 12 1011 32 10000 5.7 270 16:57 02.04.2020
5524 Clear 12 1011 32 10000 3.6 210 16:39 02.04.2020
5525 Clear 11 1011 32 10000 3.6 210 16:21 02.04.2020
5526 Clear 12 1012 32 10000 2.6 230 15:56 02.04.2020
5527 Clear 12 1012 32 10000 2.6 230 15:38 02.04.2020
5528 Clear 12 1012 32 10000 2.6 230 15:38 02.04.2020
5529 Clear 12 1012 32 10000 2.6 230 15:18 02.04.2020
5530 Clear 11 1013 34 10000 2.6 240 14:55 02.04.2020
5531 Clear 11 1013 34 10000 2.6 240 14:37 02.04.2020
5532 Clear 11 1013 34 10000 2.6 240 14:18 02.04.2020
5533 Clear 11 1013 34 10000 1.5 230 13:54 02.04.2020
5534 Clear 11 1013 34 10000 1.5 230 13:36 02.04.2020
5535 Clear 10 1013 34 10000 1.5 230 13:18 02.04.2020
5536 Clear 10 1013 39 10000 3.03 262 12:41 02.04.2020
5537 Clear 9 1013 39 10000 0.93 224 12:19 02.04.2020
5538 Clear 8 1014 48 10000 0.93 224 11:57 02.04.2020
5539 Clear 8 1014 48 10000 0.93 224 11:39 02.04.2020
5540 Clear 8 1014 48 10000 0.93 224 11:20 02.04.2020
5541 Clear 7 1014 52 10000 0.93 224 10:56 02.04.2020
5542 Clear 6 1014 52 10000 0.93 224 10:37 02.04.2020
5543 Clear 6 1014 52 10000 0.93 224 10:19 02.04.2020
5544 Clear 6 1014 52 10000 0.93 224 10:19 02.04.2020
5545 Clear 5 1014 48 10000 2.6 40 09:58 02.04.2020
5546 Clear 4 1014 69 10000 0.93 224 09:39 02.04.2020
5547 Clear 2 1014 69 10000 1.14 23 09:20 02.04.2020
5548 Clear 0 1014 74 10000 1.14 23 08:47 02.04.2020
5549 Clear -1 1014 59 10000 2.1 70 08:27 02.04.2020
5550 Clear -1 1014 74 10000 1.14 23 07:54 02.04.2020
5551 Clear -2 1014 74 10000 1.14 23 07:36 02.04.2020
5552 Clear -2 1014 74 10000 1.14 23 07:18 02.04.2020
5553 Clear -2 1014 74 10000 1.14 23 06:23 02.04.2020
5554 Clear -1 1014 84 10000 1.56 18 05:46 02.04.2020
5555 Clear -1 1014 84 10000 1.56 18 05:46 02.04.2020
5556 Clear -1 1015 55 10000 1.56 18 04:50 02.04.2020
5557 Clear 0 1015 78 10000 1.45 17 02:19 02.04.2020
5558 Clear 1 1016 55 10000 1.45 17 00:59 02.04.2020
5559 Clear 1 1016 55 10000 1.45 17 00:41 02.04.2020
5560 Clear 2 1016 55 10000 1.38 39 00:19 02.04.2020
5561 Clear 2 1016 48 10000 2.1 10 23:39 01.04.2020
5562 Clear 3 1016 48 10000 2.1 10 23:19 01.04.2020
5563 Clear 3 1016 44 10000 2.6 10 22:56 01.04.2020
5564 Clear 3 1016 44 10000 2.6 10 22:38 01.04.2020
5565 Clear 4 1016 44 10000 2.6 10 22:19 01.04.2020
5566 Clear 4 1016 44 10000 2.6 40 21:41 01.04.2020
5567 Clear 5 1016 44 10000 2.6 40 21:19 01.04.2020
5568 Clear 5 1016 44 10000 2.6 40 21:19 01.04.2020
5569 Clear 5 1016 33 10000 1 80 20:56 01.04.2020
5570 Clear 6 1016 31 10000 1.15 50 20:38 01.04.2020
5571 Clear 7 1016 31 10000 1.15 50 20:20 01.04.2020
5572 Clear 9 1016 31 10000 1.5 90 19:58 01.04.2020
5573 Clear 9 1016 27 10000 1.15 50 19:39 01.04.2020
5574 Clear 10 1016 27 10000 1.15 50 19:19 01.04.2020
5575 Clear 10 1016 27 10000 1.15 50 19:19 01.04.2020
5576 Clear 10 1016 29 10000 1.15 50 18:42 01.04.2020
5577 Clear 11 1016 29 10000 1.15 50 18:24 01.04.2020
5578 Clear 11 1017 27 10000 0.41 69 17:58 01.04.2020
5579 Clear 11 1017 27 10000 0.41 69 17:38 01.04.2020
5580 Clear 11 1017 27 10000 0.41 69 17:19 01.04.2020
5581 Clear 11 1017 27 10000 2.6 20 16:58 01.04.2020
5582 Clear 11 1018 27 10000 3.1 120 16:39 01.04.2020
5583 Clear 11 1018 27 10000 3.1 120 16:21 01.04.2020
5584 Clear 11 1018 31 10000 3.1 90 15:57 01.04.2020
5585 Clear 11 1018 31 10000 3.1 90 15:57 01.04.2020
5586 Clear 11 1018 31 10000 3.1 90 15:38 01.04.2020
5587 Clear 10 1018 31 10000 3.1 90 15:18 01.04.2020
5588 Clear 10 1019 33 10000 2.6 90 14:55 01.04.2020
5589 Clear 10 1019 33 10000 2.6 90 14:37 01.04.2020
5590 Clear 9 1019 33 10000 2.6 90 14:19 01.04.2020
5591 Clear 9 1020 33 10000 1.72 89 13:56 01.04.2020
5592 Clear 9 1020 33 10000 1.72 89 13:37 01.04.2020
5593 Clear 8 1020 33 10000 1.72 89 13:18 01.04.2020
5594 Clear 8 1021 38 10000 1.72 89 12:42 01.04.2020
5595 Clear 7 1021 38 10000 1.72 89 12:24 01.04.2020
5596 Clear 6 1021 35 10000 4.1 30 11:59 01.04.2020
5597 Clear 6 1022 38 10000 1.5 80 11:40 01.04.2020
5598 Clear 6 1022 38 10000 1.5 80 11:21 01.04.2020
5599 Clear 6 1022 51 10000 2.15 77 10:56 01.04.2020
5600 Clear 5 1022 51 10000 2.15 77 10:37 01.04.2020
5601 Clear 4 1022 51 10000 2.15 77 10:18 01.04.2020
5602 Clear 3 1022 47 10000 3.1 60 09:40 01.04.2020
5603 Clear 1 1022 53 10000 1.99 71 09:22 01.04.2020
5604 Clear 0 1022 51 10000 3.6 50 08:59 01.04.2020
5605 Clear -1 1022 63 10000 1.42 42 08:40 01.04.2020
5606 Clear -2 1022 63 10000 1.42 42 08:18 01.04.2020
5607 Clear -3 1022 68 10000 1.42 42 07:42 01.04.2020
5608 Clear -3 1022 68 10000 1.42 42 07:20 01.04.2020
5609 Clear -3 1022 63 10000 1.42 42 06:47 01.04.2020
5610 Clear -3 1022 63 10000 1.42 42 06:23 01.04.2020
5611 Clear -3 1023 58 10000 1.58 50 05:56 01.04.2020
5612 Clear -2 1023 58 10000 1.58 50 04:30 01.04.2020
5613 Clear -2 1024 58 10000 1.58 50 03:30 01.04.2020
5614 Clear -1 1024 63 10000 2.6 20 02:49 01.04.2020
5615 Clear -1 1024 85 10000 2.1 40 01:57 01.04.2020
5616 Clear 0 1024 85 10000 2.1 40 01:38 01.04.2020
5617 Clear 0 1024 85 10000 2.1 40 01:18 01.04.2020
5618 Clear 0 1025 50 10000 2.01 62 00:46 01.04.2020
5619 Clear 1 1025 50 10000 2.01 62 00:21 01.04.2020
5620 Clear 1 1025 51 10000 1.5 40 23:48 31.03.2020
5621 Clear 1 1025 51 10000 1.5 40 23:27 31.03.2020
5622 Clear 2 1025 47 10000 3.1 70 22:58 31.03.2020
5623 Clear 2 1025 47 10000 3.1 70 22:37 31.03.2020
5624 Clear 3 1025 44 10000 3.1 60 22:19 31.03.2020
5625 Clear 3 1025 51 10000 1.5 40 21:57 31.03.2020
5626 Clear 3 1025 51 10000 1.5 40 21:39 31.03.2020
5627 Clear 4 1025 51 10000 1.5 40 21:20 31.03.2020
5628 Clear 4 1025 38 10000 3.6 50 20:55 31.03.2020
5629 Clear 5 1025 41 10000 2.1 60 20:36 31.03.2020
5630 Clear 5 1025 41 10000 2.1 60 20:36 31.03.2020
5631 Clear 6 1025 41 10000 2.1 60 20:18 31.03.2020
5632 Clear 7 1025 33 10000 4.6 50 19:42 31.03.2020
5633 Clear 7 1025 33 10000 4.6 50 19:24 31.03.2020
5634 Clear 8 1025 33 10000 4.1 70 18:59 31.03.2020
5635 Clear 8 1025 33 10000 4.1 70 18:59 31.03.2020
5636 Clear 8 1025 33 10000 4.1 70 18:41 31.03.2020
5637 Clear 9 1025 33 10000 4.1 70 18:19 31.03.2020
5638 Clear 9 1026 31 10000 6.2 20 17:55 31.03.2020
5639 Clear 9 1026 31 10000 6.2 20 17:37 31.03.2020
5640 Clear 9 1026 31 10000 6.2 20 17:19 31.03.2020
5641 Clear 9 1026 36 10000 5.1 360 16:41 31.03.2020
5642 Clear 9 1026 36 10000 5.1 360 16:20 31.03.2020
5643 Clouds 9 1025 36 10000 5.1 70 15:58 31.03.2020
5644 Clear 9 1026 36 10000 5.1 360 15:40 31.03.2020
5645 Clear 9 1026 36 10000 5.1 360 15:22 31.03.2020
5646 Clouds 8 1026 39 10000 4.1 70 14:58 31.03.2020
5647 Clouds 8 1026 39 10000 4.1 70 14:58 31.03.2020
5648 Clear 8 1026 33 10000 5.7 20 14:40 31.03.2020
5649 Clouds 8 1027 42 10000 3.1 50 14:21 31.03.2020
5650 Clouds 7 1027 48 10000 4.1 40 13:43 31.03.2020
5651 Clouds 7 1027 48 10000 4.1 40 13:20 31.03.2020
5652 Clouds 7 1027 45 10000 6.2 70 12:59 31.03.2020
5653 Clouds 6 1027 45 10000 6.2 70 12:40 31.03.2020
5654 Clouds 6 1027 56 10000 6.7 50 12:19 31.03.2020
5655 Clouds 6 1027 56 10000 6.7 50 12:19 31.03.2020
5656 Clouds 6 1027 69 10000 5.1 40 11:55 31.03.2020
5657 Clouds 5 1027 69 10000 5.1 40 11:36 31.03.2020
5658 Clouds 5 1027 69 10000 4.6 50 11:18 31.03.2020
5659 Clouds 5 1027 62 10000 5.7 60 10:54 31.03.2020
5660 Clouds 5 1027 62 10000 5.7 60 10:36 31.03.2020
5661 Clouds 4 1027 62 10000 5.7 60 10:18 31.03.2020
5662 Clouds 4 1027 62 10000 4.6 60 09:42 31.03.2020
5663 Clouds 3 1027 62 10000 5.1 50 09:24 31.03.2020
5664 Clouds 2 1026 83 10000 4.1 50 08:57 31.03.2020
5665 Clouds 2 1026 83 10000 4.1 50 08:39 31.03.2020
5666 Clouds 1 1026 83 10000 3.6 50 08:19 31.03.2020
5667 Clouds 1 1026 83 10000 3.1 40 07:56 31.03.2020
5668 Clouds 1 1026 83 10000 3.1 40 07:38 31.03.2020
5669 Clouds 1 1026 83 10000 3.1 40 07:19 31.03.2020
5670 Clouds 1 1025 83 10000 2.6 30 06:51 31.03.2020
5671 Clouds 1 1025 80 10000 4.6 50 06:30 31.03.2020
5672 Clouds 0 1025 82 10000 2.6 20 05:40 31.03.2020
5673 Clouds 0 1025 86 10000 2.6 340 03:43 31.03.2020
5674 Clouds 0 1025 74 10000 2.14 24 02:26 31.03.2020
5675 Clouds 0 1025 69 10000 2.1 340 01:46 31.03.2020
5676 Clouds 1 1025 59 10000 2.14 24 00:52 31.03.2020
5677 Clouds 1 1025 59 10000 2.14 24 00:25 31.03.2020
5678 Clear 1 1025 59 10000 3.6 30 23:59 30.03.2020
5679 Clouds 1 1025 59 10000 1.5 330 23:38 30.03.2020
5680 Clouds 1 1025 59 10000 2.1 330 23:19 30.03.2020
5681 Clear 1 1025 59 10000 2.02 12 22:56 30.03.2020
5682 Clear 1 1025 59 10000 2.02 12 22:37 30.03.2020
5683 Clear 2 1025 59 10000 2.02 12 22:18 30.03.2020
5684 -273 0 0 0 0 0 21:55 30.03.2020
5685 Clear 2 1025 55 10000 1.5 340 21:37 30.03.2020
5686 Clear 3 1025 55 10000 1.5 340 21:18 30.03.2020
5687 Clear 4 1025 51 10000 3.1 350 20:42 30.03.2020
5688 Clear 4 1025 51 10000 3.1 350 20:24 30.03.2020
5689 Clear 5 1025 48 10000 6.2 20 19:59 30.03.2020
5690 Clear 6 1025 48 10000 4.1 340 19:40 30.03.2020
5691 Clear 6 1025 48 10000 4.1 340 19:22 30.03.2020
5692 Clear 7 1025 39 10000 5.7 10 18:57 30.03.2020
5693 Clear 7 1025 39 10000 5.7 10 18:39 30.03.2020
5694 Clear 7 1025 39 10000 5.7 10 18:20 30.03.2020
5695 Clear 7 1025 33 10000 4.1 350 17:57 30.03.2020
5696 Clear 8 1025 33 10000 4.1 350 17:38 30.03.2020
5697 Clear 8 1025 33 10000 4.1 350 17:19 30.03.2020
5698 Clear 8 1025 30 10000 5.7 20 16:56 30.03.2020
5699 Clear 8 1025 30 10000 5.7 20 16:37 30.03.2020
5700 Clear 8 1025 30 10000 5.7 20 16:19 30.03.2020
5701 Clear 8 1026 28 10000 3.1 20 15:54 30.03.2020
5702 Clear 7 1026 28 10000 3.1 20 15:36 30.03.2020
5703 Clear 7 1026 28 10000 3.1 20 15:18 30.03.2020
5704 Clear 6 1027 25 10000 3.1 50 14:54 30.03.2020
5705 Clear 6 1027 25 10000 3.1 50 14:36 30.03.2020
5706 Clear 6 1027 25 10000 3.1 50 14:18 30.03.2020
5707 Clear 5 1027 25 10000 4.1 40 13:43 30.03.2020
5708 Clear 5 1027 25 10000 4.1 40 13:21 30.03.2020
5709 Clear 5 1027 27 10000 5.1 60 12:58 30.03.2020
5710 Clear 4 1027 27 10000 5.1 60 12:40 30.03.2020
5711 Clear 3 1028 34 10000 5.1 50 12:19 30.03.2020
5712 Clear 3 1028 37 10000 6.7 60 11:57 30.03.2020
5713 Clear 3 1028 37 10000 6.7 60 11:38 30.03.2020
5714 Clear 2 1028 37 10000 4.6 30 11:20 30.03.2020
5715 Clear 2 1029 43 10000 4.1 40 10:40 30.03.2020
5716 Clear 1 1029 43 10000 4.1 40 10:22 30.03.2020
5717 Clear 0 1028 60 10000 6.7 60 09:57 30.03.2020
5718 Clear 0 1028 50 10000 4.6 40 09:38 30.03.2020
5719 Clear -1 1028 50 10000 4.6 40 09:19 30.03.2020
5720 Clear -2 1028 58 10000 4.6 30 08:42 30.03.2020
5721 Clear -2 1028 58 10000 4.6 30 08:23 30.03.2020
5722 Clear -2 1028 53 10000 3.1 30 07:50 30.03.2020
5723 Clear -3 1027 54 10000 5.7 50 07:31 30.03.2020
5724 Clear -3 1028 63 10000 6.7 40 06:57 30.03.2020
5725 Clear -2 1028 63 10000 6.7 40 06:33 30.03.2020
5726 Clear -2 1028 58 10000 5.7 20 05:55 30.03.2020
5727 Clear -2 1028 58 10000 5.7 20 05:34 30.03.2020
5728 Clear -1 1027 63 10000 8.2 30 04:26 30.03.2020
5729 Clear -1 1028 63 10000 4.6 20 03:45 30.03.2020
5730 Clear 0 1029 63 10000 4.6 30 02:43 30.03.2020
5731 Clouds 0 1029 88 10000 6.2 20 01:52 30.03.2020
5732 Clouds 1 1028 74 10000 7.2 30 00:56 30.03.2020
5733 Clouds 1 1028 74 10000 7.2 30 00:25 30.03.2020
5734 Clouds 1 1028 74 10000 7.2 30 00:25 30.03.2020
5735 Clouds 2 1028 80 10000 5.1 10 23:55 29.03.2020
5736 Clouds 2 1028 80 10000 5.1 10 23:36 29.03.2020
5737 Clouds 2 1028 74 10000 6.2 10 23:18 29.03.2020
5738 Clouds 2 1028 80 10000 7.2 20 22:39 29.03.2020
5739 Clouds 2 1028 80 10000 7.2 20 22:39 29.03.2020
5740 Clouds 2 1027 80 10000 5.1 10 22:20 29.03.2020
5741 Clouds 2 1027 74 10000 8.7 30 21:59 29.03.2020
5742 Rain 2 1027 80 10000 5.1 10 21:37 29.03.2020
5743 Clouds 2 1027 86 10000 6.2 10 21:19 29.03.2020
5744 Rain 2 1027 86 10000 5.1 10 20:55 29.03.2020
5745 Rain 2 1027 86 10000 5.1 10 20:37 29.03.2020
5746 Snow 2 1026 86 10000 5.1 10 20:18 29.03.2020
5747 Snow 2 1026 86 10000 5.1 10 20:18 29.03.2020
5748 Clouds 2 1025 74 10000 7.2 10 19:55 29.03.2020
5749 Clouds 3 1025 74 10000 8.2 360 19:37 29.03.2020
5750 Clouds 3 1025 74 10000 8.2 360 19:19 29.03.2020
5751 Clouds 3 1025 74 10000 7.7 10 18:55 29.03.2020
5752 Clouds 3 1024 69 10000 6.2 360 18:37 29.03.2020
5753 Clouds 4 1024 69 10000 6.2 360 18:18 29.03.2020
5754 Clouds 4 1024 69 10000 7.2 10 17:55 29.03.2020
5755 Clouds 4 1024 69 10000 7.2 10 17:36 29.03.2020
5756 Clouds 4 1024 69 10000 5.7 340 17:18 29.03.2020
5757 Clouds 4 1024 69 10000 6.7 10 16:55 29.03.2020
5758 Clouds 4 1024 69 10000 6.7 10 16:36 29.03.2020
5759 Snow 4 1024 74 10000 6.7 10 16:18 29.03.2020
5760 Clouds 5 1024 60 10000 7.2 350 15:41 29.03.2020
5761 Rain 4 1024 64 10000 7.2 350 15:23 29.03.2020
5762 Rain 4 1024 64 10000 7.2 350 15:23 29.03.2020
5763 Clouds 5 1023 48 10000 7.7 30 14:57 29.03.2020
5764 Clouds 5 1024 60 10000 7.2 10 14:39 29.03.2020
5765 Clouds 5 1023 51 10000 7.2 10 14:20 29.03.2020
5766 Clouds 5 1023 48 10000 5.7 10 13:57 29.03.2020
5767 Clouds 5 1023 48 10000 5.7 10 13:39 29.03.2020
5768 Clouds 5 1023 55 10000 7.2 10 13:19 29.03.2020
5769 Clouds 5 1023 60 10000 5.7 360 12:55 29.03.2020
5770 Clouds 5 1023 64 10000 7.2 10 12:37 29.03.2020
5771 Clouds 4 1023 64 10000 7.2 10 12:18 29.03.2020
5772 Clouds 4 1023 56 10000 7.2 340 11:55 29.03.2020
5773 Clouds 5 1023 56 10000 7.2 340 11:36 29.03.2020
5774 Clouds 4 1023 55 10000 6.7 20 11:18 29.03.2020
5775 Clouds 4 1023 60 10000 6.2 10 10:38 29.03.2020
5776 Clouds 4 1023 60 10000 6.2 10 10:19 29.03.2020
5777 Clouds 3 1023 64 10000 6.2 360 09:41 29.03.2020
5778 Clouds 3 1023 64 10000 6.2 360 09:41 29.03.2020
5779 Clouds 2 1023 69 10000 4.1 360 09:20 29.03.2020
5780 Clouds 2 1022 74 10000 3.6 10 08:54 29.03.2020
5781 Clouds 2 1022 74 10000 3.6 10 08:36 29.03.2020
5782 Clouds 1 1022 74 10000 3.6 10 08:18 29.03.2020
5783 Clouds 1 1022 74 10000 3.6 360 07:42 29.03.2020
5784 Clouds 2 1022 69 10000 2.1 360 07:21 29.03.2020
5785 Clouds 3 1022 64 10000 5.7 20 05:50 29.03.2020
5786 Clouds 3 1022 64 10000 4.1 10 04:29 29.03.2020
5787 Clouds 4 1023 64 10000 6.7 360 03:31 29.03.2020
5788 Clouds 5 1022 67 10000 6.2 350 01:51 29.03.2020
5789 Clouds 5 1022 67 10000 6.2 350 01:23 29.03.2020
5790 Clouds 5 1022 75 10000 4.6 350 00:58 29.03.2020
5791 Clouds 5 1022 75 10000 4.6 350 00:33 29.03.2020
5792 Clouds 6 1022 70 10000 5.1 350 23:57 28.03.2020
5793 Clouds 6 1022 70 10000 5.1 350 23:39 28.03.2020
5794 Clear 7 1022 70 10000 3.1 360 23:20 28.03.2020
5795 Clear 7 1021 66 10000 4.6 360 22:41 28.03.2020
5796 Clear 7 1021 66 10000 4.6 360 22:22 28.03.2020
5797 Clear 8 1021 52 10000 3.6 360 21:56 28.03.2020
5798 Clear 8 1021 52 10000 3.6 360 21:38 28.03.2020
5799 Clear 9 1021 52 10000 3.6 360 21:19 28.03.2020
5800 Clear 9 1020 45 10000 6.2 360 20:55 28.03.2020
5801 Clear 9 1020 45 10000 6.2 360 20:37 28.03.2020
5802 Clear 10 1020 45 10000 6.2 360 20:18 28.03.2020
5803 Clear 10 1019 43 10000 5.7 360 19:55 28.03.2020
5804 Clear 11 1019 43 10000 5.7 360 19:36 28.03.2020
5805 Clear 11 1019 43 10000 5.7 360 19:18 28.03.2020
5806 Clear 13 1018 37 10000 6.7 340 18:39 28.03.2020
5807 Clear 14 1018 37 10000 6.7 340 18:20 28.03.2020
5808 Clear 15 1018 41 10000 7.7 340 17:42 28.03.2020
5809 Clear 16 1018 41 10000 7.7 340 17:22 28.03.2020
5810 Clear 16 1018 38 10000 5.7 340 16:59 28.03.2020
5811 Clear 16 1018 38 10000 5.7 340 16:39 28.03.2020
5812 Clear 17 1018 38 10000 5.7 340 16:18 28.03.2020
5813 Clear 17 1018 33 10000 5.7 50 15:55 28.03.2020
5814 Clear 17 1018 33 10000 5.7 50 15:37 28.03.2020
5815 Clear 17 1018 33 10000 5.7 40 15:18 28.03.2020
5816 Clear 17 1018 33 10000 5.7 50 14:41 28.03.2020
5817 Clear 17 1018 33 10000 5.1 50 14:21 28.03.2020
5818 Clear 16 1019 38 10000 3.1 40 13:43 28.03.2020
5819 Clouds 16 1018 36 10000 6.7 50 13:24 28.03.2020
5820 Clear 16 1019 41 10000 5.1 50 12:57 28.03.2020
5821 Clear 16 1019 41 10000 5.1 50 12:37 28.03.2020
5822 Clear 16 1019 41 10000 5.1 50 12:18 28.03.2020
5823 Clear 15 1019 44 10000 4.6 50 11:41 28.03.2020
5824 Clear 14 1019 44 10000 4.6 50 11:21 28.03.2020
5825 Clear 13 1019 46 10000 4.1 40 10:40 28.03.2020
5826 Clear 12 1019 46 10000 4.1 40 10:22 28.03.2020
5827 Clouds 11 1019 50 10000 4.6 50 09:59 28.03.2020
5828 Clear 11 1019 53 10000 3.6 60 09:39 28.03.2020
5829 Clear 10 1019 53 10000 3.6 60 09:20 28.03.2020
5830 Clear 8 1018 61 10000 3.6 60 08:42 28.03.2020
5831 Clear 7 1018 61 10000 3.6 60 08:23 28.03.2020
5832 Clear 5 1018 84 10000 1.5 40 07:52 28.03.2020
5833 Clear 5 1018 84 10000 1.5 40 07:34 28.03.2020
5834 Clear 6 1018 84 10000 2.6 50 06:45 28.03.2020
5835 Clear 5 1018 84 10000 2.6 50 06:20 28.03.2020
5836 Clear 6 1018 84 10000 2.6 40 05:26 28.03.2020
5837 Clear 6 1017 84 10000 3.1 40 04:53 28.03.2020
5838 Clear 6 1017 84 10000 3.1 40 04:35 28.03.2020
5839 Clear 6 1018 84 10000 4.1 40 02:50 28.03.2020
5840 Clear 6 1017 84 10000 3.1 40 01:47 28.03.2020
5841 Clear 5 1017 81 10000 3.1 40 01:23 28.03.2020
5842 Clear 5 1017 81 10000 2.6 30 00:49 28.03.2020
5843 Clear 5 1017 81 10000 2.6 30 00:25 28.03.2020
5844 Clear 5 1017 81 10000 2.52 39 23:44 27.03.2020
5845 Clear 6 1017 81 10000 2.52 39 23:26 27.03.2020
5846 Clear 6 1017 78 10000 2.6 20 22:57 27.03.2020
5847 Clear 6 1017 78 10000 2.6 20 22:39 27.03.2020
5848 Clear 7 1017 78 10000 2.6 20 22:20 27.03.2020
5849 Clouds 7 1017 78 10000 4.1 40 21:58 27.03.2020
5850 Clear 7 1017 78 10000 2.6 30 21:40 27.03.2020
5851 Clear 7 1017 78 10000 2.6 30 21:22 27.03.2020
5852 Clear 8 1017 78 10000 4.1 30 20:57 27.03.2020
5853 Clear 8 1017 78 10000 4.1 30 20:39 27.03.2020
5854 Clear 9 1017 69 10000 4.1 30 20:19 27.03.2020
5855 Clear 9 1017 69 10000 4.1 30 20:19 27.03.2020
5856 Clear 9 1016 69 10000 4.6 30 19:55 27.03.2020
5857 Clear 10 1016 69 10000 4.6 30 19:36 27.03.2020
5858 Clear 11 1016 69 10000 4.6 30 19:18 27.03.2020
5859 Clear 12 1016 69 10000 4.6 30 18:42 27.03.2020
5860 Clear 13 1016 69 10000 4.6 30 18:23 27.03.2020
5861 Clear 13 1016 69 10000 5.1 50 17:54 27.03.2020
5862 Clear 13 1016 69 10000 5.1 50 17:36 27.03.2020
5863 Clear 14 1016 51 10000 5.1 50 17:18 27.03.2020
5864 Clear 14 1016 51 10000 5.1 50 16:43 27.03.2020
5865 Clear 14 1016 51 10000 5.1 50 16:24 27.03.2020
5866 Clear 14 1015 51 10000 6.2 60 15:44 27.03.2020
5867 Clear 14 1015 51 0 4.16 60 15:26 27.03.2020
5868 Clear 14 1015 51 0 4.16 60 14:56 27.03.2020
5869 Clear 14 1015 51 0 4.16 60 14:37 27.03.2020
5870 Clouds 12 1017 51 0 4.44 72 14:18 27.03.2020
5871 Clouds 12 1017 51 0 4.44 72 13:43 27.03.2020
5872 Clear 12 1017 50 0 4.37 70 13:22 27.03.2020
5873 Clear 12 1017 50 0 4.37 70 12:59 27.03.2020
5874 Clear 12 1017 50 0 4.37 70 12:41 27.03.2020
5875 Clear 12 1017 50 0 4.37 70 12:19 27.03.2020
5876 Clear 12 1017 50 0 4.37 70 11:43 27.03.2020
5877 Clear 12 1017 50 0 4.37 70 11:25 27.03.2020
5878 Clear 8 1018 58 0 3.93 65 10:57 27.03.2020
5879 Clear 8 1018 58 0 3.93 65 10:39 27.03.2020
5880 Clear 8 1018 58 0 3.93 65 10:20 27.03.2020
5881 Clear 8 1018 58 0 3.93 65 09:58 27.03.2020
5882 Clear 8 1018 58 0 3.93 65 09:39 27.03.2020
5883 Clear 8 1018 58 0 3.93 65 09:21 27.03.2020
5884 Clear 8 1018 58 0 3.93 65 08:58 27.03.2020
5885 Clear 8 1018 58 0 3.93 65 08:39 27.03.2020
5886 Clouds 8 1018 58 0 3.89 67 08:21 27.03.2020
5887 Clear 1 1018 84 0 2.96 25 07:53 27.03.2020
5888 Clear 1 1018 84 0 2.96 25 07:28 27.03.2020
5889 Clear 1 1018 84 0 2.96 25 06:59 27.03.2020
5890 Clear 1 1018 84 0 2.96 25 06:37 27.03.2020
5891 Clear 1 1018 84 0 2.96 25 05:44 27.03.2020
5892 Clear 1 1018 84 0 3.05 27 02:52 27.03.2020
5893 Clouds 3 1018 76 0 3.68 45 01:54 27.03.2020
5894 Clouds 3 1018 75 0 4.07 39 00:58 27.03.2020
5895 Clouds 3 1018 75 0 4.07 39 00:38 27.03.2020
5896 Clouds 3 1018 75 0 4.07 39 00:18 27.03.2020
5897 Clouds 3 1018 75 0 4.07 39 23:37 26.03.2020
5898 Clouds 3 1019 72 0 3.82 38 23:18 26.03.2020
5899 Clouds 3 1019 72 0 3.82 38 22:56 26.03.2020
5900 Clouds 3 1019 72 0 3.82 38 22:36 26.03.2020
5901 Clouds 3 1019 72 0 3.82 38 22:18 26.03.2020
5902 Clouds 3 1019 72 0 3.82 38 21:40 26.03.2020
5903 Clouds 3 1019 72 0 3.82 38 21:21 26.03.2020
5904 Clouds 3 1019 72 0 3.82 38 21:21 26.03.2020
5905 Clouds 3 1019 72 0 3.82 38 20:58 26.03.2020
5906 Clouds 3 1019 72 0 3.82 38 20:39 26.03.2020
5907 Clouds 3 1019 72 0 3.82 38 20:21 26.03.2020
5908 Clouds 3 1019 72 0 3.82 38 20:21 26.03.2020
5909 Clouds 5 1018 65 0 3.18 37 19:58 26.03.2020
5910 Clouds 5 1018 65 0 3.18 37 19:58 26.03.2020
5911 Clouds 5 1018 65 0 3.18 37 19:39 26.03.2020
5912 Clouds 5 1018 65 0 3.18 37 19:20 26.03.2020
5913 Clouds 5 1018 65 0 3.18 37 18:58 26.03.2020
5914 Clouds 5 1018 65 0 3.18 37 18:40 26.03.2020
5915 Clouds 5 1018 65 0 3.18 37 18:21 26.03.2020
5916 Clouds 5 1018 65 0 3.18 37 17:44 26.03.2020
5917 Clear 9 1018 48 0 5.04 70 17:20 26.03.2020
5918 Clear 9 1018 48 0 5.04 70 16:57 26.03.2020
5919 Clear 9 1018 48 0 5.04 70 16:38 26.03.2020
5920 Clear 9 1018 48 0 5.04 70 16:18 26.03.2020
5921 Clear 9 1018 48 0 5.04 70 15:54 26.03.2020
5922 Clear 9 1018 48 0 5.04 70 15:36 26.03.2020
5923 Clear 9 1018 48 0 5.04 70 15:18 26.03.2020
5924 Clear 9 1018 48 0 5.04 70 14:42 26.03.2020
5925 Clear 9 1018 48 0 5.04 70 14:24 26.03.2020
5926 Clear 8 1019 50 0 6.05 80 13:55 26.03.2020
5927 Clear 8 1019 50 0 6.05 80 13:37 26.03.2020
5928 Clear 8 1019 50 0 6.05 80 13:19 26.03.2020
5929 Clear 8 1019 50 0 6.06 80 12:38 26.03.2020
5930 -273 0 0 0 0 0 12:20 26.03.2020
5931 -273 0 0 0 0 0 12:20 26.03.2020
5932 Clear 8 1019 50 0 6.06 80 11:46 26.03.2020
5933 Clear 8 1019 50 0 6.06 80 11:23 26.03.2020
5934 Clear 4 1020 61 0 6.32 77 10:59 26.03.2020
5935 Clear 4 1020 61 0 6.32 77 10:41 26.03.2020
5936 Clear 4 1020 61 0 6.32 77 10:20 26.03.2020
5937 Clear 4 1020 61 0 6.32 77 09:45 26.03.2020
5938 Clear 4 1020 61 0 6.32 77 09:21 26.03.2020
5939 Clear 4 1020 61 0 6.32 77 08:57 26.03.2020
5940 Clear 4 1020 61 0 6.32 77 08:39 26.03.2020
5941 -273 0 0 0 0 0 08:20 26.03.2020
5942 Clear -1 1020 86 0 4.77 57 07:46 26.03.2020
5943 Clear -1 1020 86 0 4.77 57 07:24 26.03.2020
5944 Clear -1 1020 86 0 4.77 57 06:59 26.03.2020
5945 Clear -1 1020 86 0 4.77 57 06:32 26.03.2020
5946 Clear -1 1020 86 0 4.77 57 05:47 26.03.2020
5947 Clear -1 1020 84 0 4.35 54 03:46 26.03.2020
5948 Clear -1 1020 84 0 4.35 54 02:58 26.03.2020
5949 Clear 0 1021 80 0 4.09 56 01:51 26.03.2020
5950 Clear 0 1021 80 0 4.09 56 01:18 26.03.2020
5951 Clear 0 1021 79 0 4.58 54 00:32 26.03.2020
5952 Clear 0 1021 79 0 4.58 54 23:44 25.03.2020
5953 Clear 0 1021 79 0 4.58 54 23:24 25.03.2020
5954 Clear 1 1022 72 0 4.29 64 22:54 25.03.2020
5955 Clear 1 1022 72 0 4.29 64 22:36 25.03.2020
5956 Clear 1 1022 72 0 4.29 64 22:18 25.03.2020
5957 Clear 1 1022 72 0 4.29 64 21:42 25.03.2020
5958 Clear 1 1022 72 0 4.29 64 21:23 25.03.2020
5959 Clear 1 1022 72 0 4.29 64 20:58 25.03.2020
5960 Clear 1 1022 72 0 4.29 64 20:38 25.03.2020
5961 Clear 4 1021 64 0 3.9 65 20:19 25.03.2020
5962 Clear 4 1021 64 0 3.87 60 19:55 25.03.2020
5963 Clear 4 1021 64 0 3.8 62 19:37 25.03.2020
5964 Clear 4 1021 64 0 3.87 60 19:18 25.03.2020
5965 Clear 4 1021 64 0 3.8 62 18:43 25.03.2020
5966 Clear 4 1021 64 0 3.8 62 18:25 25.03.2020
5967 Clear 4 1021 64 0 3.8 62 17:58 25.03.2020
5968 Clear 4 1021 64 0 3.8 62 17:40 25.03.2020
5969 Clear 4 1021 64 0 3.8 62 17:21 25.03.2020
5970 Clear 9 1022 44 0 6.25 69 16:56 25.03.2020
5971 Clear 9 1022 44 0 6.25 69 16:38 25.03.2020
5972 Clear 9 1022 44 0 6.25 69 16:20 25.03.2020
5973 Clear 9 1022 44 0 6.25 69 15:42 25.03.2020
5974 Clear 9 1022 44 0 6.25 69 15:21 25.03.2020
5975 Clear 9 1022 45 0 6.29 71 14:57 25.03.2020
5976 Clear 9 1022 45 0 6.29 71 14:57 25.03.2020
5977 Clear 9 1022 44 0 6.25 69 14:39 25.03.2020
5978 Clear 8 1024 45 0 5.56 77 14:20 25.03.2020
5979 Clear 8 1024 45 0 5.56 77 13:44 25.03.2020
5980 Clear 8 1024 45 0 5.56 77 13:24 25.03.2020
5981 Clear 8 1023 46 0 5.63 76 12:40 25.03.2020
5982 Clear 8 1023 46 0 5.63 76 12:21 25.03.2020
5983 Clear 8 1023 46 0 5.63 76 11:59 25.03.2020
5984 Clear 8 1023 46 0 5.63 76 11:41 25.03.2020
5985 Clear 8 1023 46 0 5.63 76 11:21 25.03.2020
5986 Clear 8 1023 46 0 5.63 76 11:21 25.03.2020
5987 Clear 4 1026 57 0 5.45 84 10:58 25.03.2020
5988 Clear 4 1026 57 0 5.45 84 10:40 25.03.2020
5989 Clear 4 1026 57 0 5.45 84 10:40 25.03.2020
5990 Clear 4 1026 57 0 5.45 84 10:19 25.03.2020
5991 Clear 4 1026 57 0 5.45 84 09:58 25.03.2020
5992 Clear 4 1026 57 0 5.45 84 09:39 25.03.2020
5993 Clear 4 1026 57 0 5.45 84 09:21 25.03.2020
5994 Clear 4 1026 57 0 5.45 84 08:43 25.03.2020
5995 Clear 4 1026 57 0 5.45 84 08:25 25.03.2020
5996 Clear -2 1027 85 0 3.45 66 07:58 25.03.2020
5997 Clear -2 1027 85 0 3.45 66 07:38 25.03.2020
5998 Clear -2 1027 85 0 3.45 66 07:18 25.03.2020
5999 Clear -2 1027 85 0 3.45 66 06:43 25.03.2020
6000 Clear -2 1027 85 0 3.45 66 06:25 25.03.2020
6001 Clear -2 1027 85 0 3.45 66 05:47 25.03.2020
6002 Clear -1 1027 83 0 3.83 76 04:46 25.03.2020
6003 Clear -1 1027 83 0 3.83 76 03:58 25.03.2020
6004 Clear -1 1027 83 0 3.83 76 03:34 25.03.2020
6005 Clear 0 1028 77 0 3.93 80 01:41 25.03.2020
6006 Clear 0 1028 76 0 4.08 78 00:51 25.03.2020
6007 Clear 0 1028 76 0 4.08 78 00:32 25.03.2020
6008 Clear 0 1028 76 0 4.08 78 23:59 24.03.2020
6009 Clear 0 1028 76 0 4.08 78 23:40 24.03.2020
6010 Clear 0 1028 76 0 4.08 78 23:21 24.03.2020
6011 Clear 1 1029 73 0 4.24 77 22:55 24.03.2020
6012 Clear 1 1029 73 0 4.24 77 22:36 24.03.2020
6013 Clear 1 1029 73 0 4.24 77 22:18 24.03.2020
6014 Clear 1 1029 73 0 4.24 77 21:54 24.03.2020
6015 Clear 1 1029 73 0 4.24 77 21:36 24.03.2020
6016 Clear 1 1029 73 0 4.24 77 21:18 24.03.2020
6017 Clear 1 1029 73 0 4.24 77 20:41 24.03.2020
6018 Clear 1 1029 73 0 4.24 77 20:23 24.03.2020
6019 Clear 3 1028 66 0 3.97 70 19:54 24.03.2020
6020 Clear 3 1028 66 0 3.97 70 19:36 24.03.2020
6021 Clear 3 1028 66 0 3.97 70 19:18 24.03.2020
6022 Clear 3 1028 66 0 3.97 70 18:54 24.03.2020
6023 Clear 3 1028 66 0 3.97 70 18:36 24.03.2020
6024 Clear 3 1028 66 0 3.97 70 18:18 24.03.2020
6025 Clear 3 1028 66 0 3.97 70 17:41 24.03.2020
6026 Clear 3 1028 66 0 3.97 70 17:22 24.03.2020
6027 Clear 3 1028 66 0 3.97 70 17:22 24.03.2020
6028 Clear 8 1027 26 10000 5.7 80 16:57 24.03.2020
6029 Clear 8 1027 26 10000 5.7 80 16:39 24.03.2020
6030 Clear 8 1027 26 10000 5.7 60 16:20 24.03.2020
6031 Clear 8 1027 26 10000 5.7 60 16:20 24.03.2020
6032 Clear 8 1027 27 10000 4.1 100 15:57 24.03.2020
6033 Clear 8 1027 24 10000 4.1 80 15:37 24.03.2020
6034 Clear 8 1028 26 10000 5.7 70 15:19 24.03.2020
6035 Clear 8 1028 26 10000 6.2 110 14:42 24.03.2020
6036 Clear 7 1030 47 0 6.16 99 14:19 24.03.2020
6037 Clear 7 1030 47 0 6.16 99 13:44 24.03.2020
6038 Clear 7 1030 47 0 6.06 98 13:24 24.03.2020
6039 Clear 7 1030 47 0 6.06 98 12:57 24.03.2020
6040 Clear 7 1030 47 0 6.06 98 12:37 24.03.2020
6041 Clear 7 1030 47 0 6.06 98 12:19 24.03.2020
6042 Clear 7 1030 47 0 6.06 98 11:40 24.03.2020
6043 Clear 4 1030 27 10000 6.7 80 11:20 24.03.2020
6044 Clear 4 1029 32 10000 5.1 70 10:54 24.03.2020
6045 Clear 4 1029 32 10000 5.1 70 10:36 24.03.2020
6046 Clear 3 1030 34 10000 5.7 70 10:18 24.03.2020
6047 Clear 3 1029 37 10000 5.1 90 09:42 24.03.2020
6048 Clear 3 1030 36 10000 5.7 110 09:24 24.03.2020
6049 Clear 2 1029 40 10000 4.6 90 08:40 24.03.2020
6050 Clear 0 1029 54 10000 5.1 110 08:21 24.03.2020
6051 Clear 0 1029 54 10000 5.1 110 08:21 24.03.2020
6052 Clear -1 1029 54 10000 4.1 100 07:51 24.03.2020
6053 Clear -1 1029 50 10000 4.1 110 07:25 24.03.2020
6054 Clear -1 1029 50 10000 4.1 110 07:25 24.03.2020
6055 Clear -1 1029 53 10000 5.1 110 06:59 24.03.2020
6056 Clear -2 1029 50 10000 4.6 70 06:33 24.03.2020
6057 Clear -1 1029 50 10000 4.1 110 05:30 24.03.2020
6058 Clear -1 1029 53 10000 5.1 100 04:49 24.03.2020
6059 Clear 0 1030 53 10000 3.6 60 03:19 24.03.2020
6060 Clear 0 1029 37 10000 4.6 100 01:59 24.03.2020
6061 Clear 1 1029 40 10000 6.2 100 00:52 24.03.2020
6062 Clear 1 1029 48 10000 4.6 110 00:26 24.03.2020
6063 Clear 1 1029 40 10000 5.7 100 23:55 23.03.2020
6064 Clear 1 1029 48 10000 5.7 110 23:36 23.03.2020
6065 Clear 1 1030 40 10000 4.6 70 23:18 23.03.2020
6066 Clear 2 1029 37 10000 4.1 80 22:42 23.03.2020
6067 Clear 2 1030 40 10000 5.7 110 22:22 23.03.2020
6068 Clear 2 1030 40 10000 5.7 110 22:22 23.03.2020
6069 Clear 2 1029 40 10000 4.6 110 21:54 23.03.2020
6070 Clear 2 1029 34 10000 4.6 90 21:36 23.03.2020
6071 Clear 3 1030 32 10000 3.6 70 21:18 23.03.2020
6072 Clear 3 1029 29 10000 5.1 90 20:42 23.03.2020
6073 Clear 3 1030 34 10000 4.1 100 20:24 23.03.2020
6074 Clear 4 1030 34 10000 4.1 100 19:55 23.03.2020
6075 Clear 4 1029 27 10000 5.7 80 19:37 23.03.2020
6076 Clear 5 1030 27 10000 5.1 60 19:19 23.03.2020
6077 Clear 5 1029 26 10000 4.1 80 18:43 23.03.2020
6078 Clear 6 1029 26 10000 4.6 70 18:25 23.03.2020
6079 Clear 7 1029 32 10000 4.6 100 17:59 23.03.2020
6080 Clear 7 1028 20 10000 5.7 90 17:41 23.03.2020
6081 Clear 7 1029 24 10000 5.7 100 17:19 23.03.2020
6082 Clear 8 1028 20 10000 6.2 90 16:44 23.03.2020
6083 Clear 8 1029 30 10000 5.1 110 16:25 23.03.2020
6084 Clear 8 1028 22 10000 6.7 110 15:58 23.03.2020
6085 Clear 8 1028 24 10000 6.2 110 15:39 23.03.2020
6086 Clear 8 1029 24 10000 6.7 90 15:18 23.03.2020
6087 Clear 8 1029 22 10000 7.7 120 14:37 23.03.2020
6088 Clear 7 1030 26 10000 5.7 100 14:19 23.03.2020
6089 Clear 7 1030 32 10000 5.7 100 13:57 23.03.2020
6090 Clear 7 1029 24 10000 6.7 120 13:38 23.03.2020
6091 Clear 7 1029 24 10000 6.7 120 13:38 23.03.2020
6092 Clear 7 1030 27 10000 5.7 90 13:20 23.03.2020
6093 Clear 6 1029 26 10000 6.2 100 12:43 23.03.2020
6094 Clear 6 1030 32 10000 6.2 80 12:25 23.03.2020
6095 Clear 5 1029 27 10000 7.2 100 11:57 23.03.2020
6096 Clear 5 1029 27 10000 7.2 100 11:38 23.03.2020
6097 Clear 5 1029 27 10000 7.2 100 11:38 23.03.2020
6098 Clear 4 1030 37 10000 5.7 80 11:19 23.03.2020
6099 Clear 3 1029 37 10000 5.7 90 10:56 23.03.2020
6100 Clear 3 1029 37 10000 5.7 90 10:37 23.03.2020
6101 Clear 3 1030 40 10000 6.2 70 10:19 23.03.2020
6102 Clear 2 1029 43 10000 6.2 80 09:44 23.03.2020
6103 Clear 1 1030 34 10000 9.8 80 09:21 23.03.2020
6104 Clear 0 1030 50 10000 6.7 100 08:56 23.03.2020
6105 Clear 0 1029 34 10000 5.1 80 08:36 23.03.2020
6106 Clear -1 1030 50 10000 8.7 70 08:18 23.03.2020
6107 Clear -1 1029 46 10000 5.1 80 07:42 23.03.2020
6108 Clear -2 1030 54 10000 7.2 70 07:21 23.03.2020
6109 Clear -2 1028 54 10000 5.1 80 06:49 23.03.2020
6110 Clear -2 1030 54 10000 8.2 80 05:51 23.03.2020
6111 Clear -1 1028 50 10000 6.2 80 04:58 23.03.2020
6112 Clear 0 1029 54 10000 6.2 100 03:28 23.03.2020
6113 Clear 1 1028 47 10000 6.7 90 01:51 23.03.2020
6114 Clear 1 1029 54 10000 5.7 100 01:32 23.03.2020
6115 Clear 1 1028 43 10000 6.7 90 00:36 23.03.2020
6116 Clear 2 1028 40 10000 7.2 90 23:47 22.03.2020
6117 Clear 2 1029 56 10000 5.1 110 23:26 22.03.2020
6118 Clear 3 1028 44 10000 7.2 80 22:45 22.03.2020
6119 Clear 3 1029 40 10000 6.2 70 22:26 22.03.2020
6120 Clear 3 1029 47 10000 4.6 100 21:56 22.03.2020
6121 Clear 4 1027 40 10000 5.7 80 21:37 22.03.2020
6122 Clear 4 1028 38 10000 5.7 70 21:19 22.03.2020
6123 Clear 4 1028 43 10000 7.2 100 20:54 22.03.2020
6124 Clear 4 1027 38 10000 6.2 80 20:36 22.03.2020
6125 Clear 4 1028 35 10000 4.1 70 20:18 22.03.2020
6126 Clear 4 1028 44 10000 5.1 100 19:54 22.03.2020
6127 Clear 5 1027 35 10000 6.7 80 19:36 22.03.2020
6128 Clear 5 1027 32 10000 5.1 70 19:18 22.03.2020
6129 Clear 6 1026 35 10000 6.2 80 18:41 22.03.2020
6130 Clear 7 1027 28 10000 6.7 80 18:22 22.03.2020
6131 Clear 7 1027 28 10000 6.7 80 18:22 22.03.2020
6132 Clear 7 1027 35 10000 4.1 90 17:59 22.03.2020
6133 Clear 7 1025 31 10000 5.7 80 17:39 22.03.2020
6134 Clear 8 1026 28 10000 7.7 70 17:21 22.03.2020
6135 Clear 8 1026 33 10000 4.6 90 16:59 22.03.2020
6136 Clear 8 1025 29 10000 6.7 70 16:41 22.03.2020
6137 Clear 8 1026 33 10000 4.6 80 16:22 22.03.2020
6138 Clear 8 1025 26 10000 7.2 80 15:59 22.03.2020
6139 Clear 8 1025 27 10000 6.2 80 15:39 22.03.2020
6140 Clear 8 1025 29 10000 7.2 90 14:47 22.03.2020
6141 Clear 8 1026 26 10000 9.8 60 14:20 22.03.2020
6142 Clear 8 1025 31 10000 6.7 90 13:58 22.03.2020
6143 Clear 8 1025 31 10000 6.7 90 13:58 22.03.2020
6144 Clear 8 1025 33 10000 7.2 70 13:40 22.03.2020
6145 Clear 8 1026 30 10000 7.2 70 13:19 22.03.2020
6146 Clear 7 1025 39 10000 6.7 60 12:44 22.03.2020
6147 Clear 7 1026 38 10000 9.3 70 12:23 22.03.2020
6148 Clear 6 1026 44 10000 6.7 80 11:58 22.03.2020
6149 Clear 5 1025 44 10000 8.7 50 11:39 22.03.2020
6150 Clear 5 1026 41 10000 9.3 60 11:21 22.03.2020
6151 Clear 4 1025 51 10000 8.2 60 10:54 22.03.2020
6152 Clear 4 1025 51 10000 8.2 60 10:36 22.03.2020
6153 Clear 4 1026 51 10000 7.7 70 10:18 22.03.2020
6154 Clear 2 1024 59 10000 8.7 60 09:41 22.03.2020
6155 Clear 2 1026 55 10000 8.2 60 09:19 22.03.2020
6156 Clear 1 1024 59 10000 8.7 50 08:43 22.03.2020
6157 Clear 1 1025 63 10000 7.7 90 08:24 22.03.2020
6158 Clouds 0 1023 73 10000 7.2 50 07:51 22.03.2020
6159 Clouds 0 1025 68 10000 7.2 100 07:26 22.03.2020
6160 Clouds -1 1023 68 10000 7.7 60 06:35 22.03.2020
6161 Clouds 0 1024 68 10000 7.2 100 05:35 22.03.2020
6162 Clouds 1 1022 69 10000 6.7 70 03:46 22.03.2020
6163 Clouds 1 1022 74 10000 7.7 70 01:28 22.03.2020
6164 Clouds 2 1022 69 10000 7.2 70 00:48 22.03.2020
6165 Clouds 2 1023 69 10000 7.7 90 00:29 22.03.2020
6166 Clouds 2 1024 59 10000 6.7 50 23:44 21.03.2020
6167 Clear 2 1023 64 10000 8.2 40 23:21 21.03.2020
6168 Clouds 2 1023 69 10000 5.1 80 22:58 21.03.2020
6169 Clouds 2 1022 64 10000 7.2 70 22:37 21.03.2020
6170 Clear 3 1024 64 10000 6.2 50 22:18 21.03.2020
6171 Clouds 3 1023 64 10000 5.1 80 21:56 21.03.2020
6172 Clouds 3 1022 69 10000 6.2 80 21:37 21.03.2020
6173 Clear 3 1023 59 10000 5.7 50 21:18 21.03.2020
6174 Clouds 3 1022 64 10000 6.7 70 20:42 21.03.2020
6175 Clouds 4 1023 55 10000 7.7 60 20:20 21.03.2020
6176 Clouds 4 1023 64 10000 5.7 90 19:54 21.03.2020
6177 Clouds 4 1023 60 10000 5.7 60 19:36 21.03.2020
6178 Clouds 4 1022 60 10000 6.2 60 19:18 21.03.2020
6179 Clouds 5 1022 56 10000 7.2 60 18:40 21.03.2020
6180 Clouds 5 1022 60 10000 5.7 50 18:20 21.03.2020
6181 Clouds 5 1022 74 10000 4.6 80 17:58 21.03.2020
6182 Rain 5 1021 75 10000 7.2 70 17:39 21.03.2020
6183 Clouds 5 1022 65 10000 7.2 60 17:21 21.03.2020
6184 Rain 6 1021 80 10000 7.2 70 16:42 21.03.2020
6185 Clouds 6 1022 65 10000 8.2 50 16:23 21.03.2020
6186 Rain 6 1021 80 10000 8.2 60 15:58 21.03.2020
6187 Clouds 5 1021 80 10000 8.2 50 15:40 21.03.2020
6188 Clouds 6 1022 81 10000 8.7 50 15:21 21.03.2020
6189 Rain 5 1021 86 10000 6.7 70 14:56 21.03.2020
6190 Rain 6 1021 80 10000 8.2 60 14:37 21.03.2020
6191 Clouds 5 1022 75 10000 9.3 50 14:19 21.03.2020
6192 Rain 5 1021 80 10000 8.2 70 13:57 21.03.2020
6193 Clouds 5 1021 75 10000 6.2 80 13:39 21.03.2020
6194 Clouds 5 1022 86 10000 9.3 50 13:20 21.03.2020
6195 Clouds 5 1022 93 10000 7.7 60 12:55 21.03.2020
6196 Clouds 5 1022 93 10000 7.7 60 12:36 21.03.2020
6197 Rain 5 1022 93 10000 7.2 50 12:18 21.03.2020
6198 Rain 5 1022 86 10000 7.7 50 11:55 21.03.2020
6199 Rain 4 1022 86 10000 6.7 60 11:37 21.03.2020
6200 Rain 4 1022 93 10000 7.2 60 11:18 21.03.2020
6201 Clouds 4 1022 93 10000 7.7 50 10:55 21.03.2020
6202 Clouds 4 1022 93 10000 7.7 50 10:37 21.03.2020
6203 Clouds 3 1022 93 10000 8.7 50 10:18 21.03.2020
6204 Rain 3 1022 86 10000 7.7 60 09:40 21.03.2020
6205 Rain 3 1022 100 10000 7.7 50 09:21 21.03.2020
6206 Snow 2 1022 100 8000 4.1 70 08:58 21.03.2020
6207 Clouds 2 1022 100 10000 8.2 50 08:39 21.03.2020
6208 Rain 2 1022 100 8000 4.1 80 08:21 21.03.2020
6209 Rain 2 1021 90 1200 7.7 40 07:39 21.03.2020
6210 Rain 2 1022 100 10000 6.7 40 07:20 21.03.2020
6211 Rain 2 1022 100 10000 6.7 40 06:45 21.03.2020
6212 Rain 2 1022 90 3000 5.7 60 06:26 21.03.2020
6213 Clouds 2 1022 100 10000 7.2 40 05:41 21.03.2020
6214 Rain 3 1021 100 4300 9.3 50 04:42 21.03.2020
6215 Rain 5 1022 93 10000 7.7 50 02:40 21.03.2020
6216 Rain 5 1022 100 10000 7.2 40 02:18 21.03.2020
6217 Rain 6 1021 87 10000 8.2 40 01:31 21.03.2020
6218 Rain 6 1022 93 10000 7.7 50 00:47 21.03.2020
6219 Clouds 6 1022 93 10000 6.7 40 00:25 21.03.2020
6220 Clouds 7 1021 87 10000 7.2 30 23:49 20.03.2020
6221 Clouds 7 1022 93 10000 3.1 60 23:26 20.03.2020
6222 Clouds 7 1022 87 10000 2.6 60 22:57 20.03.2020
6223 Clouds 8 1022 87 8000 6.7 30 22:39 20.03.2020
6224 Clouds 8 1022 87 10000 3.6 10 22:20 20.03.2020
6225 Clouds 8 1022 93 10000 6.2 40 21:55 20.03.2020
6226 Clouds 8 1022 81 8000 7.2 30 21:37 20.03.2020
6227 Clouds 8 1022 87 10000 5.1 20 21:18 20.03.2020
6228 Clouds 8 1022 93 9000 5.7 20 20:56 20.03.2020
6229 Clouds 8 1021 81 10000 8.2 30 20:38 20.03.2020
6230 Clouds 8 1022 87 10000 4.6 20 20:18 20.03.2020
6231 Clouds 9 1022 87 10000 4.1 360 19:44 20.03.2020
6232 Clear 10 1022 81 10000 4.1 350 19:19 20.03.2020
6233 Clouds 10 1021 87 9000 5.7 360 18:55 20.03.2020
6234 Rain 11 1020 71 9000 7.2 40 18:37 20.03.2020
6235 Clear 12 1021 81 10000 5.1 360 18:19 20.03.2020
6236 Rain 13 1020 62 8000 6.2 30 17:39 20.03.2020
6237 Clouds 14 1021 66 10000 4.6 10 17:21 20.03.2020
6238 Clouds 14 1020 58 10000 7.2 40 16:58 20.03.2020
6239 Clouds 14 1020 58 10000 7.2 40 16:58 20.03.2020
6240 Clouds 14 1020 58 10000 7.2 40 16:40 20.03.2020
6241 Clouds 15 1021 66 10000 4.1 20 16:19 20.03.2020
6242 Clouds 15 1020 48 10000 5.7 30 15:42 20.03.2020
6243 Clouds 15 1021 71 10000 4.6 10 15:22 20.03.2020
6244 Clouds 15 1021 71 10000 5.1 10 14:56 20.03.2020
6245 Clouds 15 1021 45 10000 3.6 70 14:37 20.03.2020
6246 Clouds 16 1021 62 10000 3.6 30 14:19 20.03.2020
6247 Clouds 15 1021 54 10000 2.6 80 13:45 20.03.2020
6248 Clouds 16 1022 55 10000 2.6 50 13:19 20.03.2020
6249 Clouds 16 1022 58 10000 4.1 50 12:54 20.03.2020
6250 Clouds 16 1022 58 10000 4.1 50 12:36 20.03.2020
6251 Clear 15 1022 54 10000 5.1 40 12:18 20.03.2020
6252 Clouds 15 1022 62 10000 3.6 60 11:39 20.03.2020
6253 Clear 13 1022 58 10000 5.7 50 11:20 20.03.2020
6254 Clear 13 1022 62 10000 4.6 50 10:54 20.03.2020
6255 Clear 13 1022 62 10000 4.6 50 10:36 20.03.2020
6256 Clear 12 1022 66 10000 2.6 60 10:18 20.03.2020
6257 Clear 11 1022 66 10000 5.7 50 09:43 20.03.2020
6258 Clear 10 1022 81 10000 1.38 38 09:20 20.03.2020
6259 Clear 8 1022 71 10000 4.6 40 08:43 20.03.2020
6260 Clouds 8 1022 81 10000 2.6 10 08:23 20.03.2020
6261 Clouds 7 1022 76 10000 5.1 40 07:57 20.03.2020
6262 Clouds 7 1022 76 10000 5.7 40 07:38 20.03.2020
6263 Clouds 6 1022 81 10000 2.28 14 07:19 20.03.2020
6264 Clouds 6 1021 87 10000 1 0 06:42 20.03.2020
6265 Clouds 7 1021 81 10000 0.5 0 05:57 20.03.2020
6266 Clouds 7 1021 75 10000 1.5 90 04:27 20.03.2020
6267 Clouds 8 1022 76 10000 4.1 40 02:50 20.03.2020
6268 Clouds 8 1022 76 10000 4.6 40 01:50 20.03.2020
6269 Clouds 8 1022 76 10000 4.6 40 00:38 20.03.2020
6270 Clouds 8 1023 71 10000 3.1 20 23:59 19.03.2020
6271 Clouds 8 1022 71 10000 4.6 40 23:40 19.03.2020
6272 Clear 9 1023 71 10000 2.6 40 23:19 19.03.2020
6273 Clouds 9 1023 62 10000 2.1 20 22:40 19.03.2020
6274 Clear 9 1023 76 10000 1.5 40 22:22 19.03.2020
6275 Clouds 9 1023 66 10000 2.1 10 21:58 19.03.2020
6276 Clouds 9 1023 66 10000 2.1 310 21:38 19.03.2020
6277 Clouds 10 1023 71 10000 2.1 30 21:19 19.03.2020
6278 Clouds 10 1023 61 10000 1.5 310 20:44 19.03.2020
6279 Clouds 10 1023 66 10000 1.5 80 20:25 19.03.2020
6280 Clouds 11 1023 71 10000 2.1 80 19:59 19.03.2020
6281 Clouds 11 1022 54 10000 1.69 26 19:39 19.03.2020
6282 Clouds 12 1022 58 10000 2.6 30 19:21 19.03.2020
6283 Clouds 13 1022 62 10000 1.5 50 18:59 19.03.2020
6284 Clouds 13 1022 50 10000 1.69 26 18:41 19.03.2020
6285 Clouds 14 1022 58 10000 2.6 40 18:22 19.03.2020
6286 Clouds 15 1022 44 10000 1.5 210 17:56 19.03.2020
6287 Clouds 15 1023 62 10000 3.1 50 17:37 19.03.2020
6288 Clouds 15 1022 54 10000 2.6 60 17:18 19.03.2020
6289 Clouds 15 1023 47 10000 2.1 210 16:43 19.03.2020
6290 Clouds 16 1023 51 10000 1.5 60 16:22 19.03.2020
6291 Clouds 16 1023 48 10000 2.1 90 15:44 19.03.2020
6292 Clouds 16 1023 54 10000 1.5 0 15:25 19.03.2020
6293 Clouds 16 1023 54 10000 2.6 40 14:55 19.03.2020
6294 Clouds 16 1023 51 10000 2.6 160 14:37 19.03.2020
6295 Clouds 16 1024 48 10000 2.1 90 14:18 19.03.2020
6296 Clouds 15 1024 58 10000 2.1 110 13:39 19.03.2020
6297 Clouds 16 1024 48 10000 1.5 140 13:19 19.03.2020
6298 Clouds 15 1025 51 10000 2.6 40 12:44 19.03.2020
6299 Clear 15 1025 47 10000 2.1 80 12:24 19.03.2020
6300 Clouds 15 1025 54 10000 2.1 0 11:59 19.03.2020
6301 Clouds 15 1025 54 10000 2.1 0 11:41 19.03.2020
6302 Clear 14 1025 62 10000 1.39 189 11:23 19.03.2020
6303 Clear 13 1025 62 10000 2.6 40 10:56 19.03.2020
6304 Clear 13 1025 62 10000 2.6 40 10:36 19.03.2020
6305 Clear 12 1025 71 10000 0.5 50 10:18 19.03.2020
6306 Clear 10 1025 71 10000 2.1 70 09:42 19.03.2020
6307 Clouds 9 1025 76 10000 0.5 0 09:24 19.03.2020
6308 Clear 8 1025 71 10000 3.1 50 08:48 19.03.2020
6309 Clouds 7 1025 76 10000 0.5 0 08:23 19.03.2020
6310 Clear 6 1025 75 10000 2.6 50 07:59 19.03.2020
6311 Clear 6 1025 75 10000 2.1 40 07:38 19.03.2020
6312 Clear 6 1025 100 10000 0.85 40 07:19 19.03.2020
6313 Clear 5 1025 100 10000 0.85 40 06:27 19.03.2020
6314 Clouds 5 1025 100 10000 0.85 40 05:25 19.03.2020
6315 Clear 6 1025 75 10000 1 60 04:50 19.03.2020
6316 Clouds 5 1025 86 10000 0.53 43 04:21 19.03.2020
6317 Clear 6 1025 70 10000 1.5 270 01:58 19.03.2020
6318 Clouds 6 1025 66 10000 2.1 250 00:53 19.03.2020
6319 Clear 6 1025 87 10000 0.44 39 00:20 19.03.2020
6320 Clear 6 1026 75 10000 2.1 280 23:44 18.03.2020
6321 Clear 7 1026 81 10000 0.44 39 23:26 18.03.2020
6322 Clear 7 1026 70 10000 2.1 240 22:43 18.03.2020
6323 Clear 7 1026 66 10000 2.6 240 22:23 18.03.2020
6324 Clear 8 1026 70 10000 1.5 240 21:59 18.03.2020
6325 Clear 8 1026 66 10000 1.5 210 21:40 18.03.2020
6326 Clear 8 1026 66 10000 0.27 292 21:21 18.03.2020
6327 Clear 8 1026 66 10000 0.27 292 21:21 18.03.2020
6328 Clear 8 1026 66 10000 3.1 230 20:57 18.03.2020
6329 Clear 8 1026 66 10000 0.5 0 20:38 18.03.2020
6330 Clear 9 1026 62 10000 2.1 220 20:19 18.03.2020
6331 Clouds 10 1026 62 10000 2.1 240 19:45 18.03.2020
6332 Clear 10 1026 66 10000 1.5 200 19:21 18.03.2020
6333 Clouds 11 1026 66 10000 1.5 230 18:59 18.03.2020
6334 Clouds 12 1026 54 10000 2.1 290 18:40 18.03.2020
6335 Clear 13 1026 58 10000 2.6 210 18:19 18.03.2020
6336 Clouds 14 1026 50 10000 3.1 250 17:57 18.03.2020
6337 Clouds 14 1026 50 10000 3.1 250 17:39 18.03.2020
6338 Clouds 14 1026 54 10000 3.1 230 17:20 18.03.2020
6339 Clouds 14 1027 50 10000 4.6 250 16:54 18.03.2020
6340 Clouds 15 1027 50 10000 4.6 250 16:36 18.03.2020
6341 Clouds 14 1026 50 10000 5.1 210 16:18 18.03.2020
6342 Clouds 14 1027 50 10000 4.6 260 15:44 18.03.2020
6343 Clouds 14 1027 58 10000 4.6 220 15:20 18.03.2020
6344 Clouds 14 1028 54 10000 4.1 250 14:45 18.03.2020
6345 Clouds 14 1028 62 10000 3.1 250 14:21 18.03.2020
6346 Clouds 14 1028 71 10000 3.1 290 13:56 18.03.2020
6347 Clouds 14 1028 71 10000 1.5 240 13:36 18.03.2020
6348 Clouds 13 1028 76 10000 2.6 250 13:18 18.03.2020
6349 Clouds 13 1029 76 8000 1.5 0 12:41 18.03.2020
6350 Clouds 12 1029 87 10000 2.1 230 12:19 18.03.2020
6351 Clouds 12 1029 81 6000 2.1 230 11:39 18.03.2020
6352 Clouds 11 1029 93 10000 1.5 230 11:21 18.03.2020
6353 Mist 11 1029 87 5000 2.6 250 10:58 18.03.2020
6354 Mist 10 1029 87 5000 2.6 250 10:39 18.03.2020
6355 Clouds 9 1029 93 10000 1.07 221 10:20 18.03.2020
6356 Clouds 9 1029 81 10000 3.6 280 09:56 18.03.2020
6357 Mist 9 1029 87 5000 2.1 240 09:38 18.03.2020
6358 Clouds 8 1029 100 10000 1.07 221 09:20 18.03.2020
6359 Clouds 7 1029 100 10000 1.07 221 08:39 18.03.2020
6360 Clear 6 1029 100 10000 1.07 221 08:21 18.03.2020
6361 Clear 5 1029 100 10000 0.55 163 07:49 18.03.2020
6362 Mist 5 1029 100 6000 0.55 163 07:31 18.03.2020
6363 Clear 5 1029 100 8000 2.1 270 06:50 18.03.2020
6364 Clear 5 1029 93 10000 2.1 280 06:31 18.03.2020
6365 Clear 5 1028 87 10000 3.1 240 05:36 18.03.2020
6366 Clear 5 1028 81 10000 3.1 240 04:29 18.03.2020
6367 Clear 5 1029 87 10000 1.5 220 02:51 18.03.2020
6368 Clear 5 1029 87 10000 1.5 240 02:32 18.03.2020
6369 Clear 6 1029 87 10000 0.19 121 01:31 18.03.2020
6370 Clouds 6 1030 76 10000 2.6 260 00:42 18.03.2020
6371 Clear 7 1030 81 10000 0.19 121 00:20 18.03.2020
6372 Clouds 7 1030 76 10000 2.6 240 23:40 17.03.2020
6373 Clear 7 1030 76 10000 1.5 270 23:19 17.03.2020
6374 Clear 7 1030 81 10000 2.6 270 22:42 17.03.2020
6375 Clear 7 1030 81 10000 2.1 230 22:24 17.03.2020
6376 Clear 8 1030 76 10000 2.6 260 21:43 17.03.2020
6377 Clear 8 1030 76 10000 3.1 230 21:23 17.03.2020
6378 Clear 9 1030 71 10000 3.1 240 20:57 17.03.2020
6379 Clear 9 1030 71 10000 3.1 240 20:37 17.03.2020
6380 Clear 9 1029 71 10000 2.1 210 20:19 17.03.2020
6381 Clouds 10 1030 66 10000 2.6 250 19:41 17.03.2020
6382 Clear 11 1029 66 10000 2.1 220 19:19 17.03.2020
6383 Clear 12 1031 71 10000 2.1 250 18:57 17.03.2020
6384 Clouds 12 1029 62 10000 3.1 240 18:39 17.03.2020
6385 Clear 13 1029 62 10000 3.1 210 18:21 17.03.2020
6386 Clouds 14 1029 58 10000 3.6 240 17:56 17.03.2020
6387 Clouds 14 1029 58 10000 3.6 240 17:38 17.03.2020
6388 Clear 14 1029 51 10000 1.5 240 17:18 17.03.2020
6389 Clouds 15 1029 54 10000 3.1 230 16:42 17.03.2020
6390 Clear 15 1029 51 10000 3.6 230 16:19 17.03.2020
6391 Clear 15 1029 51 10000 3.6 230 16:19 17.03.2020
6392 Clouds 15 1030 54 10000 4.1 240 15:45 17.03.2020
6393 Clear 15 1029 51 10000 4.6 260 15:23 17.03.2020
6394 Clouds 14 1030 58 10000 4.6 260 14:47 17.03.2020
6395 Clouds 14 1029 62 10000 2.1 290 14:27 17.03.2020
6396 Clouds 14 1030 66 10000 3.6 280 13:58 17.03.2020
6397 Clouds 14 1030 58 10000 4.1 280 13:40 17.03.2020
6398 Clouds 13 1030 58 10000 1.5 210 13:22 17.03.2020
6399 Clouds 13 1030 71 10000 3.1 230 12:47 17.03.2020
6400 Clear 14 1030 66 10000 3.1 210 12:25 17.03.2020
6401 Clouds 13 1031 76 8000 2.6 220 11:57 17.03.2020
6402 Clouds 12 1031 76 8000 2.6 220 11:39 17.03.2020
6403 Clouds 11 1030 71 10000 2.1 250 11:20 17.03.2020
6404 Clouds 11 1030 71 10000 2.1 240 10:54 17.03.2020
6405 Clouds 11 1030 71 10000 2.1 240 10:36 17.03.2020
6406 Clouds 10 1030 76 10000 3.1 270 10:18 17.03.2020
6407 Mist 9 1030 87 3000 2.6 300 09:45 17.03.2020
6408 Mist 9 1030 87 3000 2.6 300 09:45 17.03.2020
6409 Mist 9 1029 87 9000 2.6 280 09:20 17.03.2020
6410 Mist 9 1029 93 3500 2.6 280 08:58 17.03.2020
6411 Mist 9 1029 93 3500 2.6 280 08:58 17.03.2020
6412 Mist 8 1029 93 8000 2.6 290 08:40 17.03.2020
6413 Mist 8 1029 93 6000 3.1 280 08:18 17.03.2020
6414 Mist 8 1029 93 2000 2.6 240 07:49 17.03.2020
6415 Mist 7 1028 100 6000 3.1 260 07:20 17.03.2020
6416 Mist 7 1028 100 6000 0.91 285 06:49 17.03.2020
6417 Clouds 7 1027 100 10000 0.91 285 06:25 17.03.2020
6418 Clouds 7 1027 100 10000 2.1 240 05:26 17.03.2020
6419 Clouds 8 1026 87 8000 2.6 300 03:31 17.03.2020
6420 Clouds 8 1026 87 10000 3.1 300 02:31 17.03.2020
6421 Clouds 8 1026 87 10000 2.6 260 01:38 17.03.2020
6422 Clouds 9 1025 81 10000 2.6 260 00:53 17.03.2020
6423 Clouds 9 1025 81 10000 1.55 205 00:18 17.03.2020
6424 Clouds 9 1025 76 10000 2.1 280 23:38 16.03.2020
6425 Clouds 10 1025 76 10000 2.1 240 23:19 16.03.2020
6426 Clouds 10 1025 76 10000 3.1 280 22:38 16.03.2020
6427 Clouds 10 1024 71 10000 1.18 258 22:20 16.03.2020
6428 Clouds 11 1024 71 10000 4.1 270 21:45 16.03.2020
6429 Clouds 11 1024 66 10000 2.6 250 21:27 16.03.2020
6430 Clouds 11 1023 71 10000 3.1 220 20:59 16.03.2020
6431 Clouds 11 1023 66 10000 4.1 250 20:40 16.03.2020
6432 Clear 11 1023 71 10000 2.1 220 20:21 16.03.2020
6433 Clouds 11 1023 62 10000 4.1 240 19:46 16.03.2020
6434 Clouds 11 1022 62 10000 2.6 240 19:25 16.03.2020
6435 Clouds 13 1022 62 10000 2.1 230 18:59 16.03.2020
6436 Clouds 13 1022 58 10000 3.1 250 18:39 16.03.2020
6437 Clouds 14 1022 58 10000 1.5 210 18:20 16.03.2020
6438 Clouds 15 1022 54 10000 2.1 250 17:46 16.03.2020
6439 Clear 15 1021 54 10000 2.1 210 17:26 16.03.2020
6440 Clouds 15 1021 54 10000 2.6 260 16:58 16.03.2020
6441 Clouds 15 1021 54 10000 4.1 240 16:40 16.03.2020
6442 Clear 15 1021 51 10000 1.5 230 16:21 16.03.2020
6443 Clouds 15 1020 55 10000 3.1 200 15:43 16.03.2020
6444 Clouds 15 1020 58 10000 3.1 300 15:24 16.03.2020
6445 Clouds 15 1020 58 10000 3.1 160 14:48 16.03.2020
6446 Clouds 15 1020 58 10000 3.1 280 14:23 16.03.2020
6447 Clouds 15 1020 58 10000 4.1 200 13:51 16.03.2020
6448 Clouds 15 1020 58 10000 4.1 200 13:29 16.03.2020
6449 Clouds 14 1019 62 10000 2.1 310 12:58 16.03.2020
6450 Clouds 14 1020 62 10000 3.1 180 12:40 16.03.2020
6451 Clear 14 1019 58 10000 2.9 227 12:20 16.03.2020
6452 Clouds 13 1019 66 10000 2.6 190 11:45 16.03.2020
6453 Clear 13 1019 66 10000 2.9 227 11:26 16.03.2020
6454 Clouds 11 1019 71 10000 3.1 170 10:47 16.03.2020
6455 Clouds 11 1018 66 10000 2.1 280 10:25 16.03.2020
6456 Clouds 10 1019 71 10000 2.1 160 09:59 16.03.2020
6457 Clouds 9 1018 76 10000 1.5 160 09:40 16.03.2020
6458 Clear 8 1018 75 10000 1.5 210 09:20 16.03.2020
6459 Clouds 6 1018 75 10000 3.1 160 08:43 16.03.2020
6460 Clouds 5 1017 86 10000 3.6 160 08:23 16.03.2020
6461 Clear 3 1017 86 10000 2.1 190 07:44 16.03.2020
6462 Clear 4 1016 93 10000 1.98 152 07:21 16.03.2020
6463 Clear 3 1016 87 10000 1.5 180 06:46 16.03.2020
6464 Clear 3 1016 86 10000 1.98 152 06:23 16.03.2020
6465 Clear 4 1015 75 10000 1.5 190 04:53 16.03.2020
6466 Clear 4 1014 70 10000 2.6 160 02:40 16.03.2020
6467 Clouds 5 1013 61 10000 2.6 170 00:49 16.03.2020
6468 Clouds 5 1013 61 10000 2.6 170 00:30 16.03.2020
6469 Clouds 6 1013 61 10000 1.5 170 23:42 15.03.2020
6470 Clear 6 1013 65 10000 2.35 146 23:20 15.03.2020
6471 Clouds 7 1013 65 10000 2.1 140 22:42 15.03.2020
6472 Clouds 7 1013 86 10000 6.2 150 22:22 15.03.2020
6473 Clouds 7 1013 86 10000 4.6 140 21:56 15.03.2020
6474 Clouds 7 1013 61 10000 1 0 21:37 15.03.2020
6475 Clear 7 1013 61 10000 2.35 146 21:18 15.03.2020
6476 Clouds 8 1013 53 10000 2.1 150 20:42 15.03.2020
6477 Clear 8 1013 53 10000 1.5 130 20:20 15.03.2020
6478 Clouds 9 1013 78 10000 2.6 150 19:58 15.03.2020
6479 Clouds 9 1013 50 10000 3.1 150 19:38 15.03.2020
6480 Clear 10 1013 53 10000 2.28 158 19:19 15.03.2020
6481 Clouds 10 1013 57 10000 4.1 170 18:55 15.03.2020
6482 Clouds 11 1013 50 10000 4.1 160 18:37 15.03.2020
6483 Clear 12 1013 53 10000 2.6 180 18:19 15.03.2020
6484 Clouds 13 1013 47 10000 5.1 160 17:41 15.03.2020
6485 Clouds 13 1013 47 10000 5.1 160 17:41 15.03.2020
6486 Clear 13 1013 47 10000 4.6 190 17:21 15.03.2020
6487 Clouds 13 1013 50 10000 5.1 170 16:58 15.03.2020
6488 Clouds 13 1013 47 10000 6.2 170 16:39 15.03.2020
6489 Clear 13 1014 50 10000 5.7 180 16:21 15.03.2020
6490 Clouds 13 1014 54 10000 5.7 170 15:46 15.03.2020
6491 Clouds 13 1014 54 10000 5.7 170 15:28 15.03.2020
6492 Clouds 13 1014 50 10000 5.7 180 14:58 15.03.2020
6493 Clouds 13 1014 58 10000 4.6 170 14:38 15.03.2020
6494 Clouds 12 1015 58 10000 5.1 210 14:19 15.03.2020
6495 Clouds 12 1015 53 10000 5.7 190 13:55 15.03.2020
6496 Clouds 12 1015 66 10000 4.6 170 13:37 15.03.2020
6497 Clear 12 1015 62 10000 6.2 190 13:18 15.03.2020
6498 Clear 12 1015 62 10000 6.2 190 13:18 15.03.2020
6499 Clouds 11 1016 66 10000 5.7 190 12:40 15.03.2020
6500 Clouds 11 1016 71 10000 4.6 180 12:21 15.03.2020
6501 Clouds 10 1017 70 10000 4.1 170 11:44 15.03.2020
6502 Clouds 10 1017 70 10000 4.1 190 11:25 15.03.2020
6503 Clouds 8 1016 61 10000 6.7 160 10:59 15.03.2020
6504 Clouds 8 1017 75 10000 3.1 170 10:40 15.03.2020
6505 Clouds 7 1017 65 10000 6.2 150 10:21 15.03.2020
6506 Clouds 7 1017 75 10000 3.6 170 09:59 15.03.2020
6507 Clouds 7 1017 80 10000 4.6 160 09:38 15.03.2020
6508 Clouds 6 1017 65 10000 1.5 100 09:19 15.03.2020
6509 Clouds 5 1017 75 10000 4.1 170 08:41 15.03.2020
6510 Clouds 5 1017 75 10000 2.24 138 08:19 15.03.2020
6511 Clouds 5 1017 75 10000 4.1 180 07:49 15.03.2020
6512 Clouds 4 1017 87 10000 1.5 100 07:22 15.03.2020
6513 Clouds 4 1017 75 10000 2.6 190 06:44 15.03.2020
6514 Clouds 4 1017 75 10000 3.1 180 05:49 15.03.2020
6515 Clouds 5 1018 84 10000 2.6 140 04:57 15.03.2020
6516 Clouds 5 1018 75 10000 3.6 170 04:39 15.03.2020
6517 Clouds 4 1018 75 10000 1.5 150 04:20 15.03.2020
6518 Clouds 5 1018 84 10000 5.7 140 03:24 15.03.2020
6519 Clouds 5 1019 70 10000 3.1 170 02:28 15.03.2020
6520 Clouds 5 1019 80 10000 2.19 142 01:19 15.03.2020
6521 Clouds 5 1019 75 10000 2.6 160 00:42 15.03.2020
6522 Clouds 5 1020 80 10000 1.5 90 00:19 15.03.2020
6523 Clouds 6 1020 75 10000 2.6 180 23:41 14.03.2020
6524 Clouds 5 1020 75 10000 1.98 163 23:20 14.03.2020
6525 Clouds 5 1020 80 10000 4.1 140 22:57 14.03.2020
6526 Clouds 5 1020 75 10000 3.1 160 22:38 14.03.2020
6527 Clouds 5 1020 75 10000 1.98 163 22:20 14.03.2020
6528 Clouds 5 1020 90 10000 4.1 170 21:56 14.03.2020
6529 Clouds 5 1020 75 10000 2.6 150 21:36 14.03.2020
6530 Clouds 6 1020 75 10000 1.5 130 21:18 14.03.2020
6531 Clouds 6 1020 80 10000 3.1 170 20:58 14.03.2020
6532 Rain 6 1021 70 10000 1.5 140 20:39 14.03.2020
6533 Clear 6 1021 70 10000 1.5 150 20:18 14.03.2020
6534 Rain 6 1020 75 10000 2.6 180 19:42 14.03.2020
6535 Clouds 6 1020 80 10000 3.1 160 19:24 14.03.2020
6536 Clouds 7 1020 70 10000 3.1 170 18:41 14.03.2020
6537 Clouds 7 1020 65 10000 3.1 190 18:23 14.03.2020
6538 Clouds 8 1020 65 10000 3.6 190 17:56 14.03.2020
6539 Clouds 8 1020 70 10000 4.6 150 17:38 14.03.2020
6540 Clouds 8 1020 61 10000 5.1 190 17:20 14.03.2020
6541 Clouds 8 1020 65 10000 3.6 190 16:40 14.03.2020
6542 Clouds 8 1020 61 10000 3.6 190 16:22 14.03.2020
6543 Clouds 8 1020 75 10000 2.1 150 15:56 14.03.2020
6544 Clouds 8 1020 61 10000 3.6 190 15:26 14.03.2020
6545 Rain 8 1020 61 10000 3.1 130 14:58 14.03.2020
6546 Clouds 8 1020 70 10000 4.1 180 14:36 14.03.2020
6547 Clouds 8 1020 65 10000 4.6 220 14:18 14.03.2020
6548 Clouds 8 1020 61 10000 4.6 200 13:42 14.03.2020
6549 Clouds 8 1021 65 10000 3.1 190 13:23 14.03.2020
6550 Clouds 7 1021 75 10000 2.6 170 12:55 14.03.2020
6551 Clouds 7 1021 75 10000 2.6 170 12:37 14.03.2020
6552 Clouds 7 1021 70 10000 4.1 200 12:19 14.03.2020
6553 Clouds 7 1021 81 10000 3.07 218 11:40 14.03.2020
6554 Clouds 6 1021 81 10000 1.65 171 11:20 14.03.2020
6555 Clouds 5 1021 86 10000 1.65 171 10:46 14.03.2020
6556 Clouds 5 1021 93 10000 1.65 171 10:27 14.03.2020
6557 Clouds 4 1020 93 10000 3.6 140 09:58 14.03.2020
6558 Clouds 4 1021 86 10000 2.1 120 09:40 14.03.2020
6559 Clouds 4 1021 93 10000 1.65 171 09:20 14.03.2020
6560 Clouds 3 1021 86 10000 0.5 0 08:46 14.03.2020
6561 Clouds 3 1020 100 10000 3.1 140 08:26 14.03.2020
6562 Clouds 2 1020 86 10000 0.5 0 07:40 14.03.2020
6563 Clear 2 1020 93 10000 1.02 123 07:21 14.03.2020
6564 Clouds 1 1020 86 10000 0.5 0 06:45 14.03.2020
6565 Clouds 1 1020 86 10000 0.5 0 06:45 14.03.2020
6566 Clouds 1 1020 93 10000 1.02 123 06:26 14.03.2020
6567 Mist 1 1020 92 3200 1.01 137 04:53 14.03.2020
6568 Clouds 1 1020 93 10000 1.5 200 03:34 14.03.2020
6569 Clouds 1 1020 93 10000 1.5 200 03:34 14.03.2020
6570 Clouds 1 1021 86 10000 0.5 240 02:48 14.03.2020
6571 Mist 1 1021 92 6000 0.57 84 01:46 14.03.2020
6572 Clouds 2 1020 86 10000 2.1 0 00:34 14.03.2020
6573 Clouds 2 1021 80 10000 1 0 23:42 13.03.2020
6574 Clouds 2 1021 93 10000 2.1 250 23:23 13.03.2020
6575 Clouds 3 1021 86 10000 3.1 330 22:45 13.03.2020
6576 Clouds 3 1020 93 10000 4.1 260 22:22 13.03.2020
6577 Clouds 4 1021 80 10000 3.6 340 21:41 13.03.2020
6578 Clouds 4 1021 93 10000 2.1 250 21:19 13.03.2020
6579 Clouds 4 1021 75 10000 1.5 20 20:43 13.03.2020
6580 Clouds 5 1020 86 10000 4.6 250 20:23 13.03.2020
6581 Clouds 5 1020 86 10000 3.1 250 19:59 13.03.2020
6582 Clouds 5 1021 93 10000 2.6 250 19:40 13.03.2020
6583 Clouds 6 1020 86 10000 5.1 210 19:22 13.03.2020
6584 Rain 6 1020 70 10000 4.6 260 18:44 13.03.2020
6585 Rain 6 1020 86 10000 4.6 210 18:25 13.03.2020
6586 Rain 7 1020 93 10000 5.7 230 17:43 13.03.2020
6587 Rain 8 1020 70 10000 7.2 220 17:22 13.03.2020
6588 Clouds 8 1019 75 10000 6.2 260 16:59 13.03.2020
6589 Clouds 8 1020 75 10000 5.7 260 16:39 13.03.2020
6590 Clouds 8 1020 75 10000 4.1 230 16:21 13.03.2020
6591 Clouds 8 1019 86 10000 5.1 260 15:54 13.03.2020
6592 Clouds 8 1020 70 10000 4.1 230 15:36 13.03.2020
6593 Clouds 7 1020 81 10000 4.1 240 15:18 13.03.2020
6594 Clouds 7 1020 80 10000 4.6 250 14:40 13.03.2020
6595 Rain 7 1019 75 10000 7.7 270 14:22 13.03.2020
6596 Clouds 7 1020 70 10000 7.2 220 13:55 13.03.2020
6597 Clouds 7 1020 70 10000 7.2 220 13:37 13.03.2020
6598 Clouds 7 1020 65 10000 8.7 230 13:18 13.03.2020
6599 Clouds 6 1020 70 10000 6.7 230 12:40 13.03.2020
6600 Rain 6 1020 81 10000 5.1 230 12:21 13.03.2020
6601 Rain 6 1020 75 10000 8.2 220 11:57 13.03.2020
6602 Clouds 6 1018 80 10000 8.7 260 11:37 13.03.2020
6603 Clouds 6 1019 80 10000 6.7 220 11:19 13.03.2020
6604 Clouds 5 1019 75 10000 8.2 240 10:47 13.03.2020
6605 Clouds 5 1018 82 10000 7.7 260 10:26 13.03.2020
6606 Clouds 5 1018 82 10000 7.2 260 09:57 13.03.2020
6607 Clouds 5 1018 75 10000 8.7 220 09:38 13.03.2020
6608 Clouds 4 1018 80 10000 7.2 230 09:20 13.03.2020
6609 Clouds 4 1019 80 10000 6.7 240 08:44 13.03.2020
6610 Clouds 4 1017 80 10000 7.7 230 08:22 13.03.2020
6611 Clouds 4 1018 86 10000 7.2 250 07:47 13.03.2020
6612 Clouds 3 1016 85 10000 7.2 240 07:28 13.03.2020
6613 Rain 3 1017 86 10000 5.1 230 06:47 13.03.2020
6614 Clouds 3 1015 85 10000 7.7 250 06:28 13.03.2020
6615 Clouds 3 1017 85 10000 7.2 250 05:53 13.03.2020
6616 Clouds 3 1016 88 10000 5.7 230 05:20 13.03.2020
6617 Clouds 3 1017 88 10000 6.7 260 04:37 13.03.2020
6618 Clouds 3 1016 88 10000 6.2 250 03:37 13.03.2020
6619 Clouds 3 1016 85 10000 6.2 250 01:46 13.03.2020
6620 Clouds 4 1015 74 10000 4.6 230 01:19 13.03.2020
6621 Clouds 4 1016 84 10000 6.2 250 00:53 13.03.2020
6622 Clouds 5 1015 69 10000 5.1 230 00:24 13.03.2020
6623 Clouds 5 1016 84 10000 7.2 260 23:50 12.03.2020
6624 Clouds 5 1015 84 10000 6.7 240 23:27 12.03.2020
6625 Clouds 5 1014 86 10000 7.7 250 22:56 12.03.2020
6626 Clouds 6 1014 86 10000 7.7 250 22:38 12.03.2020
6627 Rain 6 1014 75 10000 6.7 230 22:20 12.03.2020
6628 Clouds 6 1014 75 10000 3.6 220 21:44 12.03.2020
6629 Rain 6 1013 80 10000 4.6 250 21:26 12.03.2020
6630 Rain 6 1013 80 10000 5.7 250 20:57 12.03.2020
6631 Rain 6 1015 86 10000 4.1 220 20:38 12.03.2020
6632 Clear 6 1014 80 10000 4.6 220 20:19 12.03.2020
6633 Rain 6 1014 81 10000 4.1 240 19:40 12.03.2020
6634 Clear 6 1014 75 10000 5.1 220 19:20 12.03.2020
6635 Clouds 7 1014 81 10000 6.7 250 18:44 12.03.2020
6636 Clear 7 1013 65 10000 5.7 230 18:24 12.03.2020
6637 Clouds 8 1013 65 10000 5.1 220 17:57 12.03.2020
6638 Clouds 8 1012 70 10000 6.2 250 17:38 12.03.2020
6639 Clouds 8 1013 61 10000 6.7 220 17:20 12.03.2020
6640 Rain 8 1014 87 10000 5.1 270 16:55 12.03.2020
6641 Rain 8 1014 87 10000 5.1 270 16:37 12.03.2020
6642 Clouds 9 1013 65 10000 6.2 220 16:18 12.03.2020
6643 Clouds 8 1013 70 10000 7.7 230 15:45 12.03.2020
6644 Clouds 8 1012 70 10000 7.2 270 15:26 12.03.2020
6645 Clouds 9 1014 70 10000 6.7 260 14:41 12.03.2020
6646 Clouds 9 1013 65 10000 8.2 270 14:23 12.03.2020
6647 Clouds 9 1013 61 10000 9.8 270 13:57 12.03.2020
6648 Clouds 9 1014 57 10000 6.7 230 13:36 12.03.2020
6649 Clouds 9 1014 57 10000 7.2 250 13:18 12.03.2020
6650 Clouds 8 1014 73 10000 8.2 230 12:41 12.03.2020
6651 Clouds 9 1014 57 10000 7.2 240 12:22 12.03.2020
6652 Clouds 9 1014 70 10000 6.7 260 11:57 12.03.2020
6653 Clouds 9 1014 75 10000 5.7 270 11:38 12.03.2020
6654 Clouds 9 1014 75 10000 6.7 250 11:20 12.03.2020
6655 Clouds 9 1012 87 10000 9.3 270 10:59 12.03.2020
6656 Clouds 9 1013 81 10000 8.7 260 10:40 12.03.2020
6657 Rain 9 1012 87 10000 10.3 270 10:22 12.03.2020
6658 Rain 9 1013 93 10000 6.7 230 09:47 12.03.2020
6659 Rain 9 1011 87 10000 10.8 270 09:28 12.03.2020
6660 Rain 9 1012 87 10000 9.3 260 08:46 12.03.2020
6661 Rain 9 1011 100 6000 8.2 260 08:21 12.03.2020
6662 Rain 9 1012 87 2000 9.3 250 07:59 12.03.2020
6663 Drizzle 9 1011 87 10000 7.2 220 07:41 12.03.2020
6664 Rain 9 1010 100 10000 8.2 210 07:21 12.03.2020
6665 Rain 9 1010 100 10000 8.2 210 07:21 12.03.2020
6666 Rain 10 1011 81 10000 8.7 220 05:57 12.03.2020
6667 Clouds 10 1011 81 10000 8.7 220 05:27 12.03.2020
6668 Rain 11 1013 76 10000 8.2 240 02:47 12.03.2020
6669 Rain 11 1013 87 10000 8.2 240 01:39 12.03.2020
6670 Clouds 11 1012 81 10000 8.2 220 01:20 12.03.2020
6671 Rain 11 1013 81 10000 7.2 220 00:41 12.03.2020
6672 Clouds 11 1013 81 10000 8.7 220 23:56 11.03.2020
6673 Clear 11 1013 81 10000 8.7 210 23:27 11.03.2020
6674 Clouds 12 1014 81 10000 6.2 220 22:58 11.03.2020
6675 Clouds 12 1014 81 10000 6.2 220 22:39 11.03.2020
6676 Clouds 12 1014 87 10000 8.2 220 22:21 11.03.2020
6677 Clouds 12 1014 81 10000 7.7 240 21:56 11.03.2020
6678 Clouds 12 1015 81 10000 6.7 220 21:37 11.03.2020
6679 Clouds 12 1014 87 10000 9.8 220 21:19 11.03.2020
6680 Clouds 12 1014 87 10000 6.7 230 20:55 11.03.2020
6681 Clouds 12 1015 81 10000 6.7 220 20:36 11.03.2020
6682 Clouds 12 1015 93 10000 6.2 220 20:18 11.03.2020
6683 Clouds 12 1016 81 10000 5.7 220 19:42 11.03.2020
6684 Rain 12 1015 87 10000 5.7 240 19:24 11.03.2020
6685 Drizzle 12 1015 87 8000 6.2 240 18:57 11.03.2020